ECMWFFLT1_sfc_thetae_000.txt.gz
Theta_e
322 318 322 321 326 327 323 324 327 329 327 325 328 325 326 323 325 326 325 326 326 324 325 326 328 329 331 331 332 334 334 333 332 330 328 330 327 326 330 329 328 329 327 326 325 320 317 318 320 326 327 327 326 325 325 324 325 324 326 326 327 327 327
319 320 319 319 322 321 325 323 325 323 325 326 325 325 326 326 326 326 326 324 324 325 323 323 325 327 329 329 330 333 333 333 333 332 330 329 329 327 327 326 327 326 327 326 326 324 320 315 317 320 322 326 327 328 326 326 326 326 325 327 326 327 328
320 319 322 318 322 321 322 323 324 324 328 326 326 325 322 323 325 324 323 323 322 322 324 323 323 324 325 325 325 327 331 332 332 332 330 330 330 329 329 327 324 324 325 323 324 323 321 320 317 317 324 323 320 323 328 326 326 326 326 328 327 326 325
321 320 321 316 321 320 320 319 322 324 327 327 329 325 324 324 324 325 324 322 322 323 322 322 322 322 323 325 328 328 327 331 331 331 330 329 329 328 329 328 326 324 322 320 320 322 322 320 320 320 323 324 321 321 325 327 325 326 325 328 326 325 325
320 320 319 317 319 317 320 321 321 323 321 325 326 325 323 325 325 323 323 323 321 322 321 322 322 322 323 323 324 325 325 326 330 331 330 329 328 328 328 329 328 327 326 324 324 324 324 321 324 322 323 324 324 324 327 327 328 326 325 325 327 327 326
320 320 319 320 318 319 318 318 321 319 322 318 319 324 323 321 324 321 321 321 321 322 322 322 321 322 322 322 322 322 322 324 325 329 330 328 329 327 327 329 329 328 327 327 327 327 329 331 329 324 327 330 322 322 328 330 326 327 326 326 328 328 328
320 321 320 318 319 319 319 319 318 319 320 321 320 320 322 322 320 321 320 318 318 318 319 319 320 320 320 320 320 320 320 322 324 324 326 329 329 329 329 328 328 329 328 328 328 328 326 326 324 323 321 323 323 323 328 329 328 324 325 327 327 328 327
320 319 320 319 319 319 321 320 319 320 318 319 319 321 321 321 320 319 319 318 317 317 317 317 319 318 319 319 318 319 320 321 321 323 323 324 327 328 327 328 328 329 328 329 329 328 328 326 325 324 322 319 320 323 322 328 325 325 325 324 327 326 327
318 318 317 319 319 320 320 319 319 319 319 319 320 320 320 320 319 318 318 316 316 316 315 315 316 316 317 317 317 318 318 321 320 321 321 322 323 326 328 329 327 328 329 329 329 329 328 328 327 325 325 323 318 315 321 320 323 324 330 326 327 326 326
318 317 317 318 318 319 320 320 319 319 320 320 320 319 319 319 319 318 316 315 315 314 313 313 313 314 314 316 316 317 318 319 319 320 321 321 322 323 325 327 327 326 326 329 329 329 329 329 328 327 327 325 324 319 316 316 318 319 326 326 321 323 326
316 317 318 318 318 318 318 318 318 318 318 319 318 320 319 317 317 315 314 313 313 313 313 312 312 312 313 313 313 314 316 317 317 318 319 320 321 322 322 325 328 328 328 328 328 329 329 329 328 328 328 329 328 322 320 316 316 322 323 327 326 324 325
316 316 317 318 317 316 315 316 317 317 318 318 317 316 316 315 315 315 314 312 312 311 311 311 311 310 311 311 311 312 313 315 315 315 317 319 320 321 321 321 325 328 329 327 327 329 328 329 328 328 328 329 328 326 323 322 316 321 326 322 325 328 327
314 314 315 315 315 314 314 315 316 316 316 316 316 315 314 313 311 311 311 311 309 309 309 309 309 309 309 309 310 310 310 312 312 313 315 317 318 319 319 320 321 324 329 329 328 328 328 329 329 328 328 328 327 328 327 324 320 318 325 327 326 327 329
314 314 315 315 314 314 315 315 315 316 316 314 315 313 311 309 308 309 308 308 307 307 307 307 308 308 307 307 308 309 309 309 309 310 312 313 315 316 317 317 318 320 323 326 327 326 325 326 329 329 327 326 326 327 326 324 320 319 322 327 326 327 328
315 314 314 314 314 313 314 314 315 315 313 313 313 310 308 309 309 308 306 306 306 306 306 306 307 307 306 306 306 308 308 307 307 308 309 310 312 313 314 315 316 318 320 320 325 325 325 325 325 327 327 326 324 325 327 323 321 319 318 323 323 326 325
314 314 314 313 313 313 313 314 313 312 312 311 311 310 309 309 308 307 306 306 306 305 306 306 306 306 305 305 304 305 306 306 306 306 306 307 309 310 311 313 314 316 320 319 320 323 325 324 324 324 325 326 325 325 326 325 322 319 318 319 324 324 323
314 313 313 313 313 313 313 313 313 312 311 312 310 310 309 308 307 306 306 305 305 305 305 306 306 305 305 304 304 304 304 305 305 305 305 306 306 308 309 310 312 315 317 317 319 319 320 324 324 323 324 326 326 325 325 325 324 321 320 318 323 322 321
313 313 313 313 313 313 313 313 313 310 311 310 309 309 308 308 307 306 305 304 304 304 305 305 305 305 305 305 304 304 304 303 304 304 305 305 306 306 307 308 310 313 314 315 316 318 319 319 322 324 324 325 326 326 325 324 324 322 320 318 319 321 320
313 312 312 313 313 313 313 312 312 312 310 309 308 308 308 306 306 304 304 304 304 304 304 304 304 304 304 304 304 304 303 303 303 303 304 305 305 306 306 307 309 311 312 313 315 316 318 319 320 324 325 325 325 325 324 324 324 322 321 319 319 317 320
312 312 312 313 313 312 311 311 310 309 310 309 308 307 306 305 305 304 304 304 303 303 303 303 303 303 303 303 303 303 302 302 303 303 303 304 304 305 306 306 307 309 311 312 314 315 316 318 319 320 323 323 323 324 321 322 322 322 321 319 320 318 317
313 312 313 313 312 312 311 312 311 311 310 309 307 305 304 304 304 304 304 303 304 303 303 302 302 302 302 302 302 302 302 302 302 302 303 303 304 304 305 306 307 308 309 311 313 315 316 316 317 318 320 323 324 323 322 321 321 321 321 320 318 318 317
312 312 312 311 311 310 310 310 311 310 309 307 306 305 304 304 303 303 303 304 303 303 303 303 303 303 302 302 302 302 302 302 302 302 302 303 304 304 305 306 306 307 309 309 307 307 308 309 315 316 317 319 321 322 320 321 321 320 319 319 318 318 317
311 311 311 310 309 309 309 310 309 308 306 305 305 304 303 303 303 302 302 302 302 303 303 303 302 300 299 302 302 301 301 301 301 301 302 302 303 304 305 305 307 307 306 305 304 302 301 301 302 307 312 314 315 319 320 320 320 320 319 317 316 315 313
310 309 309 309 309 308 307 308 309 307 306 305 304 303 303 302 302 302 301 301 301 302 302 302 298 296 295 296 299 300 300 300 300 300 300 300 300 301 303 305 306 306 306 305 305 301 300 300 300 300 301 303 306 312 314 318 318 319 317 318 319 317 314
309 308 308 307 307 307 308 307 306 305 304 303 304 304 303 301 301 301 301 300 300 300 301 299 295 295 295 295 296 299 300 300 300 300 300 300 300 300 301 302 304 306 307 307 308 308 305 302 300 300 299 299 300 299 301 310 315 317 318 317 318 318 316
307 307 307 307 309 309 307 306 304 304 303 304 305 302 301 301 300 300 300 299 298 299 299 297 295 295 294 293 293 295 297 299 299 299 299 299 299 299 300 300 301 303 306 306 308 308 309 309 304 301 301 301 301 300 298 297 301 314 320 319 319 319 318
306 307 309 309 308 306 305 304 305 304 303 304 304 302 301 300 300 300 299 299 298 298 298 297 294 294 294 293 293 293 296 297 297 298 298 298 299 299 299 299 299 300 302 304 305 308 309 309 310 310 309 308 310 309 302 300 298 297 306 318 319 318 320
306 307 307 306 306 304 305 305 303 303 303 303 302 300 299 299 299 300 299 299 298 297 298 295 293 293 293 292 292 293 296 296 296 296 297 297 298 298 299 299 299 299 300 301 303 304 307 309 310 311 312 312 312 312 312 312 311 308 306 312 318 321 322
308 307 306 305 304 303 304 303 302 304 303 302 302 301 300 300 299 299 298 298 297 296 297 294 293 292 292 292 292 295 295 296 296 296 296 297 297 297 298 298 298 298 299 300 299 297 298 301 304 306 309 312 313 314 315 311 308 309 312 313 314 318 322
307 307 305 304 303 304 303 303 302 303 301 301 300 299 298 298 298 298 297 297 296 296 296 295 293 292 292 292 292 294 295 295 295 294 295 296 296 297 297 297 298 298 298 299 297 295 295 296 301 303 305 307 311 314 314 318 308 303 303 304 306 307 308
304 304 304 303 304 304 304 303 301 301 300 298 298 298 298 298 298 298 297 296 296 295 295 295 293 292 292 292 293 293 294 294 294 294 294 295 296 296 297 298 299 298 297 298 296 294 294 296 299 301 303 305 307 310 313 309 306 301 300 301 302 305 305
307 306 305 304 305 303 302 302 301 301 300 299 298 297 297 296 296 296 296 296 297 295 294 294 293 292 292 292 293 294 294 293 292 293 293 293 295 296 296 297 298 297 297 297 294 294 294 296 298 300 302 305 306 308 311 308 307 306 307 307 307 308 304
307 306 305 304 304 303 302 301 301 299 299 298 296 296 296 296 295 295 295 295 294 294 293 293 294 292 292 292 292 293 294 292 292 292 293 293 293 294 295 296 296 294 292 293 293 293 293 293 296 298 300 302 306 307 312 310 310 310 309 310 310 309 307
305 305 304 304 303 302 301 300 300 299 298 297 296 295 295 295 295 294 294 294 293 293 293 293 293 292 291 291 291 291 292 292 292 292 292 292 293 293 294 295 296 295 293 292 292 292 293 293 294 297 298 298 301 304 304 311 306 302 307 304 303 303 302
305 305 305 304 302 301 301 300 300 297 296 295 295 294 294 294 293 293 293 293 292 292 293 294 293 292 291 291 291 291 291 292 293 293 292 292 293 293 294 295 295 295 293 292 292 292 292 293 293 296 297 295 295 295 302 308 307 305 303 302 301 300 300
303 303 303 303 301 299 300 300 299 298 297 295 294 293 293 292 292 291 291 291 291 291 292 293 292 292 291 291 291 290 290 291 291 293 292 291 292 293 294 295 296 295 293 292 292 292 292 292 293 295 294 293 293 294 296 306 302 304 302 301 300 299 298
305 305 303 302 300 299 299 299 297 296 296 294 292 291 291 292 291 290 289 289 290 290 291 291 291 291 291 290 290 290 290 290 290 291 292 292 292 293 293 295 295 294 293 293 292 292 292 292 294 293 293 293 293 294 301 304 302 302 298 298 298 298 298

ECMWFFLT1_sfc_thetae_003.txt.gz
Theta_e
308 310 311 310 314 315 313 313 313 316 315 317 315 315 317 317 318 317 317 318 319 320 322 319 318 320 323 325 326 326 328 327 326 326 326 328 326 325 328 327 327 328 328 326 327 322 320 314 316 322 325 325 324 324 323 322 323 323 323 325 326 326 325
311 312 313 313 311 314 312 312 312 314 313 315 316 317 317 318 320 318 316 316 317 317 321 319 319 320 319 319 320 320 324 326 326 327 327 326 327 326 324 324 325 325 326 326 328 326 319 316 315 316 318 323 324 323 322 323 323 323 323 325 326 326 325
313 312 311 310 310 309 311 311 312 311 314 315 314 314 311 316 316 316 315 315 315 317 319 317 318 318 318 318 319 320 321 322 327 328 328 329 329 328 327 325 322 322 322 322 322 323 322 321 316 317 317 318 318 320 324 323 322 323 323 324 325 325 324
311 310 308 309 309 309 310 310 311 312 315 317 317 313 313 315 315 318 314 314 316 317 316 316 316 317 318 318 318 318 318 319 321 326 326 326 327 327 327 325 324 323 320 319 320 321 320 318 317 317 318 319 319 319 321 325 325 324 324 324 325 324 324
311 309 307 307 310 308 310 309 310 311 311 313 313 315 313 314 316 313 315 314 315 314 314 315 316 317 317 317 317 317 317 318 319 322 325 325 326 326 326 326 325 325 323 321 321 321 320 319 318 317 317 320 322 323 325 325 328 326 324 323 325 325 324
310 309 309 307 310 308 308 309 309 308 310 311 310 313 312 313 312 311 312 312 311 312 312 313 313 315 315 314 315 316 316 316 316 317 318 322 325 325 325 327 325 325 325 325 323 322 321 321 319 317 319 322 318 321 326 326 323 328 328 326 324 325 325
310 310 310 310 310 310 309 308 310 307 309 310 311 309 313 311 311 312 311 310 311 311 312 311 312 312 314 314 314 314 314 315 316 315 316 317 321 325 326 325 325 326 327 327 325 323 322 321 320 318 317 319 321 320 323 326 326 324 328 328 326 325 325
311 311 310 311 310 310 310 310 308 309 308 309 308 310 312 310 311 310 311 310 311 310 310 310 312 311 311 313 313 314 314 315 315 315 315 316 317 320 323 325 326 326 326 327 327 325 324 323 322 322 320 316 315 317 318 323 322 323 323 328 328 325 325
313 312 311 311 310 309 309 309 309 308 308 308 309 310 311 310 310 310 311 310 310 310 310 310 309 308 309 309 310 311 311 315 314 314 315 315 315 316 317 321 323 323 324 325 326 326 326 325 324 322 321 319 315 312 314 314 316 320 328 326 329 331 329
311 310 309 308 310 310 309 308 308 309 308 308 310 310 309 309 310 309 309 309 309 309 308 308 308 308 308 308 309 308 309 310 311 311 313 314 314 315 316 317 319 323 324 325 325 325 326 325 325 324 323 321 319 314 312 311 312 314 322 326 322 326 329
310 309 309 309 309 309 308 308 308 308 308 309 309 312 309 308 309 314 308 308 308 308 308 307 308 307 307 306 307 307 309 309 309 310 311 312 313 314 315 315 316 318 322 324 324 325 325 325 325 325 324 323 321 317 315 312 312 316 317 322 325 324 326
309 309 309 309 309 308 308 307 307 307 308 308 308 306 307 307 307 307 307 306 306 306 306 305 306 305 305 304 305 306 307 307 307 307 308 309 311 313 313 314 315 315 318 321 323 324 324 325 325 326 325 324 322 321 318 316 313 317 320 319 322 327 327
309 308 308 309 308 308 308 308 307 307 307 307 306 307 306 306 306 305 305 305 305 305 305 305 304 304 304 303 304 305 305 305 306 305 306 308 309 310 310 310 311 313 315 318 322 324 324 325 326 325 325 324 323 323 322 319 316 315 321 321 321 323 326
308 308 308 308 308 307 308 308 306 306 307 306 306 306 305 304 304 304 304 304 304 303 303 303 303 303 303 303 303 303 303 304 304 304 305 305 306 307 308 308 309 311 312 312 315 320 323 325 325 325 325 325 323 324 322 320 317 317 320 321 321 322 326
308 308 307 307 307 307 307 306 306 306 304 305 305 304 304 303 304 304 303 302 302 302 303 302 302 302 303 302 301 304 304 303 303 303 304 304 304 306 305 305 306 307 310 310 312 314 319 322 324 324 324 324 323 323 324 321 320 318 317 317 320 322 323
308 307 307 307 307 307 307 306 307 305 304 304 305 304 304 303 304 303 302 302 301 301 302 302 302 302 302 301 301 302 303 302 302 303 303 304 304 304 303 304 304 305 307 308 309 311 313 316 321 321 322 325 324 324 323 322 320 317 317 318 320 320 320
307 307 307 306 306 306 306 306 307 305 305 305 305 305 304 303 303 302 302 301 301 301 301 301 301 302 302 301 301 302 302 302 302 302 303 303 304 304 303 303 303 304 305 305 306 308 310 313 315 320 320 321 323 323 323 322 322 320 318 317 318 320 320
307 307 306 306 306 306 306 306 306 305 305 304 304 303 304 304 302 302 302 301 300 300 300 301 300 300 301 301 301 302 302 302 303 303 303 304 304 304 304 304 304 304 304 303 304 305 308 309 312 314 318 319 319 320 322 322 321 321 320 318 318 319 320
307 306 306 306 306 306 306 305 305 305 305 304 303 303 302 302 303 301 300 300 299 299 300 300 300 300 300 301 301 301 302 302 303 303 303 303 303 304 304 304 304 304 304 303 303 305 306 307 310 312 313 316 319 319 319 321 321 321 320 320 319 317 317
307 307 307 306 306 306 306 305 305 304 305 303 302 301 301 300 300 301 300 299 299 299 299 300 299 300 300 300 301 301 302 302 302 303 303 303 303 303 303 303 304 304 304 303 303 304 304 305 308 309 312 313 316 319 319 319 319 320 320 319 319 318 317
307 307 307 306 306 306 305 304 304 303 303 301 301 300 300 300 299 300 299 299 300 300 299 299 299 299 300 300 301 301 302 302 302 302 302 303 303 303 303 303 303 304 304 305 304 304 304 304 306 307 310 311 312 315 317 317 317 317 319 319 318 317 317
307 307 307 306 305 304 304 303 302 302 301 300 302 301 301 300 299 298 298 299 299 299 300 300 300 300 299 299 300 301 301 302 302 301 301 302 303 303 303 303 303 303 305 305 303 303 303 303 304 303 304 305 306 307 310 314 316 316 316 315 316 317 315
306 306 306 305 304 303 302 302 301 300 300 300 299 300 299 299 298 298 298 297 297 299 299 300 301 299 298 299 299 300 300 300 300 300 300 300 300 301 301 301 303 304 303 302 301 300 299 299 301 303 304 304 304 304 305 307 312 316 317 316 317 317 315
305 305 304 303 302 302 302 302 300 300 299 299 298 298 299 297 297 297 297 296 296 297 298 299 297 294 294 295 296 297 297 297 297 298 298 299 299 299 300 300 301 302 302 301 302 299 298 297 298 298 298 299 301 302 302 302 304 309 314 316 316 315 314
304 303 303 302 301 301 300 300 299 298 298 298 298 298 297 297 296 296 297 296 295 296 296 298 295 294 294 294 295 296 295 295 295 295 296 296 297 298 299 300 300 301 301 301 301 302 301 299 297 296 296 297 297 297 298 301 303 304 308 312 315 315 314
303 302 302 301 301 300 299 299 297 297 297 297 297 296 295 296 295 295 295 294 294 296 296 296 294 294 294 293 293 294 295 294 294 294 294 295 295 296 296 297 298 300 300 301 303 301 301 301 300 299 298 297 297 297 296 294 296 303 306 307 311 314 315
302 301 300 300 299 298 298 296 296 296 296 296 294 294 294 295 294 294 294 294 295 295 296 296 294 294 294 293 292 293 294 294 294 294 294 294 294 294 295 295 296 296 298 300 300 300 300 300 300 301 302 304 305 304 300 298 295 294 299 305 307 309 313
300 299 298 298 297 296 296 295 296 295 295 294 292 293 293 293 292 294 294 294 294 295 296 295 293 293 293 292 292 292 292 293 293 293 293 294 294 295 295 295 295 295 296 297 299 299 299 299 299 299 300 301 302 303 304 306 308 306 301 301 305 308 310
299 298 298 297 296 296 295 295 295 295 294 292 293 292 292 293 292 291 293 293 293 293 294 293 292 292 292 291 291 293 292 292 292 292 292 293 294 294 295 295 295 295 296 296 296 294 296 298 298 298 297 298 298 300 301 301 301 302 306 308 306 306 309
298 297 297 296 295 295 295 295 294 293 292 291 291 292 292 292 292 291 292 292 292 292 292 293 292 292 291 291 291 292 291 291 292 292 292 293 294 294 295 295 294 295 295 296 295 293 293 294 296 296 296 296 297 297 298 301 300 299 299 298 299 300 300
298 297 296 296 294 294 294 292 292 292 292 290 290 291 291 290 290 291 291 292 292 292 292 293 292 291 291 291 292 291 291 291 290 290 291 292 293 293 294 296 297 295 295 295 294 293 292 294 295 296 296 296 295 295 297 299 302 304 302 301 298 297 298
297 296 295 295 294 293 292 292 292 292 291 290 291 290 291 289 289 290 291 292 296 294 292 292 292 291 291 291 292 291 290 290 289 290 290 290 291 292 292 294 295 295 295 295 293 292 292 294 295 296 296 296 295 294 296 297 300 302 306 307 308 306 302
295 296 295 294 294 293 292 291 291 290 289 289 290 289 290 289 288 289 290 291 292 292 291 291 292 291 291 291 291 291 291 290 289 289 290 290 290 291 292 292 294 292 291 291 291 291 292 292 294 296 296 295 294 294 296 298 301 304 304 305 307 309 308
295 294 294 293 292 292 292 291 291 290 289 288 288 288 288 288 288 289 290 290 290 291 292 291 291 291 291 291 291 291 290 290 290 290 289 289 290 290 290 291 293 293 291 291 291 291 291 291 292 295 295 295 295 296 296 297 298 296 301 301 303 306 308
295 296 294 294 292 291 291 291 291 289 288 287 287 287 287 287 288 288 289 289 290 290 291 293 291 291 291 291 291 290 290 290 290 289 289 289 289 289 290 291 292 293 292 291 291 291 291 291 291 294 295 293 293 292 294 296 296 298 299 299 301 302 305
295 297 295 294 292 292 291 291 290 289 288 286 287 286 285 286 286 287 287 288 289 289 290 291 292 291 290 290 290 290 289 289 289 289 288 288 288 289 290 291 292 292 291 291 291 291 291 291 291 293 292 292 292 291 292 294 294 295 296 297 298 300 302
295 294 294 294 293 291 290 290 289 290 287 286 286 284 284 286 285 286 286 287 288 288 289 289 290 290 290 289 289 289 289 288 289 289 289 289 289 289 290 290 291 290 290 291 291 291 291 291 292 291 291 291 291 291 293 293 293 294 293 295 296 299 301

ECMWFFLT1_sfc_thetae_006.txt.gz
Theta_e
307 305 307 308 307 310 307 309 311 312 313 312 311 313 313 317 314 314 313 313 314 316 318 316 315 316 317 318 318 318 320 322 322 323 322 324 324 324 326 325 325 326 325 323 322 317 313 310 313 317 320 322 321 323 323 322 322 323 323 324 325 326 326
306 308 309 311 310 310 308 310 310 311 310 313 313 313 312 315 316 313 311 312 312 314 316 316 315 316 315 315 316 316 316 318 321 322 323 325 326 325 325 325 326 325 325 324 324 323 318 313 314 315 316 319 321 322 322 322 322 322 324 324 325 326 327
309 308 307 308 308 307 307 307 308 309 309 311 310 309 310 313 312 312 311 310 310 314 316 312 313 314 314 314 314 314 314 314 316 319 321 323 324 325 325 325 323 322 323 322 322 322 321 319 316 315 315 316 315 318 321 322 322 321 321 323 324 325 325
308 308 306 306 307 306 306 306 307 307 310 310 310 310 310 311 312 314 309 311 312 314 313 312 311 312 313 313 313 313 313 313 313 315 316 319 322 323 325 325 324 324 323 320 320 321 320 317 316 317 318 318 316 316 319 323 324 323 322 321 321 323 324
309 308 306 307 306 307 307 307 307 308 309 310 310 309 310 310 311 310 311 310 312 310 310 310 311 311 311 311 311 312 312 312 312 314 312 314 315 318 321 324 324 324 324 323 323 321 320 320 319 317 316 318 318 318 321 322 325 326 325 322 322 322 323
309 309 307 307 306 307 307 307 307 307 307 309 308 309 309 309 309 307 307 306 306 309 308 309 309 310 310 310 310 310 310 310 311 311 311 312 313 314 316 320 323 323 323 324 324 321 321 322 320 317 318 318 315 316 319 322 321 324 326 325 325 324 323
308 308 307 307 307 306 308 306 307 306 307 308 307 309 310 308 309 310 308 307 307 307 309 308 308 308 308 308 308 308 309 310 310 310 310 311 312 313 315 317 319 322 324 324 323 323 322 320 319 317 316 315 316 316 317 319 322 321 323 325 326 324 324
309 307 307 307 308 306 307 307 307 306 306 307 308 308 310 308 308 306 306 306 307 306 307 306 308 306 306 306 307 308 308 309 309 309 308 309 310 311 312 313 316 318 321 323 324 324 324 322 321 320 318 315 315 316 315 318 319 321 321 323 326 326 324
310 308 308 309 309 308 307 307 307 306 307 306 307 308 308 308 307 307 308 306 306 306 307 307 306 306 306 306 306 305 306 310 308 307 307 308 308 308 310 311 312 314 317 319 321 323 324 324 323 324 322 319 315 313 315 314 315 318 323 322 324 327 326
309 308 308 308 308 308 308 307 307 306 306 307 308 308 308 306 306 306 305 306 305 305 305 306 306 305 305 304 304 304 304 306 306 306 306 307 307 307 308 309 310 311 313 316 319 321 322 322 322 323 322 320 318 315 313 313 314 313 315 323 320 322 327
309 309 308 308 307 307 306 307 307 307 307 308 309 309 307 306 307 311 305 305 304 305 305 305 305 305 304 303 303 303 304 304 304 304 305 306 305 306 307 307 307 308 310 312 314 316 318 321 322 322 322 321 320 316 315 313 314 315 312 315 322 320 322
309 308 307 308 307 307 306 307 307 307 307 307 309 307 306 306 305 305 303 303 303 303 303 302 303 302 303 301 302 303 302 302 302 302 303 304 305 306 305 304 305 306 307 308 309 310 313 316 319 321 322 322 321 319 317 315 312 318 318 316 318 322 322
309 308 307 307 307 306 306 306 306 305 306 307 305 305 304 304 304 303 302 302 302 301 301 302 302 302 300 300 300 302 301 301 302 301 302 303 304 304 303 303 303 304 305 305 306 308 310 311 314 316 319 321 321 321 319 317 315 314 319 318 317 319 323
307 308 307 306 306 306 306 307 306 306 305 304 304 304 303 303 302 302 301 303 301 300 300 300 300 300 300 301 300 300 300 301 301 301 302 302 302 303 303 303 303 303 303 303 304 305 307 308 310 312 315 318 319 321 320 318 315 314 318 321 321 320 321
307 306 306 306 306 306 306 306 305 305 304 303 303 303 302 301 301 301 300 300 300 300 300 300 300 300 299 299 298 301 301 300 299 300 300 300 301 302 302 302 302 303 303 303 303 303 304 305 307 308 310 313 315 318 322 319 317 317 317 320 318 319 318
306 305 305 305 305 305 305 305 305 304 303 302 302 302 302 301 301 300 300 300 299 299 300 299 299 299 299 299 298 298 300 299 299 300 300 300 300 301 301 302 302 302 303 302 302 302 303 303 305 305 306 309 311 314 318 319 318 316 318 319 320 318 318
305 305 305 305 305 305 305 304 305 304 303 302 302 302 301 301 301 300 299 300 299 299 298 299 299 299 299 299 298 299 298 298 299 300 300 300 300 300 301 301 302 302 303 302 302 302 302 303 303 304 305 306 308 310 314 318 318 316 317 316 317 318 318
305 305 304 304 304 305 304 304 304 303 303 302 301 301 303 300 299 298 299 298 297 297 298 298 298 298 298 298 298 298 298 298 299 299 300 300 302 302 302 302 302 302 302 302 302 302 302 301 302 303 303 304 306 308 311 313 316 317 316 315 316 317 318
305 305 305 304 304 304 304 304 304 303 303 302 300 300 300 299 300 298 297 297 297 297 297 297 297 297 297 297 298 298 298 298 299 300 301 302 302 303 302 302 303 303 302 302 302 302 302 301 301 302 302 303 304 306 308 311 313 315 316 316 315 315 315
305 305 305 304 304 304 304 303 303 303 303 302 301 299 298 299 299 297 297 297 297 297 297 297 297 296 297 297 297 297 298 298 299 299 301 302 302 302 302 302 302 302 302 302 302 302 301 301 302 301 302 302 303 305 305 305 306 307 309 313 315 316 316
305 305 305 304 304 304 304 302 302 301 302 300 299 298 298 297 297 297 297 297 297 298 297 297 296 296 296 296 296 297 297 298 298 299 300 301 302 302 302 302 302 303 302 303 302 302 302 302 302 301 302 302 302 302 301 302 303 304 305 307 311 314 316
305 305 305 304 304 303 303 302 301 301 300 299 300 298 297 297 296 296 296 296 296 297 297 297 297 296 296 296 295 296 296 296 296 296 296 297 298 299 300 301 301 302 303 304 302 302 302 301 302 301 302 302 301 301 301 301 301 302 303 304 306 310 314
305 305 304 303 303 302 302 301 301 299 298 298 298 297 296 296 296 296 296 295 295 296 296 296 300 299 298 297 295 295 295 295 295 295 295 295 295 296 297 297 300 302 301 300 299 298 297 297 298 300 301 301 301 300 300 299 300 300 301 301 302 305 307
305 304 304 303 301 301 301 301 299 298 297 296 297 298 296 295 294 294 295 294 294 294 295 297 297 294 294 295 296 295 294 294 294 294 294 293 293 294 295 295 296 298 299 299 300 297 296 296 296 296 296 298 299 300 299 299 299 300 299 299 301 302 303
305 303 303 302 301 301 300 299 297 296 296 296 296 296 295 294 293 293 294 293 293 294 294 297 294 294 294 294 295 296 295 294 294 293 293 293 293 293 293 294 295 296 296 297 298 298 298 297 295 295 295 295 295 295 295 298 298 298 299 299 299 301 302
304 303 302 302 301 300 298 297 296 295 295 295 295 295 292 293 293 293 293 293 292 293 293 295 294 294 294 293 293 294 293 293 293 293 292 292 292 292 293 293 293 294 295 298 298 296 296 297 297 296 296 296 296 295 294 293 294 298 299 299 300 300 302
303 302 301 301 300 298 297 296 294 294 294 293 291 291 291 292 292 291 292 292 292 292 293 295 293 294 293 293 292 292 293 292 292 292 292 292 292 292 292 292 292 292 293 294 294 295 295 295 295 296 297 298 299 299 296 295 294 294 296 299 300 300 303
303 302 301 300 298 297 295 293 294 292 292 291 292 290 290 291 291 292 291 291 290 291 293 294 292 292 292 292 292 291 291 291 291 291 291 291 291 291 291 292 292 292 292 293 294 295 295 295 295 295 295 295 296 297 298 299 299 300 300 299 299 300 302
302 300 299 298 297 295 294 294 293 292 291 290 289 289 289 290 290 289 289 288 288 289 291 292 292 292 292 291 291 292 290 290 290 290 290 290 291 291 291 291 291 291 292 292 294 293 294 295 294 294 294 294 294 295 296 297 297 298 299 300 301 302 303
300 299 298 297 296 295 293 292 292 292 291 290 289 289 289 288 289 288 288 289 287 288 289 291 291 291 291 291 291 290 290 290 289 289 289 290 290 290 291 291 291 291 291 292 293 291 292 293 293 293 293 293 294 295 295 297 296 295 295 295 294 294 294
299 298 297 296 294 293 293 292 292 292 291 289 289 289 288 287 287 287 288 287 288 289 290 291 292 291 291 291 291 290 290 289 288 288 289 289 289 290 291 294 294 292 291 291 292 291 291 292 293 292 292 292 293 293 294 296 297 297 296 295 295 294 294
299 297 296 295 294 293 292 292 291 290 290 289 289 288 290 286 286 285 286 287 294 292 290 291 292 291 291 291 291 290 289 288 288 288 288 288 289 289 289 291 293 293 292 292 291 290 290 292 292 292 293 292 292 292 294 295 295 295 296 296 296 298 299
298 297 295 294 293 292 292 291 290 290 289 288 289 286 288 286 285 285 286 287 289 289 289 289 291 291 291 291 291 291 290 288 287 287 288 288 288 288 289 289 291 290 290 290 290 289 290 290 291 292 292 292 291 291 295 295 296 296 296 296 296 297 299
297 296 295 294 293 293 292 291 290 289 288 288 286 285 285 285 285 284 285 286 287 288 289 289 290 290 291 291 291 290 289 288 288 288 287 288 288 288 288 289 289 290 290 290 290 290 290 290 290 291 292 292 292 293 294 294 295 294 296 296 296 296 296
296 295 294 293 292 292 291 291 291 289 287 286 285 284 284 286 284 284 286 286 286 287 289 292 289 290 290 290 290 290 289 289 289 289 288 287 288 288 288 289 289 290 290 289 289 290 290 290 290 291 292 291 291 291 293 294 295 295 295 294 294 294 294
295 295 294 293 292 291 290 290 289 288 287 285 284 283 283 283 283 284 284 285 285 286 286 288 291 290 290 290 290 290 289 289 289 289 288 287 287 288 289 289 290 290 289 289 289 289 289 289 290 290 290 290 290 290 291 293 293 293 293 293 293 292 293
295 294 294 293 292 291 289 289 288 288 286 286 284 283 282 283 282 283 283 284 285 285 286 286 288 289 289 289 289 289 289 288 289 289 289 288 288 288 288 289 289 289 289 289 289 289 289 289 289 289 289 289 290 290 292 292 292 292 291 291 291 292 292

ECMWFFLT1_sfc_thetae_009.txt.gz
Theta_e
307 307 304 304 304 309 305 307 308 308 308 309 309 309 311 313 313 311 311 312 313 315 315 314 313 313 314 315 316 316 316 318 320 320 320 322 319 321 325 323 322 324 324 324 322 318 315 313 315 317 319 319 320 320 321 322 322 322 321 322 324 325 325
307 306 306 309 306 308 304 307 308 308 306 308 310 310 310 313 314 310 309 310 311 313 315 312 312 312 312 312 312 313 313 314 316 318 318 318 319 318 320 322 324 324 325 325 324 323 317 314 315 315 317 318 318 319 320 321 321 321 322 322 323 324 325
307 305 306 306 305 305 305 305 306 307 307 308 307 308 309 310 310 310 309 309 310 312 312 309 309 309 310 310 310 311 311 311 313 314 315 315 316 318 318 318 318 319 321 323 323 322 321 319 315 316 317 316 316 316 318 320 321 321 321 321 322 323 324
305 305 305 304 304 304 305 304 304 305 307 307 307 308 308 308 309 311 309 309 310 313 310 308 307 308 308 308 308 308 309 309 310 311 312 313 313 313 314 315 315 317 316 316 318 321 320 318 317 317 318 319 318 318 321 321 321 323 323 322 320 321 323
306 306 305 306 305 305 305 305 304 305 306 308 306 307 307 308 308 306 307 306 308 306 306 307 307 307 307 307 307 307 307 307 308 310 309 309 310 311 311 313 314 316 317 318 319 320 320 319 319 318 318 319 319 319 321 322 323 323 323 323 321 320 321
306 306 305 305 305 305 304 304 304 305 305 307 306 306 306 307 307 305 305 305 305 307 306 307 306 306 306 306 306 305 305 306 307 307 307 306 307 309 309 311 313 313 314 317 320 320 321 321 319 316 318 320 317 317 318 320 319 322 324 323 324 323 322
306 306 305 306 305 306 305 306 306 307 306 307 306 306 306 305 306 307 306 304 305 306 306 305 305 305 305 305 305 305 305 305 305 305 305 305 306 306 308 308 310 311 312 314 316 318 319 319 318 317 317 318 318 317 318 316 319 318 320 322 324 324 324
307 307 306 307 306 306 305 306 306 305 306 307 306 307 307 305 305 304 304 303 304 304 304 303 305 303 303 304 306 305 305 305 304 305 303 304 306 305 305 306 308 309 310 312 313 315 317 318 317 317 316 314 315 317 316 318 318 318 319 322 324 324 324
310 308 306 307 306 306 307 306 306 305 306 306 305 305 305 305 304 305 305 303 304 304 304 303 302 303 302 303 302 301 301 307 303 302 303 302 302 303 304 304 304 306 308 309 311 312 313 314 315 316 316 316 312 310 313 314 313 315 320 320 321 325 325
308 307 306 306 306 305 307 306 306 305 304 304 306 305 305 303 304 304 303 303 302 302 302 303 303 302 302 301 301 301 300 301 303 302 302 301 302 303 302 303 303 305 305 306 308 308 309 310 312 314 317 315 314 311 311 311 312 312 313 320 316 318 324
308 307 307 306 306 305 305 306 304 305 304 306 307 308 305 303 304 309 302 301 301 302 302 301 301 301 301 300 299 300 301 300 300 301 302 302 301 302 303 302 301 302 303 304 305 305 306 307 308 310 311 313 316 312 313 311 313 315 314 313 318 318 318
307 307 307 307 307 306 305 305 305 305 303 305 308 306 304 303 303 302 301 300 301 301 300 301 302 300 300 300 301 301 300 300 300 300 300 301 302 302 300 300 300 301 301 302 302 303 304 306 306 307 308 310 311 312 311 311 308 315 318 316 316 319 320
308 307 307 307 306 306 306 305 305 303 304 307 305 305 304 304 303 301 300 300 300 299 300 300 300 299 298 299 299 300 300 299 299 299 300 300 302 301 300 299 299 300 300 300 300 301 302 303 304 305 306 307 308 310 312 311 309 309 317 319 320 319 319
307 307 306 307 306 306 306 306 305 305 305 304 304 303 303 302 301 301 300 302 299 299 299 299 298 298 298 297 298 298 298 299 299 299 300 300 300 300 301 300 300 300 300 300 300 301 301 301 302 302 304 305 306 307 309 309 307 308 312 318 319 319 320
308 306 306 306 306 305 305 305 305 305 305 303 303 303 302 300 300 299 299 300 299 299 298 298 297 298 298 297 296 298 299 297 297 298 298 298 299 300 300 299 300 300 300 300 300 300 300 300 300 301 301 302 303 305 308 308 308 308 307 313 315 318 318
307 306 305 305 305 305 305 304 305 305 304 302 302 302 301 301 300 299 298 298 298 297 298 298 297 298 297 297 296 296 298 296 297 298 297 298 298 299 298 299 299 299 301 300 300 300 300 300 300 301 300 301 301 303 305 307 307 306 307 308 313 314 316
306 306 305 304 304 304 304 304 305 304 303 302 302 301 301 301 300 298 299 297 296 296 297 298 298 297 297 297 296 297 296 296 296 297 297 297 298 298 298 298 298 299 299 299 299 299 300 300 300 300 300 300 300 301 302 303 307 307 307 307 310 313 316
305 305 305 304 303 303 303 303 303 303 302 302 301 301 301 299 298 298 298 297 296 296 296 296 296 295 295 296 296 296 296 295 296 296 297 297 300 299 299 299 300 300 300 299 299 299 299 299 300 300 300 300 300 301 302 302 303 307 307 305 305 308 313
303 302 304 303 303 303 303 303 303 302 302 301 299 300 300 299 300 297 297 296 296 295 295 295 295 295 295 295 295 295 295 296 296 296 297 297 298 299 299 300 300 301 301 300 300 300 300 300 300 300 300 300 301 301 300 300 302 302 302 303 303 303 307
305 304 304 304 304 304 303 303 302 302 302 301 300 298 297 299 298 297 297 296 296 296 295 294 294 294 294 294 294 295 295 295 296 296 296 297 298 298 299 299 300 301 300 300 300 300 300 300 301 301 301 301 302 302 301 300 300 299 300 301 302 303 304
306 305 305 305 304 304 303 302 302 301 301 300 299 298 298 298 297 297 296 296 296 296 294 294 293 293 294 294 294 295 295 296 296 295 296 296 297 297 297 297 297 298 298 298 299 300 300 300 300 299 300 301 300 299 299 299 299 300 300 299 299 299 301
305 305 305 305 304 304 304 303 301 301 300 300 300 298 297 297 297 295 294 295 295 296 295 295 294 294 294 294 293 294 295 295 294 294 294 294 294 295 295 295 296 296 299 301 300 299 298 298 298 297 298 298 297 297 297 297 298 298 298 298 298 300 300
305 305 305 304 304 304 303 302 302 301 299 299 298 297 296 296 296 295 294 293 292 295 294 294 299 298 297 296 295 295 294 294 294 293 294 293 293 293 294 294 297 299 299 299 298 296 295 296 297 297 297 297 297 296 296 296 296 296 297 296 297 298 298
305 304 305 304 304 304 303 302 301 300 298 298 297 298 296 295 293 293 294 293 292 293 294 295 296 293 293 294 294 293 293 293 293 293 293 292 292 293 293 293 293 296 298 297 297 295 294 294 294 294 295 296 297 297 296 295 295 296 296 296 297 298 298
304 305 304 304 304 304 303 302 300 299 298 297 297 296 294 293 293 293 292 291 291 292 293 296 293 293 293 293 294 294 293 292 293 292 292 292 292 292 292 292 293 294 294 294 294 294 295 294 294 293 293 293 293 293 294 295 295 295 295 295 295 296 297
304 303 303 303 303 302 302 301 299 298 298 298 296 294 293 293 293 292 292 291 290 292 292 294 293 293 293 292 292 293 292 291 291 291 291 291 291 291 291 292 292 292 293 296 297 295 294 294 294 294 294 294 294 293 292 291 292 295 296 295 294 295 295
304 303 303 303 302 301 300 300 299 299 297 295 294 293 293 293 292 292 290 290 290 290 289 293 292 293 293 292 291 291 291 291 290 290 290 290 291 290 290 290 290 290 291 292 292 292 292 292 292 292 292 292 292 293 293 292 292 292 294 295 295 294 296
303 303 303 302 302 301 299 297 297 296 296 294 293 293 293 292 291 291 291 289 288 288 290 293 291 291 291 291 291 291 290 290 290 290 290 290 290 290 290 290 290 290 290 290 291 292 291 291 291 291 291 291 291 292 292 293 293 294 295 296 296 296 297
299 299 301 300 299 298 297 296 295 294 293 292 292 292 291 292 292 291 290 287 288 287 287 290 290 291 291 290 291 291 289 289 288 289 289 289 289 289 289 289 289 289 289 290 292 291 292 292 291 290 290 290 290 291 292 294 294 295 295 295 295 296 298
299 298 298 298 296 296 295 293 293 293 293 292 292 291 291 291 291 290 288 287 286 285 285 289 290 290 290 290 290 289 288 288 288 288 288 288 289 289 289 289 289 289 289 289 291 290 290 291 290 289 289 289 290 290 291 293 294 293 293 293 293 293 293
301 301 300 298 296 295 294 294 293 293 293 291 290 291 290 290 289 289 288 287 286 285 285 289 291 290 290 290 291 289 288 288 287 287 287 288 288 288 289 292 293 290 290 290 290 290 290 290 289 289 289 289 289 289 289 291 293 293 294 293 293 292 292
301 300 299 297 296 295 294 294 293 292 292 291 291 289 291 289 288 287 288 287 293 290 285 287 291 290 290 290 290 289 288 287 287 287 287 287 287 288 288 290 292 292 291 291 290 289 289 290 289 289 289 289 288 288 289 291 291 292 293 293 294 294 294
300 298 297 295 295 294 293 293 292 291 290 290 289 288 290 288 288 288 287 289 288 287 285 284 287 289 290 290 291 290 288 287 286 286 287 287 287 288 289 289 290 289 289 289 289 289 288 289 289 289 289 288 288 288 291 291 292 292 292 293 294 295 295
298 297 296 294 294 293 293 292 291 290 289 287 286 286 287 287 287 286 285 284 284 283 285 284 286 289 290 290 290 290 288 287 287 287 287 287 288 288 288 288 289 290 289 289 289 289 289 289 289 289 289 288 289 290 291 290 291 292 292 293 293 294 294
297 295 295 294 293 292 291 291 291 289 288 286 285 285 284 286 285 284 283 283 283 283 286 291 286 289 289 290 289 290 288 288 288 288 287 287 288 288 288 288 289 289 289 289 289 289 289 289 289 290 289 289 289 289 290 291 291 291 291 291 292 292 293
296 295 294 294 293 290 289 289 287 287 286 284 284 283 283 283 283 283 283 284 282 281 282 285 289 288 289 289 289 289 289 288 288 289 287 287 287 287 288 289 289 290 289 289 288 288 288 288 289 289 288 288 288 288 289 290 290 290 290 290 290 290 291
296 295 295 293 292 290 289 289 288 288 285 286 284 284 283 284 282 282 283 284 285 282 282 282 286 288 288 288 288 288 288 288 288 288 288 287 288 288 288 288 289 289 288 288 288 288 288 288 288 288 288 288 288 288 289 289 288 288 288 288 288 289 290

ECMWFFLT1_sfc_thetae_012.txt.gz
Theta_e
304 305 304 303 304 308 306 307 308 307 308 310 310 311 313 315 313 312 312 314 314 314 315 312 312 312 313 314 315 314 315 316 318 318 317 319 317 317 321 323 324 325 324 324 322 318 316 314 317 323 324 321 322 324 323 323 324 325 325 326 327 328 328
304 305 307 309 307 308 305 306 307 306 307 308 309 311 312 314 315 311 311 311 311 312 313 311 311 311 311 311 311 312 312 313 315 316 315 315 317 316 317 317 320 320 322 325 325 323 318 314 315 317 318 322 324 324 323 324 325 325 325 325 325 326 328
307 304 305 305 304 304 306 305 306 306 307 308 308 310 311 311 311 311 310 310 310 312 312 308 309 309 309 309 309 310 311 311 312 313 313 313 314 315 316 316 315 315 316 319 321 320 320 320 315 316 318 318 317 321 324 326 327 326 325 325 325 325 326
304 304 304 303 303 303 305 305 305 305 306 306 309 308 309 310 311 313 310 310 311 313 310 308 308 308 308 308 308 308 309 309 310 310 310 311 312 312 312 313 313 314 313 313 314 316 316 315 315 316 318 319 319 319 323 326 325 326 326 327 325 325 326
305 305 305 305 305 305 304 305 303 305 306 307 306 308 308 309 310 309 311 308 308 307 307 308 308 307 307 307 307 308 308 308 309 310 309 309 309 309 310 312 312 313 313 313 314 316 315 316 315 314 315 318 319 319 322 324 326 325 326 325 325 325 325
306 306 305 305 305 305 304 304 304 305 305 308 306 307 307 307 308 306 306 307 307 308 307 307 306 306 306 306 306 306 307 307 307 307 307 307 308 308 308 310 311 312 311 313 314 314 315 316 316 314 315 319 315 317 320 322 322 324 325 325 326 328 325
306 306 305 305 305 306 305 306 306 307 307 308 307 307 307 308 308 309 307 306 307 308 307 306 306 306 306 306 305 305 306 306 306 306 306 307 307 307 308 308 309 310 310 311 312 313 312 312 311 311 311 314 316 315 319 319 321 320 323 324 326 326 327
306 306 305 306 306 305 304 306 306 306 307 307 308 308 308 307 307 305 306 306 306 305 305 306 305 305 305 306 306 305 307 305 305 306 305 305 305 305 306 307 308 308 309 310 311 311 311 311 310 310 310 308 310 314 313 318 319 320 320 324 326 326 327
309 307 306 307 306 306 306 306 306 306 307 307 306 307 307 307 306 307 307 305 305 305 306 304 304 304 304 304 303 303 304 308 304 304 304 304 304 304 305 305 305 306 307 308 309 309 309 310 311 311 311 309 306 305 310 310 314 316 320 320 325 327 328
307 305 305 305 305 305 306 306 306 307 306 306 307 307 307 305 305 306 305 304 304 304 304 304 304 303 303 303 302 302 303 303 306 303 303 303 303 304 304 304 304 305 305 307 307 307 308 308 309 310 310 309 308 305 305 306 308 310 316 322 318 323 325
308 307 305 305 305 305 305 305 304 305 305 307 308 308 307 305 306 310 305 304 303 304 304 303 303 302 302 302 302 302 302 303 302 302 304 304 303 305 305 303 303 303 304 305 305 306 306 307 307 307 308 309 310 306 306 304 305 311 311 317 320 321 323
308 308 306 305 305 305 305 305 305 305 304 305 308 307 305 305 306 304 304 303 303 303 302 303 302 301 301 301 303 301 301 301 301 301 302 304 304 304 302 302 302 303 303 304 304 304 305 306 306 306 306 308 307 308 307 306 302 309 315 313 317 320 320
307 307 307 305 305 305 305 305 305 304 304 307 306 306 305 306 305 304 303 303 302 301 301 300 300 300 300 300 301 301 301 301 301 301 301 302 302 302 301 301 302 302 303 303 303 303 304 305 306 305 306 305 306 307 308 306 304 303 310 311 312 315 319
307 306 306 306 306 305 305 306 305 305 305 305 305 305 305 305 304 304 303 304 302 301 300 299 300 300 301 299 300 300 300 300 300 300 302 300 301 301 301 301 301 302 302 302 302 303 303 304 304 304 305 305 305 306 305 304 303 303 306 312 313 313 317
307 306 305 305 306 305 305 305 305 305 305 305 305 305 304 304 303 302 302 301 300 299 300 300 300 300 300 299 299 300 300 299 299 299 299 299 299 300 300 299 300 301 301 301 302 301 302 303 302 302 303 304 304 304 307 303 302 302 301 305 308 313 314
307 306 305 305 305 305 305 305 305 305 305 304 304 305 304 303 302 301 301 299 299 299 300 299 299 299 299 299 298 298 299 298 298 298 298 298 298 299 299 299 299 300 301 301 301 301 302 302 302 302 302 303 303 304 304 305 302 300 300 301 306 306 310
307 306 306 305 305 305 305 305 306 305 304 304 303 303 303 302 301 300 300 299 299 299 299 299 299 299 299 299 299 298 297 298 298 298 298 298 298 298 299 298 299 300 301 300 300 300 301 302 302 302 302 302 302 302 303 303 304 301 301 300 302 304 307
307 306 306 306 305 305 304 305 305 305 303 303 303 302 302 301 300 300 300 299 298 298 299 298 298 298 297 298 298 298 297 297 297 297 298 298 300 300 299 299 299 300 300 300 300 300 301 300 300 300 300 300 300 301 302 302 302 302 302 300 301 303 304
307 307 306 305 305 305 304 304 304 304 304 303 302 302 301 301 301 300 299 298 298 298 298 297 297 297 297 297 297 297 297 297 298 297 298 298 298 299 299 299 299 300 300 299 299 299 300 300 300 299 299 299 300 301 301 302 303 302 301 299 299 299 302
307 307 307 306 306 305 304 304 304 303 304 303 302 301 301 301 301 300 298 298 298 298 298 297 297 296 296 296 296 296 296 296 297 297 297 297 298 298 298 299 299 299 299 299 298 298 298 299 299 299 299 299 299 299 298 298 299 298 298 297 298 299 299
307 307 307 307 306 305 305 304 304 304 303 302 302 301 300 300 299 299 298 298 298 298 297 296 294 295 296 296 297 296 296 297 297 296 296 297 297 297 297 297 298 298 298 298 298 298 298 298 298 297 298 298 298 297 297 297 297 297 296 296 296 296 298
306 306 306 305 305 305 305 304 304 303 303 302 302 301 301 299 298 297 297 297 297 297 296 296 296 296 296 295 295 296 295 295 295 295 295 295 295 296 296 296 297 297 299 300 299 299 298 298 298 296 297 297 296 296 296 296 296 296 296 295 295 297 296
306 305 305 305 305 305 304 303 303 303 302 302 301 300 299 299 298 298 296 296 296 297 296 296 301 297 298 298 296 295 295 295 294 294 294 294 294 295 295 295 297 298 298 298 297 296 295 295 296 297 297 297 296 295 295 295 294 295 295 294 294 295 294
306 304 305 305 305 305 303 303 303 302 301 301 300 299 299 298 297 297 296 296 296 296 295 297 296 293 293 294 295 294 294 294 294 293 293 293 293 294 294 295 295 296 297 297 297 295 294 294 294 294 294 295 296 296 295 294 294 294 293 293 294 294 294
305 305 304 304 303 303 302 302 301 300 300 299 299 299 298 297 296 296 296 295 295 295 295 297 293 293 293 292 294 296 294 293 293 292 292 292 292 293 293 293 294 294 295 295 295 295 295 294 293 293 292 292 292 292 293 295 294 293 293 292 292 293 294
305 304 303 303 303 303 302 302 302 300 300 299 298 298 297 296 295 295 295 294 294 296 295 295 293 293 292 292 292 293 292 292 292 292 291 292 291 292 292 292 292 293 293 295 295 295 295 295 294 293 293 293 293 292 291 290 292 295 295 293 292 292 293
304 303 303 303 303 302 302 301 300 300 299 298 297 296 296 296 295 294 294 295 294 294 294 294 292 292 292 291 290 291 292 291 291 291 291 291 291 291 291 291 291 291 292 292 293 293 293 293 293 293 293 293 294 294 293 292 291 291 293 294 294 292 294
303 302 302 303 303 302 302 300 300 299 298 297 296 295 295 294 294 294 295 294 293 293 293 293 292 291 291 290 290 291 291 290 290 290 290 291 291 291 291 291 291 291 291 291 292 292 292 292 292 292 292 292 292 293 293 294 294 295 295 295 294 294 295
302 302 302 302 302 301 300 301 299 297 297 296 295 295 294 295 294 293 293 292 292 291 291 291 290 290 290 290 290 292 290 289 289 289 289 290 290 290 291 290 290 290 290 290 291 290 291 292 291 291 290 291 291 292 292 293 293 293 294 295 295 295 296
302 302 302 302 301 301 300 298 297 297 295 294 294 294 293 294 294 292 291 291 290 290 289 290 290 290 290 290 290 289 289 289 289 288 288 289 290 290 290 290 290 290 290 290 290 289 289 290 290 290 290 290 290 291 291 293 292 292 292 292 292 292 292
302 302 302 301 301 300 298 297 296 296 295 293 294 294 294 293 292 292 291 290 290 289 288 289 290 290 290 290 291 289 289 288 287 288 288 289 289 289 290 292 293 291 291 291 290 289 289 290 290 289 289 288 288 288 289 291 292 293 292 292 292 291 291
302 302 302 301 299 297 296 295 295 295 295 295 294 293 293 291 289 289 290 290 293 290 287 289 290 289 290 289 291 290 288 287 287 287 287 287 288 288 289 290 291 291 291 291 289 289 289 290 289 288 288 287 286 286 288 290 290 290 291 292 292 293 293
302 302 301 299 297 296 296 295 295 295 294 295 293 291 291 290 289 289 289 290 291 291 288 287 290 289 290 290 290 291 289 287 286 286 287 287 287 288 289 289 290 289 289 289 289 288 288 289 289 289 289 287 286 286 289 289 290 290 290 291 291 292 292
302 302 301 299 298 297 296 296 295 295 293 291 291 290 289 288 289 289 288 288 288 288 288 287 288 289 289 290 290 289 288 287 287 287 287 287 287 287 287 288 289 290 289 289 289 288 289 289 289 289 289 288 288 289 289 289 289 289 289 289 289 290 290
299 298 297 296 296 295 295 295 294 293 290 289 289 289 288 288 288 288 287 286 286 286 287 291 288 289 289 289 289 289 289 288 288 287 287 286 287 287 287 288 288 289 289 288 288 288 288 288 288 290 289 289 288 288 289 289 289 289 289 289 289 289 289
297 297 296 296 295 293 292 293 291 290 289 288 289 288 288 287 287 287 287 286 286 286 285 287 290 289 289 288 288 288 288 288 288 289 287 286 286 287 288 288 288 289 288 288 288 288 288 288 288 287 287 287 287 288 288 288 288 288 287 287 287 287 288
297 296 296 296 294 291 291 290 290 289 289 289 288 287 287 286 286 286 286 286 287 286 285 284 286 287 288 288 288 288 288 287 288 288 288 287 287 287 287 287 287 287 287 287 287 287 287 287 287 287 287 287 287 287 288 288 287 287 287 286 286 286 286

ECMWFFLT1_sfc_thetae_015.txt.gz
Theta_e
320 320 320 322 324 322 320 321 322 323 324 325 325 324 325 325 325 324 324 324 321 320 319 318 319 320 320 321 323 324 324 325 324 322 320 322 322 321 325 325 326 327 326 325 324 321 319 317 320 327 329 330 330 331 331 331 331 332 334 335 333 333 335
317 318 319 321 321 322 321 321 322 321 323 325 325 324 324 323 323 322 321 319 318 317 316 316 317 317 318 319 319 320 321 321 323 322 321 319 320 318 320 322 323 323 324 325 324 324 319 316 316 319 322 326 328 329 330 332 332 333 333 333 333 332 334
317 318 319 320 321 321 319 321 321 321 321 323 324 323 323 322 321 320 318 318 318 317 315 316 316 316 317 317 318 318 319 318 320 320 319 318 319 319 319 319 318 319 320 321 321 319 319 321 315 316 319 319 317 323 327 329 330 330 332 334 334 332 333
319 319 318 319 319 319 319 319 320 321 322 322 322 323 323 321 321 320 319 319 319 318 315 314 315 314 315 315 316 316 316 316 315 317 317 317 317 316 316 316 316 316 316 314 315 317 318 317 316 316 318 318 318 318 324 327 328 328 329 331 333 333 334
321 318 319 319 319 319 319 318 320 321 321 322 322 321 322 321 319 319 319 319 317 317 315 315 314 314 314 314 313 314 314 314 315 314 314 313 314 314 314 314 314 316 316 315 315 316 316 316 316 315 315 318 318 319 323 327 328 328 328 328 330 331 333
321 320 320 321 321 319 319 319 319 318 320 320 321 320 321 320 318 318 318 317 316 317 316 314 314 314 313 313 312 312 313 312 312 312 311 312 312 310 310 312 312 312 313 315 315 315 315 315 316 314 316 317 315 316 319 322 323 327 328 327 329 330 330
321 321 321 320 321 320 320 320 319 319 319 321 321 321 321 320 318 319 319 318 317 317 316 315 314 313 313 311 312 311 311 312 312 312 311 311 312 311 311 309 309 309 310 312 313 314 313 313 312 312 311 313 316 313 316 317 321 320 324 328 329 329 329
321 320 320 320 321 320 320 321 321 321 321 321 321 322 321 321 319 319 318 318 317 317 316 315 314 314 313 311 312 312 311 312 311 311 311 311 309 309 310 309 309 309 309 309 310 311 312 312 311 311 311 308 309 312 312 313 315 317 317 321 327 327 328
320 321 320 319 320 321 321 320 321 322 322 322 323 322 322 321 319 319 318 317 317 317 315 314 313 312 313 312 311 312 311 312 311 311 311 311 310 310 309 309 309 308 309 308 309 309 309 310 311 312 311 310 307 304 309 310 311 312 318 317 321 326 328
319 319 319 319 319 320 321 321 321 322 323 323 322 323 321 321 319 319 317 317 317 316 315 313 313 313 312 311 311 311 311 311 311 310 310 309 309 309 308 308 308 308 308 310 309 309 309 310 310 310 310 309 309 306 304 305 308 310 314 319 316 322 325
319 320 320 319 320 318 318 319 320 320 320 322 322 322 321 319 319 319 317 316 316 315 315 313 312 313 313 311 311 310 310 311 309 309 309 308 308 309 308 308 308 307 308 309 309 309 309 308 308 309 309 309 309 306 306 304 306 311 311 315 316 314 321
319 319 319 319 319 318 318 318 318 319 321 321 321 321 320 319 318 318 318 316 315 314 314 314 313 313 312 311 311 309 310 309 308 308 308 308 308 308 307 306 307 307 308 308 309 309 309 308 308 308 308 309 308 308 307 306 303 308 314 312 316 319 318
318 318 319 318 317 317 318 318 318 319 319 319 321 321 320 318 318 317 317 316 314 314 313 313 312 312 312 311 310 308 308 308 307 306 306 307 306 307 306 305 306 306 307 307 307 307 307 308 308 307 307 308 307 308 307 305 303 303 310 310 312 314 315
317 318 319 318 317 318 318 318 318 319 319 319 320 320 319 319 317 317 316 314 313 313 312 312 312 312 311 309 309 308 308 307 305 305 306 306 306 306 304 304 304 305 307 306 306 306 306 306 306 307 307 306 306 307 306 305 303 304 308 312 311 311 313
318 318 318 318 317 317 318 317 318 318 317 318 319 319 319 319 318 317 315 314 313 311 311 311 311 311 309 308 308 308 307 306 305 305 305 304 305 305 305 303 303 304 305 305 306 305 305 304 304 304 304 305 305 305 307 304 303 302 303 308 308 311 310
319 318 318 318 317 317 318 318 317 317 317 318 318 319 319 318 317 316 315 313 312 311 311 310 311 310 309 308 306 307 307 306 305 305 304 304 303 303 304 303 303 303 305 304 305 306 306 305 305 304 304 304 304 304 304 304 303 301 302 303 307 306 308
320 318 317 318 318 318 318 318 317 316 317 317 316 318 318 317 316 315 313 312 311 311 310 310 310 309 308 307 306 306 306 306 305 305 304 303 303 304 303 303 303 303 304 303 303 304 305 305 304 304 304 305 304 303 304 304 304 302 301 300 304 304 306
319 319 318 318 318 318 318 317 317 316 317 316 316 317 316 317 315 314 313 311 310 310 310 309 309 308 308 308 307 306 305 305 305 304 304 304 303 303 303 302 302 303 303 302 303 303 303 303 302 303 303 303 303 304 304 303 303 303 302 300 302 304 305
319 319 318 318 318 318 317 317 316 316 316 315 316 316 315 315 314 313 312 311 311 310 310 309 308 307 307 307 306 306 305 305 304 303 303 303 302 303 303 302 302 302 302 302 302 302 303 303 302 302 302 301 302 303 303 303 303 302 302 301 301 301 304
319 319 319 318 318 317 316 316 316 315 315 315 315 314 314 314 314 313 312 311 310 310 309 309 308 307 306 306 305 305 304 304 303 303 302 301 301 302 302 301 302 302 301 302 302 301 302 302 302 302 302 302 302 302 301 301 301 301 301 300 301 301 301
319 319 319 318 318 317 316 316 315 316 315 314 314 313 312 313 313 313 312 311 310 310 309 308 307 307 306 306 305 303 302 301 301 301 301 301 301 300 300 300 300 300 300 301 301 302 302 301 302 301 302 301 301 301 300 300 300 300 300 300 299 300 300
319 318 318 317 317 316 316 315 315 315 314 313 314 313 314 313 312 311 311 311 310 310 308 307 307 306 305 304 302 301 300 299 300 299 299 299 300 300 300 300 300 300 300 298 298 298 299 299 299 299 300 301 301 300 299 299 299 298 299 299 298 300 299
317 317 317 316 316 316 315 315 315 313 310 311 311 311 310 311 310 310 310 309 309 309 307 307 303 299 300 301 300 299 300 300 299 299 298 298 298 299 299 299 300 298 298 297 297 295 295 295 296 298 299 299 299 299 298 298 297 298 298 297 297 298 298
316 316 317 316 316 315 315 314 313 311 310 310 309 307 307 306 309 310 309 308 307 307 306 304 295 294 295 297 300 300 299 299 299 298 298 298 297 297 298 297 298 298 298 297 298 295 294 293 293 293 294 295 297 297 297 296 297 298 297 297 298 297 297
314 315 316 315 315 315 314 312 311 310 310 310 309 309 308 307 307 307 307 307 306 306 305 298 293 293 293 293 297 299 299 299 299 298 297 297 297 297 297 297 298 299 299 298 297 297 296 294 293 292 292 292 292 292 293 296 296 296 297 296 296 297 297
313 314 314 315 315 314 312 310 310 309 309 310 310 309 307 307 307 306 306 305 305 305 304 294 293 293 292 292 292 296 298 298 297 297 297 297 297 296 296 296 296 297 298 296 297 298 298 297 294 293 293 293 292 292 291 290 292 296 297 295 295 296 296
311 313 314 314 313 312 311 310 310 310 310 309 308 308 308 307 306 306 306 305 304 303 302 295 292 292 292 291 290 293 298 297 297 297 296 296 297 296 296 296 295 295 296 297 297 297 297 297 297 297 297 297 297 296 293 291 290 290 293 296 296 295 297
310 312 312 313 312 311 310 310 310 310 309 307 307 307 306 306 306 306 305 305 303 302 300 293 292 291 291 291 289 292 298 297 297 297 297 297 296 296 296 296 296 295 296 296 297 296 295 295 295 295 295 295 295 296 297 297 297 298 297 297 296 296 297
309 311 311 311 311 310 309 309 307 308 307 307 307 306 305 305 304 304 304 303 301 299 298 291 291 291 290 290 290 297 297 297 296 296 296 296 296 296 296 295 295 295 295 295 294 291 292 294 294 293 293 293 294 294 295 295 294 294 296 297 297 297 298
309 310 311 310 310 309 309 308 307 305 304 304 303 303 303 304 304 303 301 301 300 298 297 293 290 290 290 289 292 296 296 296 296 296 296 296 295 295 296 295 295 294 294 295 293 290 290 291 293 292 292 292 292 292 292 294 293 292 291 291 291 291 291
308 309 310 310 310 310 310 309 307 305 303 301 301 302 301 302 302 300 299 299 299 298 297 295 290 290 290 289 293 296 296 295 295 295 295 296 296 295 295 293 294 294 294 295 291 290 289 292 292 292 291 291 290 290 291 293 293 293 292 291 291 291 290
308 309 309 310 310 309 308 306 304 304 302 301 301 301 300 299 299 300 300 299 298 298 298 295 290 290 290 290 293 297 295 295 294 295 295 294 295 295 295 294 293 293 293 293 289 289 289 290 292 291 290 290 289 289 290 292 291 291 292 292 293 293 293
308 309 309 310 310 309 306 303 301 301 301 300 300 299 298 298 298 299 299 298 297 297 296 296 296 289 290 290 290 295 296 294 294 293 294 293 293 294 294 294 294 290 289 289 288 288 288 288 290 291 290 289 288 288 291 291 292 292 291 291 291 292 292
308 309 310 309 309 305 303 302 301 301 301 302 302 300 299 299 299 298 296 296 296 298 298 298 297 289 290 290 289 291 295 294 294 293 293 292 293 293 293 293 294 292 289 288 288 288 288 288 288 289 289 288 289 290 290 290 290 290 290 290 290 291 291
308 309 309 308 304 301 301 302 301 299 299 298 297 297 299 299 298 297 296 295 295 296 295 293 299 291 289 289 289 289 292 294 293 292 291 292 292 293 293 292 293 291 288 288 287 287 287 287 287 288 288 287 287 287 288 289 289 289 289 289 289 289 289
307 308 306 304 302 299 299 299 298 297 295 295 295 295 295 294 294 294 294 294 295 295 296 296 291 294 290 288 288 288 288 290 289 291 292 291 292 292 292 292 291 290 288 287 287 287 287 287 287 288 287 287 287 287 287 288 288 288 288 288 287 287 288
307 306 303 301 299 297 296 296 295 296 297 296 294 293 292 292 293 294 294 294 296 297 296 296 292 288 291 288 288 288 288 287 288 291 291 291 292 292 291 291 290 287 287 287 287 287 287 287 287 287 287 287 287 287 288 288 287 287 287 287 287 287 288

ECMWFFLT1_sfc_thetae_018.txt.gz
Theta_e
319 320 323 325 326 325 324 324 325 325 327 327 326 326 326 326 326 324 326 326 325 325 324 324 323 325 326 326 328 327 327 327 326 323 323 328 324 323 327 327 327 328 328 327 326 322 321 317 321 328 331 332 333 333 332 333 336 337 339 340 338 337 338
322 321 321 323 323 325 324 323 324 324 326 327 326 326 326 325 325 325 325 323 322 321 320 321 323 324 325 325 325 326 325 325 324 324 322 321 321 320 322 323 323 323 324 327 327 325 320 318 317 319 322 330 329 331 333 335 334 336 337 337 336 336 338
320 320 321 321 323 324 323 324 323 323 324 325 326 325 324 322 320 319 318 318 319 317 317 317 319 320 321 321 323 323 324 324 325 324 322 321 321 321 320 321 319 318 320 320 322 321 322 323 315 315 320 320 319 325 331 331 332 333 333 334 336 335 336
320 320 320 322 322 323 322 323 322 322 324 323 323 324 322 319 319 319 319 318 319 318 317 317 318 317 319 320 320 321 322 322 321 321 321 321 320 320 321 319 318 318 317 316 317 317 318 317 315 315 317 317 317 318 323 327 330 329 329 330 331 332 334
323 320 321 321 322 322 323 321 322 321 323 323 323 320 320 320 320 320 320 319 318 318 318 318 318 318 319 319 319 319 319 319 320 320 320 319 319 319 319 319 318 318 318 316 316 317 317 317 316 314 313 314 316 317 320 326 327 326 325 324 326 329 332
324 321 320 321 322 321 322 321 321 319 321 321 321 320 320 321 321 321 321 318 318 318 318 317 318 318 318 317 318 319 319 318 318 319 317 318 318 318 316 317 316 317 317 317 317 317 317 317 316 313 314 315 313 314 315 315 315 318 320 323 325 326 327
326 324 321 322 323 321 322 322 321 320 320 322 321 321 320 320 320 322 322 320 319 318 318 318 318 318 319 316 317 317 317 318 318 318 317 317 317 316 317 314 315 314 315 316 316 315 315 314 313 313 313 313 314 311 313 313 315 314 318 322 325 327 327
327 324 322 322 324 322 322 323 321 321 320 322 322 323 321 320 321 322 322 320 319 319 318 318 317 318 318 317 317 318 318 318 317 317 317 317 315 314 315 315 314 315 313 313 314 313 312 314 313 313 312 308 309 311 312 313 314 314 314 318 319 319 325
327 326 324 323 324 324 324 323 322 322 322 322 324 324 322 322 322 322 321 321 320 319 319 318 318 317 317 316 316 317 317 317 317 317 316 316 316 315 315 314 314 312 314 313 313 314 312 313 313 313 313 311 307 304 309 310 312 312 317 316 320 322 324
329 327 326 327 327 327 326 324 322 323 323 324 324 326 323 323 323 322 322 321 321 319 319 318 317 317 317 317 317 316 317 317 317 316 316 315 315 315 314 314 313 314 313 315 313 314 314 314 313 313 312 311 311 308 305 306 309 310 314 317 316 319 320
329 329 328 329 329 327 326 324 323 323 323 325 326 326 325 323 323 322 322 321 321 319 318 317 317 316 317 316 316 316 315 316 315 315 314 314 314 314 313 313 314 313 313 314 313 313 314 314 312 313 312 313 312 309 308 306 307 312 312 316 315 314 321
329 329 329 329 329 327 325 324 324 324 325 325 325 325 324 323 323 322 322 321 320 319 318 317 317 317 317 316 316 315 316 316 314 313 313 313 312 313 312 311 312 312 312 314 314 314 314 313 313 313 312 313 312 312 311 309 306 311 315 312 315 318 317
327 327 329 329 328 327 325 324 324 324 325 324 324 324 323 323 323 322 321 321 320 319 318 317 317 317 317 316 315 314 314 314 313 313 312 312 310 312 312 311 310 310 310 310 312 312 311 312 313 311 312 312 312 312 311 309 308 308 313 313 314 315 315
327 327 328 329 328 327 326 326 325 325 325 324 323 323 322 322 322 322 321 320 319 319 318 317 317 317 316 315 314 314 313 312 311 311 312 311 311 311 309 309 309 310 311 310 311 311 310 310 310 310 311 311 310 311 310 309 307 308 312 315 315 314 316
327 327 328 328 328 326 326 325 327 325 325 324 323 322 321 322 322 322 321 320 319 318 317 316 316 316 314 314 314 313 313 311 311 310 311 309 310 310 311 309 308 309 309 307 310 308 309 308 308 308 309 310 308 310 312 309 307 306 306 311 311 314 313
325 326 326 326 327 326 326 326 326 325 324 324 323 323 321 322 322 322 321 320 319 318 317 316 316 315 314 313 312 313 313 312 311 311 310 309 308 309 309 309 309 310 310 309 309 310 311 309 309 308 309 309 308 309 309 309 306 305 305 306 310 309 310
325 325 325 325 326 327 326 326 326 325 324 324 323 324 323 322 322 321 320 320 319 318 317 316 315 315 314 313 312 311 311 312 311 310 309 309 307 308 308 307 308 308 309 308 309 308 308 309 309 308 309 309 310 309 310 310 309 307 306 304 308 307 309
324 325 324 325 326 326 326 326 326 324 324 323 324 324 322 323 322 321 320 319 319 318 317 316 315 314 314 313 312 312 311 311 311 310 309 309 307 308 306 307 306 307 307 307 308 308 308 308 307 307 307 307 306 307 309 309 309 309 307 306 307 309 310
323 324 325 325 326 326 325 325 325 325 323 322 323 324 323 323 322 320 320 320 319 317 317 316 315 314 313 313 313 312 311 311 310 309 308 307 306 306 306 305 305 306 306 306 306 307 308 307 307 307 307 306 306 307 307 308 308 307 307 306 307 307 309
324 325 324 325 326 326 325 325 324 324 324 323 323 323 323 322 322 320 320 319 318 317 316 316 315 314 313 312 312 311 311 310 309 308 306 305 305 305 304 304 305 305 304 305 305 305 306 307 307 307 307 307 307 307 306 306 306 306 305 305 305 306 306
323 325 324 325 324 325 324 324 324 325 324 323 322 322 322 322 321 319 319 319 318 318 316 315 315 314 313 312 312 311 311 309 307 307 306 305 305 304 304 304 304 303 303 304 304 304 304 304 304 305 306 307 307 306 305 305 305 304 304 304 303 304 305
317 320 322 323 324 324 324 324 324 323 323 323 323 322 323 322 320 319 319 319 317 316 316 315 314 313 313 312 312 310 308 306 306 305 305 304 304 304 304 304 303 303 302 299 299 298 298 299 299 299 302 303 303 304 305 305 304 303 303 303 303 305 304
314 315 317 319 321 323 323 323 323 323 323 323 323 322 322 322 320 317 316 315 315 315 315 314 310 303 306 311 310 308 307 306 305 304 303 303 303 303 303 303 304 299 300 299 298 296 294 295 296 299 300 301 301 302 302 302 302 303 303 301 302 302 302
315 314 315 316 318 319 321 323 323 322 322 323 322 322 321 319 319 317 316 315 315 315 314 311 296 295 295 299 307 307 306 305 304 303 303 302 302 302 303 302 303 302 302 300 301 294 293 293 294 294 294 295 296 298 298 298 299 301 300 301 302 302 302
311 313 316 316 316 317 319 321 322 322 321 321 321 322 320 320 319 318 317 315 315 313 313 299 293 293 294 295 299 306 305 305 303 303 302 302 301 301 302 302 302 303 303 302 300 299 298 294 293 293 292 292 292 292 293 297 297 298 300 299 300 301 302
309 311 313 315 317 318 318 319 320 321 321 322 321 320 319 317 317 317 317 315 314 313 310 294 293 293 293 293 293 299 304 304 302 302 302 301 301 301 301 301 301 301 302 301 299 301 301 302 296 292 292 293 292 292 291 290 291 297 298 298 298 299 300
309 310 312 314 316 316 317 317 319 320 320 320 320 320 319 318 317 316 315 314 313 312 304 294 292 292 292 291 290 295 303 302 301 301 300 301 301 301 301 301 300 300 301 301 301 301 301 301 301 301 301 301 301 299 293 290 290 291 294 297 297 296 299
309 310 311 312 314 315 315 316 317 318 318 318 318 318 318 317 317 315 314 312 310 307 301 292 292 291 291 291 289 293 302 301 301 301 302 302 301 301 301 301 301 300 300 300 300 299 298 298 299 299 299 299 300 301 302 302 301 300 298 298 298 298 299
309 310 311 312 313 314 315 316 316 317 317 316 318 319 318 317 315 313 312 311 308 302 298 291 291 291 291 290 289 300 301 301 301 301 301 301 301 301 301 301 301 300 300 299 296 292 294 297 297 297 297 298 299 300 300 298 296 296 299 300 301 300 301
308 309 311 311 311 313 315 315 316 316 316 315 315 316 317 316 314 312 309 307 302 298 296 293 290 290 290 289 292 300 301 300 300 300 301 301 301 301 301 301 301 299 298 298 294 290 290 291 296 296 296 296 297 297 298 299 296 293 292 292 291 291 291
308 309 310 310 312 313 315 316 316 316 315 314 314 315 314 313 311 309 306 303 301 298 297 294 290 290 290 289 294 299 299 299 299 300 300 301 302 301 301 299 298 298 298 298 292 289 289 292 295 295 295 294 294 295 296 298 299 299 293 291 291 291 291
309 309 309 311 312 313 314 315 315 315 314 315 314 314 312 310 307 305 304 301 298 297 296 294 290 290 290 289 295 300 299 298 298 299 300 300 301 301 300 299 297 297 297 296 290 289 289 291 294 294 294 293 292 293 295 297 296 296 297 297 297 296 295
309 310 310 311 312 313 314 314 314 313 314 314 313 311 308 307 304 302 302 300 299 298 296 295 294 289 290 290 290 298 298 297 297 298 299 298 298 298 298 299 297 291 290 289 288 288 288 288 292 293 293 291 291 291 295 295 295 295 295 294 295 295 295
309 310 311 312 313 313 313 312 312 313 311 310 308 306 304 303 301 300 301 301 300 300 299 297 295 289 290 290 287 290 297 298 298 298 297 296 296 296 296 297 299 294 288 288 288 288 288 288 288 291 291 290 291 292 291 291 292 290 291 292 292 292 292
310 311 311 311 311 311 312 312 311 310 307 304 303 302 302 301 301 300 300 299 299 300 300 298 296 290 290 289 289 288 295 298 296 295 294 295 295 296 296 297 299 294 287 288 287 287 287 287 287 290 290 288 288 287 289 290 290 290 290 290 290 290 291
309 310 310 311 311 310 310 309 308 306 305 303 302 301 301 300 299 298 298 299 300 300 299 297 293 295 289 290 288 289 288 292 290 294 295 294 295 296 298 298 298 291 287 287 287 287 287 287 288 289 287 287 287 287 288 289 289 289 289 289 289 289 290
308 309 309 309 309 308 306 305 304 303 302 301 301 300 300 299 298 297 296 297 298 298 299 299 292 291 293 287 289 288 287 287 288 294 295 295 296 296 297 297 294 288 287 287 287 287 288 288 289 287 287 287 287 287 289 289 288 288 288 288 288 288 288

ECMWFFLT1_sfc_thetae_021.txt.gz
Theta_e
320 322 323 325 325 324 323 325 325 325 327 327 327 326 327 326 326 325 325 325 323 324 323 323 324 325 325 325 327 328 328 328 328 325 323 326 326 323 329 328 329 329 329 328 327 324 319 316 323 331 330 329 332 334 334 334 333 337 339 338 333 337 334
323 322 323 323 322 324 324 324 325 324 326 327 327 327 326 326 326 326 325 324 323 322 321 321 323 324 325 326 326 326 325 326 326 325 326 323 323 323 323 325 324 325 325 327 327 326 320 315 317 319 322 327 330 333 335 337 333 337 337 338 336 335 338
322 320 322 321 323 324 323 324 324 324 324 325 327 325 325 322 321 321 320 319 320 318 318 318 318 319 321 322 323 324 324 324 325 325 324 322 322 323 322 322 320 320 321 321 323 322 320 321 316 315 318 321 320 325 331 332 332 331 330 333 335 333 334
322 321 321 321 322 323 322 322 322 323 324 324 324 324 321 320 320 319 319 318 319 320 319 318 319 318 320 321 322 323 324 324 322 322 322 321 321 320 321 320 319 319 319 317 318 318 318 315 315 315 317 316 316 317 323 324 325 323 326 329 329 328 329
323 321 323 321 321 323 322 321 322 322 323 323 323 321 321 321 321 319 319 320 319 319 319 319 320 320 321 321 321 322 321 322 323 322 322 320 321 319 318 318 318 318 319 317 317 317 315 315 316 313 312 312 312 314 318 324 323 322 323 323 321 322 327
323 321 324 322 323 322 322 321 321 321 322 321 321 321 321 322 322 321 320 319 319 320 320 319 320 320 320 320 321 321 322 321 321 322 320 320 321 320 317 316 317 317 318 318 316 316 317 317 315 312 313 315 312 313 314 315 315 317 316 318 321 324 324
322 323 323 323 323 323 323 322 321 321 321 322 321 321 321 322 321 323 323 321 320 319 319 320 320 320 321 318 319 320 319 320 321 320 320 319 318 318 319 317 316 315 316 316 316 315 315 314 312 313 312 312 312 309 311 312 314 313 316 319 321 322 323
323 322 322 323 324 322 323 323 322 322 321 323 322 323 321 322 323 323 323 321 319 320 319 320 320 320 320 318 319 321 320 320 320 320 319 319 318 316 317 317 317 316 314 315 314 316 314 313 312 313 312 308 309 311 310 311 312 312 312 316 318 319 320
325 324 321 322 324 324 325 324 322 323 323 323 325 324 322 322 323 323 321 321 320 319 320 319 319 318 319 318 318 319 318 319 318 318 318 318 317 317 317 317 318 315 315 314 315 315 314 315 313 312 312 311 308 306 309 308 309 310 314 313 317 320 322
328 326 323 323 325 325 325 325 323 322 325 325 325 325 322 322 323 323 321 321 321 320 320 319 319 319 318 318 318 318 318 319 319 318 319 317 317 317 315 316 315 315 313 315 317 315 316 315 315 314 311 309 310 307 306 306 308 309 312 314 312 316 316
328 328 326 325 325 326 324 324 324 323 323 324 325 326 323 322 323 322 322 322 321 320 320 319 319 318 319 318 318 319 318 319 317 317 317 316 316 316 315 315 315 314 313 315 313 315 315 315 314 314 313 313 311 308 308 306 307 311 310 314 314 313 318
328 328 327 327 328 327 325 323 323 323 324 324 324 326 323 323 322 321 323 322 322 320 320 319 319 318 318 317 317 317 317 318 316 315 316 316 315 315 314 314 314 314 312 314 315 316 316 315 314 313 313 314 314 312 310 308 305 310 315 313 315 316 315
327 326 327 327 327 327 326 324 323 324 324 324 325 327 323 323 322 322 321 321 321 321 319 319 318 318 318 318 317 316 317 317 315 314 314 314 313 314 313 313 311 312 312 310 313 314 312 313 315 312 311 311 312 314 312 309 306 306 311 311 312 313 314
328 327 327 327 327 327 327 326 323 323 324 325 325 326 323 322 322 322 321 321 321 320 319 319 318 319 318 318 317 317 316 315 314 314 314 313 313 313 312 311 312 313 313 312 312 312 311 312 312 312 312 311 310 312 311 310 307 307 311 314 314 313 314
328 328 328 327 327 327 326 324 326 325 323 325 324 325 323 323 322 322 321 320 321 320 319 318 318 318 316 317 317 317 315 314 314 314 314 313 313 312 312 311 310 312 312 310 311 310 310 310 310 309 309 311 310 310 311 308 307 306 306 310 310 312 312
325 326 327 327 327 327 326 327 325 324 325 323 324 324 323 323 323 322 321 321 320 320 319 318 319 318 316 317 316 316 315 314 313 313 312 312 311 313 312 312 311 312 313 312 312 312 312 311 311 309 310 310 309 310 310 310 308 306 306 306 309 308 309
325 325 324 324 323 321 326 327 325 324 325 323 323 324 324 323 323 323 322 321 321 320 319 319 318 317 316 316 315 314 314 314 314 313 313 312 310 311 311 311 311 311 311 310 311 310 310 311 311 310 310 310 310 309 311 312 312 310 309 307 309 309 310
325 327 327 326 327 326 325 325 326 323 325 324 323 325 324 322 323 322 322 321 321 320 320 319 318 317 317 317 315 315 314 313 313 313 312 312 313 310 310 309 309 309 309 308 309 309 310 310 308 308 308 308 307 308 309 309 309 309 308 307 308 309 310
326 327 327 328 326 324 324 325 325 324 323 324 322 322 323 323 322 322 322 322 322 321 321 320 318 317 317 316 316 315 314 314 313 312 312 312 310 310 310 308 308 308 308 307 307 308 308 308 308 308 307 307 307 307 307 307 307 307 306 305 306 306 309
324 324 324 325 326 325 325 327 326 324 323 323 322 320 321 322 322 323 322 323 322 322 321 320 319 318 317 316 315 314 314 314 313 313 312 310 310 309 308 307 308 307 307 306 306 306 307 307 307 307 307 307 308 308 307 307 307 307 306 305 306 306 306
318 321 323 325 325 326 325 326 326 326 324 324 322 322 321 320 322 321 323 323 322 322 321 320 319 318 317 317 315 314 313 313 312 312 311 309 309 308 307 307 306 306 306 306 306 305 303 302 303 303 303 304 304 304 304 304 304 304 305 305 304 304 305
315 316 317 319 321 323 325 326 325 325 324 325 324 324 323 323 323 323 323 323 322 322 321 320 319 318 317 316 315 314 314 313 312 311 309 308 308 307 307 307 307 306 306 300 296 298 299 299 299 298 300 301 302 302 302 303 303 303 304 304 304 305 304
314 314 315 315 316 318 320 321 322 324 324 324 324 323 323 324 323 323 323 323 322 322 322 321 315 307 309 315 315 314 314 313 311 310 308 307 307 307 306 307 307 306 301 299 297 295 293 294 296 299 299 300 300 300 301 301 301 301 301 301 301 302 302
312 312 314 315 314 315 315 318 320 321 322 323 324 324 323 322 323 322 322 321 320 321 320 319 302 299 301 303 313 315 313 311 310 309 308 307 306 306 306 305 306 305 302 301 301 295 294 293 293 294 294 296 298 299 298 297 298 300 299 299 300 300 300
309 310 311 312 314 315 315 315 316 318 320 321 321 323 323 322 322 323 323 322 320 321 320 303 297 299 299 299 304 313 311 310 309 308 307 306 306 305 305 305 305 306 305 305 304 304 298 294 293 293 292 293 293 293 294 297 297 297 298 298 298 299 300
308 309 310 310 311 313 313 315 315 315 317 320 321 320 320 321 321 322 321 320 319 319 318 296 296 296 296 296 298 305 310 309 308 307 306 306 305 304 304 304 304 305 305 305 301 301 302 303 296 292 294 293 293 292 291 290 292 298 299 297 297 297 298
308 308 309 310 311 310 311 312 314 317 318 318 319 319 320 320 321 321 320 320 318 318 314 296 294 295 294 294 293 299 310 308 307 306 305 305 304 304 303 303 302 303 303 304 303 303 302 302 302 302 301 302 302 300 293 291 291 291 294 298 298 297 299
308 308 309 309 310 310 311 312 312 314 315 316 317 318 319 319 319 320 320 319 318 318 307 294 293 293 293 292 291 296 307 306 304 304 304 304 303 303 303 303 302 301 302 302 303 301 301 300 299 299 299 299 300 301 302 302 300 299 298 298 299 300 300
309 308 308 309 309 309 310 312 313 314 314 314 316 317 317 318 319 319 319 318 318 307 302 292 292 292 292 291 291 303 304 303 301 302 302 303 303 304 304 303 303 302 303 303 296 290 295 299 298 297 297 298 299 300 301 299 298 298 302 302 301 301 302
308 309 308 308 308 309 310 311 312 314 314 314 314 315 316 316 317 318 318 317 315 304 300 293 291 291 291 290 294 302 303 301 301 301 302 303 303 304 304 303 303 302 303 303 294 289 289 293 297 297 296 297 298 298 298 301 297 294 293 294 294 293 293
307 307 307 307 307 309 310 311 311 313 313 313 313 314 315 315 316 317 317 317 311 303 299 294 290 291 290 290 296 301 301 300 300 301 301 303 303 303 303 304 303 301 300 302 290 289 288 294 297 296 296 295 296 296 296 298 299 300 295 293 292 292 292
308 308 308 307 308 308 309 311 311 312 313 314 314 314 314 314 315 316 316 313 301 301 298 293 290 290 290 290 295 302 300 299 299 300 300 300 302 303 302 302 300 299 300 297 288 289 288 293 296 296 296 295 294 293 295 297 296 297 298 298 299 300 298
308 309 309 309 310 310 310 311 311 312 313 312 312 313 312 313 314 310 305 302 301 299 296 294 293 289 290 290 289 296 300 298 298 298 299 299 300 301 300 300 299 291 290 288 288 288 288 288 293 295 295 294 293 292 295 295 295 294 294 293 294 295 295
308 309 309 309 310 310 311 311 312 312 312 312 311 311 312 313 311 304 302 300 298 297 296 295 293 290 290 290 288 292 298 298 298 298 298 298 298 297 297 298 299 289 288 288 288 287 288 288 289 291 292 292 293 293 291 291 291 291 292 292 292 292 293
309 310 310 310 310 311 311 312 312 312 310 311 312 312 309 307 304 302 301 299 298 297 297 295 293 290 290 289 289 288 296 298 296 296 294 295 295 296 297 297 298 290 287 287 288 288 288 288 288 290 291 289 288 287 290 290 290 290 289 290 290 290 291
308 310 310 311 310 310 311 311 312 312 312 311 309 308 306 303 300 299 299 299 299 298 296 294 292 293 289 289 289 289 287 293 289 295 293 294 295 296 298 299 299 290 289 288 288 288 288 288 288 291 288 288 288 287 288 290 289 289 289 289 289 289 290
308 309 309 309 309 309 309 310 310 310 310 309 306 305 304 301 299 298 297 297 298 297 295 294 292 291 291 289 289 289 288 287 289 294 296 296 296 297 298 299 296 289 289 289 288 288 288 288 290 288 288 287 287 288 290 290 289 289 288 288 288 288 289

ECMWFFLT1_sfc_thetae_024.txt.gz
Theta_e
325 322 327 327 328 327 328 327 327 331 329 329 330 328 328 326 327 327 326 325 325 323 324 322 322 322 324 324 326 329 329 329 327 324 323 325 323 322 326 327 327 328 328 327 326 322 318 315 320 328 329 330 330 331 333 333 334 334 337 338 338 337 337
323 324 324 324 326 327 328 330 328 325 327 328 326 326 325 325 325 324 322 321 319 318 319 318 319 321 321 322 323 323 324 325 327 326 322 322 324 323 323 323 325 326 326 326 326 325 320 316 317 318 319 326 329 330 332 334 333 336 337 337 337 335 336
323 322 323 324 324 328 327 326 326 327 324 329 328 325 322 320 322 322 320 320 321 319 317 316 318 320 322 322 323 323 323 322 323 322 322 323 323 324 324 326 323 322 323 322 323 323 322 320 315 315 318 317 318 325 330 333 333 333 333 334 335 334 334
322 323 321 323 323 326 323 324 327 326 327 325 326 325 323 321 322 323 322 320 321 321 320 319 319 319 321 322 322 322 321 322 320 321 320 321 320 317 318 316 314 315 315 314 314 315 313 312 311 311 312 311 309 310 324 328 329 329 329 329 329 330 331
323 323 321 321 322 323 324 324 326 325 325 325 325 323 324 324 323 322 323 322 322 323 321 321 323 321 322 321 322 322 321 322 322 321 320 319 320 318 316 316 317 318 316 313 314 315 313 313 312 309 309 309 309 310 313 326 326 322 322 321 322 323 325
324 325 322 323 323 324 323 324 324 324 322 322 323 321 323 323 323 323 324 323 322 322 322 320 320 322 319 320 320 319 318 317 317 317 316 316 316 315 316 317 317 315 313 315 316 314 315 314 313 310 311 310 307 308 309 309 311 316 315 315 317 317 315
325 327 324 324 324 325 324 325 324 324 323 323 322 322 322 324 324 326 325 322 322 321 321 322 323 322 324 317 319 319 319 320 320 319 317 317 316 316 316 314 313 315 316 317 315 318 317 312 309 309 309 310 310 308 309 308 309 309 312 314 314 315 318
326 327 327 326 325 327 325 326 326 326 324 323 323 323 322 325 325 324 323 322 323 322 321 322 323 322 322 318 319 320 320 320 318 317 317 317 316 316 315 314 320 313 314 311 315 314 312 312 311 310 308 305 306 308 308 309 308 307 308 311 314 314 318
324 326 327 326 327 330 327 326 327 328 326 326 324 323 322 325 324 324 323 323 322 322 322 321 321 320 321 320 319 320 317 318 318 318 317 316 316 316 315 316 316 312 313 314 314 313 314 314 314 313 311 307 304 302 306 306 307 308 312 309 311 313 313
325 325 325 328 326 329 332 327 328 329 330 327 325 324 322 325 324 324 322 321 322 322 322 321 321 320 321 320 318 319 319 320 319 316 317 316 316 317 316 315 316 312 311 316 315 314 315 314 314 314 313 310 309 304 302 302 305 305 308 311 307 310 314
328 327 325 329 328 326 330 329 329 328 330 328 326 324 323 324 324 324 322 321 322 322 321 321 321 319 321 320 318 319 319 319 317 317 318 316 315 315 314 314 314 312 313 315 314 317 316 313 313 314 312 312 311 306 305 302 302 306 307 310 311 309 312
332 331 330 330 328 326 327 330 329 327 329 328 326 324 322 323 324 323 323 321 321 320 321 321 321 318 320 319 318 318 317 318 317 315 316 316 316 316 314 314 313 314 311 312 314 317 315 314 312 309 309 311 313 311 308 306 301 306 309 306 309 311 311
329 331 331 332 331 329 329 329 331 329 330 328 328 325 322 322 322 321 321 321 320 319 318 319 319 318 319 318 317 317 316 317 315 314 312 314 314 315 312 313 311 311 311 310 310 314 315 313 314 313 310 311 309 312 311 308 304 304 309 308 309 310 311
331 329 327 331 326 330 329 329 329 331 327 325 328 326 324 322 321 321 320 320 319 319 318 318 317 317 316 317 315 317 314 315 314 313 313 313 313 314 313 312 311 313 312 311 310 309 309 311 312 311 310 309 308 309 308 306 304 304 307 312 311 308 309
331 328 329 329 328 325 323 327 328 329 331 326 321 323 323 324 323 321 319 319 319 319 319 317 317 317 315 316 315 318 315 313 313 312 313 310 312 315 312 310 311 312 312 310 310 308 307 307 306 305 307 310 306 308 307 306 303 302 301 305 306 308 307
327 326 326 326 327 325 325 323 325 327 327 326 328 325 322 322 322 321 320 320 319 319 318 317 317 317 316 316 314 316 315 313 312 313 311 311 310 311 311 311 310 311 313 311 311 310 311 310 309 306 307 308 307 307 307 307 305 303 303 304 307 306 306
326 323 323 324 325 324 323 323 324 325 325 328 325 327 328 326 321 320 320 320 319 319 319 318 317 316 316 315 315 314 313 313 313 313 311 311 310 311 310 311 311 311 310 309 309 310 309 310 310 308 306 306 306 305 307 308 308 304 304 303 305 305 307
327 326 324 322 325 325 323 322 322 323 326 326 326 326 326 325 323 321 320 320 319 319 319 318 317 317 317 317 316 315 313 312 312 312 312 312 314 310 310 310 310 310 309 307 308 308 309 308 306 306 305 304 304 306 306 306 304 304 302 301 302 304 305
327 326 326 326 326 325 324 323 322 322 323 322 323 326 321 321 321 321 320 319 319 319 319 319 318 317 316 316 316 315 314 313 313 312 312 312 311 311 311 309 310 309 308 308 307 307 307 307 306 305 304 304 303 304 305 305 305 304 303 302 302 302 303
326 328 329 328 328 325 323 322 321 321 322 321 320 321 320 320 320 321 321 320 320 320 320 320 319 318 317 316 315 315 314 313 313 312 312 311 311 309 309 309 309 309 307 307 307 306 306 305 306 304 304 303 302 301 301 301 302 301 301 301 301 302 302
325 327 327 328 327 327 326 324 323 324 323 321 320 321 320 320 320 321 321 321 320 323 320 320 319 319 318 316 315 314 314 313 312 312 313 311 311 310 309 309 309 308 307 307 305 301 300 300 301 300 300 300 300 299 298 299 299 298 298 299 299 299 300
320 320 319 323 325 325 325 325 325 325 323 322 324 324 324 322 320 318 320 320 320 323 322 320 319 319 318 316 316 314 314 313 312 311 311 310 310 309 308 308 307 307 308 302 301 300 300 300 299 296 298 299 299 298 298 298 299 297 297 297 297 299 298
318 320 320 320 321 322 322 324 324 325 325 324 322 321 321 321 320 320 320 320 320 320 321 322 315 309 308 316 315 314 314 313 312 311 310 308 308 307 308 307 309 309 303 302 297 294 294 294 296 299 297 297 297 297 297 296 295 295 296 295 295 296 295
318 316 319 320 320 318 316 321 323 323 324 322 321 321 320 320 320 320 319 317 318 319 320 320 308 303 301 305 314 314 313 312 312 311 309 308 306 306 307 305 306 303 301 300 299 294 293 293 293 293 294 296 298 298 296 295 294 294 294 294 294 294 294
315 315 317 316 316 318 319 319 318 318 320 322 322 323 322 322 321 321 321 321 320 319 320 311 305 300 298 300 307 313 313 312 312 310 308 308 307 305 305 305 306 306 303 303 302 300 296 294 293 293 292 292 292 292 294 295 295 294 294 293 293 293 294
313 314 315 315 317 317 316 316 315 317 318 320 322 321 321 321 320 321 321 320 321 320 319 301 300 299 297 298 302 308 312 311 309 308 308 307 306 305 305 305 305 306 305 307 306 302 301 299 295 293 293 293 293 292 290 290 292 296 296 294 294 294 294
313 314 315 315 314 313 313 313 315 316 317 318 318 318 320 319 320 319 320 319 319 319 317 300 298 298 297 297 298 304 310 310 309 308 307 307 307 307 306 305 304 305 305 304 301 301 301 301 301 299 297 296 296 297 294 292 291 291 293 294 295 294 296
313 313 313 313 313 312 311 313 314 315 314 314 315 315 316 316 317 318 318 319 318 316 311 297 296 296 296 296 296 300 310 309 307 307 308 307 306 308 307 306 304 303 302 302 304 302 302 300 299 299 298 297 296 296 297 297 297 296 295 295 294 295 296
314 314 313 313 312 311 313 314 313 314 314 314 313 313 314 315 316 317 318 318 317 312 305 293 294 294 294 294 297 305 305 304 303 303 303 305 305 305 306 305 303 302 302 302 296 294 297 300 298 296 296 295 295 296 297 298 296 296 298 299 298 297 298
312 313 312 311 310 311 312 313 314 314 312 313 313 313 312 314 315 315 316 316 315 306 302 294 293 293 293 294 298 303 302 300 301 301 303 305 305 305 305 304 303 302 303 301 293 290 291 294 297 295 295 294 295 295 295 298 296 294 294 293 293 293 293
311 311 310 309 310 311 312 312 311 313 310 310 311 312 313 312 314 314 315 315 310 304 299 294 291 292 293 295 299 302 301 301 301 300 302 304 304 303 304 307 304 303 302 301 289 290 289 294 296 295 294 294 293 293 294 296 297 297 295 294 293 293 292
310 311 309 309 311 310 310 310 309 311 310 310 310 312 311 311 312 312 308 306 303 301 296 293 291 291 291 293 299 302 301 300 299 300 300 300 302 302 303 304 302 300 296 291 288 288 288 292 294 294 293 293 292 291 292 293 293 292 292 291 291 292 292
309 308 307 309 311 311 312 310 309 309 310 309 308 310 310 311 308 303 304 302 301 298 295 294 293 290 290 290 291 298 301 302 300 300 301 300 300 302 300 299 292 288 288 288 287 288 288 289 290 290 290 290 290 290 292 290 290 290 290 290 290 290 291
309 310 309 310 311 311 311 309 310 310 309 310 310 311 311 307 304 302 301 301 299 298 296 293 292 290 290 290 290 294 298 298 297 297 297 297 297 297 296 295 292 289 288 288 288 287 288 288 288 289 289 289 290 291 289 288 289 290 288 289 289 289 289
308 310 310 311 311 310 310 310 309 310 309 309 310 308 307 304 302 300 299 298 297 295 295 294 292 290 289 289 289 291 296 295 294 295 294 293 293 294 294 296 292 289 288 288 288 288 288 288 288 289 289 289 288 288 288 289 288 288 288 288 288 288 288
308 309 308 308 308 308 309 309 309 309 309 310 309 308 304 303 301 298 297 296 295 294 293 293 291 291 289 289 289 289 288 293 289 295 294 293 294 294 295 296 292 290 288 288 288 288 288 288 288 289 288 288 288 288 288 288 288 288 288 288 288 287 288
306 307 307 307 307 307 308 308 308 308 310 309 307 305 304 302 300 298 296 294 294 293 293 292 291 290 290 289 289 289 288 288 290 294 295 295 294 295 295 297 293 289 289 289 289 289 289 289 289 289 288 288 288 288 288 288 287 288 288 288 287 287 287

ECMWFFLT1_sfc_thetae_027.txt.gz
Theta_e
316 315 315 317 318 319 319 320 320 320 321 321 320 319 318 318 316 314 313 312 314 317 318 317 316 317 319 322 323 324 323 322 322 321 319 319 319 318 321 322 324 324 324 324 320 316 312 310 314 321 324 326 328 328 330 331 332 333 333 333 334 334 333
317 317 317 318 317 319 317 317 317 317 318 319 318 316 315 317 317 314 313 313 310 311 315 315 316 317 316 317 317 317 317 320 321 320 319 318 319 317 319 319 322 322 322 322 322 320 315 311 311 314 315 321 323 326 328 330 330 330 332 335 336 335 333
316 315 315 315 315 317 316 315 314 315 316 313 314 314 314 314 313 313 312 313 314 315 314 313 313 314 314 315 315 316 316 315 316 317 318 318 319 318 319 319 315 318 318 318 318 318 317 315 311 311 312 313 313 317 324 326 329 330 331 333 332 333 332
314 314 314 313 315 314 315 316 315 316 315 314 313 312 312 312 313 316 314 314 315 317 316 313 313 314 315 315 316 315 315 315 313 313 313 314 312 311 312 312 311 311 311 310 309 310 309 307 307 306 308 308 307 306 310 325 329 330 330 330 331 331 332
315 315 314 313 314 314 314 315 316 315 315 313 312 312 313 313 313 312 313 313 314 312 312 314 315 316 316 316 315 314 312 313 313 313 311 311 311 311 310 310 309 310 310 309 310 310 308 308 308 306 306 307 307 307 310 312 323 327 327 327 327 328 329
316 315 315 314 315 314 314 315 315 314 314 313 312 312 310 311 313 314 314 312 312 313 313 313 313 314 314 313 313 313 313 312 312 311 310 309 310 309 309 309 310 310 309 310 311 309 309 308 306 302 305 307 304 305 307 307 306 309 313 317 317 315 315
316 316 315 315 315 314 316 315 315 314 314 313 312 311 313 314 314 315 313 311 311 313 313 312 313 314 314 314 313 313 313 312 312 311 310 309 309 309 310 309 308 309 307 309 309 308 307 306 303 303 304 304 305 305 308 306 307 305 308 311 314 315 316
317 316 317 317 316 315 316 316 316 315 315 315 314 314 315 313 314 313 312 312 312 311 312 312 315 314 314 314 314 313 312 311 311 311 309 309 310 309 309 309 309 307 306 308 308 309 308 308 306 305 304 301 301 302 304 305 307 306 306 308 311 311 312
319 317 317 318 317 316 317 316 317 316 316 315 315 314 315 316 315 314 313 312 312 312 312 312 312 312 312 312 311 309 309 314 310 309 309 309 308 307 308 308 306 305 308 309 308 308 308 310 309 307 304 302 300 297 301 302 303 305 308 306 308 310 311
318 317 317 316 318 318 317 316 318 317 317 316 315 314 315 316 315 313 313 313 312 312 311 312 312 311 312 312 310 309 309 311 311 310 309 308 308 308 307 308 305 306 307 308 308 309 309 307 308 308 307 304 303 299 298 297 300 301 305 307 305 307 311
316 317 318 316 317 319 316 316 319 318 317 317 316 316 315 316 315 320 313 312 312 312 311 312 311 311 312 311 311 311 311 310 309 309 310 308 307 307 308 307 306 304 307 307 309 310 308 307 307 308 306 306 304 301 301 298 299 302 303 306 307 306 309
317 315 318 318 316 318 317 316 316 319 318 317 316 314 314 316 316 315 314 312 312 312 312 311 311 310 311 310 310 310 310 309 308 307 308 308 309 308 307 305 306 305 304 304 306 310 309 307 306 305 305 305 307 304 303 301 298 301 306 305 306 309 307
319 317 319 317 316 317 318 318 316 317 318 318 315 314 315 316 316 315 314 313 313 312 311 312 310 309 309 309 311 310 309 310 309 307 307 308 311 308 306 304 305 305 305 305 305 305 305 307 307 307 306 306 305 306 304 302 300 301 304 305 306 307 307
320 319 319 319 319 318 318 319 318 317 319 318 316 315 315 316 316 315 315 315 314 313 312 311 310 308 309 309 308 309 308 309 308 306 306 306 309 307 308 307 305 306 305 304 303 304 305 304 306 306 306 304 303 304 304 302 300 300 301 304 305 305 307
320 319 319 319 317 316 317 319 319 319 317 317 318 317 315 316 316 316 315 315 314 314 313 312 310 310 308 309 307 312 309 308 307 307 306 305 305 309 304 304 306 306 306 304 304 305 305 305 304 302 304 306 304 304 304 302 300 299 299 301 303 305 306
318 317 316 317 317 317 317 315 317 319 317 318 317 318 317 317 316 316 315 315 315 314 314 312 311 311 309 310 307 309 309 307 307 306 305 305 306 307 304 305 305 305 307 304 305 304 305 305 304 303 302 303 302 302 304 304 301 299 299 300 302 303 303
318 318 318 318 317 317 317 317 318 318 320 319 318 318 318 317 317 316 315 314 314 314 314 313 312 312 312 311 310 310 309 307 307 308 307 306 306 306 305 305 305 306 306 304 304 304 303 303 303 302 301 301 301 302 302 302 302 300 299 298 298 300 302
317 317 317 317 315 315 316 316 317 317 318 319 318 318 318 318 316 315 315 314 314 314 314 313 313 312 312 312 311 311 309 308 308 308 307 307 310 306 306 306 306 305 304 303 303 303 302 302 303 302 300 300 300 302 302 302 301 301 299 297 298 299 301
319 319 319 318 316 314 314 315 315 315 318 319 319 319 318 317 318 316 315 314 314 314 315 314 313 313 313 312 311 311 310 309 309 308 307 308 307 307 306 306 305 304 303 302 302 302 302 301 302 300 299 299 299 299 298 298 298 298 297 297 297 297 298
317 317 317 318 318 317 315 314 315 315 315 317 315 315 317 317 317 318 318 317 315 315 316 317 316 316 315 313 312 311 310 309 309 308 308 308 307 306 306 305 304 303 303 302 302 301 299 299 300 297 298 296 296 296 296 296 296 296 295 295 295 296 297
315 317 318 320 320 318 316 315 314 314 315 314 314 314 315 315 314 315 316 316 316 316 316 315 316 316 316 315 312 311 310 309 308 308 308 307 306 305 305 305 304 303 303 303 300 297 297 295 296 294 294 296 296 295 294 295 295 294 294 294 293 293 294
311 313 316 317 317 317 317 317 316 315 315 316 316 315 315 314 315 314 315 315 315 315 316 316 316 316 315 315 313 311 310 310 309 308 307 306 305 305 304 304 304 304 308 306 302 301 300 300 294 291 292 294 296 293 293 293 294 292 292 292 291 293 291
306 309 311 313 315 316 316 316 317 317 317 317 316 315 314 314 315 314 314 314 314 315 316 317 315 309 310 315 315 314 311 310 309 308 307 306 304 304 303 303 308 312 306 302 298 295 294 296 298 296 293 293 293 293 292 292 291 292 292 291 290 290 290
305 305 306 307 306 313 315 316 315 315 316 316 316 316 315 315 315 315 315 315 314 315 316 317 306 302 302 305 313 312 311 309 309 308 307 305 303 302 302 303 306 305 303 301 298 293 293 293 293 294 295 297 297 293 292 292 291 291 292 292 292 291 289
302 303 303 304 305 306 306 306 309 314 316 315 316 313 313 315 315 315 315 314 313 313 314 310 302 301 301 300 304 312 311 309 309 308 307 305 304 303 302 303 304 304 300 299 298 297 295 294 293 292 292 292 292 293 295 293 293 291 290 290 290 291 290
302 302 303 304 304 303 303 303 303 305 306 306 310 313 314 314 314 314 314 314 314 313 313 307 301 301 300 299 298 304 311 310 308 307 307 306 305 303 302 303 303 304 303 306 305 300 298 296 295 293 293 293 293 292 290 290 291 294 292 291 291 291 291
300 302 304 304 304 303 304 304 305 305 305 304 304 305 305 307 308 309 312 313 314 314 314 308 300 300 300 298 296 299 310 309 307 306 306 306 305 303 302 302 303 303 303 304 303 302 300 297 296 295 293 292 292 294 293 292 291 291 292 292 291 291 293
301 300 301 301 301 302 303 304 306 305 305 305 306 306 305 305 307 309 309 310 309 310 314 305 299 299 298 296 295 301 306 307 304 304 304 304 303 302 302 303 302 302 302 303 302 301 299 296 295 296 293 293 293 293 294 294 293 292 293 293 292 292 293
299 300 300 301 301 301 301 301 301 301 303 302 304 305 304 304 304 305 308 307 308 306 309 302 298 297 296 294 297 304 304 303 302 302 301 302 301 301 301 301 300 300 300 301 299 295 296 297 295 293 292 291 291 291 292 296 296 296 296 295 294 294 294
300 300 300 300 300 300 300 300 301 302 302 299 300 300 302 302 303 303 303 304 304 300 301 295 294 294 293 294 298 301 301 300 299 299 299 299 299 300 301 302 301 301 301 301 295 291 290 294 294 292 291 290 291 291 292 293 295 293 292 291 291 291 291
299 300 299 299 298 298 299 299 300 300 301 299 299 299 300 302 301 300 302 303 303 298 291 292 292 292 294 295 297 299 298 298 298 298 298 298 299 300 303 307 304 301 298 294 288 289 290 294 291 290 289 289 289 288 289 290 292 292 291 291 291 290 290
300 300 299 299 299 299 299 299 298 300 299 299 298 299 300 300 297 297 297 299 301 295 291 292 292 293 294 295 297 297 298 297 297 296 297 297 299 300 298 294 296 294 292 290 288 289 289 291 288 287 287 286 286 286 287 287 287 287 287 287 287 288 288
299 299 298 298 298 300 299 300 300 299 298 299 300 298 298 297 296 294 294 295 295 292 291 290 292 292 293 294 296 298 298 296 296 296 296 296 297 295 293 292 291 288 288 288 288 287 288 289 288 287 287 286 285 285 287 286 287 286 285 286 286 286 287
299 299 299 300 300 300 300 299 299 300 299 298 297 297 297 296 295 293 293 292 291 290 291 289 290 291 292 293 294 294 295 294 293 291 290 290 291 293 292 290 290 289 288 288 288 288 288 288 289 289 287 286 286 288 288 285 287 289 286 286 287 287 286
299 301 299 300 299 299 299 299 299 299 299 297 297 297 294 293 292 291 290 290 289 289 291 292 289 290 291 292 292 292 293 293 293 291 290 290 291 292 292 291 290 289 288 288 288 288 288 288 288 291 288 288 288 288 287 287 286 285 285 285 284 285 285
299 302 301 300 299 298 298 298 298 299 299 298 298 296 294 292 291 289 289 288 287 288 288 289 290 290 290 290 291 291 290 291 291 293 291 291 291 292 293 291 291 290 288 288 288 288 288 288 288 288 287 287 288 288 288 286 285 285 284 284 284 284 285
298 298 298 298 298 298 298 299 299 301 297 299 297 296 293 292 290 289 288 287 288 287 287 287 290 290 289 289 289 289 289 290 291 293 293 292 292 293 292 292 292 289 289 288 288 289 288 288 287 288 288 288 288 288 286 286 284 284 284 284 284 284 286

ECMWFFLT1_sfc_thetae_030.txt.gz
Theta_e
312 313 314 313 313 314 314 314 314 314 315 315 314 313 313 314 312 311 312 314 315 316 317 314 315 316 319 321 321 319 319 320 320 319 319 320 317 315 320 320 321 323 321 320 315 312 307 307 312 316 319 324 325 326 328 328 329 331 330 331 332 332 331
314 315 315 316 315 315 313 312 313 313 312 311 312 312 311 313 315 311 310 311 312 314 317 315 315 316 315 314 314 315 315 317 319 318 317 316 316 316 318 318 319 319 318 317 318 316 312 308 310 312 312 318 319 323 325 326 328 328 329 331 333 334 332
315 314 314 314 313 313 312 310 310 310 309 309 309 310 310 311 311 312 312 311 311 314 314 312 312 313 313 313 313 313 313 312 313 315 315 313 314 314 315 315 315 317 315 311 310 311 312 311 309 308 307 307 309 310 316 322 325 326 328 329 330 333 333
314 313 313 313 313 311 311 309 309 308 309 308 308 308 309 311 312 314 312 312 313 315 313 312 312 313 312 312 312 312 311 310 310 310 311 310 310 310 310 311 312 312 311 308 307 309 308 306 305 304 305 306 305 305 308 310 317 322 326 327 329 330 331
314 313 313 313 312 311 311 310 309 309 307 308 308 308 308 309 311 310 311 310 311 310 311 312 312 312 312 311 310 310 310 310 310 310 308 307 308 307 307 307 308 309 309 308 309 308 307 307 306 304 304 304 304 305 308 309 309 309 311 316 317 318 321
314 313 313 313 312 312 312 311 309 307 307 309 307 307 308 308 310 309 309 310 310 311 310 311 310 310 311 310 311 310 309 309 308 307 307 305 307 307 306 306 307 307 307 307 308 307 306 305 303 301 303 305 303 303 304 305 305 306 308 309 309 310 311
313 313 313 313 312 314 313 311 310 309 308 308 307 307 309 309 309 310 309 309 309 310 311 310 310 310 311 312 310 310 309 307 308 307 306 305 306 305 305 304 305 306 306 307 305 306 304 303 300 300 301 301 302 302 303 304 306 304 305 308 309 310 310
314 313 313 313 313 314 313 312 311 310 309 309 308 309 311 309 308 308 308 308 309 309 311 311 313 311 311 312 310 309 307 306 307 308 305 306 307 306 305 304 306 305 305 306 306 306 306 304 303 302 300 298 297 297 300 302 303 303 303 305 308 310 309
316 314 314 314 313 315 314 313 312 311 311 310 310 311 311 311 309 309 309 307 307 308 310 310 310 311 310 308 307 307 307 311 308 307 305 305 305 304 303 303 305 304 305 305 306 305 305 306 305 303 302 298 295 294 297 297 299 301 305 304 305 309 309
316 314 315 315 313 314 314 313 313 312 312 311 312 312 312 310 309 309 308 308 308 308 308 309 309 308 309 309 307 307 308 307 309 306 305 305 303 303 303 302 303 304 303 304 304 306 304 304 305 304 302 301 299 296 295 295 296 298 301 305 304 305 308
317 316 316 316 314 314 314 314 313 313 312 312 313 314 313 311 310 315 309 308 307 306 307 307 308 308 308 307 306 307 307 306 307 306 306 305 304 305 304 303 301 302 303 303 303 305 304 303 302 303 303 302 301 299 297 296 295 298 301 302 304 304 306
317 317 317 317 316 315 314 315 314 314 313 312 313 313 312 311 312 310 309 308 308 308 307 307 308 308 307 307 307 306 306 305 305 304 305 306 306 305 303 302 302 302 302 303 304 305 304 304 303 302 302 303 304 300 298 297 295 297 302 302 302 305 305
317 318 317 316 316 315 315 316 315 314 313 313 312 313 313 312 312 310 309 310 309 308 308 308 308 308 307 308 308 307 305 305 305 304 305 305 307 304 303 302 302 302 302 302 302 302 302 303 304 305 303 302 302 301 299 298 298 299 300 302 302 303 304
317 318 317 316 316 316 315 316 316 315 314 313 312 312 313 313 312 312 311 311 310 309 308 308 307 308 308 306 307 307 306 306 306 303 304 304 305 303 304 303 303 304 302 301 301 302 303 303 301 302 303 301 302 301 301 299 297 298 298 300 301 303 305
317 317 317 316 316 316 314 314 316 315 314 313 312 312 314 314 313 312 311 311 311 310 310 309 308 307 309 306 306 308 307 307 305 304 303 303 303 305 302 303 304 304 302 302 302 303 303 302 301 301 301 302 300 301 300 300 297 297 297 299 301 303 303
315 314 314 314 315 316 316 315 315 315 314 313 312 312 314 314 314 313 312 311 311 311 310 310 309 307 308 308 307 307 307 306 306 305 303 303 304 304 301 303 303 303 304 302 301 301 302 302 301 300 300 300 300 299 300 300 298 296 296 297 298 299 300
315 315 315 315 315 314 315 314 316 315 315 314 313 313 312 313 313 312 313 312 311 311 311 310 310 309 308 308 307 308 307 305 305 305 305 303 304 304 302 302 303 303 303 302 301 300 301 300 300 300 299 299 298 298 299 299 299 297 295 296 296 298 299
314 315 316 316 317 316 316 316 315 315 314 314 314 315 314 312 312 312 313 313 312 312 312 311 310 310 309 309 308 308 308 306 306 306 306 304 307 305 303 303 303 304 302 302 301 300 300 299 299 299 297 297 296 297 297 297 296 296 294 293 294 296 297
313 313 314 314 314 315 315 316 315 314 313 314 313 314 314 314 314 313 312 312 313 313 313 312 311 310 310 309 309 308 308 307 307 307 306 305 306 305 304 304 304 304 303 302 300 300 299 299 298 296 295 295 295 295 295 295 296 295 294 293 293 294 294
314 315 315 315 315 314 313 314 315 314 313 313 312 312 312 313 313 314 314 314 313 313 313 312 311 311 311 310 309 308 308 307 307 306 306 306 306 305 305 304 304 304 303 302 301 300 299 300 299 297 297 295 295 293 294 294 294 293 292 291 291 291 292
315 315 315 315 315 314 314 314 314 312 312 311 311 312 313 313 312 311 313 313 313 313 313 313 313 313 312 311 310 309 309 308 307 306 306 306 306 306 305 305 304 303 303 302 301 300 299 297 297 295 296 297 296 292 291 292 291 290 290 290 290 289 289
314 315 315 315 313 312 311 311 311 309 310 310 312 311 310 310 310 311 310 311 311 311 312 313 314 313 313 312 310 309 309 309 308 307 306 306 305 305 305 305 303 302 305 307 304 302 301 298 295 293 294 296 296 293 291 290 291 290 290 289 289 290 289
309 309 310 311 312 311 311 311 311 310 311 310 309 309 309 309 309 309 310 309 309 309 311 312 312 308 309 313 312 311 310 310 309 308 307 306 304 303 304 304 305 310 308 305 300 296 295 297 298 297 294 294 296 293 292 291 290 290 291 290 289 289 289
303 305 307 309 309 311 311 311 311 310 310 310 310 309 310 309 308 309 310 310 309 311 312 314 306 301 301 305 312 312 310 309 309 308 307 306 305 304 303 302 304 307 305 302 298 294 294 294 294 295 295 296 297 294 291 291 290 290 291 290 289 289 288
301 301 302 303 303 305 306 307 308 308 308 309 309 309 309 310 309 308 309 308 309 310 310 308 304 300 299 299 304 312 311 309 308 308 308 307 306 304 303 302 303 304 301 299 296 296 295 293 293 293 293 293 293 294 295 294 292 290 289 289 289 289 288
299 299 299 300 299 299 299 300 302 303 304 305 307 307 309 308 309 309 307 308 309 309 309 306 302 300 299 298 297 305 310 309 308 307 307 307 305 303 302 302 302 302 302 304 302 297 297 295 294 293 293 293 292 291 290 290 292 293 290 289 289 288 288
298 298 299 298 298 297 298 299 299 299 300 300 302 303 302 303 304 304 305 306 309 309 308 305 301 299 299 298 296 299 307 308 307 307 307 306 304 303 303 302 302 301 301 302 300 299 298 297 296 296 295 294 292 294 293 291 290 290 293 292 290 289 290
297 298 297 297 297 297 298 299 299 299 300 300 300 299 299 299 299 301 301 303 304 307 310 304 300 298 297 297 297 297 304 307 307 306 306 305 304 303 303 303 302 301 301 301 301 299 298 298 297 297 294 294 292 291 291 291 291 290 290 290 290 290 290
297 296 297 296 297 298 297 297 298 295 298 295 295 296 297 298 298 298 299 300 301 303 303 295 299 298 297 296 295 300 302 302 301 300 301 301 300 300 301 301 301 300 300 300 299 296 297 296 295 295 294 291 290 289 290 294 293 292 292 290 289 290 290
297 296 296 297 297 296 296 296 296 297 298 294 294 294 295 296 296 296 298 298 299 298 294 291 295 296 294 293 296 300 298 298 298 297 297 298 299 300 300 299 298 298 297 294 291 290 292 294 294 294 292 290 290 291 291 293 292 291 291 291 290 290 290
296 297 295 296 296 295 294 294 295 296 297 296 296 294 294 295 293 293 293 296 297 298 291 291 293 292 292 294 298 298 296 297 296 296 296 297 298 298 301 305 301 297 294 292 290 290 291 293 291 290 290 289 289 289 289 290 290 289 290 290 290 289 289
295 295 296 295 295 294 295 296 295 295 295 295 296 293 294 291 290 292 292 292 299 291 288 292 292 292 293 294 297 296 296 296 295 294 295 295 294 292 292 296 297 294 293 291 289 289 290 291 289 288 289 289 288 287 287 285 285 285 285 286 285 286 287
295 295 295 294 294 295 295 295 295 296 295 293 293 291 292 292 290 289 289 289 290 288 288 289 291 292 293 294 295 297 296 295 294 294 294 294 292 290 290 291 292 289 289 288 288 289 289 290 288 288 288 287 286 285 284 284 286 284 283 285 284 284 286
296 295 295 296 295 295 295 295 295 296 296 292 291 291 291 289 289 288 288 288 287 288 290 288 290 292 293 293 293 294 294 294 293 291 290 291 290 290 289 289 289 289 288 288 288 288 288 289 290 289 287 286 286 286 287 284 285 290 284 284 285 285 285
295 297 296 296 296 296 295 295 295 294 293 291 291 290 288 288 287 286 286 287 286 286 291 293 289 291 291 292 292 292 292 292 291 290 290 290 290 290 290 289 288 288 288 288 288 288 288 288 288 292 289 288 288 288 285 286 284 284 284 284 282 283 284
296 298 297 296 295 295 294 294 294 293 292 291 291 289 287 287 286 285 285 285 285 285 286 289 291 290 290 290 290 290 290 290 290 292 291 290 291 291 290 289 290 290 288 288 288 288 288 288 289 288 288 287 287 287 287 284 284 284 283 283 283 282 283
294 295 295 294 294 294 294 293 294 294 292 293 291 289 287 287 286 285 285 285 285 285 285 285 290 290 289 289 289 290 290 290 291 292 292 291 291 291 290 290 291 289 288 288 288 288 288 288 287 287 287 287 287 288 286 284 283 283 283 283 282 282 283

ECMWFFLT1_sfc_thetae_033.txt.gz
Theta_e
311 311 310 310 310 311 311 311 311 310 311 310 310 310 311 313 313 312 313 314 314 316 317 313 313 315 318 320 318 317 317 318 318 319 318 320 316 314 316 315 318 320 318 315 312 311 307 307 310 315 318 320 323 325 327 327 327 327 327 328 329 330 328
311 312 312 312 311 310 310 309 310 308 308 308 308 309 310 312 314 311 312 312 313 314 316 314 312 313 312 312 313 314 314 315 317 316 316 314 313 311 313 314 316 316 314 313 315 314 310 307 307 309 310 314 318 318 314 317 322 325 326 328 331 332 329
312 310 310 310 309 309 309 307 306 306 307 307 308 308 309 309 309 310 310 311 311 314 314 311 311 311 311 311 310 311 312 312 312 313 312 310 310 310 313 314 312 313 310 309 308 310 309 310 309 308 309 308 308 308 310 310 313 321 325 326 325 326 327
312 311 311 308 309 308 309 306 306 306 306 306 307 307 308 309 310 312 310 310 312 316 312 311 309 309 308 308 309 309 309 309 309 308 309 308 308 308 310 313 312 311 309 306 307 307 307 304 304 304 307 307 307 304 307 308 308 308 309 309 309 309 311
312 312 311 310 308 308 306 306 306 305 304 305 305 306 306 307 310 308 309 308 310 309 309 309 309 309 309 308 308 308 307 307 307 308 305 305 305 306 306 307 309 310 310 309 310 308 307 306 304 304 304 305 305 304 307 306 306 307 307 308 308 308 307
313 312 312 311 309 309 307 305 304 304 304 305 305 306 305 306 308 308 308 309 309 310 308 308 307 309 309 309 308 307 306 305 304 305 304 303 304 304 303 304 304 306 306 306 307 306 304 304 303 300 302 304 304 304 304 303 303 304 306 307 307 307 307
312 312 312 313 311 309 309 306 305 305 305 304 304 305 307 306 307 309 308 307 307 308 308 308 308 308 308 308 307 307 306 304 305 305 305 304 304 302 302 304 304 304 303 304 302 303 301 300 298 298 298 298 300 300 302 302 303 302 304 305 307 307 307
313 313 314 314 312 310 308 306 305 305 305 305 305 305 307 305 306 306 306 307 307 308 309 310 311 309 309 309 308 306 306 305 305 305 303 304 305 303 303 303 305 303 302 302 303 303 302 302 301 299 295 296 294 296 299 299 300 302 302 303 307 306 306
315 314 314 314 312 310 310 309 307 306 306 305 304 307 307 306 305 306 307 305 306 307 307 307 307 307 306 306 305 306 307 308 305 304 303 303 302 301 302 301 303 301 301 302 303 302 303 302 302 299 299 294 291 293 296 296 297 299 302 303 303 306 306
313 313 314 313 313 313 311 309 308 308 306 306 307 309 307 306 306 306 305 305 306 307 306 307 307 305 305 306 306 305 306 304 306 303 302 302 300 301 301 302 302 302 301 301 302 303 302 301 302 300 300 300 295 294 293 292 295 297 301 302 302 303 305
314 314 315 314 313 313 311 309 309 308 308 308 308 310 308 306 306 312 305 305 304 305 306 305 306 305 305 304 305 304 304 304 305 303 304 303 302 302 302 300 300 300 300 302 301 302 301 300 300 302 300 299 300 299 294 293 295 296 300 301 302 302 304
315 315 316 316 314 314 312 311 310 310 308 308 309 309 307 306 306 307 305 305 305 305 305 305 305 305 305 304 304 304 303 303 303 302 302 303 302 302 301 300 300 301 300 301 301 301 302 303 301 301 301 302 302 300 297 294 293 296 300 299 301 302 302
315 315 316 315 314 314 313 312 311 309 310 309 308 309 308 307 307 305 305 305 305 304 304 305 305 304 305 306 306 305 302 302 303 302 302 302 303 301 300 300 300 300 299 301 301 301 301 301 302 301 301 300 300 299 298 296 295 297 298 300 300 301 302
315 316 315 315 314 314 314 313 312 312 310 309 309 309 309 308 307 307 306 307 306 305 305 305 304 304 304 304 303 304 302 303 303 301 302 302 302 300 301 300 300 301 300 301 300 301 301 300 300 300 300 299 299 299 298 296 295 296 297 298 299 300 301
315 316 315 316 314 314 314 314 314 312 311 311 311 311 312 311 309 308 307 307 306 306 306 306 304 304 305 304 303 304 304 302 302 301 301 301 301 302 300 300 302 300 300 301 300 301 300 299 299 299 299 299 298 299 298 297 295 295 294 296 297 298 298
315 316 315 313 313 313 312 312 313 313 312 311 311 311 312 312 312 310 308 308 307 307 307 306 305 305 305 305 305 303 304 302 302 301 301 301 301 300 300 301 300 300 302 300 299 299 299 299 299 298 298 298 297 297 298 297 295 294 294 294 295 296 296
314 314 314 314 314 313 312 312 313 313 313 313 311 310 310 312 312 311 310 309 308 308 308 307 307 306 306 305 305 305 304 303 303 303 303 302 302 301 300 300 300 300 301 300 298 298 298 298 298 297 296 296 296 296 296 296 295 294 293 292 292 295 295
312 313 314 315 315 314 314 314 313 314 313 314 313 311 311 311 311 310 310 310 309 309 309 308 307 307 306 305 306 306 305 304 304 304 303 302 306 302 301 302 302 301 300 300 298 298 298 297 296 295 294 295 294 295 296 295 294 293 291 290 291 292 293
312 312 313 312 312 313 314 313 312 313 314 315 314 314 314 313 313 312 311 311 310 310 309 309 309 308 308 306 306 305 306 305 304 304 304 303 304 303 302 302 303 303 301 301 299 298 297 296 295 294 293 293 293 293 293 293 292 291 290 289 290 290 290
313 314 314 313 312 312 311 310 311 311 312 311 311 312 313 314 314 314 314 313 311 311 310 309 309 308 307 306 306 305 305 305 305 304 305 305 304 304 303 303 303 303 303 302 301 300 299 297 296 295 296 295 295 294 293 292 291 290 290 290 288 289 290
313 313 313 313 313 312 312 310 311 311 311 311 311 311 312 313 314 313 314 314 314 312 310 309 309 308 308 308 307 306 306 306 306 304 304 304 304 304 304 303 304 304 303 302 303 302 301 298 295 294 295 295 294 293 292 292 291 290 290 289 288 288 288
311 312 312 312 311 312 312 311 312 311 311 311 311 311 313 313 312 312 312 311 310 310 311 311 312 311 310 309 308 307 307 307 307 306 305 305 304 304 304 304 304 304 306 308 305 303 302 300 295 294 296 295 293 292 292 293 292 291 289 289 289 289 288
310 311 312 312 311 311 311 311 311 311 311 311 311 312 312 310 310 311 311 309 307 306 308 310 311 307 307 311 309 309 308 308 308 307 306 306 305 305 306 306 307 310 308 307 303 299 297 296 298 296 295 295 294 291 291 292 292 291 292 290 289 288 288
308 309 310 309 310 310 311 310 310 310 310 310 311 310 309 310 309 309 308 307 307 307 309 311 305 301 300 302 310 309 309 309 308 308 307 306 306 306 305 306 306 308 306 305 302 296 294 294 294 295 295 296 296 293 291 290 290 291 294 290 288 288 287
303 305 306 309 309 309 309 309 310 310 310 309 309 309 308 308 307 305 304 304 305 308 308 307 302 300 298 297 302 310 309 308 308 308 307 306 306 305 305 305 304 307 305 304 300 296 295 294 293 293 293 293 293 294 295 292 292 289 288 288 287 288 286
297 297 298 299 298 299 302 305 305 305 305 303 302 303 305 302 302 303 303 305 305 306 307 304 301 299 298 297 296 301 308 307 307 306 307 307 307 306 305 304 304 305 303 305 301 296 296 295 293 293 293 293 293 292 291 292 294 292 289 288 288 287 287
296 296 296 296 296 296 297 297 296 296 298 297 297 297 297 298 298 299 301 301 301 302 304 303 299 298 297 296 295 296 305 305 305 305 305 306 306 305 303 302 302 301 300 301 298 297 297 296 296 295 294 293 292 292 292 291 290 291 292 290 288 288 287
296 295 295 294 294 294 295 295 296 297 295 295 296 297 298 297 297 297 296 297 298 302 304 298 293 294 294 295 294 294 302 302 302 302 303 303 303 303 301 302 301 300 300 300 299 298 298 297 296 295 294 292 291 289 290 290 289 288 290 289 288 288 287
295 294 294 294 294 294 294 294 294 294 293 292 293 293 292 293 294 294 295 295 296 296 298 292 292 295 294 293 293 298 298 299 300 300 301 299 300 299 300 300 300 299 300 300 298 295 297 299 297 295 293 290 289 289 290 292 292 293 292 290 288 287 287
295 294 293 294 294 294 296 295 294 293 293 290 291 292 292 292 291 291 292 293 293 295 295 292 291 294 293 292 295 297 296 296 297 295 293 294 295 297 298 299 299 299 299 298 294 292 293 295 296 294 292 290 289 289 289 291 291 290 291 291 290 291 290
294 295 293 294 294 293 292 293 293 295 296 294 293 293 292 290 289 290 290 291 292 293 292 291 292 292 293 292 297 296 295 294 293 293 293 292 293 295 299 304 300 296 294 293 290 290 291 294 293 292 291 289 288 287 287 287 288 288 290 290 290 289 289
294 295 295 294 293 293 293 294 293 292 291 291 291 291 291 289 288 288 288 288 296 289 287 290 292 291 292 292 295 294 295 294 293 291 291 290 290 290 292 295 297 295 293 291 289 290 290 292 291 291 290 288 287 286 284 284 284 284 283 284 283 286 286
296 296 296 295 294 294 293 293 293 292 290 290 291 288 290 288 288 286 285 285 287 286 287 287 290 291 293 294 295 295 295 294 292 290 289 291 290 289 290 290 291 289 289 289 289 289 289 290 289 288 286 284 285 284 283 283 286 283 283 284 282 283 283
297 296 296 296 295 295 294 294 292 292 291 289 289 288 287 287 287 285 285 284 284 285 290 287 289 291 293 293 293 294 292 293 292 291 289 289 288 288 288 288 290 289 289 289 289 289 289 289 289 287 285 284 284 285 285 283 285 290 284 284 284 284 285
296 297 296 295 296 295 294 294 293 292 289 289 289 287 286 286 285 284 283 284 285 284 288 293 287 290 291 292 292 292 293 291 291 290 288 287 287 287 287 287 289 289 288 288 288 288 288 288 289 290 287 288 288 288 286 286 283 284 283 283 282 282 283
297 298 296 295 293 294 292 292 291 290 290 289 288 286 285 285 284 283 283 284 283 284 284 288 291 288 290 290 290 290 290 290 290 291 289 287 287 287 287 287 289 290 288 288 288 288 288 288 290 289 288 287 287 287 288 286 285 283 282 282 282 282 281
296 295 295 293 292 292 291 291 290 291 289 290 288 286 284 285 284 285 284 284 284 283 283 284 289 290 289 289 290 290 290 290 290 291 290 289 288 288 288 288 290 288 288 288 288 288 288 288 287 287 287 287 287 288 287 285 284 283 283 282 281 281 282

ECMWFFLT1_sfc_thetae_036.txt.gz
Theta_e
312 311 309 310 310 312 310 309 309 308 309 310 311 311 313 316 316 315 315 315 315 317 320 318 320 320 321 322 321 319 320 321 321 320 320 321 319 317 318 319 321 320 320 317 315 316 311 310 313 318 320 320 315 315 317 321 326 328 329 329 329 331 329
310 311 312 312 310 310 309 307 307 307 308 308 309 310 312 315 317 313 313 314 315 316 317 314 315 316 318 318 316 317 318 318 321 320 320 318 318 315 315 317 317 315 313 314 316 316 312 309 309 310 311 316 312 311 311 314 317 319 318 318 320 323 326
312 310 309 309 308 307 307 305 306 306 307 308 309 309 310 310 311 313 312 312 313 315 316 312 312 312 312 312 312 314 315 315 314 316 316 315 316 315 317 317 315 314 312 311 310 311 311 313 311 310 311 308 304 308 311 310 310 311 311 311 310 311 317
310 310 310 307 308 307 306 304 305 305 305 306 307 309 309 310 312 315 311 312 314 317 313 310 310 310 309 310 310 310 310 310 310 309 310 310 311 313 314 317 316 315 314 310 311 311 310 308 306 306 308 308 306 305 309 310 310 309 309 310 310 310 310
312 311 310 309 308 307 305 305 304 305 305 305 305 307 308 309 311 309 312 310 311 310 310 309 309 309 310 309 309 309 308 308 309 309 307 307 308 308 308 310 312 312 312 312 311 312 311 309 309 307 306 308 306 306 308 311 309 308 308 308 308 309 309
312 311 310 309 307 307 305 304 304 304 304 306 305 307 307 307 310 309 309 310 310 310 309 309 309 309 309 309 308 307 307 307 306 307 306 305 307 307 306 307 307 308 308 309 309 307 307 308 309 307 309 306 308 306 306 307 306 307 308 308 308 309 308
312 312 311 311 308 308 306 305 304 304 304 304 305 305 305 307 307 309 309 308 308 309 309 309 309 309 309 308 308 308 307 306 306 306 306 305 305 305 307 307 306 306 306 306 306 306 304 304 303 305 304 301 303 303 304 304 305 305 307 308 308 308 309
313 313 312 312 310 309 307 306 304 304 305 304 304 306 308 305 306 307 309 307 308 309 309 310 310 309 309 309 308 307 307 306 306 307 306 306 306 305 306 306 306 305 306 306 306 305 306 306 304 302 301 301 299 300 301 301 303 304 304 307 307 307 308
315 314 314 313 311 311 309 307 305 305 305 305 305 306 307 306 305 306 306 306 307 307 308 308 307 307 307 307 307 306 307 308 305 305 304 305 304 304 304 305 306 305 305 305 306 306 305 305 304 302 300 300 300 298 299 300 302 303 305 305 306 307 306
314 313 313 312 312 312 311 308 306 305 305 305 307 309 306 305 306 306 305 306 307 307 307 307 306 306 306 307 306 306 306 305 306 304 304 304 303 304 304 305 305 305 305 306 305 305 305 305 304 304 304 302 299 299 297 297 300 302 303 304 302 304 305
314 314 314 313 313 313 311 309 307 308 307 308 309 311 306 306 306 312 305 306 306 307 307 307 306 305 306 306 305 305 305 305 305 305 306 304 304 304 304 303 304 304 304 304 305 305 304 305 305 305 304 303 304 302 299 298 299 303 304 304 304 301 303
314 315 315 315 314 314 313 310 309 308 307 308 311 308 307 306 306 306 305 305 305 306 306 306 307 306 306 306 308 306 305 305 304 304 305 305 304 304 303 303 303 303 304 304 304 304 305 305 304 305 305 305 304 305 302 300 298 301 304 303 303 303 302
315 315 315 314 314 315 313 311 309 308 307 310 307 308 308 307 307 306 305 306 305 304 305 305 305 305 305 305 306 305 304 304 305 305 304 304 303 303 303 303 303 303 304 304 304 304 304 304 304 303 303 303 303 303 303 300 299 300 303 303 303 302 301
315 314 315 314 313 313 314 313 311 310 309 309 308 308 309 308 307 307 306 309 307 306 306 306 305 305 306 305 304 304 304 304 304 304 305 303 303 303 303 303 303 303 303 304 303 303 302 302 302 303 303 302 302 302 302 301 300 300 302 302 303 300 300
314 314 314 314 313 312 314 314 312 311 310 310 309 309 310 309 309 308 307 307 307 307 307 307 306 306 307 306 306 306 304 303 304 303 303 303 303 304 303 303 302 303 303 303 303 301 301 301 301 300 301 301 301 301 302 301 300 300 298 302 300 299 298
312 313 312 312 312 312 311 312 313 311 311 310 311 310 310 310 310 309 309 309 308 307 307 307 306 306 306 306 306 306 306 304 304 304 304 304 303 303 304 305 303 303 303 303 302 302 301 301 301 300 300 300 300 300 299 300 299 296 296 297 299 296 297
312 312 312 312 313 311 311 311 313 312 312 312 311 310 310 310 310 310 309 309 308 308 308 308 308 307 307 307 307 306 306 305 304 305 305 304 303 303 304 303 304 303 304 302 301 301 301 300 300 300 299 299 300 299 299 299 300 299 298 294 295 295 296
311 312 312 312 311 312 312 313 314 313 313 312 312 311 311 311 310 311 311 310 310 310 309 309 309 309 308 307 307 308 307 306 306 305 305 304 306 304 304 305 304 303 303 302 301 301 300 299 298 299 298 298 298 299 299 298 297 296 295 294 295 297 296
310 311 312 312 312 313 313 314 313 313 314 314 314 314 313 313 313 312 312 312 312 312 312 311 310 309 309 309 308 307 308 307 307 307 306 305 306 305 305 305 305 304 303 303 302 301 300 299 297 298 297 297 297 297 297 296 296 295 295 294 295 295 296
312 313 313 312 312 312 313 313 313 313 313 314 313 312 313 313 313 313 312 313 313 313 313 313 311 310 309 309 308 307 307 307 307 306 307 307 306 306 305 305 305 305 305 304 303 301 300 299 299 297 298 297 296 296 296 295 295 295 295 294 294 294 295
312 312 312 313 312 312 312 312 312 312 312 311 310 312 313 313 313 313 313 313 314 314 313 313 312 312 311 310 309 308 307 307 307 307 307 306 306 306 306 306 306 306 306 305 304 304 303 301 300 299 298 298 297 296 295 295 295 295 294 294 295 294 294
312 311 311 311 310 311 311 311 311 311 311 311 311 311 311 311 312 312 311 311 312 312 312 312 312 312 312 311 310 309 308 308 307 307 307 307 307 306 306 306 306 306 308 309 305 305 303 302 299 297 298 298 297 297 296 296 295 294 294 295 294 293 294
309 310 310 310 310 310 310 309 310 309 310 311 311 309 310 310 311 311 311 310 309 310 310 311 311 306 306 312 311 310 309 309 308 308 308 307 307 307 307 307 308 310 308 307 304 299 298 298 299 299 297 298 299 297 297 296 295 295 296 295 294 294 294
307 308 309 308 308 308 309 309 309 309 309 309 309 309 309 309 309 309 310 310 309 309 310 311 304 301 300 300 308 310 309 309 309 308 308 307 307 307 307 308 308 309 308 306 305 297 296 295 295 295 295 297 297 297 296 296 295 295 298 296 294 294 294
307 307 307 308 308 309 308 308 308 308 307 308 308 308 307 308 308 307 308 308 308 309 310 307 302 300 298 297 300 309 310 309 309 308 308 308 308 307 307 308 308 308 309 308 307 302 298 295 293 293 293 293 293 294 295 297 296 294 294 295 293 294 294
304 304 306 306 306 305 307 307 306 306 306 307 307 307 307 307 307 306 307 307 307 308 308 302 298 296 295 294 294 300 308 309 308 309 308 308 309 308 308 307 306 306 307 309 308 303 300 297 294 293 293 293 293 292 290 291 294 297 296 294 294 293 293
300 299 299 300 302 304 305 305 304 303 301 300 303 303 303 304 303 304 304 304 304 303 303 298 292 293 293 292 292 295 306 307 308 308 308 308 307 307 307 307 306 305 305 307 304 300 299 297 297 296 296 296 296 295 292 290 290 291 294 296 295 295 294
295 295 296 296 298 299 300 298 297 297 298 299 300 300 300 299 298 298 298 298 299 300 300 292 290 290 292 292 292 293 303 304 306 306 305 304 305 305 305 305 305 305 303 303 301 299 298 298 297 296 295 295 295 295 295 295 294 294 294 293 294 294 294
295 294 294 295 296 296 296 297 297 296 295 294 294 295 295 295 296 296 296 296 296 297 298 293 291 291 290 291 292 298 301 302 303 303 302 300 301 302 303 304 303 303 302 301 298 294 296 298 298 297 295 294 293 293 293 293 294 294 295 294 294 295 294
295 295 295 296 297 297 296 294 294 294 294 293 294 294 294 293 292 294 294 293 294 295 294 293 291 291 290 290 294 300 301 301 299 296 294 295 296 298 300 301 301 301 300 299 295 292 293 296 298 297 295 293 293 292 292 293 291 290 291 290 291 290 290
297 296 294 295 296 296 295 294 295 296 294 293 294 295 293 291 290 292 292 293 295 294 292 291 292 291 292 291 297 300 298 296 294 294 293 292 293 295 299 303 301 298 296 295 291 291 292 297 297 296 295 293 291 290 290 291 291 290 290 290 289 289 289
295 296 295 295 295 294 294 296 295 294 293 294 296 295 293 291 289 289 290 292 296 291 290 292 292 290 292 292 296 296 297 295 294 292 292 292 291 292 292 295 297 295 295 293 290 291 291 295 295 295 294 293 291 290 290 289 290 290 290 290 289 290 290
296 295 295 295 294 294 294 294 292 293 292 293 294 292 292 290 290 288 288 288 289 290 291 290 292 290 293 293 294 297 296 296 294 291 292 292 291 291 291 292 292 289 289 289 289 289 289 291 294 293 292 291 290 290 289 288 290 289 289 289 288 288 289
298 297 297 297 296 296 295 294 293 294 293 292 292 291 290 289 288 287 287 287 287 288 292 290 291 290 292 293 293 294 295 295 293 292 291 290 290 290 290 290 291 290 288 289 289 289 289 289 290 292 292 291 292 291 288 289 290 290 289 290 289 289 288
297 298 297 296 296 296 295 295 295 294 293 293 293 291 289 289 288 287 286 286 288 286 290 294 290 291 291 292 292 292 295 294 293 292 290 289 289 289 290 290 290 290 288 288 288 288 289 289 290 292 290 288 287 287 291 290 289 289 288 288 288 288 288
295 297 297 297 298 297 295 295 295 294 293 293 293 291 290 288 288 287 287 286 285 286 286 290 291 291 290 290 290 291 290 291 290 293 291 290 290 290 290 290 291 289 288 288 288 288 288 289 290 289 287 287 287 287 289 289 289 288 288 287 287 287 287
293 294 295 295 294 294 294 294 294 294 294 294 293 291 289 288 287 288 287 286 286 286 286 286 290 290 290 289 290 290 289 289 290 292 292 290 290 290 290 291 290 288 288 288 288 288 288 288 289 287 287 287 287 288 290 289 287 287 286 286 286 286 286

ECMWFFLT1_sfc_thetae_039.txt.gz
Theta_e
326 323 324 324 325 323 323 323 324 324 324 326 328 329 331 332 331 330 331 332 331 331 330 329 328 327 328 328 329 331 330 330 330 329 327 326 325 324 327 327 327 326 326 326 328 325 322 315 314 318 318 318 316 317 318 320 322 324 327 329 330 331 334
326 324 324 324 322 323 322 322 323 322 323 324 325 327 328 330 330 330 331 331 332 331 330 329 329 328 329 330 330 331 331 330 330 330 329 327 327 327 326 326 324 324 324 324 325 327 323 318 314 314 312 315 316 315 317 317 318 320 320 320 321 327 331
324 323 324 322 322 323 321 321 322 323 323 324 325 325 326 325 327 328 328 329 330 329 329 329 329 330 329 328 329 330 331 330 330 330 328 328 327 328 328 327 322 321 322 322 322 322 322 323 315 313 314 313 310 312 316 315 316 316 316 316 317 318 320
324 323 322 322 321 321 320 320 321 321 322 322 324 324 324 325 326 327 327 327 328 328 327 327 329 328 328 328 327 328 328 328 327 327 326 327 328 328 327 326 323 323 322 322 321 323 321 318 313 312 312 311 310 310 313 315 314 313 313 314 314 314 315
325 324 323 322 321 320 320 319 319 320 321 322 323 323 323 324 325 325 326 326 325 326 325 326 326 326 326 325 325 324 323 323 324 324 325 326 327 327 327 327 326 325 324 324 322 323 321 318 315 312 310 310 309 310 311 314 313 312 312 312 314 312 313
326 325 324 323 323 321 320 319 319 318 319 320 321 322 322 323 324 325 325 324 324 324 323 323 324 323 324 323 323 322 322 322 322 324 323 324 326 325 322 322 321 321 321 322 322 322 323 321 317 313 313 313 309 309 310 312 309 310 311 310 311 312 312
324 325 325 323 323 322 321 320 320 319 320 321 321 321 321 322 323 323 324 323 323 323 322 322 322 322 323 320 322 322 321 321 322 322 321 321 321 321 321 317 317 317 318 319 320 321 321 319 315 314 312 312 312 308 310 311 312 308 308 309 310 311 311
323 323 324 324 323 322 322 321 321 321 320 320 320 321 321 323 323 324 324 324 324 323 323 322 321 321 322 321 321 321 320 320 321 321 320 320 319 319 321 318 317 317 317 316 317 317 318 320 319 316 313 308 308 310 308 308 309 308 306 307 309 309 310
323 323 322 322 323 323 322 321 321 322 321 320 321 322 322 323 323 323 323 323 323 323 322 321 321 320 321 321 319 320 318 318 320 319 319 319 319 319 319 318 316 315 317 316 316 316 315 317 319 319 316 312 308 306 308 307 308 306 309 306 305 306 307
323 323 323 323 323 323 323 322 322 321 322 322 321 323 322 322 322 323 323 323 323 323 322 321 320 320 320 320 319 319 318 318 319 317 319 318 318 318 318 319 316 315 315 318 317 317 318 318 317 317 317 315 313 308 306 306 307 306 305 307 303 302 305
324 325 325 324 324 322 321 320 321 320 321 321 322 322 323 322 323 322 323 322 323 322 322 320 319 319 320 319 319 318 317 319 318 317 318 317 317 318 317 317 316 314 318 317 316 319 318 318 316 316 315 316 316 310 309 307 305 309 306 306 305 301 303
324 324 324 326 324 323 321 320 318 321 322 321 322 322 321 321 321 321 322 321 322 321 321 321 320 320 320 319 319 317 317 319 317 316 317 317 317 317 316 315 316 315 318 318 318 317 318 318 316 313 313 315 316 318 313 310 304 306 310 304 303 304 303
322 323 324 325 324 322 322 320 320 321 322 321 323 323 321 320 321 320 320 321 321 321 321 320 320 320 321 319 318 317 317 318 315 315 315 316 314 317 315 314 315 315 316 316 316 317 315 316 317 313 313 312 313 315 314 312 308 305 308 304 303 303 304
322 322 323 324 324 323 323 321 321 323 322 322 322 322 321 320 320 320 319 319 319 321 320 320 321 321 321 320 319 318 317 316 314 315 315 315 314 316 314 313 313 314 317 315 314 314 312 312 314 314 313 310 309 313 312 311 307 305 306 306 304 302 304
323 323 324 324 324 323 324 323 322 321 321 321 321 322 321 322 320 319 319 318 319 318 318 319 319 320 319 319 320 320 318 316 315 315 316 313 314 314 316 314 312 314 315 313 314 311 311 311 310 309 308 308 306 308 312 308 307 306 303 305 302 303 303
322 323 323 323 323 323 324 324 322 322 322 320 320 320 321 321 320 320 319 319 318 318 318 319 319 319 319 318 318 319 319 318 316 315 314 314 312 313 314 313 313 315 315 314 314 314 313 311 310 308 308 307 306 306 306 307 306 304 303 301 304 302 303
323 323 323 325 325 324 324 324 323 323 322 321 320 321 321 320 320 321 320 319 319 319 319 319 319 319 318 318 318 317 317 318 317 317 315 314 313 314 315 314 314 315 314 313 312 312 312 312 311 309 308 308 308 306 308 309 308 306 304 302 302 301 303
323 323 324 325 325 325 325 325 324 323 324 323 322 321 321 321 321 320 321 320 320 320 320 320 320 320 320 320 319 319 318 317 318 316 316 316 316 316 315 315 315 314 314 313 313 312 311 312 309 309 307 306 305 305 307 306 305 306 305 304 303 303 304
323 323 323 324 324 325 326 326 325 325 324 323 323 323 322 321 321 320 321 321 321 321 321 321 321 321 320 320 320 320 320 319 318 317 317 318 316 316 315 314 315 315 314 314 313 313 312 312 310 309 306 304 303 305 306 305 306 306 305 304 304 303 305
323 323 323 324 325 324 324 326 325 324 325 324 322 322 322 321 322 322 322 322 322 322 321 321 322 322 321 320 320 319 320 319 318 318 317 317 318 317 317 316 316 316 314 314 314 313 312 312 311 309 308 307 304 305 305 304 304 305 305 304 304 305 304
323 324 324 324 323 324 325 325 325 326 324 323 322 321 320 320 321 321 323 322 323 322 321 321 321 322 321 322 322 321 320 320 319 318 318 317 318 320 318 317 317 316 316 315 314 313 314 311 310 309 308 306 307 306 305 304 305 304 305 305 304 303 304
324 324 323 323 323 323 323 324 324 323 322 322 323 322 323 323 321 320 321 322 322 322 321 322 321 322 321 321 321 321 321 319 319 319 318 317 317 317 318 317 317 316 316 313 308 309 309 309 311 308 307 307 306 306 306 305 305 304 305 305 304 305 305
321 322 322 322 322 322 322 322 323 323 322 321 321 323 322 322 321 321 321 321 321 322 319 319 316 308 310 319 321 320 320 320 319 319 318 318 318 317 317 318 318 313 309 308 305 301 300 300 304 309 308 307 305 306 306 305 305 305 305 304 304 304 305
320 320 321 321 322 322 322 322 322 322 321 322 322 322 322 319 321 321 321 321 321 321 320 319 306 301 299 299 313 321 321 321 320 319 318 317 317 318 318 317 317 315 311 307 308 299 297 297 296 297 299 301 303 308 306 305 304 305 303 303 304 304 304
318 319 320 320 321 321 321 321 321 321 319 320 321 322 322 321 320 320 321 320 321 321 321 306 298 298 297 296 300 318 322 322 321 319 319 318 318 318 318 318 317 317 316 316 315 313 303 296 295 294 294 295 295 296 298 306 305 304 304 303 303 303 303
318 319 319 320 321 320 319 319 320 320 319 320 320 320 320 319 319 319 319 318 319 320 321 294 293 292 293 294 293 302 320 322 321 321 321 321 320 320 320 319 319 318 317 312 312 314 313 308 295 293 293 293 293 292 290 290 292 308 307 304 302 301 299
319 319 319 319 319 318 318 318 319 319 318 317 317 317 316 315 315 315 315 318 320 318 318 296 291 291 292 292 292 295 317 321 322 322 321 321 321 321 320 320 319 320 319 317 316 315 314 310 305 301 301 304 302 298 293 291 291 292 299 304 302 300 302
315 316 316 316 317 317 317 317 317 317 318 317 315 315 315 316 316 316 316 316 316 315 310 291 291 290 291 292 291 293 315 316 319 321 320 319 319 319 318 318 318 318 318 317 317 313 312 309 306 305 304 303 304 304 305 304 304 303 302 302 301 302 302
308 309 310 313 315 316 316 317 316 314 314 314 314 314 313 315 314 313 314 314 315 314 309 291 291 290 290 291 292 310 313 315 317 319 318 315 315 316 316 316 317 316 316 315 303 296 302 308 305 304 303 303 303 303 301 295 292 294 299 301 301 301 301
306 305 305 307 308 309 309 309 311 312 312 312 312 313 313 313 312 313 312 314 314 314 314 297 290 290 291 291 299 312 312 313 313 315 312 311 311 311 312 312 313 313 313 312 297 292 294 298 305 305 304 303 302 302 299 298 292 290 290 290 290 289 289
306 306 305 307 309 309 309 309 309 309 310 309 310 311 310 309 309 311 312 313 314 313 312 300 291 292 291 292 302 314 315 316 313 311 309 308 308 308 304 299 305 311 310 307 291 291 292 301 306 305 304 303 301 300 299 298 297 294 290 290 289 288 289
308 309 308 308 309 308 307 309 309 307 308 309 309 308 308 309 308 307 308 308 300 310 311 302 291 292 291 292 305 316 315 315 312 309 308 306 305 306 304 299 295 299 302 297 289 292 294 301 306 305 305 303 301 300 298 296 294 293 293 294 295 295 293
307 308 308 309 308 309 308 307 307 306 305 307 308 308 307 308 308 306 304 304 305 308 310 309 299 290 292 293 296 313 314 313 310 308 307 306 304 304 303 301 296 289 289 289 289 289 291 295 304 304 303 302 300 296 295 294 295 295 295 295 295 295 296
306 306 307 308 309 307 307 309 308 306 305 305 308 306 306 306 305 303 301 302 304 304 305 307 303 290 292 293 293 300 313 312 310 308 306 304 304 303 301 299 298 290 289 289 289 289 289 290 294 301 300 298 297 295 294 295 293 291 294 295 295 296 296
306 306 307 306 307 306 306 308 308 308 307 307 307 307 305 304 304 301 299 299 300 300 298 296 304 294 291 292 292 295 309 310 308 308 305 304 302 302 301 299 298 292 288 289 289 289 289 290 291 297 293 288 287 289 295 295 295 295 295 296 295 295 296
304 305 306 307 306 308 307 307 308 309 309 309 309 307 306 304 303 300 299 299 298 298 298 298 292 299 292 291 291 293 296 301 293 307 306 303 302 300 300 299 295 289 288 288 288 289 289 289 291 292 287 287 287 287 292 296 295 296 295 295 295 294 294
303 304 303 303 305 305 305 305 304 305 306 306 305 304 302 301 301 302 302 301 300 299 299 302 294 291 295 289 290 290 291 291 293 305 306 304 302 300 300 299 294 288 288 288 288 288 289 290 291 287 288 287 288 291 295 295 295 295 292 292 292 293 293

ECMWFFLT1_sfc_thetae_045.txt.gz
Theta_e
329 327 329 328 328 327 325 325 326 329 330 330 330 329 330 330 331 331 332 331 329 329 327 328 329 329 331 332 334 336 333 333 332 330 327 328 325 327 331 329 330 332 331 329 327 323 320 317 318 324 326 329 328 328 328 328 328 330 331 332 333 333 331
329 328 327 326 326 327 327 326 327 327 329 329 329 329 329 329 329 330 331 330 329 328 326 326 329 330 331 332 335 334 334 333 333 333 331 329 327 327 327 328 326 330 328 328 328 327 321 318 317 319 320 324 326 327 329 329 327 328 330 332 331 329 326
326 325 326 325 326 326 326 326 325 326 327 328 329 329 329 329 329 329 329 328 328 326 326 327 329 330 330 330 331 332 334 334 334 333 332 332 331 330 330 328 327 326 324 327 325 326 324 323 317 317 319 319 317 320 325 325 326 326 325 326 326 324 322
326 326 324 325 324 325 323 324 326 326 327 327 327 328 327 327 329 328 327 326 327 327 327 327 328 326 328 329 329 330 330 330 332 334 332 332 332 329 329 329 326 325 325 322 324 321 323 322 322 318 319 319 316 316 320 323 324 322 322 324 324 322 322
327 326 325 325 324 323 324 324 326 326 327 326 325 324 325 326 326 325 325 326 328 329 328 328 327 325 325 325 325 327 327 329 330 330 330 332 332 330 328 329 329 331 325 324 325 324 323 322 322 317 316 317 316 316 317 320 320 320 319 319 320 321 321
327 326 325 325 326 324 323 323 324 324 324 323 322 323 325 325 325 326 325 324 326 329 328 326 326 325 324 324 324 324 325 326 327 328 327 327 327 325 325 327 326 327 327 328 327 327 328 327 321 317 317 318 314 314 315 316 314 316 318 318 319 320 320
329 327 326 325 324 323 323 323 324 323 323 323 321 321 323 323 323 325 325 325 325 325 325 326 327 325 324 320 323 324 323 324 325 326 325 326 326 326 326 323 324 323 324 326 327 329 329 323 319 318 317 317 317 314 315 314 314 311 313 316 319 320 320
328 326 325 325 325 323 324 324 324 324 323 323 321 323 324 324 324 324 324 324 324 325 325 325 324 325 324 320 322 323 322 323 322 321 321 323 322 321 322 320 321 320 319 320 323 324 324 324 322 320 319 315 314 315 313 312 312 311 310 313 316 317 317
328 328 325 325 325 325 325 324 324 324 323 322 323 324 323 323 322 322 322 322 322 323 324 323 323 323 323 321 321 322 320 320 322 321 320 321 321 321 321 320 318 317 319 318 319 321 322 323 322 321 319 316 310 307 311 310 311 308 311 309 311 314 315
329 326 325 326 325 326 326 325 323 323 324 323 324 325 324 324 323 322 321 321 322 322 322 322 322 322 322 321 320 319 319 319 320 319 320 320 321 321 320 320 318 318 318 320 320 320 322 323 322 321 319 316 315 311 309 309 309 308 309 309 306 308 312
329 326 326 326 326 325 324 324 325 323 323 324 324 324 325 324 323 322 321 321 322 322 322 321 320 321 321 320 320 319 319 320 319 320 320 319 320 321 321 320 320 318 320 319 319 320 319 320 320 321 319 320 318 314 311 309 308 311 310 311 309 307 309
330 326 327 328 327 324 324 323 323 323 324 324 323 325 324 322 323 323 322 320 321 321 322 322 321 321 320 319 320 319 320 319 318 318 320 321 321 321 321 320 320 319 321 320 320 320 321 319 316 315 316 319 320 320 315 313 309 311 312 309 308 309 309
330 326 325 326 325 324 324 323 323 323 324 323 323 323 322 321 323 322 322 321 321 321 321 322 322 321 322 321 320 319 320 320 318 318 319 320 318 320 320 319 320 320 320 318 319 318 317 318 319 316 317 317 317 319 318 315 312 308 311 309 308 309 310
330 328 324 324 322 324 326 325 326 325 323 323 323 322 321 321 321 322 321 321 321 322 322 322 323 323 322 320 320 321 320 318 316 315 316 319 319 319 316 316 317 318 319 318 316 316 315 315 316 317 317 316 315 318 317 315 311 308 310 313 312 309 312
331 329 326 324 323 325 325 324 326 325 324 323 323 320 319 321 322 321 321 321 321 321 322 323 323 323 320 321 321 321 320 318 318 318 318 316 317 317 319 317 316 318 318 317 320 315 314 314 314 313 313 315 314 315 317 313 310 309 308 312 311 312 312
330 328 328 325 323 326 324 322 322 323 325 322 322 321 320 321 321 321 322 322 321 321 322 322 325 324 322 322 321 322 321 320 319 319 318 317 316 317 317 317 316 317 319 318 317 316 317 317 316 314 316 316 316 317 316 317 315 313 312 311 314 311 312
331 330 330 326 325 327 325 323 323 324 325 324 321 322 322 321 321 321 321 322 322 322 322 324 324 323 323 322 321 321 322 322 321 320 319 317 316 317 319 318 317 318 318 317 317 316 317 318 318 317 318 319 319 317 319 319 318 317 315 311 313 310 312
330 330 329 328 325 326 325 326 324 324 325 324 324 324 323 322 322 322 323 322 322 322 323 323 324 324 325 325 324 323 322 322 323 322 321 321 321 319 319 319 319 318 318 318 316 316 317 318 317 317 316 316 316 317 318 317 318 317 315 313 313 314 315
330 329 329 328 328 324 324 326 325 324 324 322 324 325 323 324 323 323 323 322 323 323 323 324 324 324 324 325 326 325 325 325 324 323 323 323 320 322 322 320 321 320 318 319 318 318 318 318 316 317 315 315 314 316 317 317 317 317 315 314 314 313 315
329 330 328 328 329 329 324 323 324 323 325 324 324 324 324 323 324 323 323 323 324 324 324 325 326 328 328 325 326 326 326 325 325 325 325 324 324 323 323 323 323 322 321 320 320 319 319 318 317 317 317 316 315 316 315 316 316 316 315 315 315 314 313
329 328 327 327 327 328 328 324 323 323 323 323 324 323 323 323 324 324 324 324 325 325 325 325 326 327 328 328 327 325 325 325 324 324 325 324 326 325 325 325 324 324 323 322 321 321 320 318 318 316 318 316 316 314 314 314 315 314 314 315 313 312 313
328 328 326 326 326 326 326 328 327 325 325 324 325 324 323 323 323 323 324 326 326 326 326 326 326 326 326 324 327 327 327 325 325 324 325 324 325 326 326 326 325 326 328 321 312 314 315 316 320 318 319 317 316 315 314 314 314 314 314 314 313 314 312
328 327 327 326 326 327 327 327 327 327 328 328 325 324 322 323 323 324 324 326 325 326 327 327 316 304 307 326 327 326 327 327 325 325 325 325 326 326 326 326 327 320 314 313 310 304 303 307 309 316 321 320 317 315 314 313 313 314 313 312 313 312 311
325 325 326 326 326 327 326 327 326 326 326 326 323 323 327 325 326 326 325 323 323 325 327 325 300 301 303 299 320 327 326 326 325 325 324 322 323 323 325 325 326 321 318 314 315 300 302 301 302 301 300 300 303 311 315 313 313 314 311 312 313 312 311
325 325 325 324 325 325 326 325 325 323 323 323 323 324 324 324 324 323 322 322 322 322 323 301 299 300 299 298 300 321 325 325 324 322 318 320 319 322 323 324 324 324 324 322 322 319 308 300 299 299 298 298 296 292 295 308 311 312 313 312 312 312 312
325 324 325 325 325 325 324 324 323 323 322 322 324 324 323 324 323 323 323 322 324 323 320 296 296 295 298 296 295 303 322 323 322 319 319 315 317 317 319 322 323 322 324 318 319 322 321 316 299 297 299 297 296 296 292 291 295 308 310 310 311 312 312
324 325 325 324 324 323 323 322 323 323 323 322 320 320 322 324 321 322 322 323 321 320 318 295 295 294 296 294 294 298 323 324 322 321 318 319 320 319 319 318 318 320 322 322 321 323 320 319 316 312 311 312 313 303 293 293 293 294 302 308 310 310 313
324 325 325 324 325 322 322 322 322 323 323 321 320 321 324 325 324 324 324 321 319 319 315 289 292 291 292 292 293 294 323 324 322 321 320 319 319 319 319 319 318 317 319 321 322 320 321 318 319 319 317 315 315 312 311 310 309 309 309 310 311 312 313
318 320 321 322 322 323 323 322 321 324 324 323 324 325 322 325 323 323 322 321 317 316 312 289 291 291 292 292 291 310 323 319 318 317 318 319 318 319 319 319 318 317 319 320 302 297 303 317 317 316 315 315 314 312 304 293 291 294 304 310 311 311 310
313 314 315 316 317 319 320 323 325 325 323 323 323 323 321 322 323 322 320 319 317 316 314 295 290 291 292 292 295 320 318 317 316 316 317 318 318 321 318 319 318 316 319 314 296 295 295 298 318 315 314 313 313 311 308 303 294 291 291 290 290 289 289
312 312 312 313 314 316 318 320 322 323 323 323 323 321 321 321 321 319 318 317 317 315 314 302 290 292 293 292 301 319 316 314 315 315 316 317 318 315 309 301 313 318 317 310 291 293 291 304 316 315 313 311 309 310 308 306 304 300 290 290 289 289 290
311 312 312 313 315 315 316 316 317 319 319 318 318 318 318 317 316 317 317 317 312 313 313 305 289 292 291 293 298 317 314 312 314 314 315 315 317 315 310 303 297 303 307 300 290 292 290 300 314 314 312 311 308 309 310 307 307 305 304 305 303 302 300
312 312 312 313 315 314 315 316 316 317 316 315 315 315 315 315 315 314 315 315 313 312 311 314 305 290 293 293 292 311 319 314 313 314 313 315 315 314 311 307 299 290 290 289 290 290 291 292 311 314 312 309 308 307 310 309 308 308 308 306 306 306 305
312 312 313 313 314 313 314 314 316 314 314 314 314 314 313 313 312 312 313 314 311 312 312 312 312 290 293 293 292 295 317 313 313 313 312 311 313 313 311 308 303 291 289 290 290 290 292 292 296 308 306 305 303 303 302 307 303 294 303 304 305 304 304
311 311 311 312 312 312 313 313 313 314 312 312 312 312 312 311 310 310 312 312 311 312 314 308 315 294 291 293 292 290 311 314 317 313 311 312 311 312 309 306 303 293 289 290 290 290 291 292 294 302 298 290 289 290 304 304 305 304 304 304 304 303 303
309 310 311 311 310 310 311 312 312 312 312 312 310 310 310 310 309 309 310 310 311 313 315 313 304 310 294 291 292 293 291 304 299 320 311 310 311 309 307 303 296 290 289 290 290 290 291 291 294 296 288 290 290 287 292 303 304 304 303 303 303 301 300
308 308 309 310 309 309 309 310 310 311 311 311 310 310 309 310 308 308 307 309 310 311 314 314 303 302 303 289 292 292 293 293 297 311 313 311 311 308 305 302 296 289 289 289 289 289 290 292 294 288 289 289 288 290 300 303 302 303 300 299 298 298 300

ECMWFFLT1_sfc_thetae_048.txt.gz
Theta_e
331 329 332 331 332 329 329 330 332 334 330 332 333 329 331 332 334 333 335 333 335 329 329 329 328 330 331 332 333 332 332 333 331 328 325 326 324 324 328 329 327 329 330 327 325 322 316 314 316 322 325 326 325 326 328 328 329 329 328 329 329 327 325
329 330 327 327 329 330 331 332 334 329 331 331 330 332 334 329 329 334 334 330 328 329 326 327 328 330 331 331 332 333 333 332 332 332 329 326 326 325 325 325 327 326 326 326 327 325 320 315 314 316 317 323 324 325 324 326 329 330 329 327 324 321 320
328 327 327 328 329 333 329 328 330 331 330 333 331 330 332 329 330 329 326 327 330 329 326 327 328 329 330 329 329 330 332 331 332 331 329 329 329 329 328 327 324 324 323 323 322 322 322 321 315 314 316 316 315 319 325 325 326 329 328 326 319 317 316
327 327 326 326 329 329 326 328 329 331 331 329 332 331 329 328 328 328 330 329 331 330 328 327 328 325 329 330 329 329 330 330 329 329 329 329 329 328 327 326 325 324 321 320 318 320 320 318 316 316 314 315 317 317 318 318 317 319 320 319 317 315 314
328 326 325 325 325 324 328 329 330 329 327 329 329 329 328 327 327 326 329 330 329 329 327 327 326 325 325 325 327 328 328 329 330 329 329 328 327 327 328 328 325 327 326 324 324 324 322 321 317 314 312 313 313 314 318 319 318 318 318 317 317 316 315
328 327 326 326 327 327 329 328 329 326 326 325 327 327 329 329 329 328 328 328 327 327 328 328 326 323 324 325 324 324 325 325 326 326 325 325 326 325 325 326 325 327 327 328 328 326 325 324 321 316 312 313 309 310 312 315 312 315 317 316 316 316 315
329 328 327 326 329 327 329 329 329 327 326 324 326 327 327 325 325 326 327 326 326 326 326 325 323 324 325 320 321 322 321 322 324 324 323 324 322 323 324 321 323 325 325 328 328 325 323 322 320 316 313 313 311 308 309 309 310 310 313 316 316 316 316
329 328 328 329 328 328 328 329 330 328 325 325 326 326 325 327 328 327 326 324 326 327 327 326 326 324 322 319 320 321 321 321 320 320 320 320 320 320 321 322 320 317 322 325 326 324 324 324 321 317 315 310 310 309 307 307 306 307 308 311 314 314 315
328 328 328 326 329 330 330 330 329 328 327 326 326 326 325 323 323 324 325 326 327 327 327 325 323 322 323 322 320 320 319 321 321 320 320 321 320 320 320 319 316 316 317 319 321 323 321 322 323 321 318 313 308 307 306 303 303 304 308 307 310 311 310
330 330 327 328 328 331 332 330 328 327 326 326 326 328 326 327 325 322 322 324 324 322 324 324 324 323 322 320 320 320 319 320 320 319 321 320 321 322 319 318 318 318 318 318 319 320 321 326 323 325 321 318 320 308 303 302 303 302 304 306 303 306 310
332 330 328 327 328 329 330 329 328 325 325 326 326 327 328 326 323 323 323 324 326 326 325 323 321 323 323 321 321 319 320 321 321 320 319 320 320 320 319 318 318 317 319 317 320 319 320 319 317 321 316 317 314 312 309 304 304 306 304 305 304 303 306
330 328 328 328 328 327 327 328 326 326 326 327 325 326 325 323 324 324 323 322 324 324 324 324 323 320 320 321 321 320 321 319 318 317 319 320 321 321 321 321 320 317 317 318 316 316 317 320 321 313 317 316 316 316 308 306 302 307 309 305 306 305 305
327 327 327 327 326 326 325 326 328 327 326 326 327 326 324 323 323 322 322 322 322 323 324 324 322 324 325 322 322 321 321 321 320 320 320 321 319 321 318 317 317 319 321 318 318 319 317 317 317 317 316 317 317 315 312 309 304 304 310 306 306 306 308
329 325 326 327 325 326 326 323 327 328 326 327 327 326 324 323 321 322 320 320 320 323 323 324 325 324 323 322 323 323 320 316 313 315 318 318 318 318 316 316 316 318 318 318 318 316 315 313 313 315 315 314 314 316 311 308 304 304 307 315 311 309 311
332 328 326 326 324 325 325 324 327 325 325 326 325 324 322 325 323 322 319 319 321 321 322 323 325 322 319 322 323 325 323 320 319 319 317 315 317 319 318 314 315 317 318 318 315 312 313 314 312 310 312 313 311 316 312 309 306 304 304 308 308 309 312
329 331 325 323 323 324 326 327 327 326 325 325 326 326 324 326 324 322 322 322 320 321 322 322 325 323 321 321 321 323 323 320 319 318 319 316 315 317 317 317 316 318 321 317 318 317 318 315 314 313 313 316 315 315 314 313 309 307 306 308 313 307 311
328 329 326 323 323 326 324 324 324 325 324 323 322 325 325 322 323 323 322 320 321 321 322 325 324 322 321 321 321 321 322 322 321 320 320 318 314 317 318 317 317 318 318 317 316 315 316 318 316 315 315 316 315 316 317 315 317 313 310 308 308 306 310
329 327 328 324 325 325 322 322 321 322 325 322 321 323 322 321 322 321 324 320 320 321 322 323 323 324 325 324 323 323 322 320 322 322 322 321 321 320 319 319 317 318 319 316 314 318 316 314 315 315 312 313 314 316 318 316 315 315 313 311 310 312 312
327 328 328 327 326 325 322 322 321 322 323 323 323 323 321 320 319 320 321 320 320 321 322 324 323 323 323 326 326 324 324 324 323 323 323 323 320 321 321 320 320 319 317 319 318 317 317 316 316 314 313 313 312 314 313 314 315 313 313 313 310 312 311
325 327 329 329 328 325 324 324 322 322 324 323 325 325 323 322 324 322 320 324 323 322 322 323 325 326 325 324 326 324 325 325 325 325 325 324 323 323 322 322 322 322 320 319 319 318 317 316 317 315 314 313 313 313 313 313 312 314 313 311 312 312 311
328 328 327 327 331 326 325 326 326 325 327 324 325 323 322 322 326 326 326 325 324 325 324 323 322 323 324 325 327 326 326 326 325 325 325 325 325 323 323 322 323 323 322 321 320 320 319 317 317 315 316 315 313 313 312 312 314 311 311 312 312 309 312
322 320 321 323 323 322 321 324 326 324 327 326 328 324 324 324 325 323 324 326 324 324 323 321 320 318 321 324 327 326 326 324 322 321 321 323 321 319 318 319 320 319 322 317 310 312 313 315 319 316 316 315 314 313 312 310 312 311 311 311 310 312 311
322 323 324 322 320 322 320 323 322 321 324 324 326 326 325 326 324 323 323 323 323 321 321 323 316 305 300 315 323 325 324 319 320 319 319 321 319 319 319 322 321 317 313 311 306 302 303 306 308 312 312 312 312 314 313 312 310 310 311 309 309 309 308
322 323 323 321 320 320 322 323 321 322 324 324 324 325 325 323 322 321 321 320 318 317 319 319 306 294 296 298 315 323 323 321 320 318 319 318 317 319 320 322 320 316 315 313 309 301 303 304 300 296 297 300 305 308 309 311 310 310 309 309 309 308 307
323 324 323 321 322 323 322 321 321 322 322 323 323 323 324 324 323 323 321 321 321 320 319 313 300 297 296 296 299 313 322 321 319 318 319 318 320 320 320 320 321 320 319 319 317 310 305 300 300 296 294 293 292 292 297 305 306 306 306 306 306 307 307
323 323 323 323 323 322 321 320 322 322 320 323 324 324 323 324 323 322 322 320 321 322 319 308 301 299 295 295 294 305 320 322 320 320 319 318 318 318 318 317 318 320 322 320 320 318 314 309 299 298 297 295 294 294 293 292 297 307 305 305 305 305 307
322 322 323 321 324 322 321 321 321 322 323 323 322 321 321 321 321 321 321 319 319 318 318 308 301 298 296 295 293 301 318 323 321 319 318 318 319 318 318 316 314 317 321 318 319 320 319 314 309 307 308 309 308 296 292 292 293 294 300 306 305 305 308
321 321 322 322 322 321 322 321 321 322 322 321 320 319 320 319 319 319 320 321 317 317 319 304 297 295 295 294 294 296 314 321 322 322 320 319 321 320 319 319 316 318 320 317 308 308 316 315 313 313 311 311 311 308 305 304 303 306 307 308 306 307 308
323 321 321 321 321 320 320 322 321 321 320 320 320 321 321 319 319 318 318 319 318 317 314 294 293 293 293 293 292 305 314 319 321 320 320 319 321 319 319 318 316 318 315 310 298 293 296 310 315 314 313 312 307 301 297 294 292 294 298 299 300 300 298
314 315 315 319 318 321 322 321 321 321 320 320 319 319 319 319 320 319 318 317 317 317 316 294 291 292 292 292 295 310 317 319 318 317 317 317 314 310 309 311 317 315 309 302 293 292 292 301 313 312 312 311 307 304 299 297 292 291 291 291 290 290 290
311 312 313 313 315 319 320 321 321 321 320 319 320 320 320 317 318 319 317 317 317 316 316 301 290 291 292 291 298 314 317 316 314 314 315 314 311 307 304 304 315 312 306 301 291 291 293 305 312 312 311 310 308 305 302 301 301 296 291 291 290 291 291
312 312 311 312 315 314 317 319 320 321 320 320 320 319 317 316 317 317 318 318 315 315 314 304 291 292 291 292 294 305 313 313 313 312 313 313 310 307 302 298 300 302 301 295 290 291 293 303 310 311 310 309 306 305 303 303 301 299 298 299 297 297 296
310 310 310 311 313 314 313 314 318 320 318 316 315 317 316 316 316 316 317 316 316 314 313 309 297 291 292 292 292 302 311 311 311 312 311 311 309 306 303 299 296 290 290 291 291 291 293 298 306 306 305 304 304 303 305 304 303 303 302 302 302 301 301
309 310 310 310 311 312 313 313 313 314 316 318 316 316 314 314 314 314 315 315 313 314 312 310 304 289 291 291 291 293 308 311 313 312 310 310 309 306 304 300 297 291 290 291 291 291 293 294 297 301 300 298 298 299 300 303 300 296 300 300 300 301 301
310 312 311 311 311 311 312 312 312 312 312 314 314 314 315 313 313 312 312 312 311 312 311 308 310 294 291 291 291 290 304 313 311 311 310 309 310 307 302 299 296 292 290 290 290 291 292 293 293 297 293 290 289 291 298 299 302 299 299 300 299 299 300
307 310 311 312 310 309 311 310 310 311 311 311 312 312 311 313 312 310 312 311 311 311 311 307 303 302 292 292 291 291 291 297 294 311 311 308 307 304 302 297 294 291 290 290 290 291 291 292 293 291 289 289 288 288 291 299 299 301 299 299 299 297 295
305 308 308 308 307 309 309 309 308 308 308 309 309 309 309 309 309 308 308 308 309 309 312 309 302 300 296 290 291 292 292 291 291 307 309 308 304 302 298 296 293 289 290 290 290 290 291 292 291 289 290 288 289 293 297 298 297 299 296 295 296 295 296

ECMWFFLT1_sfc_thetae_051.txt.gz
Theta_e
321 319 319 320 320 321 322 323 323 321 322 323 323 325 325 326 325 324 323 322 325 325 325 324 324 325 327 328 326 327 325 325 323 321 320 321 319 318 322 320 322 324 323 321 319 316 315 313 316 322 324 324 324 324 325 325 325 325 325 325 323 322 320
322 320 320 319 318 320 320 320 322 322 323 323 324 324 322 323 325 322 320 321 323 324 326 325 325 326 326 325 325 325 325 325 324 323 321 319 319 319 319 318 320 321 321 322 321 319 314 313 313 314 316 321 320 323 325 326 326 325 323 319 318 315 315
319 319 319 317 317 320 320 321 320 321 320 320 321 320 320 322 321 320 320 321 322 323 324 324 324 323 323 323 324 325 325 324 323 324 322 321 321 321 321 320 317 317 318 317 318 318 317 315 312 313 315 315 314 317 323 324 325 323 319 315 313 312 311
319 319 318 318 318 317 318 319 319 319 319 319 320 321 320 319 320 323 321 322 322 324 324 323 321 322 322 323 325 325 324 324 323 323 323 321 322 321 321 319 318 318 315 313 316 316 314 313 313 313 315 316 316 316 319 323 323 321 316 314 312 310 310
320 319 318 318 317 316 317 319 318 318 319 319 318 316 316 317 320 320 321 320 321 319 319 319 319 319 320 322 322 322 322 322 323 323 321 321 320 320 319 319 320 321 319 319 319 319 316 315 314 312 312 315 315 314 319 318 321 317 313 312 311 311 309
320 319 318 317 317 317 319 319 318 316 315 316 316 318 318 319 320 319 318 317 316 317 318 317 318 319 319 318 318 318 319 319 318 319 318 318 320 320 319 319 321 323 321 321 322 320 318 316 313 310 311 311 308 310 313 313 312 313 313 312 312 312 311
320 320 318 318 318 319 321 319 317 316 316 316 316 316 317 318 319 319 317 317 316 317 317 317 317 316 316 316 316 315 315 315 315 315 314 314 316 318 319 318 318 321 322 323 322 320 318 315 312 309 308 309 309 310 311 309 312 310 310 312 312 311 310
320 320 320 321 319 320 320 320 319 317 315 316 316 316 317 318 318 316 316 316 317 316 316 316 317 315 315 315 316 314 314 314 314 315 314 314 315 313 312 311 313 315 320 323 320 320 319 317 316 311 308 305 303 303 303 305 307 308 308 310 312 311 310
321 321 320 320 319 319 320 320 316 316 316 316 317 317 316 315 315 316 317 317 317 317 316 314 314 314 313 312 312 312 313 318 314 314 313 314 313 312 312 312 311 311 314 318 320 319 319 320 316 313 309 307 303 300 300 301 303 305 309 306 307 311 311
320 319 318 319 319 319 320 318 317 317 317 316 316 315 314 315 315 315 315 313 313 314 314 314 313 312 313 313 312 311 312 313 314 313 312 312 312 311 310 310 310 310 311 313 313 315 317 318 318 316 313 308 306 300 297 298 299 300 304 306 302 305 309
321 319 319 318 319 320 319 318 317 316 316 318 318 318 316 315 317 319 313 313 314 316 315 314 314 313 312 310 311 312 313 312 312 313 315 314 312 312 312 312 312 311 312 310 311 311 313 314 314 314 314 313 308 302 299 298 298 301 300 302 303 302 306
321 319 319 319 319 319 318 316 316 316 317 317 318 317 314 313 313 314 314 314 314 314 314 313 313 313 313 312 313 313 313 312 312 312 312 314 314 314 312 312 310 310 310 309 309 309 310 313 311 311 311 313 310 306 303 300 297 302 300 300 302 304 304
320 319 319 318 318 318 318 317 317 316 316 317 317 316 314 315 314 313 313 314 313 314 314 313 312 313 313 312 311 312 311 311 311 310 312 313 315 313 311 311 311 311 310 309 310 311 308 310 311 310 310 310 308 306 304 300 298 299 304 300 301 302 304
319 320 319 318 317 317 317 318 317 317 318 317 317 316 316 315 313 314 313 314 313 313 313 313 315 315 313 312 312 312 311 311 311 311 311 311 312 311 311 310 309 311 310 309 309 309 310 309 309 311 310 308 306 305 304 301 299 299 302 305 303 303 304
319 319 318 317 317 317 316 316 318 317 317 317 317 317 316 315 314 314 313 313 314 314 314 314 314 313 313 313 313 314 311 311 311 310 309 309 309 311 308 308 310 310 312 311 310 311 310 308 311 311 309 308 305 305 305 303 300 298 298 304 304 307 305
320 319 318 316 317 317 316 317 317 316 317 316 317 317 316 316 316 314 314 314 314 314 315 315 313 313 312 312 313 312 312 309 308 308 309 309 309 309 309 309 310 310 313 309 309 308 310 310 310 311 311 311 309 307 306 304 303 301 300 302 304 304 305
322 319 317 317 318 319 318 317 317 317 317 316 317 317 317 317 317 315 315 315 315 315 316 317 315 314 315 315 313 312 311 311 312 310 310 309 310 311 309 309 310 311 310 307 308 310 310 311 309 309 310 310 311 310 310 309 305 302 301 303 303 304 306
321 319 316 317 318 318 318 317 317 318 316 315 316 317 316 316 316 316 317 315 315 316 317 317 316 314 315 315 314 315 313 312 313 313 312 310 316 311 310 309 311 311 309 306 309 311 311 310 311 309 309 309 310 312 312 311 309 307 305 304 304 305 305
321 319 318 319 317 317 317 317 316 316 317 314 314 316 315 315 316 316 316 315 315 316 316 316 316 316 317 317 315 314 314 314 315 315 314 313 313 313 312 312 312 311 311 310 310 310 311 310 310 309 308 309 310 309 308 308 309 309 307 304 305 305 306
319 317 318 318 319 318 317 316 316 316 317 315 314 314 314 314 315 316 316 315 315 316 317 317 317 317 317 318 316 317 317 316 317 318 318 317 317 316 315 315 314 314 313 312 311 311 311 310 310 308 308 308 308 307 307 307 308 307 307 306 307 305 305
320 318 317 319 319 319 320 318 317 317 318 317 317 317 315 315 316 316 317 317 317 317 316 315 316 316 317 317 319 319 318 316 316 315 317 317 317 316 315 315 314 313 313 313 312 311 311 310 310 309 308 308 307 307 306 305 306 305 305 305 305 304 306
317 317 318 318 318 317 318 319 319 320 319 318 319 317 316 317 318 317 318 319 318 318 318 317 317 316 316 317 319 317 316 316 316 315 315 316 315 316 314 314 316 315 317 315 308 312 314 314 313 311 309 309 307 306 306 305 306 304 305 304 304 304 302
319 319 317 316 317 316 316 317 317 318 319 319 318 318 319 319 318 317 317 316 315 317 317 315 309 305 309 314 316 319 316 315 316 315 315 313 312 313 314 315 317 321 314 312 307 301 301 304 309 311 309 309 309 309 307 305 305 305 304 303 303 302 302
319 319 317 315 313 316 317 316 315 317 316 316 317 318 318 317 317 317 315 313 313 314 316 315 297 293 294 301 314 316 315 315 314 314 314 313 312 312 312 316 314 314 313 313 305 298 297 297 296 297 298 302 307 307 306 304 304 303 302 303 302 302 299
319 319 317 315 316 317 317 315 315 316 314 316 316 316 317 317 316 315 315 313 313 313 313 308 294 294 294 296 305 315 315 315 314 312 313 313 312 313 313 315 313 314 313 312 311 305 300 296 295 295 294 294 294 295 299 304 303 301 300 300 301 301 300
318 318 317 318 317 316 315 315 315 315 313 315 314 316 316 316 315 315 315 314 313 313 312 304 297 294 293 294 297 309 317 315 314 312 313 313 314 314 313 313 314 314 316 318 316 309 306 301 296 295 295 294 294 294 293 295 299 303 302 301 301 301 301
317 317 318 317 316 316 315 314 314 314 313 313 313 312 312 313 313 313 313 313 314 313 312 309 297 294 294 293 292 300 313 316 314 315 315 314 315 314 314 313 313 313 314 315 313 311 309 304 302 301 300 300 298 295 293 293 293 294 299 302 300 301 303
315 315 316 316 315 315 314 313 314 312 311 311 311 310 312 310 311 311 311 311 310 311 314 306 298 295 294 293 292 297 309 312 314 314 314 314 314 314 314 314 313 312 311 307 304 308 311 307 305 305 304 303 301 300 299 299 300 302 302 302 300 303 300
313 314 315 315 315 315 314 313 311 311 309 309 309 309 309 309 310 309 310 310 309 307 310 298 295 295 294 292 292 303 308 310 311 312 313 312 313 314 314 314 312 312 307 302 299 300 306 308 307 306 305 300 296 293 292 294 292 297 299 299 298 297 296
306 305 307 310 313 313 312 312 311 309 311 308 309 310 309 308 310 310 308 308 308 309 311 299 292 293 293 292 295 306 309 311 311 310 310 308 305 304 306 311 313 308 304 299 295 294 300 305 309 308 305 301 298 295 292 292 292 291 292 293 293 292 291
304 304 303 305 307 310 312 312 313 311 310 310 309 311 309 308 308 310 309 309 311 311 311 304 292 293 292 292 299 307 309 311 309 308 307 304 303 302 305 311 311 304 301 297 292 294 298 304 306 306 306 301 298 296 293 294 294 292 291 291 291 290 291
303 303 303 303 303 304 306 309 310 311 310 310 310 309 311 310 308 307 309 310 312 312 310 307 294 293 292 292 297 304 309 309 305 307 305 302 300 300 299 302 304 301 300 295 292 295 298 302 302 303 305 302 299 296 294 294 294 293 294 294 294 293 294
303 302 302 303 304 304 304 304 306 310 311 312 312 311 310 310 308 310 311 310 311 312 310 306 296 291 292 292 293 301 303 304 303 306 304 302 299 297 296 295 295 292 291 292 293 294 295 297 301 301 303 302 299 297 298 297 295 294 294 294 293 293 294
302 303 303 304 304 305 304 304 304 304 304 304 305 308 310 309 309 310 310 311 310 310 310 306 298 290 292 292 292 294 299 301 301 306 305 301 300 297 296 294 294 292 291 292 292 293 293 294 295 298 299 298 297 297 297 295 295 297 295 295 295 295 294
301 304 304 305 304 303 303 304 303 303 302 301 301 302 303 307 307 308 308 308 309 309 309 306 300 291 291 291 291 291 298 302 302 305 305 303 299 298 296 294 293 292 291 291 291 292 292 292 292 295 293 291 291 292 295 295 295 294 295 294 294 294 294
301 303 302 302 301 301 301 302 302 301 301 300 300 300 301 301 301 303 303 304 307 308 308 306 299 295 290 291 290 289 291 293 292 299 305 303 300 298 295 294 294 292 290 291 291 291 291 291 292 290 289 289 289 290 292 293 293 293 293 293 292 291 291
299 299 299 299 298 298 299 299 300 302 301 300 299 299 299 301 300 299 299 300 304 303 303 304 299 296 292 290 290 290 289 289 290 296 303 305 301 297 294 293 293 290 290 290 290 290 290 291 290 289 289 289 290 292 292 291 291 292 289 288 289 289 290

ECMWFFLT1_sfc_thetae_054.txt.gz
Theta_e
317 315 317 318 318 320 319 319 320 319 321 322 321 321 322 323 322 320 320 321 321 322 323 322 322 321 323 324 323 322 322 322 320 319 317 317 317 316 320 317 320 321 317 315 316 314 315 313 316 321 323 324 325 325 326 326 325 324 322 320 319 316 315
317 317 318 319 319 320 318 317 319 319 319 320 321 320 320 322 321 319 321 321 321 321 324 324 321 322 321 321 320 320 321 320 320 319 320 317 317 318 316 316 319 317 318 318 317 316 314 313 313 315 316 321 323 324 325 326 323 320 317 315 315 313 313
318 317 317 317 317 318 317 316 317 317 317 317 318 319 319 319 318 320 321 321 320 322 323 321 320 320 320 320 320 320 319 320 320 321 320 317 318 319 317 317 316 315 316 314 313 314 314 313 312 313 313 316 316 320 324 321 317 315 312 311 310 309 309
316 315 315 315 316 317 317 316 316 316 317 316 316 316 317 319 320 321 319 319 320 323 322 321 319 320 319 320 320 320 319 320 319 319 319 318 319 318 318 318 318 318 316 312 314 313 312 311 312 312 313 315 317 316 318 317 314 311 310 309 308 308 308
316 316 316 316 317 317 316 315 315 315 314 315 314 315 316 317 318 316 318 318 319 317 316 317 317 319 319 319 319 319 319 318 318 320 318 318 317 316 316 316 318 314 314 316 316 315 314 315 314 313 312 315 315 315 319 315 315 310 308 308 308 307 306
316 316 316 316 316 317 316 315 314 313 312 313 312 316 314 315 316 314 315 315 315 315 315 316 316 316 316 316 316 316 315 315 315 317 317 315 316 316 316 316 317 317 317 317 317 315 316 315 315 312 312 312 308 313 314 314 308 310 309 307 307 306 306
316 317 316 316 316 317 316 315 314 313 312 313 313 314 315 315 315 315 315 314 314 314 315 314 314 314 314 313 312 312 312 311 312 313 314 314 315 315 316 317 316 318 317 318 317 316 314 313 311 312 310 307 310 312 311 307 309 307 308 309 309 309 308
317 317 316 316 317 317 316 315 314 313 313 312 313 313 314 314 314 314 313 313 313 313 313 313 314 313 313 313 312 312 312 310 312 313 311 312 312 310 311 314 316 317 317 317 317 317 316 314 313 311 309 308 304 305 305 305 306 305 306 307 308 307 307
318 317 316 317 318 318 316 315 314 314 315 313 313 313 313 313 312 313 314 313 312 313 313 312 312 311 310 311 310 310 311 314 311 311 310 310 309 309 310 311 314 313 316 317 318 316 315 314 312 309 310 310 307 300 301 302 301 303 308 304 306 308 306
317 316 316 316 318 318 317 315 315 316 316 315 315 313 311 311 311 312 313 312 311 311 310 310 310 309 309 310 310 309 310 310 311 309 308 308 308 308 309 309 309 310 311 314 315 317 316 314 312 310 309 309 306 302 299 298 299 299 304 303 301 305 308
318 318 318 317 318 318 316 315 316 316 315 315 314 313 311 311 313 316 310 310 310 310 310 309 309 308 308 308 308 309 309 310 311 310 310 310 309 310 309 308 308 307 308 310 312 313 315 315 312 310 309 306 305 305 301 300 299 298 301 302 299 301 305
317 318 318 319 319 317 316 316 315 315 315 314 315 312 311 311 310 309 310 310 311 310 309 309 309 308 308 308 309 309 309 310 310 309 309 311 309 310 309 309 309 308 307 308 308 310 311 312 311 312 310 307 305 303 303 301 298 299 300 301 299 302 305
317 318 318 319 318 317 317 316 315 315 314 314 313 312 310 310 310 310 310 311 310 309 309 309 309 308 308 309 309 310 308 309 309 308 308 308 311 309 308 308 307 307 306 307 307 307 307 308 309 311 311 307 304 302 302 299 299 300 299 298 298 301 306
318 318 318 319 318 317 316 316 316 316 316 314 312 311 311 311 310 311 310 311 310 309 308 308 309 308 308 308 308 308 308 309 309 307 308 308 308 307 308 307 307 308 307 307 306 307 307 307 307 308 308 306 303 302 301 299 298 298 299 300 300 301 303
318 318 318 318 317 317 316 316 316 316 315 315 313 313 312 311 311 311 311 311 310 309 309 309 310 309 308 307 308 310 308 308 307 307 307 307 306 308 306 307 308 308 308 307 306 307 307 307 306 305 304 304 303 302 302 300 296 296 297 301 300 303 300
318 318 317 317 316 318 317 316 317 316 316 315 315 315 314 313 312 310 311 312 312 310 311 311 309 310 308 308 308 308 308 307 306 306 306 305 306 306 307 307 306 307 308 307 306 306 307 307 306 305 304 303 302 302 302 302 299 297 298 299 300 300 300
318 317 317 317 317 317 317 317 317 317 316 316 316 315 315 314 312 311 312 312 311 311 312 311 310 310 311 310 309 308 306 306 306 306 306 306 307 307 306 306 307 306 306 307 306 306 306 307 307 306 305 304 304 303 303 301 301 298 298 300 300 301 302
317 316 317 318 317 318 317 317 317 317 316 316 316 316 315 315 313 312 313 312 312 312 313 312 311 311 311 310 309 308 307 307 307 307 307 307 312 307 307 306 308 306 306 307 306 306 306 306 307 308 307 306 306 307 307 304 302 301 301 300 301 301 302
317 316 317 317 317 318 317 317 316 316 315 315 315 315 314 314 314 313 313 313 313 314 314 312 311 311 312 310 310 310 308 309 309 308 308 309 309 308 307 307 308 306 307 308 306 306 306 306 306 306 306 307 307 306 305 305 304 302 301 300 301 302 302
316 316 316 317 317 317 316 316 316 315 314 313 314 314 314 313 314 314 314 314 314 315 314 313 312 312 313 312 311 311 312 313 312 312 311 311 311 310 310 311 309 309 308 308 308 307 306 305 307 305 306 306 306 305 305 304 305 304 302 301 302 301 301
317 317 317 317 317 317 317 314 316 316 314 312 313 314 314 313 312 314 314 313 313 314 314 313 313 313 314 314 313 313 314 314 314 313 312 311 311 311 311 311 310 310 310 309 308 308 307 307 306 305 305 305 304 304 304 304 304 304 303 302 301 301 300
317 317 317 317 316 315 316 315 315 316 315 315 314 313 313 312 314 314 314 315 315 315 315 315 316 316 316 316 315 315 315 315 314 314 312 312 311 311 311 311 311 311 315 315 311 310 310 310 308 306 306 304 303 304 302 303 304 302 302 302 301 299 299
317 316 316 315 314 314 315 315 316 316 316 315 315 316 314 315 316 316 315 314 314 315 315 314 314 311 313 316 316 316 314 312 312 312 312 310 310 311 312 311 313 320 313 310 308 305 304 306 309 309 307 305 304 304 303 303 302 302 302 302 299 299 299
316 315 314 312 312 313 314 314 314 313 313 313 314 314 315 315 315 315 315 314 313 312 313 311 298 299 304 308 315 313 312 312 310 310 311 310 310 309 309 312 312 315 312 309 302 297 298 298 298 298 300 303 307 306 304 302 301 301 300 300 298 299 298
314 313 313 313 313 314 312 312 313 312 311 313 313 313 314 314 314 314 313 312 313 313 313 303 294 297 300 303 308 313 312 312 311 311 311 310 310 309 309 311 311 310 309 308 304 300 299 296 295 295 294 295 295 297 301 303 302 300 300 301 300 299 299
313 312 312 313 313 312 311 311 311 312 311 311 311 313 312 312 311 311 312 312 312 311 311 295 294 295 295 296 300 309 313 312 311 310 310 311 310 310 309 310 311 311 313 315 310 304 302 299 296 295 295 295 295 294 294 296 298 303 302 302 301 298 298
313 312 312 312 311 311 310 308 308 308 309 310 310 310 309 310 310 310 310 311 308 308 310 297 294 295 295 296 295 301 312 312 312 311 311 312 312 312 311 311 311 311 310 313 309 306 304 302 300 300 299 297 296 295 294 293 295 297 300 303 302 302 300
312 312 312 311 311 309 309 308 309 308 307 309 310 309 310 309 310 309 309 308 306 309 311 296 294 294 294 294 294 295 308 312 312 311 312 312 312 312 312 312 312 312 311 312 310 307 305 303 302 302 299 297 296 297 296 297 298 298 298 298 299 300 300
305 306 310 310 309 308 307 307 307 308 306 305 305 306 306 307 308 308 307 306 306 306 306 293 293 293 293 293 293 301 306 307 309 310 311 311 311 311 312 312 311 311 311 310 306 300 302 304 304 302 300 296 294 291 291 293 291 294 299 298 300 300 299
302 303 304 308 309 308 308 307 307 307 308 306 307 307 309 309 308 308 308 306 306 308 306 296 293 293 293 292 294 304 306 306 306 308 310 310 310 310 311 311 311 310 307 306 300 296 297 301 304 303 299 296 294 292 291 292 292 292 293 294 294 294 294
301 301 301 303 303 305 305 305 306 307 308 307 306 306 306 308 307 308 308 309 309 309 310 300 293 293 293 292 297 305 306 306 306 308 305 303 302 304 309 311 312 308 303 302 294 295 296 303 305 303 299 296 294 292 291 292 292 291 292 291 291 291 291
299 299 299 300 301 301 301 301 302 305 307 307 307 305 306 306 307 306 307 309 310 310 309 306 294 293 293 293 295 303 305 306 306 305 303 300 298 299 301 308 309 305 303 299 292 295 296 303 305 303 300 298 296 293 292 290 291 290 290 290 290 290 290
299 298 298 298 299 300 301 301 301 300 300 302 304 305 304 307 306 307 306 306 308 309 308 307 300 291 293 293 294 302 305 305 305 303 301 301 300 297 297 301 303 296 295 293 293 295 296 299 305 304 301 300 298 296 294 293 292 292 291 292 290 291 291
299 299 299 298 298 298 299 299 300 301 300 300 300 301 301 302 303 305 306 305 306 307 308 307 305 293 293 293 292 296 302 304 301 303 301 298 299 298 296 296 295 294 292 293 294 293 295 296 299 304 303 301 300 298 295 295 295 294 293 292 292 291 292
300 300 299 299 298 298 299 299 300 300 299 299 299 299 299 299 300 302 303 303 304 306 307 307 307 294 292 292 292 293 301 302 300 303 300 300 298 297 297 296 295 294 292 293 292 293 293 294 295 301 298 294 292 293 296 295 295 293 292 292 290 289 289
297 298 298 297 297 297 297 297 298 297 297 296 297 297 297 296 297 297 298 299 301 303 304 303 301 299 292 291 291 291 294 299 294 303 303 301 299 299 297 295 296 294 291 292 291 291 292 292 294 293 291 292 293 292 293 293 293 292 289 288 289 288 287
295 295 295 295 296 295 295 296 295 295 295 295 294 294 294 295 294 295 295 297 299 299 299 300 297 297 294 290 290 290 289 291 291 298 303 303 301 298 296 295 294 290 290 291 291 291 291 292 292 290 290 290 291 292 293 291 289 290 289 288 287 287 287

ECMWFFLT1_sfc_thetae_060.txt.gz
Theta_e
322 319 317 315 315 318 319 318 319 318 319 319 319 320 322 324 323 322 322 323 324 324 326 324 325 323 324 325 324 324 323 324 323 322 320 320 321 320 319 319 320 320 317 315 319 317 315 313 316 323 325 324 323 322 321 319 318 317 316 315 314 313 314
319 318 318 318 317 318 317 316 317 317 317 317 317 317 319 321 325 320 320 320 321 323 326 322 322 323 324 324 322 322 322 322 322 322 321 320 320 319 317 316 318 317 318 318 317 318 317 315 315 317 317 320 319 317 316 315 314 313 313 313 313 312 314
318 316 316 315 314 315 316 315 315 316 315 315 315 316 316 318 319 320 318 319 319 322 324 321 321 321 322 323 322 322 322 321 320 322 322 321 321 320 319 318 316 316 316 316 316 318 319 320 315 315 317 316 313 313 313 311 310 311 310 310 310 310 310
316 315 314 313 313 314 315 314 315 313 313 314 315 315 316 317 319 321 319 319 321 325 321 320 321 322 320 321 320 321 321 321 320 320 320 319 320 319 319 320 319 319 318 315 316 316 318 317 316 316 315 315 313 311 309 310 310 308 308 309 309 309 310
317 316 315 314 314 314 314 313 311 312 312 312 312 313 314 317 319 318 319 318 318 317 317 318 319 319 319 320 319 320 320 319 319 320 319 318 318 318 318 319 319 317 314 318 318 318 319 318 318 314 313 312 310 310 309 310 309 308 307 307 308 308 309
317 316 315 314 313 314 313 312 312 312 311 313 312 313 312 315 318 317 316 316 316 317 316 317 317 318 318 319 319 318 318 319 319 319 319 319 319 319 319 317 318 316 317 319 318 318 320 320 318 313 312 310 308 309 313 309 308 310 309 308 308 308 308
318 317 316 315 314 314 314 314 313 313 313 314 312 312 312 315 316 317 315 313 314 314 315 314 314 315 315 317 317 318 318 316 317 318 318 317 318 318 319 318 317 316 317 318 319 320 320 318 315 312 309 309 310 310 309 308 309 307 307 310 310 309 308
318 318 316 316 315 314 313 313 312 312 314 312 312 312 314 313 313 313 314 313 313 313 314 314 313 312 313 313 313 313 313 313 316 317 316 317 317 316 318 319 317 317 318 318 320 320 320 319 315 312 310 308 308 306 307 306 305 307 307 309 309 309 309
318 317 316 316 316 315 314 313 312 313 314 313 312 312 312 313 313 314 314 312 311 311 312 312 311 311 310 311 311 312 313 315 314 315 314 316 316 316 317 317 318 317 317 318 320 320 320 319 316 313 312 311 308 304 305 306 305 307 307 308 309 309 309
316 316 316 315 314 314 314 313 313 313 313 313 313 312 310 311 312 313 312 311 311 310 310 310 310 310 309 310 310 310 310 310 312 309 310 313 312 314 316 317 318 317 317 318 319 319 318 317 316 315 315 312 310 306 304 303 305 305 307 306 306 308 309
316 316 316 315 314 313 312 313 312 313 313 314 313 313 311 311 313 316 311 310 309 309 309 309 309 308 309 309 308 308 308 309 310 310 311 310 311 313 314 316 317 317 316 317 318 318 317 316 315 315 315 313 312 308 304 304 305 303 308 306 305 307 308
316 316 316 315 314 313 313 312 312 312 311 312 313 311 310 309 309 308 309 308 309 308 308 308 308 309 309 310 310 308 308 309 309 309 309 310 310 312 313 314 315 316 316 316 316 316 316 315 315 314 313 312 310 310 307 307 305 307 308 309 308 304 308
316 316 316 315 314 313 313 313 312 311 312 312 310 310 309 309 309 308 308 308 307 307 307 307 308 308 308 307 308 308 308 308 308 308 308 308 308 309 311 312 313 314 315 315 315 315 315 314 314 314 313 311 308 309 309 306 306 307 306 309 307 304 307
315 316 316 315 314 313 313 313 312 312 311 310 310 309 309 309 309 309 308 310 308 307 307 307 307 308 309 307 307 307 307 308 308 307 309 307 308 308 309 309 309 310 313 315 315 314 314 313 313 314 313 310 308 308 309 306 306 305 305 303 305 304 308
316 316 315 314 314 313 313 312 312 312 312 310 310 310 309 310 309 309 308 307 307 306 307 307 307 308 308 308 308 308 307 307 307 306 307 307 307 307 308 308 308 308 310 314 313 313 313 312 311 311 311 310 308 308 308 305 304 305 306 304 304 304 307
316 316 315 314 313 313 313 312 313 312 311 310 310 310 310 310 309 309 309 307 307 307 308 307 306 307 307 308 308 307 307 307 307 307 307 307 307 307 308 308 307 308 309 310 309 310 310 312 311 311 312 309 309 308 307 305 305 304 305 305 304 304 306
315 315 314 314 313 313 312 312 313 312 312 311 310 310 310 310 310 309 310 309 307 308 308 308 307 307 307 308 308 307 306 306 306 306 307 307 307 307 307 308 307 308 309 309 307 308 308 309 310 311 311 309 308 306 308 305 307 304 304 305 303 303 304
314 314 314 314 313 313 312 313 313 312 312 312 310 311 310 309 309 310 310 309 308 308 309 308 308 308 307 307 307 307 306 306 306 306 306 307 312 308 309 309 308 308 308 308 307 308 307 307 307 309 309 307 306 306 306 305 305 304 305 304 304 303 303
314 314 314 313 313 313 313 312 313 313 314 312 311 311 310 310 310 309 310 310 310 309 309 308 308 308 308 307 307 306 307 307 306 306 306 307 308 307 309 308 308 308 308 309 307 307 307 307 306 306 306 305 304 305 306 304 305 305 305 304 304 303 305
314 313 313 313 314 314 314 313 314 314 314 313 311 310 309 310 311 309 310 310 310 310 309 309 309 309 309 308 308 308 308 308 308 308 308 309 309 308 308 308 308 308 308 308 308 308 307 307 308 306 307 306 304 304 304 304 303 303 303 303 303 304 304
314 314 313 312 312 312 314 314 313 313 313 312 312 311 310 310 310 309 309 310 309 310 309 309 308 309 309 308 309 309 310 310 310 310 310 310 311 310 310 310 308 308 308 308 308 308 308 308 307 308 307 307 306 305 304 304 303 303 302 303 303 303 303
314 314 314 313 313 312 313 313 313 313 313 312 312 311 311 310 310 310 309 310 310 310 310 309 309 309 310 308 308 310 311 311 310 311 311 311 311 311 311 310 309 308 313 312 308 307 308 308 309 308 307 307 306 305 305 305 304 303 302 303 303 303 304
314 313 313 312 313 313 313 313 313 313 313 312 311 311 310 310 311 310 310 310 310 311 310 310 311 308 308 310 309 310 310 310 310 310 311 312 312 311 309 309 312 318 314 311 307 302 301 303 306 309 308 307 307 306 305 305 304 303 303 302 303 303 303
313 312 312 312 312 313 313 313 312 312 313 313 312 311 310 311 311 311 311 310 310 310 310 312 306 302 301 305 310 310 311 310 310 310 310 310 310 311 309 308 309 311 312 312 307 300 300 300 301 301 301 304 307 308 306 305 305 304 304 303 303 303 304
312 311 312 312 312 311 310 310 310 309 309 309 309 310 310 310 310 311 312 311 311 311 311 308 300 299 297 298 305 311 311 311 310 311 311 312 311 311 311 311 310 310 309 309 308 307 303 300 298 298 297 297 298 300 302 308 306 304 304 304 303 304 304
311 311 311 311 310 310 310 309 309 310 309 307 308 308 308 309 308 308 310 311 311 310 310 301 296 296 295 294 296 308 312 312 312 313 313 312 312 312 311 311 311 311 311 315 313 306 306 304 297 296 297 297 297 297 296 296 299 310 308 307 306 304 304
311 310 310 309 309 309 309 308 308 307 308 308 307 307 307 307 307 307 308 308 306 306 308 300 295 295 294 293 293 298 313 311 312 313 313 313 313 312 312 311 312 313 313 314 311 306 305 304 302 303 303 304 304 300 296 295 295 297 303 309 307 307 304
310 309 309 308 308 307 306 306 307 306 306 307 307 305 305 305 307 308 307 305 305 307 308 295 294 293 293 294 293 297 308 309 311 312 313 314 314 313 313 312 312 313 313 312 312 307 306 304 303 304 303 302 302 301 302 302 302 304 306 306 307 308 305
301 302 303 304 304 304 304 304 305 304 304 303 303 303 303 303 304 306 306 306 305 305 306 295 295 294 293 293 295 304 306 308 309 309 311 312 313 312 312 312 311 311 311 311 307 299 301 305 304 304 303 301 299 298 298 295 292 293 299 303 306 304 304
298 299 299 298 299 299 300 301 304 304 305 302 303 304 304 304 304 305 306 305 304 303 305 304 297 294 293 292 297 302 304 305 305 306 309 310 310 311 311 311 311 311 311 310 304 296 296 299 305 305 304 301 299 299 298 297 293 292 292 292 292 293 293
297 297 297 297 297 297 297 298 299 301 303 303 303 303 304 305 304 303 304 306 305 305 306 306 297 297 294 293 298 306 307 307 307 306 307 308 307 308 309 308 312 311 311 311 301 295 294 300 306 305 304 301 299 300 297 296 297 294 292 292 291 291 291
296 296 296 296 297 296 296 296 297 298 298 298 298 299 301 301 300 302 303 302 306 306 305 304 298 297 295 294 297 304 306 307 307 307 306 306 307 306 307 307 306 308 310 308 299 295 293 299 307 306 304 302 302 301 299 296 297 295 295 295 295 296 295
295 295 295 295 296 296 297 297 296 296 296 296 297 297 297 298 298 299 298 299 301 302 303 304 302 296 295 295 294 302 305 306 305 306 307 306 306 307 305 305 303 296 294 296 297 295 293 295 306 306 304 304 303 303 298 296 297 296 296 296 295 295 294
294 294 294 294 295 295 295 296 296 296 295 295 295 295 296 296 297 297 298 298 299 299 300 299 299 294 294 294 294 295 303 304 305 306 306 305 305 305 306 306 305 299 293 293 294 294 293 293 297 306 305 305 306 302 295 296 296 294 296 295 295 295 294
294 294 294 293 292 292 293 294 295 295 295 295 294 293 293 294 295 295 296 297 298 298 298 296 293 294 293 293 293 292 299 303 304 305 304 304 305 304 305 304 303 298 293 292 292 292 292 292 293 304 305 298 294 291 297 298 296 296 296 294 294 293 293
292 293 293 293 293 292 292 292 292 293 293 292 292 291 292 292 293 293 294 295 296 296 297 297 291 292 291 290 291 291 291 295 293 297 300 302 304 304 302 300 299 296 293 292 292 291 292 291 293 299 295 294 291 291 293 296 295 295 294 293 293 292 291
292 291 291 291 291 291 291 292 292 292 292 291 291 291 291 291 291 291 292 293 294 294 295 295 294 291 291 289 290 290 290 290 290 294 297 298 299 299 299 299 296 292 293 292 292 291 291 292 296 293 294 290 291 293 295 294 294 294 292 292 292 291 290

ECMWFFLT1_sfc_thetae_063.txt.gz
Theta_e
333 331 334 335 337 336 335 335 336 336 337 338 338 338 338 338 338 337 337 337 336 335 334 335 336 335 334 333 331 331 334 333 332 331 328 328 325 326 327 328 330 332 331 329 327 322 319 316 317 323 323 323 324 323 323 322 323 323 323 324 324 325 326
334 333 334 334 334 335 335 335 335 334 335 336 337 338 338 337 337 337 337 336 336 336 335 334 337 335 334 333 331 330 331 333 335 335 331 329 330 328 325 328 329 328 328 329 328 328 320 318 318 318 317 321 321 318 318 319 320 320 322 325 324 324 325
332 331 333 332 332 334 334 334 333 332 332 332 333 335 337 337 337 338 337 336 337 336 334 334 336 335 335 335 335 335 335 335 333 334 333 333 332 331 330 330 328 327 326 325 325 325 324 324 319 317 318 319 316 315 317 317 318 319 322 325 324 324 325
330 330 329 329 331 332 332 331 331 330 330 330 331 333 335 335 336 336 336 337 337 338 335 335 336 335 336 336 336 336 335 335 333 334 334 334 334 332 331 330 329 329 327 325 324 325 325 322 320 319 319 319 318 315 316 317 319 319 320 323 324 325 325
330 329 329 329 330 331 331 330 329 328 329 329 331 331 332 333 334 334 335 336 335 335 335 336 336 335 336 335 335 335 336 335 336 334 334 333 332 332 332 332 331 332 331 329 328 328 325 323 322 318 317 317 317 317 316 316 317 317 317 317 320 322 323
330 331 331 330 331 330 330 329 328 327 327 328 329 330 332 333 334 334 334 334 334 335 335 335 336 335 335 335 335 335 335 333 333 334 332 333 332 331 332 333 332 331 330 331 330 328 328 326 323 319 318 319 315 315 316 317 315 314 314 314 316 318 319
330 331 331 330 330 330 330 329 329 328 327 329 329 331 331 332 333 334 335 335 334 334 334 335 335 335 336 333 335 334 333 333 333 333 333 333 333 335 335 331 331 330 330 331 330 330 327 325 321 320 318 318 319 315 315 314 314 312 311 313 314 314 314
328 329 330 331 330 329 330 330 330 329 328 329 329 330 330 332 331 331 332 332 332 333 333 334 333 334 334 333 334 334 334 333 333 333 332 332 331 331 332 332 332 330 330 330 330 330 329 327 325 322 319 315 313 313 312 313 313 312 311 312 313 313 314
327 328 327 327 329 330 330 329 329 330 330 329 328 328 329 331 330 330 330 330 330 330 330 330 330 331 331 333 332 333 332 330 333 333 333 333 332 332 332 332 331 329 331 330 330 330 328 329 327 323 322 318 313 310 312 311 312 310 311 310 311 312 312
327 325 324 326 328 329 329 329 328 327 328 329 327 327 328 330 331 330 329 328 328 327 326 326 326 327 328 330 331 331 331 330 332 331 331 332 332 332 331 332 331 330 330 331 330 331 330 328 325 324 323 320 318 313 311 310 311 309 309 311 306 309 312
326 326 326 327 327 326 325 326 326 325 326 326 326 326 328 328 328 328 329 327 326 325 325 324 323 324 326 326 326 327 326 329 328 328 329 330 331 332 331 331 331 329 330 330 330 331 329 327 324 324 323 323 322 316 315 311 310 312 309 311 312 307 310
328 327 327 327 326 325 324 324 326 327 326 325 325 326 326 326 326 326 327 326 325 324 324 324 324 324 325 324 324 323 323 325 325 325 326 329 329 331 331 330 331 329 330 331 330 330 329 326 324 324 323 323 322 324 318 314 309 312 313 309 312 311 308
326 325 325 326 326 325 325 325 325 326 326 324 325 326 326 325 325 325 325 325 324 324 323 323 325 324 324 324 323 322 323 324 323 324 324 326 326 330 330 329 329 329 329 329 329 328 326 325 325 323 323 322 321 323 322 315 311 310 316 314 313 310 310
326 326 326 326 327 326 326 325 326 327 324 323 324 324 325 324 324 324 323 323 323 323 323 323 325 325 323 322 323 322 321 321 320 321 322 323 325 328 328 327 327 328 329 328 328 327 325 324 325 325 324 321 320 321 319 316 312 312 314 317 315 309 311
326 326 326 326 326 325 325 325 326 325 325 323 324 323 323 324 324 323 322 322 322 321 322 322 323 323 321 323 323 323 323 321 320 320 322 320 324 325 327 326 325 326 327 327 328 325 325 323 322 322 322 321 318 320 322 315 313 311 311 315 313 314 311
324 324 325 325 325 324 325 325 325 326 324 323 324 324 323 324 323 322 322 322 321 321 321 322 324 323 323 322 321 322 323 323 322 322 321 320 320 323 325 325 325 325 326 328 327 327 326 324 322 321 322 322 321 321 319 317 314 312 313 312 315 311 312
324 323 324 324 325 325 324 324 324 325 324 323 322 323 324 323 322 322 321 320 320 320 320 321 321 321 321 321 321 320 321 322 321 322 321 318 318 322 324 324 324 325 326 327 326 326 326 326 325 323 324 324 324 322 322 320 318 316 314 312 313 310 313
324 323 324 323 324 324 324 323 324 323 324 323 323 323 322 323 322 321 322 319 319 319 320 320 320 320 322 323 322 322 321 320 321 321 322 321 322 321 322 323 322 324 325 326 325 324 324 325 324 324 324 324 322 322 321 319 318 316 315 312 313 313 315
324 324 323 323 322 323 323 323 323 323 323 322 322 323 322 322 321 321 320 320 319 319 319 320 319 320 320 322 322 323 323 322 321 320 321 321 320 324 324 322 322 322 324 325 325 325 324 323 321 322 322 321 320 320 320 319 319 317 316 313 315 312 313
324 324 323 323 323 322 322 323 322 321 321 321 321 321 321 321 322 322 321 322 321 321 321 321 322 322 321 321 322 322 322 323 322 322 321 321 321 322 321 322 323 324 322 323 323 322 322 322 321 320 321 322 319 318 319 318 317 316 316 315 314 313 312
323 323 323 322 322 323 324 323 323 323 322 321 320 320 320 321 321 322 322 322 323 323 323 322 322 323 322 322 322 322 322 323 322 322 323 323 324 322 322 322 322 322 323 323 324 325 325 323 322 322 321 321 320 319 318 317 316 315 315 315 312 311 312
321 321 321 320 321 322 322 323 322 321 322 322 322 320 319 321 321 320 321 322 322 323 324 324 324 325 324 323 325 323 323 322 323 323 322 323 325 325 324 325 325 324 326 324 313 317 319 319 323 322 322 320 319 318 318 316 315 314 314 314 313 314 312
320 321 321 321 320 321 321 320 320 320 319 320 322 320 319 320 320 321 320 321 322 324 325 326 318 308 312 323 324 322 324 324 324 323 323 323 324 325 325 327 328 319 315 312 308 303 303 305 310 319 323 322 318 317 317 315 314 314 314 313 312 312 310
320 320 318 318 319 319 318 319 320 320 321 321 319 317 319 320 320 321 320 321 322 324 325 320 299 299 299 302 319 324 323 324 325 324 324 324 323 325 325 324 325 321 318 314 313 298 299 299 300 300 304 310 315 320 318 315 315 315 312 312 312 313 311
316 316 316 315 313 314 317 318 319 320 320 320 318 317 318 320 321 321 322 322 323 323 323 300 294 294 295 295 301 322 324 324 325 324 324 323 325 325 325 326 326 327 326 325 324 318 307 299 298 298 297 299 300 302 306 318 317 316 315 312 313 313 312
316 316 315 315 315 318 319 318 319 318 318 317 317 319 319 320 321 322 323 322 323 323 322 295 294 293 293 294 295 307 323 324 323 324 325 325 325 325 325 325 326 326 324 315 317 322 323 319 300 296 298 297 297 297 297 296 297 318 320 316 315 314 314
314 314 315 317 318 318 319 317 317 317 317 316 317 317 319 321 321 321 322 323 323 322 319 297 293 293 293 292 294 306 324 324 324 324 324 325 326 326 326 325 325 326 327 325 325 323 322 322 320 317 316 317 318 310 297 296 296 293 303 319 318 316 319
310 311 313 315 316 315 316 316 316 316 318 319 318 318 319 319 319 319 319 320 321 321 312 292 292 292 292 293 294 304 323 323 324 325 325 325 325 324 324 324 324 324 325 326 326 321 322 321 320 320 319 319 319 319 318 318 318 318 318 318 320 321 323
303 304 306 308 309 310 311 310 311 314 315 316 316 317 316 317 319 319 320 322 323 321 309 292 292 292 293 294 293 318 323 324 324 324 324 324 323 324 323 323 323 323 324 324 313 301 308 321 321 320 319 319 318 316 314 300 294 295 306 316 320 320 321
301 302 303 303 303 304 305 306 308 312 314 313 313 312 311 312 313 316 317 318 320 321 312 296 292 293 293 293 301 320 320 320 321 322 323 323 322 323 323 322 323 322 323 324 311 299 296 301 319 320 319 319 318 316 314 308 295 292 291 292 292 292 293
302 302 302 302 302 302 304 305 305 307 309 309 308 309 311 310 310 310 310 310 310 315 313 299 293 293 294 293 300 318 320 320 321 321 321 321 321 321 321 312 314 320 321 322 305 296 293 304 318 319 318 318 317 316 315 310 309 302 292 292 291 291 292
300 300 300 300 302 302 303 303 304 306 306 307 307 307 309 309 308 308 309 309 305 310 310 302 292 292 293 294 303 313 315 318 318 320 320 320 321 320 321 316 308 309 312 309 296 297 293 302 318 319 320 318 316 316 317 313 310 308 307 307 306 304 301
299 299 299 300 300 301 302 304 304 304 304 304 303 302 303 304 304 304 305 307 308 307 306 304 295 290 292 294 294 307 312 314 315 315 316 315 315 317 318 319 314 295 292 291 291 291 293 293 312 319 319 317 316 315 317 312 311 311 308 307 304 303 304
300 299 299 300 300 301 302 303 303 304 304 305 305 303 302 302 301 302 302 303 305 305 303 302 298 290 291 291 291 295 310 310 311 311 312 312 312 313 314 315 318 298 291 291 291 291 292 292 295 311 316 317 318 317 308 311 304 299 306 303 301 302 301
300 300 300 301 301 300 301 302 302 302 302 303 303 303 303 302 302 302 302 301 302 303 302 297 301 293 290 291 290 290 302 306 301 306 308 311 311 312 312 312 314 303 293 292 292 292 292 292 291 301 311 302 292 293 309 308 304 303 302 303 302 300 299
299 300 300 300 300 300 300 301 301 301 302 303 302 302 302 302 303 302 302 300 301 300 302 302 293 297 291 290 290 290 289 294 290 301 305 306 307 308 309 309 309 298 293 292 292 292 292 291 291 301 297 295 291 292 298 304 303 303 302 303 302 301 300
299 299 299 300 299 299 299 300 299 299 300 300 300 300 300 301 301 301 300 301 301 301 302 302 296 292 294 290 290 289 289 289 289 298 301 304 304 304 306 307 303 292 291 291 291 291 291 291 299 295 294 290 290 294 302 300 300 303 301 300 300 299 298

ECMWFFLT1_sfc_thetae_066.txt.gz
Theta_e
334 334 337 339 341 339 337 337 338 339 339 339 338 338 339 338 338 338 339 339 339 338 338 339 338 338 338 336 337 337 335 334 334 330 330 332 329 330 334 335 335 336 334 334 332 326 323 319 319 325 327 328 328 328 328 328 329 329 329 331 331 331 330
336 336 338 339 338 338 337 337 336 335 336 338 337 338 338 337 338 338 339 338 338 337 335 338 339 339 339 339 339 338 337 336 334 334 331 331 331 330 332 333 332 331 332 333 332 332 325 323 319 319 319 324 326 326 326 328 328 330 330 329 329 329 330
337 337 338 337 336 337 335 335 335 335 335 336 338 337 337 336 336 337 337 336 337 336 334 335 339 340 340 339 340 339 340 336 335 335 330 332 331 332 332 331 329 328 329 329 330 329 327 327 322 320 322 322 320 322 327 327 327 328 329 329 329 328 329
337 338 335 334 333 334 333 333 333 332 333 333 335 338 337 336 337 337 335 335 336 336 333 334 338 335 340 340 340 340 339 337 335 335 334 334 333 332 332 330 328 328 327 325 327 329 327 324 322 322 324 324 320 319 323 326 326 327 328 329 328 329 330
337 335 334 332 331 330 332 331 332 332 332 333 334 335 337 337 337 336 337 336 335 335 333 334 335 335 340 340 340 337 336 336 336 335 334 333 332 332 332 331 330 330 332 332 328 328 326 324 324 323 322 322 322 321 322 324 324 324 326 327 329 330 330
338 337 334 334 334 333 332 332 331 330 331 331 331 332 334 336 335 335 335 333 334 335 335 333 335 334 335 337 339 338 336 335 336 337 334 335 334 329 331 333 335 331 333 334 331 329 329 328 327 322 321 323 319 318 320 322 321 324 325 326 327 328 327
336 335 334 334 334 331 331 331 331 330 329 330 330 331 334 335 334 335 335 334 334 334 334 334 334 335 335 333 338 338 338 339 340 338 337 337 336 335 335 333 332 331 332 333 333 332 329 329 325 324 322 322 322 319 320 320 320 318 320 322 323 323 321
334 334 333 333 333 332 333 332 332 331 329 331 330 333 334 334 335 335 334 333 332 334 334 335 335 335 336 332 333 337 336 338 338 338 337 338 336 335 335 333 334 331 332 332 333 332 329 329 328 326 324 320 319 320 318 319 319 319 317 319 320 319 319
334 335 334 334 334 334 333 332 332 332 332 331 333 333 334 335 334 334 333 332 332 334 334 334 334 332 334 333 332 336 334 334 338 338 338 338 338 337 335 334 332 332 333 333 333 332 328 330 330 328 327 322 316 314 316 316 317 316 319 316 316 317 316
336 334 334 335 335 335 335 333 331 332 333 333 333 335 334 335 334 333 333 331 332 334 333 332 333 333 334 333 332 333 333 334 335 335 337 337 338 337 336 334 332 332 334 336 334 333 333 333 330 328 324 322 320 316 313 313 315 314 316 318 313 313 314
335 335 336 335 335 334 334 333 333 331 331 332 333 334 335 334 333 332 332 331 331 332 331 329 329 331 333 330 331 331 331 333 333 334 336 337 337 337 336 334 333 331 335 335 335 337 335 333 328 325 323 324 322 317 315 313 313 317 315 316 315 311 312
336 335 334 334 334 333 331 331 331 331 332 332 330 332 333 332 332 331 332 329 328 329 331 331 330 330 330 329 329 328 330 330 328 330 333 336 336 336 335 334 334 333 336 336 336 335 334 330 326 323 322 323 322 321 319 316 313 316 319 314 313 313 312
334 334 334 332 331 332 330 331 332 333 331 330 330 330 330 330 330 330 329 327 326 327 328 330 330 329 329 329 328 327 329 329 327 328 332 335 333 336 335 334 334 334 336 335 335 332 329 329 327 322 322 321 321 322 319 317 315 314 317 315 314 312 313
335 333 334 332 332 332 332 332 332 332 330 330 331 330 329 330 330 330 328 326 325 326 327 329 330 329 328 327 327 327 327 326 325 327 331 333 334 335 334 333 334 334 335 334 331 329 326 326 326 324 323 321 319 321 319 317 313 314 319 319 315 312 314
334 334 334 333 332 331 332 331 333 331 330 330 329 327 327 328 330 329 326 324 324 323 325 327 328 327 325 325 326 326 325 325 325 327 329 329 334 334 335 332 331 333 333 331 329 324 324 323 322 321 321 321 319 320 322 317 314 313 314 318 313 314 313
333 333 333 332 332 330 330 331 331 330 329 327 328 326 326 329 329 327 325 324 322 322 323 325 327 325 324 324 323 325 325 325 325 325 326 328 328 332 333 332 330 332 333 331 328 325 325 322 322 320 321 321 321 321 320 319 317 314 314 313 316 313 313
334 333 332 331 331 331 331 330 329 328 327 327 325 326 328 327 327 326 324 322 322 321 322 325 324 323 323 323 323 323 323 324 324 324 323 324 325 328 328 328 329 332 332 328 326 325 325 325 323 322 322 323 323 322 323 323 321 319 317 314 315 313 313
333 333 332 330 331 331 330 329 327 326 326 325 325 326 326 327 326 324 324 322 321 321 321 323 324 324 325 325 324 323 322 323 324 324 324 323 326 326 327 327 326 327 329 327 328 326 325 325 323 324 322 321 321 323 324 323 322 320 318 317 315 316 316
331 332 332 331 332 331 330 328 327 327 325 324 324 325 325 325 323 322 322 321 320 321 321 322 323 323 323 324 324 324 324 323 323 323 323 324 324 325 324 325 327 328 328 328 327 327 327 327 324 324 324 321 320 321 323 322 322 321 319 318 318 314 317
331 331 331 331 331 330 329 329 327 326 325 324 324 324 324 324 324 322 321 321 320 320 320 321 323 324 323 323 323 323 324 324 323 323 323 322 323 325 324 324 325 325 325 325 326 326 327 327 326 325 323 323 321 321 322 322 321 320 320 319 319 317 316
331 331 331 330 329 329 328 328 326 326 324 323 323 323 323 323 324 323 323 322 322 323 322 322 322 322 323 323 323 323 323 324 322 323 323 322 323 322 323 323 324 324 324 325 325 326 327 324 324 324 324 324 324 322 321 320 320 319 319 319 318 318 316
331 330 328 328 328 328 328 328 327 326 325 324 324 324 324 323 322 323 322 324 323 323 323 323 324 324 324 322 324 323 323 322 323 322 323 323 323 323 323 323 323 326 331 321 309 313 315 315 328 322 323 323 323 322 321 320 319 317 317 317 317 319 316
325 325 326 326 327 327 327 328 327 326 325 324 324 324 323 323 321 322 322 322 323 325 325 328 317 300 308 326 324 323 324 324 323 323 322 322 323 323 323 325 330 318 314 314 311 304 304 304 306 319 326 325 323 322 321 320 318 317 317 315 315 315 314
321 321 323 324 325 325 324 325 325 325 325 325 324 323 324 323 324 322 321 322 322 324 327 326 297 298 300 304 321 325 324 323 324 323 323 322 322 323 323 323 327 324 323 317 321 300 300 300 301 300 299 301 307 327 322 318 318 319 316 317 316 316 314
320 320 320 319 320 321 323 324 322 322 322 322 324 325 324 324 325 326 324 323 323 324 328 296 294 296 296 295 304 331 325 324 324 323 323 322 323 324 324 325 326 327 326 326 325 324 312 300 299 300 298 298 299 298 298 318 321 319 319 317 316 317 317
319 319 319 319 319 320 322 322 323 322 322 324 325 323 323 322 322 324 325 322 324 326 322 294 293 294 295 294 294 308 325 325 324 323 323 324 324 325 325 327 329 328 326 322 322 325 326 325 301 295 299 299 298 297 298 297 298 317 323 319 318 317 317
318 319 321 322 322 321 321 321 322 323 323 322 322 321 321 322 323 323 324 325 324 320 312 297 293 293 294 293 294 299 328 327 326 325 325 324 326 327 328 328 328 329 330 328 326 326 327 328 327 323 322 322 323 316 297 295 296 293 304 319 321 318 320
320 321 321 321 320 320 320 320 320 322 323 323 322 321 320 320 321 322 323 324 320 315 308 293 293 292 294 293 295 297 328 329 327 327 327 328 329 329 329 329 328 328 329 330 331 327 328 328 328 328 328 327 326 326 325 324 323 322 321 321 321 322 322
319 319 319 319 319 318 318 319 319 321 321 321 321 320 320 322 322 322 323 323 321 316 307 291 291 293 293 295 293 319 328 328 327 328 329 331 330 330 329 329 329 328 329 329 314 305 312 325 327 327 326 326 326 326 327 307 297 300 313 322 325 325 324
310 312 314 313 312 313 315 319 321 323 321 321 320 319 318 318 320 320 321 323 322 316 310 295 291 292 293 291 298 327 327 326 326 327 328 329 328 328 329 328 328 328 328 329 303 298 299 302 323 324 324 325 325 325 325 317 297 292 292 292 291 293 292
306 306 306 307 308 309 311 313 315 317 317 317 317 316 315 313 313 313 315 318 319 314 308 297 291 292 292 292 296 323 325 325 326 325 326 328 327 327 326 313 319 325 325 322 292 297 293 306 322 323 324 323 323 322 323 321 316 309 291 291 290 290 290
308 307 306 308 310 310 310 310 312 313 311 311 312 313 313 312 312 313 312 310 308 310 308 300 291 291 291 292 302 322 323 324 324 324 324 324 327 326 327 317 307 308 313 302 290 295 293 303 322 323 324 323 321 319 321 324 319 316 313 313 310 309 306
307 307 307 308 309 309 310 311 310 309 308 307 307 309 310 310 310 310 311 310 310 311 311 306 295 290 291 293 292 309 321 320 319 319 321 320 320 322 323 322 304 292 293 291 293 290 292 292 314 324 324 323 322 319 323 323 322 321 320 318 319 316 315
307 307 308 308 309 309 310 310 311 311 309 308 309 309 308 308 308 309 309 309 307 305 306 308 300 289 291 291 290 297 319 316 317 318 318 318 319 319 319 320 320 295 292 291 291 290 291 291 293 314 321 321 322 316 311 321 316 303 319 318 315 312 312
307 307 308 308 308 308 309 310 310 311 312 312 311 310 309 308 308 308 308 308 308 306 301 299 305 294 290 290 290 291 309 308 305 312 315 318 316 318 319 318 321 300 291 292 291 290 290 291 290 305 315 302 295 296 318 319 320 317 317 314 312 310 310
305 306 306 307 306 306 306 307 308 309 309 309 308 308 308 308 308 307 306 305 306 306 305 302 294 299 291 290 290 290 290 299 291 307 312 312 311 311 312 313 310 294 291 290 291 290 290 290 291 305 298 295 296 294 302 317 316 315 313 312 312 311 308
303 304 305 305 305 305 305 305 305 306 306 306 305 306 306 307 307 307 306 306 307 307 308 307 297 294 297 290 291 289 289 288 289 303 308 310 310 310 309 308 302 290 289 290 290 291 290 291 300 296 294 294 291 293 310 312 311 311 307 306 307 306 305

ECMWFFLT1_sfc_thetae_069.txt.gz
Theta_e
336 334 334 336 336 337 339 337 337 338 338 339 339 338 340 339 338 338 342 342 340 339 338 338 339 337 336 336 337 336 337 337 336 332 331 333 329 330 335 333 332 334 331 331 331 325 322 318 322 327 330 330 330 331 330 331 331 332 331 333 333 332 332
335 336 338 336 338 340 338 336 337 337 338 339 338 339 338 338 337 338 338 337 341 340 337 337 337 337 337 336 337 337 337 337 336 336 333 330 331 331 330 332 330 331 331 332 330 330 323 323 321 322 322 327 329 328 329 330 331 332 332 331 331 331 332
336 336 335 334 334 338 336 335 336 335 335 337 338 337 338 336 336 337 337 337 337 335 335 338 337 337 337 338 338 338 338 336 335 335 335 334 334 332 331 331 329 328 329 327 329 329 327 326 320 319 323 321 321 324 329 329 330 330 330 331 331 331 332
335 334 332 332 332 333 334 334 334 335 335 335 336 338 337 336 337 337 337 336 336 336 334 337 338 337 339 338 339 339 339 336 337 337 334 336 334 333 332 333 329 329 326 326 325 327 325 324 322 321 322 323 322 321 325 327 328 329 330 330 330 329 331
334 332 331 330 330 332 332 332 333 333 333 334 336 335 336 337 337 336 336 336 335 336 335 335 336 339 338 338 338 338 338 338 337 334 335 334 335 333 332 332 332 331 332 332 329 325 325 325 323 321 321 323 323 323 324 327 328 328 328 329 329 329 328
334 331 330 328 333 332 331 331 330 329 330 330 332 333 335 337 336 336 335 334 334 335 335 333 334 333 338 337 337 338 335 334 335 337 334 336 335 331 332 335 335 332 332 332 335 329 328 330 327 321 322 323 320 320 322 323 322 326 327 326 327 326 325
334 333 331 327 330 333 332 330 330 330 329 331 332 332 334 334 333 335 335 335 334 334 334 334 334 334 334 336 338 336 336 337 337 336 336 336 336 337 336 334 333 333 334 335 332 332 330 327 325 323 321 321 321 319 321 321 322 320 324 326 326 324 322
334 330 328 328 332 332 332 331 332 332 331 332 331 334 334 333 333 334 333 333 333 334 334 335 334 335 335 332 336 336 336 337 338 335 335 336 333 334 335 334 335 333 335 333 330 330 329 331 327 325 323 319 319 320 318 318 319 318 318 321 322 320 320
331 330 329 331 334 334 332 331 332 333 333 331 333 334 333 334 332 332 332 332 333 333 334 333 334 332 334 332 331 337 336 332 337 336 334 335 334 332 334 334 334 332 334 332 332 330 331 331 329 327 327 323 317 314 316 316 316 316 319 317 319 320 318
330 329 331 333 334 334 334 332 332 333 334 333 333 334 333 333 333 332 332 332 332 332 334 333 333 333 333 332 331 334 331 333 337 335 335 336 335 337 336 334 332 333 333 333 334 333 332 333 328 329 326 323 320 316 313 312 314 314 316 317 314 316 318
332 332 334 333 333 332 332 332 333 332 332 333 332 333 333 333 333 331 331 331 332 333 333 332 331 332 333 330 331 331 331 333 334 337 337 335 335 336 334 333 333 331 332 332 334 335 332 331 326 326 324 323 322 318 316 313 313 316 315 317 316 313 314
333 331 331 332 333 331 331 331 332 332 333 333 331 332 333 331 332 330 330 329 330 331 331 331 331 331 331 331 332 330 332 332 330 332 335 335 335 334 333 332 333 333 333 335 335 335 331 328 325 323 323 324 323 323 319 317 313 316 319 316 315 315 313
332 331 332 331 331 330 329 329 331 332 332 332 332 332 329 330 329 329 328 328 328 330 330 329 330 330 331 330 329 329 330 330 329 329 333 335 333 333 332 330 332 332 333 333 332 330 328 326 326 321 323 323 322 323 321 318 315 313 318 314 314 313 314
332 331 331 330 330 329 330 330 330 331 330 330 331 330 330 330 329 329 329 326 325 328 329 329 330 330 329 327 327 328 328 327 326 328 332 332 333 332 331 329 330 332 331 329 328 327 325 323 323 322 322 320 320 322 321 319 315 314 317 318 315 312 314
333 331 330 329 330 329 329 329 331 330 330 331 330 328 329 329 330 329 327 325 325 326 328 328 328 328 326 327 327 327 327 326 326 328 332 331 331 330 332 330 330 331 330 326 326 323 323 323 321 319 319 319 317 318 321 316 314 313 312 316 313 313 313
332 331 329 330 329 328 330 330 329 329 329 330 330 329 329 329 329 328 326 326 324 325 327 327 327 327 327 326 324 326 326 327 327 328 331 331 330 330 329 330 329 331 329 326 325 325 324 321 320 319 320 320 319 319 318 316 314 313 312 312 314 311 312
332 331 330 330 330 330 329 330 328 328 328 328 326 327 328 328 329 327 325 323 323 324 326 326 325 325 324 324 324 325 325 326 326 327 329 330 330 331 330 330 331 331 328 325 324 322 322 323 322 321 321 322 321 320 322 322 321 316 315 312 314 311 313
331 330 330 330 330 329 330 328 328 326 327 325 325 327 327 329 328 326 324 322 321 323 325 325 323 323 324 325 324 324 325 324 325 325 327 328 330 327 328 327 328 329 326 324 324 322 323 322 321 322 321 320 321 322 322 321 320 319 316 314 315 315 315
330 330 329 330 330 330 329 328 326 328 324 323 325 327 326 328 326 323 322 321 320 321 322 322 322 323 323 325 325 325 325 326 325 324 325 326 327 327 326 325 325 326 326 325 324 324 325 324 323 323 323 322 321 322 323 321 321 320 319 317 317 316 317
329 329 329 329 330 329 328 327 325 324 323 324 324 326 326 325 325 322 321 322 320 320 322 323 323 324 324 324 324 324 325 325 325 326 325 326 326 326 326 326 327 328 328 328 326 325 326 327 326 325 325 323 322 323 320 321 320 320 319 320 319 319 316
329 330 329 329 329 329 328 326 325 324 324 323 323 324 324 324 324 322 322 321 321 322 322 323 323 323 323 324 324 324 324 325 324 324 325 325 326 326 326 326 326 326 325 327 327 327 328 325 325 324 323 324 323 322 322 321 321 320 320 320 318 317 316
327 328 327 329 328 328 328 326 326 324 323 323 324 324 325 325 323 323 321 322 321 322 323 324 325 326 324 323 324 324 324 322 323 323 323 323 324 324 324 325 325 327 324 320 310 313 313 316 328 323 325 324 323 321 321 321 322 319 319 319 318 319 319
324 324 325 325 326 327 327 327 325 323 323 323 324 324 324 324 324 323 323 323 323 324 325 327 306 298 302 320 324 322 324 324 323 323 323 323 323 323 323 325 327 319 316 315 309 303 301 302 306 320 324 327 324 323 322 321 320 320 320 318 317 317 316
324 325 327 325 325 325 326 326 324 323 324 324 324 324 323 322 323 323 322 323 324 326 327 315 295 294 296 296 315 325 324 323 323 323 323 323 322 322 323 324 326 325 324 320 323 297 299 301 300 299 299 302 309 324 323 320 320 320 317 318 318 317 316
322 322 320 321 325 325 325 324 323 322 323 322 322 324 324 324 324 324 323 323 324 325 317 297 293 295 295 294 298 315 325 324 323 323 323 322 322 321 321 322 324 324 323 324 323 323 315 301 301 302 301 301 300 297 300 321 321 319 320 318 317 317 317
320 321 320 321 322 322 323 325 322 321 322 324 324 324 324 325 325 325 324 326 323 318 313 295 294 294 295 294 294 304 322 325 323 322 322 322 322 323 323 323 323 326 322 324 323 326 324 323 303 296 298 298 298 298 297 296 299 319 323 321 320 319 318
320 320 320 320 321 322 322 322 323 324 324 325 324 324 324 324 324 324 326 323 316 310 306 296 293 293 293 293 293 297 322 325 325 322 320 321 323 323 324 326 325 326 327 326 324 327 325 326 325 323 321 322 323 318 300 296 295 292 304 320 320 320 322
319 320 322 322 320 320 321 323 324 325 324 324 322 321 321 322 323 324 323 317 312 307 302 292 292 292 293 293 292 297 322 326 325 324 324 325 326 327 328 328 328 327 324 321 327 324 328 327 328 327 327 326 326 325 326 325 324 321 318 319 321 322 323
319 320 321 321 320 320 321 322 322 323 321 321 322 324 324 324 323 323 321 317 313 309 303 291 291 292 292 292 293 318 326 326 324 323 322 325 327 329 328 328 329 326 328 325 312 298 309 327 326 325 325 326 324 325 321 312 294 299 319 326 325 322 319
320 319 319 319 318 319 321 321 323 325 324 323 322 321 320 319 321 322 320 317 313 309 305 294 291 291 292 291 302 324 328 325 324 325 326 325 327 325 324 322 324 327 326 322 297 294 293 302 324 322 322 324 324 322 323 320 302 295 294 295 294 295 295
313 315 315 315 315 315 317 320 321 323 322 321 320 319 319 316 314 313 313 311 309 306 303 295 291 291 292 291 296 319 325 323 323 323 324 326 327 325 317 312 320 323 323 312 292 293 291 305 321 322 322 322 320 319 321 323 319 315 291 292 291 291 294
310 311 311 312 314 312 313 314 315 315 314 314 316 317 315 314 312 312 313 311 308 306 303 298 291 291 291 291 299 315 322 321 321 322 322 324 325 324 319 309 300 303 306 298 291 291 291 300 317 321 322 322 319 319 321 322 321 320 318 318 317 317 312
310 310 310 310 311 311 311 311 311 311 312 311 312 313 313 312 311 311 311 311 312 310 305 301 295 290 292 293 292 308 321 319 320 320 320 319 317 318 321 315 304 291 291 291 292 290 292 290 305 315 320 321 319 321 320 322 322 322 320 319 321 319 319
310 310 310 310 311 313 313 312 311 311 311 310 310 312 311 310 310 309 308 307 307 308 308 305 298 291 292 293 293 301 313 311 313 316 317 316 317 317 317 317 309 293 290 290 290 289 290 290 291 304 313 319 313 304 303 320 321 306 321 320 320 318 318
310 309 310 310 310 311 312 314 315 314 312 312 310 309 308 308 308 307 308 307 304 303 303 302 304 294 291 292 292 294 309 308 303 309 313 315 316 316 315 314 306 295 290 291 290 290 289 290 289 301 313 296 293 293 307 313 320 321 319 318 316 314 314
307 308 309 309 309 309 310 311 312 313 312 312 312 311 311 311 311 309 308 308 307 305 304 302 297 300 291 292 291 291 290 298 292 306 309 310 311 311 311 310 306 295 290 290 290 290 290 289 291 304 293 292 292 291 299 314 316 318 316 315 314 314 313
306 306 307 308 308 308 308 308 308 309 310 310 309 309 309 310 309 309 308 307 309 308 306 304 298 296 297 290 291 291 292 290 290 301 303 309 308 309 307 306 301 291 290 290 290 291 291 290 298 294 290 291 291 294 307 311 311 314 310 310 310 311 312

ECMWFFLT1_sfc_thetae_072.txt.gz
Theta_e
330 331 334 336 337 336 335 335 334 334 334 335 340 338 340 341 342 342 341 343 339 338 337 337 337 337 337 335 337 336 338 335 335 332 329 328 328 329 332 330 331 333 331 327 327 323 319 316 319 326 327 328 328 328 330 329 329 329 329 330 330 330 329
333 334 335 335 332 335 335 335 334 334 335 337 340 342 338 338 339 340 341 341 341 339 336 337 336 337 337 337 337 337 336 336 336 335 333 330 330 329 330 330 330 330 329 328 326 327 321 318 317 319 320 325 326 327 327 329 329 330 329 330 328 329 329
333 334 335 333 333 336 335 335 336 336 337 339 340 339 339 336 338 338 338 338 340 340 337 340 336 337 337 338 338 338 337 335 335 335 333 332 332 332 333 333 329 327 327 325 327 326 323 323 317 317 320 319 319 323 327 327 327 328 328 328 327 328 329
333 333 333 333 335 336 334 334 336 337 336 338 339 340 340 337 339 339 339 337 338 337 335 338 339 338 339 339 338 338 338 334 333 333 334 333 333 333 332 332 330 327 323 321 324 324 323 320 319 320 320 321 320 320 324 327 326 326 326 327 326 328 326
334 332 332 333 333 333 335 333 336 337 334 337 339 338 342 338 341 339 339 339 337 340 337 337 336 337 339 339 340 339 337 336 336 335 333 332 333 332 331 332 330 329 328 326 326 328 326 322 322 319 319 321 320 321 323 325 326 326 326 325 326 325 323
334 333 334 333 333 333 334 333 333 332 333 334 335 336 338 339 339 337 338 337 336 338 337 335 336 336 338 339 338 335 336 335 335 335 333 332 332 330 331 333 332 330 329 330 330 327 328 327 323 318 319 320 317 317 320 323 321 325 326 325 325 323 319
333 333 332 333 333 334 333 332 332 332 332 333 335 335 336 336 337 338 339 337 336 337 338 337 335 335 337 336 338 336 335 336 336 335 334 334 334 333 334 332 334 332 331 332 331 329 328 327 324 321 318 319 318 316 318 319 322 319 322 327 323 321 318
333 332 332 334 332 331 332 333 334 334 332 332 335 336 335 338 336 338 337 335 337 336 336 337 336 336 332 332 337 335 336 336 336 335 334 334 334 334 333 332 332 332 332 330 330 330 331 331 327 325 320 316 315 315 314 317 319 319 319 321 317 316 316
333 333 332 331 332 332 333 334 335 334 334 334 335 334 336 335 334 334 335 335 336 336 335 335 334 333 336 335 333 336 337 335 335 335 334 335 333 333 333 333 332 330 331 330 330 330 328 328 329 329 324 319 314 311 314 312 314 315 320 313 314 315 314
332 331 330 330 331 332 336 334 335 334 334 334 334 334 336 334 334 332 333 333 336 336 336 336 335 333 334 337 333 335 331 331 332 333 333 333 333 333 333 332 332 331 331 331 330 331 332 331 329 329 328 323 320 313 310 310 313 311 314 314 311 312 314
332 332 331 330 332 334 334 335 334 334 332 335 332 333 335 334 336 333 331 333 336 335 335 335 333 333 334 334 332 333 334 335 334 334 335 333 331 333 333 332 330 329 331 330 333 332 332 330 329 326 326 324 322 316 313 310 310 314 313 313 313 311 312
333 332 332 333 333 332 332 334 332 334 334 333 331 332 334 331 334 332 330 332 334 334 335 334 331 332 334 331 332 332 333 334 332 333 333 333 332 333 331 331 330 329 330 332 333 334 332 329 328 324 323 323 322 321 318 313 309 314 314 311 310 312 309
331 332 333 333 331 331 331 332 332 334 333 332 332 332 331 330 331 330 329 329 332 331 331 332 333 331 332 331 332 331 332 332 329 330 331 333 331 332 331 330 329 329 330 332 331 331 329 328 325 323 324 325 322 322 319 316 312 311 323 311 310 309 309
332 332 332 332 331 330 331 331 333 332 331 333 332 331 330 328 328 330 327 327 327 331 330 332 331 332 331 331 331 329 331 330 327 329 331 331 329 330 329 328 329 330 332 329 327 328 327 325 323 322 323 322 321 320 319 316 311 312 314 314 311 309 310
331 331 331 331 329 331 330 331 331 331 331 332 332 330 328 332 329 330 326 324 328 328 330 329 330 331 331 329 328 332 331 330 328 328 331 329 330 330 330 328 327 328 330 327 327 324 323 321 318 317 318 322 319 319 320 317 313 310 306 311 310 310 311
331 331 330 329 329 329 330 330 330 331 331 329 332 331 329 330 329 329 326 326 325 328 328 327 330 331 328 328 327 330 329 329 329 329 330 329 327 328 329 329 329 329 330 326 325 323 323 321 318 315 316 317 316 319 317 316 313 310 309 310 312 307 308
331 330 329 330 329 328 329 329 330 329 330 330 329 334 330 329 330 331 327 324 326 326 327 329 330 326 326 328 327 325 326 328 329 330 330 329 327 327 327 328 328 329 327 325 324 322 322 322 323 318 319 317 318 318 317 315 315 311 310 309 308 306 309
328 328 329 329 328 329 329 329 328 327 329 330 329 333 328 332 328 328 327 323 323 325 326 326 327 326 329 328 328 327 325 325 327 328 329 329 330 328 327 328 327 327 326 324 323 319 321 324 319 319 318 317 317 320 321 321 316 312 311 309 309 311 309
328 328 329 329 328 327 328 328 327 328 326 325 326 332 328 331 326 323 324 322 323 326 324 326 324 324 323 327 328 328 329 327 326 326 326 326 326 328 327 326 329 327 325 324 324 324 322 320 320 320 319 318 317 320 321 320 319 320 315 311 311 312 308
326 328 328 327 327 326 326 326 326 325 326 329 326 330 327 327 330 323 323 323 323 325 325 326 327 327 325 327 326 327 326 328 327 326 328 326 327 326 326 326 326 327 326 325 325 323 323 324 327 324 325 322 321 321 322 319 317 317 318 316 312 312 313
327 328 328 328 327 327 326 325 325 324 326 324 327 328 328 325 328 326 327 322 323 326 325 324 323 326 327 325 327 327 327 328 327 326 327 325 326 327 326 326 327 327 327 325 325 325 325 327 328 324 326 323 323 318 318 320 320 318 316 316 315 314 313
326 326 324 326 327 325 324 325 324 324 324 325 329 328 326 324 325 325 321 325 321 323 318 312 308 310 320 325 328 326 327 326 326 326 325 326 326 326 326 326 320 317 319 315 310 310 312 316 324 325 323 323 322 323 321 319 319 316 316 317 315 316 316
326 326 326 325 326 325 325 325 323 322 322 324 328 326 325 326 327 321 322 321 323 319 316 308 300 296 300 314 321 322 327 326 325 325 324 323 324 325 324 319 321 319 314 312 307 301 300 303 309 316 316 317 321 322 321 318 318 317 317 315 316 316 313
325 326 325 325 326 324 323 322 322 322 323 325 324 324 325 326 324 323 323 322 319 316 308 302 295 293 294 296 315 322 325 327 327 325 325 322 323 323 324 322 320 321 319 317 308 299 299 298 297 298 299 302 309 317 318 320 319 317 316 316 318 315 314
323 323 324 325 325 324 322 322 322 322 322 323 324 325 325 324 325 324 321 318 317 313 308 297 293 294 294 294 298 316 321 321 327 325 323 324 323 323 322 322 321 324 323 323 319 316 308 300 299 297 296 298 297 296 301 315 316 315 317 315 315 316 313
318 319 321 322 322 323 323 322 321 321 322 324 325 324 324 325 325 323 319 315 313 311 307 295 293 294 294 294 293 306 320 323 322 322 323 323 324 324 322 323 324 326 321 327 325 323 319 311 298 294 299 302 303 304 300 297 301 311 313 313 314 315 315
318 318 318 319 319 321 322 321 322 322 323 323 323 323 323 324 322 318 315 314 310 307 302 296 293 293 294 293 294 299 321 323 324 324 323 322 323 321 321 319 319 320 319 321 319 315 321 324 322 322 321 320 321 315 303 304 301 295 300 312 314 314 316
318 318 316 316 317 319 320 320 321 321 321 320 320 321 322 321 319 315 313 311 308 304 300 292 292 293 293 294 294 302 320 325 324 323 323 323 322 321 321 322 321 321 322 323 308 304 310 316 322 320 320 322 322 322 320 319 320 318 317 316 314 315 317
318 317 317 317 317 317 318 318 317 317 318 319 320 319 319 321 318 316 314 312 308 305 300 291 291 292 292 292 297 319 324 325 325 324 322 323 322 322 321 321 320 320 322 317 298 294 297 308 319 321 320 319 317 317 319 316 310 307 309 311 311 310 311
318 318 318 318 318 319 319 319 320 320 319 318 316 315 314 315 318 315 311 309 307 303 300 293 291 291 292 291 303 319 323 324 323 323 320 319 319 315 315 319 322 321 318 306 293 292 293 303 318 320 319 318 317 316 318 321 312 300 295 295 295 296 296
314 314 314 313 313 314 315 315 316 318 318 317 316 315 314 312 310 309 306 305 304 302 300 295 291 292 293 292 297 316 320 321 321 321 320 319 318 311 306 308 313 312 307 300 291 291 292 305 314 317 318 318 314 314 315 319 321 317 296 295 295 294 294
313 313 312 311 311 311 312 312 312 313 313 315 314 314 312 311 310 309 308 306 305 302 300 297 293 292 293 294 301 314 317 316 317 319 319 318 317 310 305 301 299 298 299 294 289 290 291 301 310 311 312 314 314 314 313 314 317 318 316 314 313 308 306
309 310 311 311 310 310 310 311 311 310 311 312 313 312 311 310 308 307 307 308 306 304 301 299 295 292 294 295 297 309 309 309 310 313 315 316 318 313 309 303 298 291 290 290 290 289 290 291 303 307 309 312 313 312 309 308 312 316 318 317 316 313 312
309 310 310 311 311 311 311 311 310 310 309 310 310 310 309 307 305 305 305 305 305 305 304 301 297 292 293 294 295 301 305 303 305 309 312 313 314 314 311 306 301 292 290 290 290 290 290 289 292 302 307 311 307 304 297 307 311 307 315 315 315 314 315
308 309 310 311 311 311 310 310 310 310 309 309 308 307 307 306 306 304 303 302 302 302 302 301 299 293 293 293 293 295 302 301 299 308 309 309 309 308 306 304 302 294 290 291 291 291 290 291 289 297 306 293 292 292 300 304 307 311 315 314 313 312 312
306 308 308 307 307 307 309 311 312 312 311 310 308 308 308 307 307 305 304 302 302 302 302 300 296 298 293 292 292 292 292 296 294 305 307 306 306 305 305 304 302 295 290 291 291 291 291 289 291 300 292 290 292 289 293 305 309 311 311 312 311 310 308
305 305 306 306 306 306 307 308 307 310 313 310 309 310 309 309 308 307 305 303 303 302 302 301 297 295 296 292 291 290 289 290 292 297 304 306 304 304 303 303 299 291 290 291 291 291 291 291 295 294 291 290 289 291 300 304 305 308 305 305 306 306 307

ECMWFFLT1_sfc_thetae_075.txt.gz
Theta_e
328 327 328 329 331 333 333 333 332 331 332 333 333 334 333 334 334 334 333 334 334 334 335 333 332 332 332 332 331 332 330 330 328 326 325 326 324 324 326 325 325 326 324 322 321 318 317 315 317 323 325 326 326 326 327 326 326 327 327 327 327 327 328
329 327 329 331 331 332 330 330 330 330 330 331 332 334 334 333 335 333 334 335 334 334 334 333 332 333 331 329 330 330 330 330 330 328 326 325 325 324 323 323 324 323 322 323 324 321 316 315 316 318 318 322 323 323 324 325 326 327 327 326 327 327 325
326 327 329 329 329 329 328 328 328 329 329 330 332 335 333 333 335 333 334 333 332 332 332 333 332 332 331 331 331 331 330 329 329 328 326 326 327 327 325 324 323 321 321 320 320 319 318 318 315 316 316 316 315 318 322 323 325 326 326 326 326 326 324
327 328 327 326 327 329 329 328 329 329 330 331 331 333 334 334 333 334 332 330 333 334 332 333 330 332 331 332 333 332 330 329 328 328 327 326 326 325 326 325 324 322 319 317 319 319 317 315 315 315 317 318 317 317 320 324 324 325 325 325 325 323 321
329 329 328 326 328 329 329 329 330 330 330 331 330 330 331 331 332 332 333 333 332 330 332 330 332 333 333 333 332 331 330 329 329 329 327 326 326 326 324 323 323 322 320 321 322 321 319 317 318 316 317 318 319 319 323 322 324 324 324 324 324 321 321
329 329 328 328 329 330 329 329 329 327 329 328 328 329 329 330 330 330 330 330 330 331 331 331 331 333 332 332 332 332 330 329 329 329 327 326 326 325 324 324 324 324 323 323 325 323 321 320 319 317 317 319 315 316 320 321 319 324 324 324 321 320 320
329 329 328 329 329 329 329 328 328 327 327 327 328 328 329 330 329 330 330 329 329 331 331 330 331 332 331 331 330 331 331 330 330 329 328 327 327 327 327 325 324 324 324 326 324 324 322 320 318 317 316 316 317 316 318 318 321 319 321 322 318 319 319
329 329 328 328 328 328 328 328 327 328 328 328 328 328 330 329 328 330 330 329 329 329 329 329 331 330 329 330 330 330 330 331 330 329 329 329 328 327 326 326 327 326 326 325 324 324 324 321 319 318 316 313 312 314 314 317 318 318 318 318 317 316 317
326 328 328 326 327 328 328 328 327 327 327 328 329 329 329 329 328 327 328 328 328 328 328 329 329 327 327 329 329 330 330 333 330 329 328 329 328 327 326 326 327 327 326 326 327 324 324 325 322 319 317 315 312 309 312 312 313 314 316 310 313 316 316
327 327 327 326 326 326 327 328 327 326 327 328 328 327 327 325 325 325 325 326 327 327 327 327 327 327 327 328 328 327 328 330 330 330 328 328 327 327 326 326 326 325 326 325 325 325 324 324 324 323 319 316 314 312 309 308 309 311 312 312 308 309 313
328 327 325 326 325 325 326 327 327 326 326 327 328 328 325 324 326 328 323 325 326 326 326 326 327 326 327 327 327 326 327 326 326 327 327 328 327 327 325 326 326 324 326 325 324 324 325 324 323 323 321 319 316 312 309 309 308 310 308 309 309 307 309
327 326 326 326 324 325 325 326 326 326 326 326 326 325 324 325 323 322 323 323 324 324 324 325 325 324 325 325 324 324 326 327 327 326 326 327 327 328 326 324 324 323 323 323 325 326 326 324 323 321 321 321 319 315 311 310 307 309 310 307 308 309 309
326 327 326 325 326 326 326 326 326 325 325 325 325 324 324 323 323 322 322 323 323 322 323 324 325 324 324 324 324 324 325 327 327 326 326 327 330 328 325 324 322 323 322 324 325 325 323 322 321 319 320 320 318 317 313 310 307 307 311 307 307 307 307
327 327 327 326 326 326 326 326 326 325 325 324 324 323 323 323 322 321 321 321 321 320 321 323 323 323 323 322 323 323 324 325 326 325 326 326 328 327 326 324 323 324 323 323 321 322 323 322 321 319 319 318 317 316 314 310 308 306 306 307 306 305 305
327 327 327 326 325 326 326 326 325 325 324 323 324 323 322 323 322 321 320 319 321 322 322 321 321 322 322 321 321 324 323 322 323 325 325 324 326 327 324 323 324 323 323 322 321 323 322 321 318 316 317 317 316 316 315 311 307 303 303 305 304 304 304
327 326 326 325 325 325 325 325 326 324 324 323 324 324 323 324 324 321 319 319 320 320 321 320 319 321 319 319 319 321 322 322 322 323 323 324 325 325 324 322 322 322 325 321 320 320 319 316 313 314 315 315 315 315 315 312 307 304 304 303 304 303 303
326 326 324 323 324 324 325 325 325 324 324 324 324 324 324 324 323 320 319 319 320 320 320 320 320 319 320 320 320 320 321 321 322 322 323 323 324 324 324 323 323 323 322 320 319 318 316 316 315 313 314 313 313 313 311 310 309 306 304 304 304 304 305
323 323 323 323 325 325 324 324 324 324 323 323 323 324 323 324 322 319 319 319 319 319 319 319 319 318 319 319 319 320 320 320 322 323 323 324 327 324 324 323 323 321 319 319 318 316 315 315 315 313 313 313 313 315 315 312 309 308 306 304 304 305 305
323 323 323 323 324 323 323 323 323 323 323 322 322 322 322 322 320 318 318 318 318 319 318 318 318 316 316 318 318 319 320 321 322 321 322 323 323 323 322 321 321 320 318 316 315 316 316 316 315 313 313 313 313 313 314 312 309 308 306 304 304 305 303
323 323 323 323 323 322 322 322 322 321 321 320 321 320 322 321 317 316 317 317 318 317 316 315 316 315 318 317 318 319 320 320 320 321 320 322 323 323 322 322 320 320 317 317 318 318 317 317 317 315 315 316 316 315 315 311 311 310 307 306 305 304 303
322 323 323 322 321 321 321 320 320 321 321 320 320 321 322 319 317 315 316 314 312 311 309 307 308 312 317 317 317 317 318 318 318 320 320 321 322 322 321 320 319 317 317 317 316 315 318 317 317 316 317 314 313 312 311 312 312 311 309 309 308 306 308
321 322 323 322 321 320 320 319 319 319 318 319 322 321 320 318 317 316 315 313 310 308 306 304 302 303 312 317 317 316 317 317 318 318 319 320 320 318 316 315 314 314 317 315 310 311 313 316 317 313 314 316 315 314 313 313 312 310 310 310 309 310 309
322 321 321 320 319 319 319 319 318 318 319 320 318 317 317 318 316 314 312 310 308 306 304 303 300 297 301 315 317 319 318 315 315 316 316 317 316 315 314 314 318 317 313 311 307 302 301 305 310 313 311 312 314 314 313 312 312 311 310 309 310 310 309
321 322 321 320 320 320 318 317 316 318 319 320 319 319 318 317 315 314 312 309 306 304 302 299 295 294 295 301 315 315 316 317 316 315 314 316 315 313 311 311 311 317 313 311 305 299 298 298 299 300 301 307 312 312 310 309 310 310 309 310 310 307 307
318 318 319 318 318 318 318 318 319 320 320 320 319 318 316 315 314 313 311 309 306 304 300 295 293 294 295 296 302 315 317 318 318 317 316 316 316 315 316 317 318 319 319 317 313 308 302 297 295 296 296 297 297 298 302 309 308 307 307 307 307 309 307
316 316 317 318 319 318 319 320 320 319 319 320 319 316 314 312 311 311 309 306 304 303 301 293 292 294 294 295 297 311 317 317 317 317 317 317 316 316 316 316 316 317 318 317 314 314 311 307 300 298 301 302 299 298 296 296 301 308 308 307 308 307 309
314 315 315 316 318 318 318 318 318 319 319 319 317 315 312 311 310 308 307 305 303 301 298 295 292 293 294 295 298 309 319 319 319 318 318 318 318 318 317 316 315 315 314 308 307 308 311 314 315 316 316 315 314 309 303 298 296 294 302 309 308 307 307
315 315 315 315 315 316 316 316 317 317 317 317 315 313 311 309 308 307 306 304 302 299 297 293 293 293 293 295 297 310 320 320 319 319 318 318 318 318 318 318 317 316 313 306 302 301 307 311 313 314 313 312 312 313 312 313 313 310 308 308 306 308 309
314 314 314 314 315 315 315 315 314 314 314 314 314 313 311 309 306 305 304 302 300 299 297 292 293 293 293 294 304 319 321 319 316 316 316 317 317 318 318 318 317 313 309 304 296 292 296 307 315 313 311 310 310 310 311 312 308 307 309 310 310 310 308
314 314 314 315 315 315 314 314 314 314 313 312 310 308 306 306 305 303 302 301 299 298 298 294 292 293 293 294 308 318 318 317 316 315 313 311 310 311 314 316 312 308 305 300 293 291 294 307 314 313 312 312 313 312 313 314 309 305 301 298 297 296 296
312 312 312 312 312 312 313 313 313 314 312 310 308 307 305 304 303 301 300 299 299 298 297 295 293 294 295 298 307 315 317 317 315 313 309 307 305 303 304 308 308 304 302 299 291 292 294 307 311 310 310 310 310 310 310 310 311 312 302 295 294 294 294
310 310 309 309 310 310 311 311 311 312 311 310 308 308 307 306 304 303 302 300 302 297 296 296 294 295 295 297 304 309 311 313 313 311 308 306 303 301 299 298 299 299 299 294 290 291 293 303 307 307 306 306 306 305 304 305 305 306 309 311 312 308 304
309 309 308 308 309 309 309 309 310 310 309 309 307 306 304 303 302 302 302 302 301 298 296 294 294 293 295 295 298 305 306 308 308 310 309 307 305 302 300 298 296 290 290 290 290 289 290 294 303 303 303 304 303 305 304 302 303 304 306 307 310 310 311
309 310 309 309 309 309 309 309 309 309 308 307 305 303 302 301 300 300 300 300 299 299 298 296 294 292 293 294 295 297 301 302 305 308 309 307 304 301 299 298 297 292 290 290 290 289 289 289 291 298 301 303 304 300 295 300 301 300 304 306 308 308 310
306 307 309 310 309 308 309 309 309 308 307 306 304 303 302 301 299 298 298 298 297 296 299 298 297 293 292 293 293 294 297 296 299 304 303 301 300 300 299 297 296 293 291 291 291 291 290 288 286 294 298 292 291 290 297 298 299 301 303 304 305 305 305
302 303 303 304 306 306 308 308 308 308 306 305 304 303 302 300 298 297 297 297 297 297 296 297 295 296 293 292 292 292 292 294 294 301 301 299 299 299 299 298 298 294 290 291 291 291 291 290 291 294 291 289 290 289 289 295 298 301 300 302 302 302 302
299 300 300 301 302 300 301 301 300 302 306 305 304 303 302 301 299 298 296 296 296 297 297 297 295 293 294 292 293 292 292 291 292 297 297 297 297 295 295 294 293 289 290 290 290 290 290 293 293 293 290 288 288 289 294 297 298 300 298 298 299 300 301

ECMWFFLT1_sfc_thetae_078.txt.gz
Theta_e
327 327 328 330 332 332 330 328 329 329 332 332 331 332 332 331 330 330 330 330 329 329 330 329 328 328 328 329 327 328 329 328 327 325 323 324 323 321 322 320 321 321 321 317 319 318 317 315 317 322 322 320 321 322 323 325 325 324 323 323 323 323 322
325 325 327 329 330 332 330 329 329 330 330 331 332 331 331 332 332 330 330 330 330 329 331 331 329 330 329 328 327 327 327 327 326 326 325 324 322 321 321 317 320 319 318 319 320 317 316 316 316 318 318 320 320 320 320 321 323 325 324 323 325 323 321
326 325 327 327 328 329 328 328 328 328 329 329 330 332 331 332 332 331 331 330 330 331 331 331 330 330 328 328 328 327 327 326 324 326 326 324 323 322 322 321 319 316 317 316 315 315 317 315 316 316 318 318 316 318 320 322 325 324 324 324 323 322 319
326 326 326 326 327 327 327 327 326 327 327 328 328 331 331 331 331 331 331 331 331 332 332 330 329 329 328 329 328 328 328 327 324 324 323 323 323 322 321 323 321 320 318 315 316 316 315 313 316 317 317 317 316 315 320 324 324 324 324 322 322 319 318
326 327 326 327 328 327 326 326 326 325 325 327 328 330 330 331 331 330 330 330 331 330 330 329 329 329 329 330 329 328 327 326 325 325 323 322 322 322 321 321 322 321 316 318 319 318 317 316 317 316 315 315 317 316 321 320 323 323 323 322 320 319 318
326 327 326 326 327 327 326 326 325 325 325 326 328 329 329 330 330 329 328 328 328 329 328 329 329 330 330 329 328 327 326 326 325 324 323 322 323 323 322 321 322 321 319 318 321 319 318 318 317 315 314 316 312 314 317 319 317 321 322 320 319 318 317
326 326 326 327 327 328 327 326 326 326 326 327 328 329 329 329 329 329 329 329 328 328 328 329 330 330 331 330 328 327 326 326 325 325 324 322 322 322 322 321 321 321 319 321 321 320 318 318 316 316 315 313 314 315 316 316 318 318 319 318 318 318 316
326 325 326 327 328 327 327 327 326 326 326 327 328 328 328 328 328 329 328 328 328 328 327 328 330 329 329 330 329 328 327 326 326 325 323 324 324 323 321 322 321 321 320 321 322 321 321 320 319 318 316 313 311 312 312 315 317 315 316 314 317 316 315
326 326 324 325 326 327 326 326 324 325 327 326 327 327 327 328 328 327 327 327 328 327 327 328 328 328 327 328 326 327 326 329 326 325 324 324 324 322 321 320 322 322 322 322 322 322 321 321 320 319 318 316 313 310 310 311 312 313 316 310 312 315 314
325 325 325 324 323 323 324 325 326 326 326 327 327 326 326 326 326 326 326 326 326 326 326 327 326 325 325 326 326 325 326 325 326 325 324 325 323 321 321 322 323 322 321 321 321 322 322 321 320 319 319 317 316 313 309 308 309 308 311 310 308 310 314
326 326 324 324 323 323 323 325 325 324 325 327 328 327 324 324 325 329 324 324 325 325 325 325 325 325 324 324 326 326 326 326 324 322 323 324 323 322 320 321 320 321 319 320 322 321 322 321 319 319 317 315 315 314 311 310 309 308 307 309 305 306 310
327 326 325 325 324 325 325 325 325 325 325 324 325 322 322 323 323 323 324 323 323 324 324 324 323 324 324 323 322 323 323 326 325 323 322 324 322 323 322 321 319 319 319 320 319 320 320 321 321 319 316 316 315 314 311 309 306 308 308 307 306 309 309
325 326 326 324 324 324 326 325 325 324 324 324 323 323 322 321 321 322 323 323 322 322 323 322 322 323 323 323 322 323 323 325 325 325 323 322 327 323 322 321 319 321 319 320 320 320 320 320 320 320 319 317 315 314 312 311 308 307 307 306 305 307 310
324 325 325 324 323 325 326 325 325 325 324 323 323 323 322 321 322 323 323 322 321 321 322 320 321 322 322 321 321 322 323 324 325 323 323 321 324 322 321 321 320 320 319 321 319 321 321 320 320 320 320 318 316 314 312 310 307 303 304 304 305 305 307
324 324 323 323 324 324 325 325 325 324 323 323 323 322 322 322 321 322 321 320 320 321 321 321 320 321 321 320 320 323 323 323 323 322 322 323 321 324 321 321 320 319 320 322 319 322 321 320 319 319 317 318 316 314 312 310 306 304 302 302 301 302 303
323 324 323 323 324 324 325 325 325 323 323 322 323 322 322 321 321 320 320 320 320 320 321 320 319 320 320 320 319 319 322 322 322 322 322 323 323 322 320 320 320 319 320 319 318 319 318 318 316 317 316 316 316 314 313 310 306 303 302 301 301 301 302
324 324 323 323 323 323 324 324 324 323 323 322 322 322 322 321 320 319 320 320 320 320 319 319 319 320 319 318 319 319 320 320 322 322 322 323 323 322 321 319 319 318 318 317 316 316 315 314 312 313 314 314 314 313 311 309 309 304 301 302 300 302 301
323 322 322 322 323 323 324 324 323 323 323 322 322 322 322 321 319 319 320 320 320 319 319 319 317 316 318 318 319 319 320 320 321 321 322 323 326 322 320 320 318 317 316 317 317 315 312 311 312 311 313 312 312 311 310 307 306 306 304 303 302 301 301
321 321 322 322 322 323 324 323 322 323 323 322 321 321 321 320 319 318 319 320 319 318 317 317 317 317 317 316 317 318 319 320 321 322 322 323 323 322 321 318 318 317 317 316 314 313 312 310 309 309 311 311 311 310 307 305 305 305 305 303 302 301 300
321 321 322 322 323 323 323 323 322 322 322 322 320 320 321 319 318 317 316 316 314 313 313 312 313 314 316 316 318 319 319 320 320 321 322 322 320 319 318 319 317 316 315 314 314 314 313 312 313 310 309 310 310 309 307 306 305 304 303 302 301 301 301
321 321 322 322 323 323 322 321 321 320 321 320 320 320 318 315 314 314 312 311 309 309 309 308 309 312 314 316 317 318 318 317 318 319 320 320 320 319 318 318 316 315 315 314 314 313 314 314 312 311 310 311 310 309 308 307 305 304 302 302 301 301 300
320 320 322 322 322 322 321 319 319 319 319 319 319 317 315 314 312 311 310 309 307 307 306 304 304 304 311 315 315 316 317 317 317 317 318 318 318 317 314 312 312 312 315 315 311 312 314 315 313 312 311 311 311 310 309 309 307 306 304 306 305 304 303
320 320 320 320 320 320 319 318 318 317 317 316 315 315 314 313 311 310 308 307 306 305 304 303 301 299 304 314 315 315 315 316 317 316 316 312 311 311 312 312 315 314 311 309 304 300 300 304 309 313 311 312 311 311 310 309 308 307 307 306 305 305 305
320 320 319 318 318 318 316 317 317 317 316 315 314 313 312 311 310 309 307 306 304 303 302 300 295 294 298 307 314 314 314 313 314 315 313 310 309 311 313 314 315 318 314 311 305 298 296 297 298 299 300 305 311 311 309 308 307 305 304 305 305 302 303
318 318 318 316 317 317 318 318 317 315 314 313 313 312 311 310 309 308 307 305 304 302 300 297 293 294 297 302 308 315 315 315 314 313 312 313 314 315 315 315 315 316 316 314 311 308 305 298 295 296 296 297 296 296 301 307 305 303 303 303 304 305 302
316 315 316 316 317 317 318 317 316 314 312 312 311 310 309 308 307 307 306 305 303 302 300 295 293 295 298 302 304 311 315 315 314 314 316 316 315 315 314 314 313 312 313 318 315 312 313 312 303 301 303 303 302 298 295 295 299 306 304 303 305 304 304
316 316 316 316 317 316 316 315 314 313 312 311 309 308 307 307 306 305 304 303 301 300 299 295 293 294 299 302 303 308 316 316 316 316 316 316 315 314 314 313 311 309 306 306 307 309 311 312 310 310 310 310 310 307 300 295 294 295 301 306 304 306 304
314 315 316 317 316 315 315 314 314 312 311 310 309 307 306 305 304 304 303 302 302 300 298 293 293 294 298 303 303 307 317 317 316 316 316 316 316 316 315 315 311 307 306 304 301 300 309 310 311 310 309 309 308 308 308 310 310 307 305 305 307 307 306
314 313 313 315 315 314 313 312 311 311 309 308 307 306 304 303 302 301 301 302 302 300 299 293 293 295 298 304 306 314 316 316 315 314 314 315 316 316 313 311 308 306 304 303 299 294 300 310 314 313 312 311 310 308 309 307 299 299 304 306 308 308 309
313 313 313 313 313 312 311 310 309 309 306 305 303 302 302 301 302 301 301 301 300 299 298 295 293 295 298 304 307 315 314 312 310 308 306 306 307 308 309 308 306 305 303 301 294 294 299 307 314 313 312 311 310 309 308 309 302 299 298 297 295 295 295
311 311 312 311 311 311 310 310 308 308 305 304 302 301 301 300 300 299 298 298 299 298 296 295 293 295 297 301 308 314 311 308 306 303 301 301 301 301 303 306 306 301 300 298 291 292 295 306 309 309 310 309 308 308 306 305 304 304 300 300 300 299 296
309 309 309 309 310 309 308 307 307 307 306 305 303 303 302 300 299 298 298 298 301 297 295 295 293 294 295 299 308 312 310 307 304 302 301 299 299 299 299 298 298 298 298 293 290 291 292 301 305 305 306 305 303 302 302 300 300 300 301 303 305 306 306
308 308 308 308 308 308 308 308 307 306 305 304 302 302 301 300 298 297 297 297 297 297 296 295 294 293 294 296 301 310 309 306 303 302 301 300 299 298 298 297 296 290 290 290 290 290 290 292 301 302 302 300 299 299 299 297 297 297 298 299 302 303 303
305 307 308 308 308 308 308 307 306 305 303 303 302 301 299 298 297 296 297 297 298 298 298 296 294 292 293 294 296 302 308 307 305 302 299 298 298 297 297 296 296 292 290 290 290 289 289 287 290 298 299 299 297 294 293 297 297 298 299 299 300 301 301
303 303 304 306 306 306 307 308 306 305 304 302 300 298 297 296 296 296 296 297 296 296 298 298 296 293 292 293 293 296 301 301 301 300 298 298 297 297 296 295 295 291 290 290 290 290 289 287 288 296 290 288 288 288 292 296 296 298 299 299 299 299 299
299 300 300 301 302 302 303 304 305 305 303 300 298 297 297 297 296 296 296 296 295 295 296 296 294 294 292 292 292 292 293 296 295 300 298 297 296 295 295 294 295 292 290 290 290 291 292 292 293 290 286 287 287 289 294 297 296 296 296 296 296 296 295
298 297 298 298 298 298 299 301 301 303 303 300 297 297 296 296 296 295 295 295 294 294 294 294 293 292 293 291 291 291 291 291 293 295 295 294 293 293 292 292 292 290 291 291 292 292 291 292 291 289 290 290 292 294 296 295 295 294 292 292 293 293 292

ECMWFFLT1_sfc_thetae_081.txt.gz
Theta_e
326 327 329 331 333 332 330 330 329 330 331 330 331 331 331 330 330 328 328 327 328 328 329 328 328 327 327 326 326 325 325 325 324 323 321 321 322 320 321 318 317 319 322 314 317 317 316 314 317 322 322 321 319 320 322 322 321 320 321 321 322 322 321
323 326 329 332 331 331 330 330 330 330 331 330 330 330 330 330 331 329 328 327 327 328 330 328 327 328 327 327 326 325 324 325 325 324 323 322 321 319 318 314 317 316 316 315 319 314 316 316 316 318 318 321 320 320 319 320 321 321 321 321 323 321 320
324 325 328 329 330 331 330 329 329 329 329 330 329 330 329 330 330 330 329 328 327 328 329 328 327 327 327 327 327 326 326 325 324 324 324 323 323 320 321 317 314 314 314 313 314 312 315 315 316 317 318 318 317 319 320 320 321 321 320 320 321 319 317
323 325 327 327 329 329 329 328 328 327 327 328 328 329 329 330 329 330 329 328 328 329 329 328 327 327 327 326 326 326 326 325 323 323 322 321 322 321 320 320 319 319 317 314 315 315 313 311 316 318 319 320 319 318 319 321 320 321 321 320 319 317 316
324 325 325 326 329 329 329 327 328 326 325 326 327 327 328 329 329 329 329 328 328 328 328 328 328 328 327 327 326 326 326 325 324 324 322 321 320 320 319 319 320 320 315 316 318 317 316 315 317 317 317 317 317 315 319 318 321 321 320 319 318 316 315
323 323 324 326 328 329 329 327 326 325 324 324 325 326 327 328 329 328 328 328 328 328 328 328 327 328 327 327 326 325 325 324 324 323 322 321 322 321 321 319 319 318 317 315 319 317 314 317 318 316 315 318 315 316 317 318 319 322 319 317 317 316 315
322 324 324 325 326 327 327 326 326 325 323 325 325 326 329 329 329 329 329 328 328 328 328 328 328 328 327 327 326 325 325 325 324 323 323 322 322 322 321 320 319 319 316 318 319 317 316 316 314 315 316 314 315 316 317 318 319 318 318 316 316 316 315
325 326 324 324 324 325 325 325 324 323 324 325 326 328 329 329 329 328 328 327 327 327 327 327 328 328 328 327 326 325 325 324 323 323 321 321 322 320 319 321 321 318 317 318 319 318 319 318 317 316 317 314 312 313 313 315 315 314 314 312 316 315 314
325 323 322 323 324 326 325 326 325 325 325 323 325 326 327 329 328 328 327 326 326 326 326 327 327 327 327 326 324 324 324 326 323 321 320 321 322 321 320 318 320 319 319 320 320 319 319 319 319 318 318 317 314 311 311 312 311 311 314 309 311 313 313
324 324 324 324 323 323 324 324 325 325 325 325 326 326 325 326 328 327 326 325 325 325 326 326 327 326 326 326 325 322 323 322 323 322 320 322 320 319 318 319 320 319 319 320 319 319 319 319 319 320 319 318 317 314 311 311 311 309 310 308 309 309 313
325 326 325 324 323 322 323 324 324 323 324 325 326 326 325 325 325 329 325 325 325 325 325 325 325 325 325 325 324 324 323 324 322 320 321 321 320 320 318 318 319 320 319 320 319 319 319 319 319 319 317 315 315 314 312 311 310 307 307 308 305 307 309
325 326 325 324 323 323 323 323 324 324 324 324 324 324 323 323 323 323 324 323 324 324 324 324 323 324 324 323 323 323 322 323 323 321 320 322 320 321 319 319 316 317 318 319 318 319 319 319 318 318 315 315 314 312 312 308 308 308 308 309 306 308 309
326 326 325 324 323 324 324 324 324 323 323 323 322 322 323 322 322 322 322 323 323 323 323 323 323 323 322 323 322 322 322 323 323 322 321 320 323 321 319 319 317 318 317 317 318 318 318 318 318 317 316 315 313 313 312 309 307 309 306 309 305 307 310
326 326 325 325 323 323 324 324 324 324 323 322 321 321 322 322 322 322 321 322 322 322 322 320 321 321 321 320 320 322 322 323 323 319 321 319 321 320 320 319 318 316 316 318 317 317 318 317 317 317 316 314 313 312 313 308 306 303 304 303 304 306 308
326 326 325 324 323 323 323 323 324 324 323 322 322 322 322 321 322 321 320 320 320 321 320 320 318 320 320 319 318 321 322 322 322 320 319 320 318 321 319 319 318 316 316 319 317 319 319 319 320 320 317 316 313 313 312 310 305 303 303 302 301 304 305
325 324 323 323 322 322 323 323 324 323 323 322 322 322 322 321 321 321 320 319 319 319 320 319 318 320 319 319 319 319 321 321 321 320 320 320 320 318 317 316 316 316 318 317 316 317 318 319 319 320 318 316 315 313 312 310 306 303 303 301 300 302 303
322 322 322 322 321 322 323 323 323 323 323 322 322 322 321 321 320 320 319 319 319 319 319 318 318 319 320 318 318 319 319 319 320 321 321 320 320 319 317 316 315 316 316 316 314 314 316 316 316 317 315 313 313 313 311 309 310 303 301 303 300 302 302
321 321 321 321 321 322 322 322 323 323 322 322 322 322 320 319 319 319 319 319 318 318 318 318 318 316 316 317 318 318 319 318 319 319 320 321 324 319 317 316 316 315 316 316 313 315 313 314 314 314 315 314 314 313 311 310 309 304 303 303 301 300 300
321 321 321 322 322 322 322 322 322 322 322 322 321 321 319 319 319 318 318 318 318 317 316 316 317 316 316 315 315 316 317 318 318 319 319 320 319 317 316 314 315 316 315 316 315 313 311 312 311 310 310 312 313 311 309 306 306 305 305 304 301 299 298
322 321 321 322 321 321 322 322 322 321 322 322 320 319 319 318 317 317 316 316 315 314 313 312 313 314 314 314 315 315 316 316 317 318 319 319 317 317 317 316 313 313 315 315 315 314 310 307 309 307 310 310 309 308 306 304 304 304 303 301 299 300 299
322 321 321 321 321 321 321 320 321 321 321 321 319 319 317 315 313 313 312 310 309 309 309 308 309 311 312 315 316 315 316 316 317 318 317 317 317 317 316 316 314 314 314 312 311 309 310 310 309 308 306 309 307 305 304 303 302 302 301 300 300 299 297
320 320 321 321 321 321 320 321 320 319 320 320 318 316 314 313 310 309 308 308 307 307 306 304 304 305 312 312 314 315 315 317 318 317 315 315 314 313 312 311 312 312 314 313 309 310 311 312 311 310 306 307 307 306 305 303 302 300 300 299 300 298 298
320 320 320 320 321 320 320 320 319 317 318 317 315 313 312 311 310 308 307 305 305 305 303 303 302 299 305 313 314 316 315 316 317 315 313 311 310 310 310 310 313 313 311 308 304 300 300 303 309 311 309 309 308 308 306 306 304 303 303 301 301 300 298
320 319 319 319 318 319 319 318 317 316 315 314 313 311 310 308 307 306 306 304 303 303 302 301 296 296 302 307 314 314 315 314 314 313 311 309 308 309 311 311 310 313 311 309 303 299 298 298 298 299 301 305 310 310 309 307 305 305 304 302 301 300 299
319 318 318 317 318 318 317 316 314 314 313 312 310 309 308 307 306 305 305 304 303 302 301 297 294 298 301 303 308 314 314 313 311 310 310 310 311 312 312 312 312 313 311 309 308 305 302 299 299 298 298 297 297 296 300 306 304 302 301 303 302 301 299
318 317 315 316 316 316 316 314 313 312 311 311 309 308 306 306 305 305 305 303 302 302 301 295 296 299 299 300 303 310 313 312 310 310 311 312 313 312 311 311 310 309 311 316 314 310 310 308 302 300 302 302 300 297 294 294 297 306 303 303 304 301 303
317 315 315 316 316 315 313 311 311 311 310 309 307 306 305 304 304 304 304 303 302 301 301 296 297 299 299 300 302 307 314 313 313 313 313 313 312 311 310 310 309 307 305 305 305 309 311 310 310 310 310 309 309 307 302 300 299 298 302 306 304 306 305
315 315 316 315 313 312 311 309 309 308 308 308 306 305 305 304 303 303 303 303 303 301 299 294 297 298 299 301 303 307 315 315 314 314 314 314 313 312 310 309 307 305 305 304 302 303 310 310 310 309 308 308 307 306 305 305 305 306 307 306 305 306 305
314 315 314 312 311 310 309 308 307 306 306 305 304 304 303 303 303 302 302 302 303 301 299 294 297 299 300 302 305 313 313 312 311 310 309 310 310 309 309 308 307 306 306 304 299 297 306 313 313 312 310 308 306 303 303 303 297 298 301 303 305 306 306
312 313 312 310 309 308 307 305 305 305 302 302 302 301 301 301 302 302 302 301 300 298 298 295 297 298 299 301 305 310 307 305 303 302 302 303 304 305 306 306 305 304 303 301 295 295 300 307 312 311 310 306 304 302 300 302 300 297 296 297 297 296 295
309 310 310 309 308 306 306 305 303 303 302 300 299 299 298 298 298 299 299 299 300 299 298 296 296 299 300 301 305 309 307 304 302 301 300 300 300 300 302 305 304 300 298 297 292 294 299 307 309 307 304 302 301 300 300 300 302 303 300 299 298 297 297
308 308 306 305 305 304 304 303 303 303 302 300 299 299 298 297 297 297 298 299 301 299 298 298 295 297 299 301 305 307 305 303 301 300 299 299 298 298 297 298 298 297 297 293 291 293 296 302 304 302 301 300 300 299 298 299 299 301 303 303 303 303 301
306 307 306 305 305 304 304 302 302 301 299 299 298 298 298 297 297 297 298 298 298 298 297 297 296 295 297 299 301 306 305 303 300 299 299 299 298 297 296 296 296 290 290 291 291 292 294 296 300 301 301 300 300 299 298 299 299 299 300 299 299 300 300
303 304 306 306 305 305 304 302 301 300 298 298 298 297 297 297 297 296 297 297 297 297 298 296 295 293 295 296 298 301 303 302 301 300 298 297 296 296 295 295 295 292 290 291 291 291 292 293 295 299 299 298 298 296 294 299 298 298 298 298 298 298 298
300 301 303 305 305 304 304 303 301 300 299 298 297 297 297 297 296 296 296 296 296 295 297 297 296 293 293 294 294 296 300 299 298 298 297 296 295 294 293 292 293 291 291 291 291 291 291 291 292 294 290 289 288 291 297 297 296 296 296 295 295 294 295
297 299 300 301 303 302 302 301 300 300 299 298 298 297 297 297 296 296 295 295 295 295 295 295 293 293 291 292 292 292 293 296 294 299 297 294 293 293 292 292 294 293 291 291 291 291 292 291 292 289 288 289 290 292 294 294 293 293 292 292 292 290 290
295 295 296 298 300 300 300 300 299 299 299 298 297 297 297 297 296 295 294 294 294 294 294 294 292 291 291 290 290 290 290 291 292 295 295 293 292 292 292 292 292 291 291 291 291 291 291 292 291 290 291 291 292 292 294 293 292 291 290 289 289 288 287

ECMWFFLT1_sfc_thetae_084.txt.gz
Theta_e
327 327 329 329 330 332 332 332 330 330 331 331 331 332 332 331 330 329 329 329 329 329 330 329 328 327 326 327 327 327 326 326 325 324 323 324 322 322 324 323 322 321 322 318 321 319 317 315 317 323 324 325 324 325 327 326 324 324 325 324 324 325 325
324 325 329 331 331 332 330 330 330 330 331 331 332 331 331 331 331 329 329 329 329 329 330 329 329 328 327 326 326 325 325 325 325 325 325 323 323 321 320 317 319 320 319 320 321 319 318 315 315 317 319 322 323 323 325 325 325 324 324 324 326 324 324
326 327 330 330 331 331 330 329 329 330 330 330 330 331 331 331 330 329 329 329 329 329 330 329 329 328 327 326 326 326 326 325 325 325 325 325 325 323 323 319 317 317 318 319 319 318 319 319 315 316 319 318 318 320 323 324 325 324 325 325 324 323 322
326 327 328 329 330 330 329 329 329 329 329 329 329 330 331 331 330 330 329 328 329 330 330 329 328 328 326 327 327 327 326 325 325 325 325 324 325 323 322 321 321 321 319 317 318 318 316 315 317 317 319 320 320 319 322 324 324 324 325 324 323 321 320
325 327 328 328 329 329 330 329 329 328 327 329 329 328 329 330 330 330 329 329 328 329 329 329 328 329 328 327 327 326 326 326 326 325 324 323 323 323 323 322 322 322 320 320 320 320 319 318 319 317 318 320 320 319 322 323 325 324 324 322 320 319 319
324 326 327 327 328 329 330 329 328 327 327 326 327 327 328 329 330 329 329 328 328 328 329 329 328 328 327 327 327 326 326 326 325 325 324 324 324 323 323 322 322 321 321 319 321 320 318 320 320 318 319 320 317 318 320 322 322 323 323 321 320 319 319
324 324 326 326 327 328 330 329 328 328 327 327 326 327 329 329 329 329 329 329 329 328 328 329 328 328 327 327 326 326 326 326 326 325 325 324 324 325 324 322 321 322 320 320 322 321 320 320 318 318 318 317 319 318 318 320 321 321 320 319 319 318 318
324 325 325 326 326 328 329 329 329 328 327 327 327 327 328 328 328 328 328 328 328 328 328 328 329 328 328 327 327 326 326 326 326 325 324 324 323 323 323 324 322 321 320 321 322 321 322 322 320 320 319 315 316 318 317 319 320 319 319 316 318 317 317
324 325 325 324 325 327 328 328 328 327 326 326 326 327 327 328 327 327 327 327 327 328 328 328 328 328 327 327 326 326 325 326 325 324 324 323 324 323 323 323 323 322 321 321 322 322 322 322 321 321 321 319 316 312 315 316 317 318 317 317 316 317 316
324 324 324 324 325 325 326 326 327 327 326 325 325 327 326 327 327 327 327 326 325 327 327 328 328 328 327 327 326 325 325 325 325 324 323 323 323 323 322 323 324 322 321 322 322 322 322 321 322 322 322 321 320 316 313 313 315 316 317 313 317 315 315
324 325 324 325 324 324 324 324 324 324 324 325 326 326 326 326 326 329 327 326 325 325 326 327 328 328 327 326 326 326 326 325 324 322 323 324 322 322 321 321 322 322 321 322 322 321 321 322 322 322 322 321 321 318 316 313 313 317 316 313 313 314 313
324 325 326 326 324 324 323 323 324 324 324 325 326 325 325 325 325 326 325 324 324 324 325 325 326 326 326 325 325 324 324 325 324 323 322 323 321 322 322 321 320 321 321 322 321 321 321 322 322 322 321 320 319 319 317 314 313 315 315 316 313 311 314
324 325 326 325 324 324 324 323 324 323 323 324 325 325 324 324 324 324 323 324 323 323 323 324 325 326 325 325 324 324 324 324 324 323 322 322 323 322 322 322 321 321 321 321 321 321 321 321 322 322 320 319 318 318 318 314 314 315 313 316 313 311 314
323 325 325 325 324 324 324 324 324 324 323 323 323 323 323 324 324 323 322 323 323 323 323 323 323 324 324 323 324 324 323 324 324 322 323 322 323 322 323 322 320 320 321 321 320 320 320 320 320 321 319 318 317 318 318 315 314 310 309 308 310 311 313
325 325 324 323 323 324 324 324 324 324 323 323 323 323 323 323 323 323 323 323 323 323 323 323 322 323 323 322 322 323 324 324 323 322 322 323 322 322 322 321 319 319 321 321 320 320 321 321 320 320 318 318 318 318 318 315 311 310 311 307 308 309 311
325 324 324 324 324 324 323 323 324 323 323 322 322 323 322 322 323 323 323 322 322 322 322 322 322 323 322 322 322 322 323 324 323 322 322 323 322 321 321 321 319 319 320 321 320 321 320 321 321 320 319 318 318 318 317 316 312 310 310 308 307 308 309
324 324 323 324 324 324 323 323 323 323 323 322 321 322 322 322 322 322 322 322 322 321 321 320 321 322 322 322 322 322 322 323 323 323 323 323 322 321 321 320 319 321 321 321 319 319 319 320 321 320 319 318 318 316 317 315 317 313 310 309 305 307 308
322 323 323 323 323 323 323 323 323 323 322 321 321 321 321 321 321 321 321 321 321 321 320 320 320 320 320 321 322 321 321 322 322 322 323 323 324 321 321 321 320 320 320 320 318 318 318 319 319 320 319 318 317 317 316 315 315 311 310 311 307 305 306
320 321 322 322 322 322 322 323 323 322 322 321 321 321 320 320 321 321 321 321 321 321 320 320 320 319 319 319 319 320 321 321 321 322 322 322 322 320 320 319 320 320 320 321 319 319 318 319 318 318 318 318 318 316 315 314 313 312 312 310 308 304 304
320 320 320 321 322 322 323 323 323 322 322 321 320 320 319 319 320 320 320 320 320 319 319 318 318 318 318 318 318 319 319 319 320 321 321 321 320 320 320 320 319 319 319 320 319 318 317 317 317 316 316 317 316 316 314 312 311 310 310 307 305 305 304
322 321 321 321 321 322 322 322 322 322 321 320 320 320 319 318 317 317 317 317 316 316 316 315 315 316 317 317 318 318 319 319 319 320 319 319 319 319 320 320 319 317 317 317 318 318 317 316 314 314 312 314 314 314 312 309 309 309 308 307 306 304 304
322 322 321 321 321 321 321 321 321 320 320 320 320 319 316 315 313 311 311 311 311 312 313 313 313 315 316 316 317 317 318 319 319 318 317 317 315 315 314 314 314 316 319 317 312 312 313 312 313 312 310 312 311 310 308 307 307 306 306 306 305 303 304
321 321 321 321 320 321 321 320 320 320 319 319 317 315 314 313 312 311 309 308 308 308 307 306 305 307 311 317 317 317 318 319 318 317 315 312 311 311 311 313 316 315 311 310 307 303 302 305 309 312 311 311 310 309 308 307 307 307 307 306 306 304 304
320 320 320 320 320 320 320 320 318 318 318 316 315 313 312 311 310 310 309 308 307 306 303 303 298 295 302 307 316 318 318 317 316 315 314 312 310 310 310 311 311 311 308 306 303 298 297 297 297 298 299 302 308 311 309 308 308 307 307 306 305 304 305
319 319 319 320 320 320 320 318 317 316 315 314 312 311 310 309 308 307 307 306 305 304 303 298 295 295 299 303 309 317 317 315 314 313 312 311 312 312 312 312 313 313 310 308 307 305 301 298 298 298 297 297 296 296 299 309 310 309 308 308 307 306 306
318 318 319 319 318 318 317 316 315 314 314 312 310 309 308 307 307 307 307 306 304 304 303 296 296 296 298 301 303 311 315 314 312 312 312 313 313 313 313 312 311 312 315 316 314 313 312 309 303 301 301 301 299 297 295 295 298 310 311 311 310 309 311
316 316 316 316 316 316 315 313 313 313 311 310 309 307 307 306 306 306 306 306 304 303 303 297 296 297 298 299 301 306 313 313 313 313 313 313 313 312 312 312 311 309 310 312 314 314 314 314 312 310 308 308 307 304 299 297 298 298 304 312 313 313 311
313 314 314 314 313 312 310 309 309 308 308 308 307 306 306 305 305 305 305 305 305 303 301 296 296 297 297 299 301 305 314 314 313 313 312 311 311 310 310 311 311 310 309 309 310 312 313 311 309 307 305 305 305 304 304 305 306 307 309 309 309 309 309
311 310 309 309 308 307 307 306 305 305 305 304 303 304 304 305 305 305 305 306 306 305 301 295 296 298 299 300 304 313 312 311 309 308 307 307 308 308 309 309 309 309 308 307 303 302 306 311 309 306 304 304 303 304 304 300 295 297 303 305 305 304 304
308 308 307 305 304 304 303 303 303 303 302 301 300 300 300 302 303 304 305 305 305 304 303 296 296 298 300 300 304 309 308 306 304 302 302 301 302 304 306 305 306 305 305 303 299 299 301 305 307 305 304 303 304 304 303 305 299 294 294 294 293 293 293
305 305 305 304 303 302 301 301 300 301 300 299 298 298 299 299 300 301 302 303 305 305 303 297 295 297 299 300 304 308 306 304 302 301 300 299 299 299 301 304 303 302 302 301 295 298 299 305 305 304 303 302 302 303 303 303 306 305 297 296 295 294 294
305 304 303 302 302 301 300 300 300 300 299 299 298 299 299 299 299 299 300 302 305 302 302 300 296 296 298 299 304 306 305 303 301 299 299 298 299 298 298 298 299 300 300 297 294 295 296 302 304 303 303 303 302 301 300 302 304 305 305 304 302 301 299
303 304 303 302 301 300 300 299 299 299 298 298 298 298 299 298 297 297 298 298 299 299 300 299 297 295 297 298 300 306 305 303 300 299 299 298 297 298 298 298 296 292 292 292 292 292 294 296 303 305 305 303 301 300 302 302 302 302 302 301 300 300 299
301 302 304 303 302 301 300 300 299 299 298 298 298 297 297 297 296 296 296 296 296 296 298 297 295 293 294 295 297 301 304 301 300 299 297 296 297 297 297 296 296 292 291 291 291 292 293 294 296 302 302 301 301 299 299 300 299 298 300 299 298 298 298
299 300 302 303 301 300 301 301 300 300 299 299 298 297 297 296 295 295 295 295 295 294 296 295 295 293 292 293 294 296 301 300 300 299 296 296 297 296 295 295 294 292 290 290 291 291 291 292 293 297 294 291 291 293 299 299 298 297 296 295 295 294 294
296 297 299 301 300 299 300 300 300 300 299 299 298 297 297 297 297 296 295 294 294 294 294 294 292 293 291 292 292 293 294 295 293 298 297 296 295 294 295 294 294 293 291 291 291 291 291 292 293 292 290 291 291 291 294 296 295 295 294 293 293 292 291
295 295 296 298 299 299 299 299 299 299 299 298 297 297 296 296 296 295 294 294 294 294 294 294 292 291 291 290 291 291 291 292 293 296 296 295 295 295 295 294 293 291 291 291 290 291 291 292 292 290 290 290 291 292 296 294 293 293 292 291 291 290 290

ECMWFFLT1_sfc_thetae_087.txt.gz
Theta_e
329 330 332 335 337 337 337 338 337 336 336 335 334 333 334 333 333 333 335 334 334 334 335 333 334 335 334 334 335 336 334 331 332 330 329 329 326 327 331 330 331 332 333 332 330 324 321 318 320 327 329 330 331 332 332 331 331 332 330 332 333 332 333
330 330 329 331 333 336 336 338 336 335 335 334 333 333 333 333 334 333 334 333 334 334 334 334 335 335 334 332 332 331 331 330 331 332 331 329 329 329 328 328 330 331 331 331 330 329 324 321 320 321 322 326 330 331 331 332 332 332 332 332 331 331 332
331 332 331 330 332 335 334 335 335 335 334 333 332 333 332 333 333 333 334 333 334 334 334 334 334 333 333 333 332 331 331 330 331 332 332 332 332 333 330 329 328 329 328 327 328 327 326 326 321 319 322 321 320 325 330 331 331 332 331 331 331 330 331
333 332 332 332 333 334 332 333 333 333 334 334 332 332 334 334 333 334 334 334 334 335 334 334 335 332 333 334 334 333 332 331 330 332 333 335 334 333 331 331 330 329 328 327 327 327 326 323 321 321 322 322 322 322 327 331 331 331 330 331 330 330 330
335 331 332 331 332 332 333 332 333 333 333 333 331 329 331 333 333 333 334 334 333 334 334 335 335 334 334 334 334 333 332 332 333 333 334 334 334 332 332 332 332 333 333 330 331 330 328 326 324 322 321 322 323 324 326 329 330 329 329 329 329 330 330
335 334 334 333 333 332 332 333 333 331 332 330 329 328 330 331 332 332 332 332 333 334 335 335 335 336 335 334 333 332 332 331 331 332 331 332 332 331 331 333 334 334 332 334 333 331 331 330 327 323 322 324 321 322 325 327 326 327 328 328 329 329 330
333 332 333 333 334 333 334 334 334 333 332 331 331 329 330 331 331 332 333 333 334 335 335 336 336 335 335 334 334 333 332 331 332 333 333 335 335 335 337 334 334 332 334 334 333 332 330 329 326 325 322 322 323 320 323 324 327 325 326 328 329 330 329
332 332 332 333 335 334 335 335 335 335 333 333 333 332 331 331 332 333 334 334 334 334 335 335 335 335 335 335 335 335 334 332 332 333 334 335 333 334 335 334 333 334 333 331 333 332 331 330 330 328 324 319 320 322 321 323 325 325 326 326 328 329 330
331 331 331 332 333 334 333 332 333 334 334 334 334 333 332 331 331 331 332 334 334 335 334 335 334 334 335 335 335 333 332 332 332 333 334 335 335 335 336 336 334 332 331 330 332 333 331 333 332 331 328 325 320 316 319 319 321 323 327 324 327 329 329
331 330 329 331 332 332 333 333 333 334 334 334 333 333 333 331 331 330 331 333 334 334 333 334 334 332 331 330 333 334 331 331 332 333 334 333 334 335 336 335 334 333 332 333 333 333 333 334 332 331 330 328 326 321 317 316 318 320 324 326 323 325 328
329 329 330 330 331 331 332 332 333 333 333 333 333 333 332 332 332 331 332 333 333 333 332 332 331 329 329 329 331 333 334 333 332 334 332 332 334 337 335 335 335 334 334 333 332 334 334 333 332 331 330 330 330 325 322 319 319 323 323 327 327 324 325
329 329 329 329 330 330 330 331 330 331 332 333 332 332 332 332 333 332 333 332 332 332 332 331 331 329 329 328 330 330 333 334 333 332 333 332 334 334 333 333 335 333 329 329 332 333 334 333 332 331 331 331 330 330 326 323 320 323 328 325 325 326 325
328 328 329 330 329 329 330 331 330 331 332 332 332 332 332 332 332 332 332 332 331 331 330 330 330 330 329 328 329 330 331 331 331 333 332 333 332 333 334 333 333 332 330 330 332 332 332 333 333 331 331 330 330 329 327 324 322 321 327 328 326 325 326
327 328 330 330 330 329 330 331 330 330 331 332 332 332 331 332 332 332 331 330 330 330 330 329 329 329 329 328 329 330 328 329 329 329 328 330 332 334 333 333 333 333 332 333 333 333 332 332 332 332 331 330 329 329 327 326 323 323 324 324 326 324 325
328 328 328 329 327 328 329 330 330 329 329 330 331 331 332 332 332 332 332 331 330 330 330 329 329 329 329 329 328 329 330 329 329 329 331 330 333 333 335 333 331 333 333 333 333 331 332 330 330 329 329 329 328 328 330 326 324 323 322 322 322 322 323
328 328 325 326 327 328 329 330 330 329 329 330 331 332 333 333 332 332 331 330 330 330 329 329 329 330 330 329 327 328 329 329 329 329 331 332 332 332 331 330 330 333 333 334 334 333 333 331 330 329 329 329 328 329 328 328 325 323 323 322 324 322 322
326 327 325 327 328 329 329 329 329 329 329 330 330 331 333 333 331 330 330 330 330 329 329 328 330 331 331 331 329 328 328 328 329 332 333 333 333 332 331 330 332 333 332 333 332 332 331 332 331 330 329 329 329 328 329 329 328 325 323 321 320 321 322
325 325 326 327 328 329 328 327 327 327 329 329 329 330 331 332 330 330 328 329 330 330 329 329 331 332 334 334 331 330 330 329 330 334 335 335 333 333 333 332 332 332 333 332 331 331 331 331 330 330 329 328 327 329 328 327 327 327 325 323 321 319 321
325 325 325 326 327 328 328 327 327 327 328 328 328 329 330 330 330 329 330 330 332 331 330 331 332 333 334 335 332 331 332 331 333 335 334 335 334 335 334 334 333 333 331 331 331 331 331 331 330 330 329 328 327 328 327 326 327 326 325 324 324 318 318
325 325 325 325 326 326 327 328 327 326 328 328 328 327 327 326 327 329 330 330 330 330 330 331 333 334 334 334 334 334 334 333 332 335 334 334 334 335 335 334 334 334 332 332 332 332 331 331 331 330 330 330 327 327 327 326 325 325 325 323 321 322 319
324 325 325 326 326 326 326 326 326 327 327 328 328 327 324 324 326 327 328 328 327 327 328 330 332 333 333 333 333 333 333 333 332 332 333 333 334 335 335 335 334 334 334 333 333 333 333 332 331 331 331 330 329 326 326 325 325 324 323 323 321 318 318
321 324 325 325 325 324 325 325 326 326 326 327 327 327 325 325 325 326 327 326 324 325 327 329 331 332 332 331 333 332 333 332 332 331 330 332 332 332 333 333 334 334 334 328 319 322 323 322 331 330 330 330 329 328 327 326 325 323 324 322 319 319 316
318 320 322 323 324 324 325 325 325 325 325 326 327 327 325 325 325 326 324 323 324 325 327 328 323 315 318 330 331 331 332 333 332 331 330 330 329 328 329 330 327 317 313 311 308 303 303 306 311 324 329 329 328 327 326 324 323 323 322 319 318 316 315
316 318 321 322 324 324 324 324 324 324 325 325 325 325 324 323 324 325 324 322 321 321 321 318 302 304 307 311 327 331 332 332 332 331 330 328 326 325 324 323 322 316 313 309 306 297 297 297 297 298 299 302 310 329 325 322 322 322 318 318 316 316 314
317 319 321 322 323 323 324 323 322 320 320 321 322 323 324 322 322 322 322 322 320 318 315 301 295 299 301 305 315 331 331 331 330 329 327 327 325 324 322 321 320 320 320 315 311 307 301 296 296 295 295 296 295 294 299 321 320 318 319 316 315 316 318
316 318 319 320 321 322 322 322 320 320 320 320 319 319 319 318 315 315 316 317 316 314 311 295 295 297 300 302 306 319 329 329 328 326 324 323 322 322 322 321 320 319 316 314 315 313 311 307 300 298 300 300 299 298 295 294 300 326 325 322 322 321 322
312 314 315 316 317 319 321 320 319 320 318 317 317 316 315 315 313 313 315 315 315 315 313 297 295 297 299 300 304 314 327 325 324 323 322 321 321 321 321 321 320 319 320 321 321 320 319 319 320 321 321 321 319 312 304 302 302 302 315 327 325 322 323
310 311 312 311 310 309 311 313 313 313 312 314 314 313 312 311 312 313 314 315 315 313 308 294 295 297 298 299 302 309 322 321 321 320 320 321 321 322 322 322 321 320 320 323 324 321 321 320 320 319 318 317 316 313 312 314 318 321 321 322 322 320 318
308 309 309 309 307 305 304 305 306 307 308 309 309 309 308 310 311 312 314 315 313 309 303 294 296 297 298 301 304 318 319 318 317 317 317 318 318 320 321 321 320 319 317 316 307 302 310 318 318 317 315 315 313 310 304 297 295 299 308 311 311 309 307
306 306 306 307 306 304 302 302 303 304 303 303 302 302 302 305 308 312 313 313 310 307 305 298 296 297 299 302 308 316 314 314 314 314 313 313 313 314 316 318 318 317 316 314 303 298 300 307 318 316 315 314 312 309 306 302 295 293 293 293 292 292 292
305 304 304 303 303 304 303 302 301 302 301 300 300 300 302 303 304 306 308 309 310 309 307 299 296 298 299 301 307 314 313 313 312 311 310 308 308 307 306 307 315 318 316 314 296 297 299 310 314 314 315 312 311 309 308 307 306 301 294 294 293 293 293
304 304 303 303 303 303 302 301 301 301 301 300 299 300 300 300 300 301 303 304 304 305 305 301 295 295 297 300 309 313 311 310 309 308 305 303 306 305 305 302 300 305 309 301 293 296 300 309 316 316 315 314 310 309 309 312 312 311 311 310 309 308 305
304 303 303 303 303 304 303 302 301 300 300 300 299 299 299 298 297 297 298 300 300 301 300 299 297 294 296 298 300 310 310 308 304 303 304 304 305 306 306 303 298 291 292 292 293 294 296 300 313 315 315 313 310 308 311 312 311 311 309 307 306 306 305
303 303 303 303 304 305 304 303 302 301 300 300 299 298 297 297 296 296 297 297 297 297 299 298 296 292 294 296 298 301 304 302 302 302 303 304 304 303 302 300 298 292 291 292 292 293 294 296 301 313 313 311 310 307 305 308 306 301 308 306 306 306 305
302 302 303 303 303 303 304 304 304 303 301 300 299 298 298 297 297 296 296 297 296 295 296 296 297 293 292 293 295 297 303 303 302 303 303 303 302 300 298 298 298 293 291 291 292 292 293 294 295 303 302 294 293 296 309 309 309 309 307 307 306 304 304
298 301 301 302 302 301 302 302 302 303 301 299 299 298 298 297 297 296 296 296 296 296 295 295 292 294 291 292 292 293 295 298 295 303 302 301 301 299 298 297 295 292 291 291 292 292 292 293 295 295 291 292 293 294 300 307 307 307 306 305 305 303 303
297 298 299 300 300 300 300 301 301 301 300 299 297 296 296 297 297 296 295 295 296 296 296 296 293 291 292 291 291 291 292 293 295 301 302 300 300 299 297 296 294 290 291 290 290 291 291 292 294 290 291 291 293 297 305 305 304 304 302 302 302 301 301

ECMWFFLT1_sfc_thetae_090.txt.gz
Theta_e
336 338 341 340 343 342 342 343 343 342 341 341 339 338 339 339 338 338 338 338 338 340 338 337 337 338 338 340 340 341 341 337 334 333 333 334 332 332 337 337 335 335 335 334 334 328 325 323 324 332 334 333 334 334 332 332 332 334 336 336 335 335 337
337 336 337 339 339 342 341 342 343 342 341 340 339 339 339 340 338 337 338 338 338 339 338 337 337 336 338 337 339 339 340 341 340 339 335 336 335 332 333 335 335 333 333 334 334 334 327 324 322 324 327 332 333 333 335 333 333 334 335 335 336 335 336
337 337 338 337 338 338 339 341 343 343 341 339 339 339 339 338 338 336 337 337 338 339 338 338 337 336 335 336 336 337 339 338 336 335 333 335 336 335 334 334 330 329 329 330 332 331 331 331 324 322 325 328 324 328 332 332 332 333 334 336 336 335 336
337 337 335 336 336 338 338 340 340 341 342 340 340 339 339 339 339 338 338 338 339 338 337 337 337 335 336 338 338 337 336 336 335 335 334 335 336 335 334 334 330 329 329 329 330 331 330 327 326 325 327 327 322 325 331 335 334 332 332 334 334 335 336
338 335 335 335 336 337 338 338 339 339 340 340 339 338 339 339 338 338 338 338 340 340 339 339 338 337 338 337 336 336 335 334 335 334 333 330 334 334 333 334 333 332 332 330 329 330 329 328 327 325 325 326 326 326 328 330 332 331 331 331 333 334 334
339 339 338 338 339 337 337 338 337 336 337 336 338 338 338 340 338 337 337 337 339 340 339 340 338 335 336 336 335 335 334 333 334 334 333 331 332 329 332 334 332 333 332 333 332 331 332 332 329 325 325 327 324 325 327 329 329 331 331 331 333 333 333
338 338 338 337 338 338 338 337 337 336 336 336 337 338 338 339 339 339 339 339 340 341 340 337 333 335 337 335 334 334 333 335 336 333 333 335 337 336 337 336 335 334 333 334 333 333 333 332 328 326 326 326 327 323 326 326 327 326 329 332 333 333 333
336 336 335 336 336 337 339 338 338 337 336 337 337 339 337 338 339 339 340 341 340 340 338 335 334 333 334 334 333 334 334 334 334 334 335 335 334 335 334 334 335 334 334 337 334 334 334 333 331 329 327 324 324 325 323 324 326 327 326 331 333 332 333
335 335 334 334 334 336 338 339 338 339 338 338 340 339 338 338 337 337 338 339 339 340 338 335 335 335 337 335 333 331 331 332 335 333 335 334 331 331 337 335 334 333 334 334 335 336 334 334 334 333 330 328 323 320 324 322 324 324 330 327 330 332 332
334 333 333 333 334 335 336 337 338 339 341 340 338 339 338 338 337 337 337 337 339 340 336 333 334 334 336 334 332 332 334 333 333 335 333 330 333 336 333 336 335 334 337 338 337 337 337 336 335 334 332 329 326 321 320 320 323 321 324 327 324 329 332
332 333 334 333 335 334 335 334 337 337 339 340 339 338 337 337 337 337 336 336 338 339 338 336 334 334 334 334 333 336 337 337 335 335 334 333 334 334 334 333 332 330 335 337 337 339 338 337 335 335 333 331 329 324 323 320 320 325 327 329 328 326 330
332 332 333 334 334 333 333 334 334 337 339 339 338 337 335 334 336 336 336 336 336 338 339 336 332 331 335 336 336 336 336 335 334 334 332 333 336 335 331 330 332 334 336 338 339 339 339 338 336 335 334 334 331 330 327 324 319 324 328 325 327 329 329
331 332 333 333 333 333 334 334 335 336 338 338 339 337 335 334 335 335 335 335 335 335 336 336 334 333 335 335 335 335 335 334 334 333 333 336 335 334 332 330 332 334 338 338 338 338 337 338 337 334 334 334 333 333 331 326 321 321 329 331 328 328 330
331 332 333 333 333 333 334 334 334 336 337 337 337 336 334 333 334 335 335 334 335 335 336 336 335 335 334 334 335 335 334 333 332 332 332 332 332 333 333 331 333 336 339 337 336 337 336 335 336 336 334 334 332 334 332 329 324 323 329 332 328 326 329
331 332 332 333 332 332 333 334 333 333 333 334 336 336 335 335 335 337 336 335 336 336 336 335 334 334 333 332 334 334 334 333 333 332 333 332 331 333 331 332 331 336 338 336 336 334 334 334 334 334 332 332 330 332 334 328 327 325 324 330 327 328 326
329 330 331 331 332 332 332 332 333 332 332 332 334 335 335 336 337 335 335 336 334 335 335 334 334 334 333 333 332 333 332 332 332 333 333 333 330 331 332 334 332 334 336 337 336 334 333 333 333 332 332 331 329 330 330 329 326 324 323 323 326 323 325
328 329 329 330 331 332 334 333 333 331 330 333 332 334 335 336 337 336 336 334 335 335 335 335 334 333 333 333 332 332 332 332 332 333 334 333 331 331 332 333 334 335 335 334 331 333 331 333 333 331 331 331 329 328 332 331 328 326 321 321 323 321 322
326 328 329 329 330 330 332 332 333 332 332 331 332 332 333 336 337 335 334 332 334 335 335 335 334 334 334 333 334 333 332 332 332 334 336 335 332 331 333 335 335 335 335 332 331 331 332 334 333 331 330 329 329 331 332 331 329 325 324 322 322 325 324
323 324 326 329 329 329 330 330 330 331 330 330 331 332 333 334 335 333 335 335 336 334 336 335 334 334 335 334 334 333 334 333 333 335 335 335 332 332 333 334 334 334 333 331 330 332 333 333 331 331 329 328 328 331 332 331 329 328 324 322 323 322 324
321 322 324 327 329 329 328 329 328 329 330 329 329 330 332 331 330 333 336 336 336 337 336 335 335 334 332 331 330 330 331 334 335 335 334 332 333 332 334 334 335 335 334 333 333 333 333 334 332 330 330 330 328 331 331 331 330 328 327 326 322 323 321
321 322 323 324 326 328 328 329 329 329 329 329 329 329 330 331 332 334 334 335 336 337 336 335 334 332 331 330 331 332 333 335 335 333 331 331 332 334 335 334 334 334 335 334 334 335 335 333 333 333 332 331 331 330 330 330 329 327 325 326 323 320 320
320 322 324 325 325 326 327 328 329 329 329 330 331 330 331 330 328 330 333 335 335 337 335 332 336 332 332 332 330 329 334 333 331 331 330 331 334 335 335 335 336 335 335 324 315 323 326 327 334 332 333 333 332 330 331 329 328 326 327 324 322 322 319
319 321 322 324 325 326 326 327 328 328 328 329 330 329 329 329 329 329 331 331 332 332 330 331 328 318 319 326 329 330 332 332 331 331 332 332 334 335 334 335 329 318 317 316 309 305 306 307 307 323 335 334 332 331 328 327 323 321 323 323 322 320 318
319 320 320 321 323 324 325 326 327 327 328 328 329 329 328 328 329 330 329 329 330 329 329 330 315 307 310 312 326 329 331 332 334 334 334 334 333 334 335 335 333 322 320 315 312 296 297 298 297 297 296 301 316 336 330 328 326 325 326 323 321 320 319
318 319 320 319 319 320 322 324 325 325 326 327 329 330 329 327 327 328 329 328 328 328 327 313 302 303 307 309 315 330 329 328 332 334 334 334 334 334 335 335 334 333 334 330 325 318 306 296 296 296 296 296 295 295 302 325 330 326 323 320 318 318 318
316 318 318 318 317 316 316 319 322 324 324 326 327 326 326 327 327 328 327 326 326 327 324 300 297 300 303 306 309 319 332 332 334 334 334 333 334 333 333 332 332 331 323 317 322 322 318 312 298 297 299 301 301 300 298 297 302 331 326 322 323 323 324
313 315 316 316 315 313 311 312 314 318 324 326 325 326 326 325 325 326 326 326 326 326 322 300 295 298 301 303 306 314 332 335 334 334 333 333 333 333 333 331 329 327 325 325 323 319 320 318 319 322 324 325 325 318 308 306 309 309 321 329 329 327 329
312 314 315 314 313 311 309 308 309 311 314 317 317 316 316 317 317 318 321 324 324 323 315 295 294 296 298 301 305 312 333 333 330 331 331 331 331 332 332 331 330 327 326 324 324 321 322 323 326 327 326 323 319 315 312 313 318 329 331 332 330 328 327
311 313 313 312 310 309 307 307 306 307 309 310 311 313 313 314 315 317 319 321 317 313 306 294 295 296 298 301 308 328 330 330 329 328 329 328 325 329 330 330 328 326 326 326 309 305 315 327 325 322 320 319 316 311 305 297 294 298 311 318 319 317 313
309 310 311 310 309 308 306 306 305 306 306 306 306 306 307 308 309 312 312 312 311 310 309 298 296 297 299 302 314 328 327 326 325 325 326 327 326 327 328 327 326 325 323 319 304 302 303 311 321 318 317 315 315 314 310 306 296 293 293 292 292 292 293
309 309 309 308 308 308 307 307 306 305 304 303 302 302 302 301 302 304 304 306 308 308 308 299 295 297 298 300 315 324 322 321 320 318 315 316 317 315 312 311 320 321 320 318 298 301 304 316 320 320 319 317 315 314 312 311 309 303 294 294 294 294 295
307 307 308 309 308 307 307 307 307 306 305 304 302 301 300 299 299 300 301 301 301 303 305 301 295 295 295 299 315 321 320 318 314 311 312 312 312 311 310 305 303 310 314 305 295 300 300 313 323 322 321 319 316 314 314 314 313 313 313 314 314 314 311
307 306 307 309 309 308 308 307 307 306 305 303 301 301 300 298 297 298 299 299 299 300 301 301 297 294 296 298 302 315 315 313 310 309 311 312 310 310 309 308 302 292 292 293 293 293 295 305 322 323 322 319 316 314 317 317 317 316 315 314 314 313 312
308 308 308 307 308 308 307 306 306 305 304 303 302 301 300 299 297 297 298 298 298 298 299 300 298 293 295 297 299 304 310 308 309 309 310 309 309 306 305 304 301 293 292 292 293 293 294 295 303 321 320 318 318 315 311 314 312 305 314 313 312 311 310
306 308 309 308 306 305 305 305 304 304 304 304 302 300 299 299 298 297 298 298 298 298 298 297 301 294 293 294 295 299 307 308 306 306 303 303 303 302 302 301 299 293 291 292 292 293 294 296 298 310 307 298 297 299 312 311 312 312 311 310 309 308 308
302 302 305 308 307 305 305 304 303 304 304 303 301 300 300 299 298 297 298 298 298 299 298 296 293 296 292 292 293 293 295 301 298 308 305 301 300 299 299 298 296 292 291 291 292 292 294 295 298 299 293 295 296 297 304 311 310 310 309 308 308 307 307
301 300 300 302 305 305 305 304 303 303 303 302 301 300 300 300 299 298 297 297 298 299 300 300 294 292 293 291 292 292 293 293 297 304 304 302 300 299 298 296 293 290 291 291 291 291 291 293 295 292 293 294 296 300 308 308 308 308 304 304 305 306 306

ECMWFFLT1_sfc_thetae_093.txt.gz
Theta_e
338 338 340 340 341 342 336 335 339 340 340 341 342 342 341 341 341 341 341 340 341 340 341 338 337 340 342 342 342 340 338 337 334 333 332 336 331 330 334 334 336 336 335 334 334 326 324 320 322 332 338 336 335 333 335 335 334 334 335 337 337 337 337
337 338 339 340 339 340 340 336 334 340 340 341 341 342 342 342 341 340 341 341 339 339 336 335 339 341 342 340 337 334 334 335 336 335 338 336 332 331 331 331 333 332 332 333 332 330 327 322 323 324 325 332 331 334 333 336 335 335 336 336 334 336 336
338 339 339 338 339 340 339 337 336 335 338 340 342 342 342 342 342 341 340 339 339 338 339 338 336 338 339 338 336 333 335 334 337 339 336 335 334 335 333 330 328 330 328 328 327 329 328 327 321 323 326 325 323 327 330 333 333 332 334 335 336 333 335
337 338 338 338 339 340 339 338 339 338 339 338 340 340 341 341 342 341 340 340 340 340 338 336 339 336 340 341 336 336 336 335 335 334 333 332 334 335 332 330 330 328 328 326 327 328 328 325 326 323 326 327 326 325 332 334 333 332 332 336 334 336 336
341 340 340 338 338 336 340 337 337 336 337 342 342 340 341 341 340 340 340 340 339 339 338 339 339 339 340 340 337 337 337 336 335 335 335 332 336 336 333 334 332 330 330 329 328 331 328 329 326 325 324 327 327 328 329 332 333 331 333 333 332 333 337
340 341 340 339 338 340 335 338 338 337 339 339 340 339 341 341 341 339 339 339 338 339 339 340 341 340 340 340 339 339 338 337 332 333 333 335 339 336 335 334 331 330 332 334 333 331 332 332 329 324 325 327 323 327 327 330 329 333 332 333 331 333 339
338 339 339 336 338 338 337 337 337 337 337 339 339 339 341 341 341 341 341 340 339 339 339 341 338 339 339 337 337 335 337 337 336 335 338 339 339 338 336 333 333 333 332 334 331 333 332 330 328 326 324 324 324 323 329 328 329 326 328 330 333 332 332
337 337 336 337 337 337 338 336 337 335 335 337 339 340 342 341 341 341 341 340 340 338 340 335 336 339 340 340 338 337 338 338 337 337 337 338 335 335 333 332 333 333 332 333 335 333 333 333 331 328 326 322 322 324 324 327 326 325 326 330 331 332 331
336 336 336 336 337 337 337 336 335 338 335 336 338 339 339 341 340 340 340 340 341 341 338 337 337 339 337 337 337 338 338 338 336 336 337 335 334 334 333 333 331 331 333 332 333 335 333 333 332 333 329 326 321 319 322 322 323 325 328 327 330 330 330
334 334 334 335 336 336 337 337 337 339 340 339 336 336 336 336 338 339 339 338 339 339 337 338 338 338 337 336 337 337 335 336 336 336 338 334 335 335 334 333 333 334 333 333 333 334 334 333 332 333 330 327 327 321 319 318 322 323 326 331 327 328 331
333 334 334 334 335 335 335 336 336 337 337 339 338 337 335 335 336 335 336 338 338 339 337 337 338 339 337 336 337 336 336 336 335 336 336 334 333 335 335 333 334 333 335 333 333 335 335 336 334 331 331 330 330 324 324 319 320 326 326 330 329 325 329
332 333 334 335 335 334 334 334 335 335 335 339 339 337 335 336 335 337 339 339 339 337 339 336 337 338 336 336 336 336 336 334 333 334 336 335 335 334 333 332 333 333 334 335 335 334 336 335 332 333 332 330 330 329 326 324 319 326 329 329 333 328 328
331 331 333 334 334 333 333 334 334 335 334 334 338 338 335 334 332 332 338 337 336 334 335 337 337 336 336 336 336 335 335 333 331 332 333 335 334 333 332 331 330 332 333 334 334 334 334 335 335 333 331 331 331 332 332 326 322 323 332 328 329 329 330
330 331 332 332 333 334 334 334 334 337 336 336 334 333 333 332 330 331 335 336 337 337 336 335 338 338 336 336 335 335 334 332 330 332 334 331 333 331 331 330 329 332 334 334 333 333 332 334 333 334 332 330 331 332 330 327 324 323 328 332 332 327 331
329 330 330 331 331 332 333 333 335 336 337 338 335 331 330 332 333 332 331 335 337 336 337 338 337 335 334 336 334 336 334 331 332 331 330 328 331 333 332 331 331 332 334 334 332 332 332 335 333 331 331 330 329 330 332 327 325 324 325 329 328 327 328
328 328 328 330 331 332 333 334 334 335 335 336 336 333 332 333 332 332 333 336 336 336 336 334 334 335 334 333 333 332 333 331 331 330 329 330 331 331 330 332 330 331 334 332 332 335 334 331 333 332 332 330 329 331 330 329 327 324 325 324 326 324 324
326 326 326 327 329 331 333 333 333 333 333 333 333 334 334 331 330 331 331 330 334 336 335 334 332 332 333 333 331 331 331 330 330 332 331 331 333 330 328 329 333 334 332 331 332 334 331 332 334 331 332 331 336 333 332 331 330 328 327 325 324 322 322
324 324 325 325 327 328 330 332 333 333 334 334 333 334 334 332 331 331 330 329 330 330 334 331 332 334 332 332 332 331 333 331 332 333 332 334 333 332 330 330 334 332 331 331 332 330 330 332 332 332 331 330 330 330 331 329 329 329 326 322 322 323 323
322 323 324 325 326 327 327 329 331 332 333 332 334 334 333 332 331 331 332 331 331 330 332 334 331 331 332 335 336 335 332 332 332 331 333 332 332 332 332 332 334 332 331 331 331 332 331 332 332 331 330 329 330 330 330 329 330 327 325 321 321 321 322
321 322 323 324 326 327 328 328 329 330 331 331 331 332 331 331 330 331 332 332 332 332 332 331 332 332 332 331 332 334 335 332 332 333 332 331 331 332 333 332 334 333 332 333 333 332 331 333 333 330 329 329 329 333 331 329 327 324 322 320 322 322 320
321 322 323 324 324 325 327 328 329 331 331 330 330 330 330 329 331 333 333 331 329 329 331 329 330 331 332 334 335 334 333 331 330 330 330 330 335 333 333 335 337 334 331 329 333 333 334 332 331 328 332 330 331 330 329 329 327 325 324 323 321 319 320
321 323 323 323 323 323 323 324 326 329 330 331 331 331 331 331 330 330 333 332 330 331 330 330 331 331 333 331 333 334 333 332 332 331 327 329 332 334 333 333 335 334 331 328 319 322 322 324 330 328 328 330 329 329 326 326 325 325 324 324 321 320 318
320 321 322 321 322 322 321 321 322 323 327 329 330 331 332 331 329 329 331 331 331 332 330 331 326 318 318 333 334 334 333 333 332 331 329 329 332 333 333 334 333 326 318 316 312 307 307 307 313 332 332 333 329 328 327 326 326 324 323 322 322 319 316
319 320 321 321 320 319 318 318 318 318 319 324 328 329 328 328 329 329 330 330 331 330 327 327 312 307 310 315 329 334 333 332 332 331 328 329 329 330 330 329 329 322 319 313 309 299 299 300 303 307 314 318 322 335 329 327 331 327 322 324 325 318 316
317 318 319 319 318 317 316 316 314 313 314 317 322 326 328 329 328 330 327 328 329 328 328 313 303 303 305 309 317 334 333 332 331 331 330 329 328 328 329 329 329 329 330 328 322 314 304 299 299 300 298 298 297 295 304 326 325 324 324 324 323 322 318
316 317 318 317 317 316 314 313 311 310 311 314 317 321 324 326 327 328 328 328 326 327 328 301 303 303 303 302 305 321 335 332 331 330 330 329 327 329 329 329 327 330 330 325 328 325 318 311 299 299 301 303 303 302 298 299 309 331 327 326 323 323 320
315 316 317 316 315 314 312 311 310 309 310 311 312 314 316 320 324 325 325 327 326 328 321 297 297 300 302 301 302 311 332 332 331 330 327 327 328 328 330 328 329 328 328 329 329 327 323 321 321 324 325 326 325 318 307 306 308 307 320 327 325 319 326
313 314 315 315 314 313 312 311 310 308 308 308 308 308 310 311 316 320 323 326 325 316 307 294 294 294 296 296 298 304 331 331 331 328 330 329 328 327 330 327 329 328 329 328 328 324 325 324 324 325 325 321 318 314 311 311 314 328 329 328 325 326 326
311 313 314 314 312 311 310 309 308 307 308 307 307 306 306 307 308 311 314 316 316 313 308 293 294 294 295 296 294 324 327 328 327 329 330 327 328 331 329 329 328 329 328 327 313 306 315 328 326 322 319 318 315 312 306 299 296 300 312 318 317 315 311
311 312 313 312 311 310 309 308 307 307 306 305 304 304 304 304 305 305 307 309 311 310 307 296 292 294 295 295 305 327 328 326 327 328 326 323 321 316 313 321 330 327 326 323 307 302 305 312 322 320 318 316 315 313 310 307 298 295 295 295 294 294 295
311 311 311 310 309 309 309 308 307 306 304 304 303 302 303 303 302 302 302 303 304 306 305 298 293 294 294 296 310 325 326 324 320 319 315 315 316 314 310 305 318 323 320 315 298 301 305 316 319 318 317 314 313 311 310 311 310 305 296 296 296 296 297
310 311 310 310 309 308 307 307 307 306 305 304 303 302 302 302 301 300 300 300 300 301 302 299 293 293 295 297 313 327 321 318 317 317 315 313 313 313 311 305 299 301 305 299 292 294 300 316 321 320 318 316 312 311 311 313 312 313 314 315 315 316 312
309 310 310 310 309 307 307 307 306 306 305 304 303 303 303 302 300 299 300 300 299 298 299 299 295 293 295 296 303 320 318 316 314 313 313 310 308 308 307 305 299 292 292 293 294 293 295 306 321 321 321 318 313 313 316 317 318 317 316 315 314 314 313
306 308 310 311 309 307 307 307 306 305 304 304 304 302 302 301 301 300 300 300 298 297 297 298 297 292 293 294 296 305 313 312 311 310 308 306 306 304 303 301 299 293 292 293 294 295 296 297 302 316 317 316 315 313 311 314 314 307 314 313 312 311 311
305 306 307 309 309 307 307 307 307 306 304 304 303 303 303 302 301 301 301 301 299 298 298 295 297 293 292 293 293 297 308 309 307 307 304 303 301 299 299 298 298 294 292 293 294 295 295 296 298 305 301 297 298 300 314 313 313 313 312 311 309 308 309
303 304 304 306 306 306 306 306 306 306 304 302 301 301 302 301 301 300 300 300 301 300 299 296 293 294 292 292 293 293 295 300 297 307 304 301 299 297 298 297 296 294 292 292 292 293 294 296 298 298 294 295 296 298 305 311 310 310 309 308 307 306 305
305 305 304 303 303 303 304 305 304 304 303 301 299 299 299 300 300 299 298 299 299 300 301 299 295 292 292 291 291 292 292 292 295 301 301 299 298 297 296 296 295 292 293 293 293 293 292 294 295 294 295 296 298 300 310 308 307 307 304 305 304 305 304

ECMWFFLT1_sfc_thetae_096.txt.gz
Theta_e
338 339 342 343 343 342 341 340 341 343 341 341 341 341 341 341 340 340 339 339 338 337 336 336 336 337 337 337 336 335 336 334 332 330 329 329 326 328 334 332 332 333 332 333 331 324 322 318 321 327 329 328 329 330 331 331 331 332 332 335 334 333 333
338 339 342 343 343 342 340 341 340 339 339 340 340 340 341 340 339 340 340 338 339 338 336 336 337 337 336 334 334 332 331 333 331 332 331 328 329 329 330 330 332 331 332 333 332 328 322 319 320 321 322 326 328 330 330 334 331 332 332 332 333 334 333
339 339 340 341 341 341 339 340 340 340 339 340 341 341 340 340 340 340 340 339 338 339 339 337 337 336 335 333 332 332 333 333 334 333 332 332 331 333 332 330 328 328 328 328 328 327 326 325 319 320 322 321 320 325 329 330 330 332 333 333 331 333 332
338 338 338 338 339 339 337 336 337 339 339 338 340 341 341 341 341 340 339 338 338 339 338 337 336 336 335 333 333 332 334 335 334 334 332 334 334 333 332 331 329 328 326 324 324 326 324 322 321 321 323 323 324 323 327 330 329 331 332 332 331 330 333
338 336 336 337 338 336 337 337 338 337 336 338 341 339 340 340 339 338 338 339 337 337 338 337 337 336 335 335 333 333 334 335 335 334 331 331 333 332 332 332 331 331 330 328 329 327 324 323 323 321 322 324 325 325 328 329 332 330 331 333 333 332 332
337 337 336 336 339 338 337 336 336 334 335 336 335 335 336 338 337 337 337 337 335 335 336 337 336 336 336 334 332 333 334 334 333 333 332 332 332 331 331 333 332 331 330 330 330 327 327 327 325 321 324 326 321 322 326 328 326 329 331 331 334 333 333
335 336 336 336 337 337 338 337 336 336 335 336 335 335 335 335 334 333 335 335 335 334 335 335 335 336 335 334 333 331 332 333 333 333 332 332 332 332 333 331 331 330 330 331 331 329 328 325 323 321 321 322 322 323 325 325 327 325 326 330 331 331 331
334 333 334 335 335 336 336 336 337 337 337 337 338 338 336 334 336 337 334 333 333 334 335 334 333 335 335 335 333 332 332 334 333 332 331 331 330 331 332 332 330 329 330 332 332 330 330 329 326 324 322 318 319 322 322 325 326 326 324 327 328 331 330
333 333 333 334 335 336 335 335 335 336 337 337 338 338 339 339 337 337 333 333 333 334 333 334 335 332 332 331 332 331 330 334 332 331 330 331 330 331 331 332 332 331 331 331 332 330 330 330 329 326 325 323 319 316 319 318 320 321 328 325 328 331 330
330 330 331 332 334 335 335 336 335 335 337 338 338 339 339 338 338 336 335 334 334 334 332 332 334 335 333 332 331 331 331 332 332 331 330 330 329 332 331 332 331 332 332 332 332 331 332 331 329 328 329 325 324 319 315 316 318 319 322 325 324 328 332
329 329 330 331 332 333 334 335 335 334 335 336 337 338 337 336 337 337 335 334 333 333 333 334 333 332 331 331 332 333 331 331 330 330 330 331 330 331 330 332 331 331 332 331 330 331 332 332 332 331 330 328 326 322 319 316 317 322 321 325 326 325 328
328 328 329 330 331 331 332 333 333 334 335 336 336 336 336 334 336 335 335 334 333 329 329 330 333 333 331 331 332 331 332 332 331 329 331 331 330 330 330 330 331 331 332 331 330 331 332 333 332 332 330 329 325 325 324 321 317 322 326 322 324 327 327
327 328 329 329 329 329 330 331 331 332 334 334 334 335 335 335 336 335 335 334 333 331 332 332 332 332 331 331 331 330 331 331 331 329 330 332 332 331 331 331 331 330 332 332 332 332 332 333 333 331 332 329 328 326 327 323 320 320 328 325 324 327 329
327 327 327 327 327 328 329 330 332 333 333 333 334 334 335 333 333 333 333 331 330 331 329 329 330 331 330 330 330 331 332 331 329 330 330 330 331 332 330 331 331 331 332 331 331 332 331 332 333 333 330 327 327 331 327 322 321 320 324 327 327 325 327
325 325 326 326 326 325 326 327 329 331 332 333 333 333 334 334 334 333 332 331 331 331 331 330 330 330 331 330 328 330 329 330 329 329 331 329 330 331 331 330 331 331 332 331 331 331 331 331 331 330 327 327 328 329 328 325 323 322 321 325 325 327 328
323 324 324 324 324 325 326 326 327 327 329 332 333 333 333 333 332 331 332 332 332 331 330 330 330 331 330 330 328 329 329 328 327 329 329 329 330 331 331 330 330 330 331 331 331 331 331 332 332 329 327 329 326 325 326 325 326 322 322 322 325 323 324
322 322 322 323 324 325 325 327 327 327 328 330 331 333 333 332 332 332 331 331 331 331 330 330 331 332 331 330 328 327 329 329 329 329 330 330 330 331 330 329 330 330 330 329 331 331 331 329 329 329 328 327 328 326 328 327 326 325 323 322 322 323 325
321 321 322 323 325 325 325 326 327 327 328 327 329 331 331 332 331 332 329 331 330 330 329 330 329 329 329 329 329 329 328 328 329 330 330 329 331 330 330 329 330 330 329 329 330 331 330 329 329 327 325 327 329 328 328 325 326 327 322 321 321 322 322
319 320 322 323 324 324 323 322 323 324 325 326 328 329 330 330 331 331 331 330 331 332 331 331 330 329 329 330 329 329 329 329 329 329 329 330 330 331 329 329 329 329 329 329 328 329 328 328 330 328 327 325 325 326 325 324 324 325 325 322 321 319 320
319 320 322 322 322 321 320 320 319 319 321 322 322 325 328 329 329 330 329 330 330 330 331 332 332 330 330 330 329 328 327 327 328 329 328 329 329 329 330 329 328 329 328 328 329 329 327 328 325 326 327 324 323 325 324 324 324 323 325 321 320 320 318
318 320 321 321 320 320 318 317 317 317 317 317 319 320 322 327 329 330 329 329 329 330 330 330 331 330 329 330 329 328 328 328 329 328 329 329 330 328 329 330 329 329 328 329 329 327 329 326 324 325 326 326 324 325 325 323 323 322 321 319 317 316 316
318 319 319 319 318 317 316 316 315 315 314 315 316 318 321 325 327 328 330 328 327 328 329 330 330 330 329 329 330 329 328 328 328 327 328 328 328 328 327 328 329 329 329 329 323 322 323 325 327 325 327 326 324 325 322 322 320 321 320 318 317 318 315
317 318 318 317 316 315 314 314 313 312 312 312 313 316 318 321 323 325 327 327 327 327 328 329 327 318 319 330 328 328 327 327 328 326 327 327 326 328 329 327 329 329 323 321 318 312 313 316 321 326 327 327 326 323 321 322 321 321 320 317 316 316 313
316 315 316 316 315 313 313 313 312 311 311 311 311 312 314 314 317 321 324 326 326 325 326 328 311 305 305 311 328 328 327 327 328 327 327 326 327 327 328 327 325 322 317 317 312 304 305 308 311 312 315 318 323 323 322 322 321 319 318 318 320 318 313
313 314 315 313 313 312 312 311 310 310 309 309 309 309 309 310 312 316 319 321 323 325 327 313 301 301 300 300 312 327 326 325 325 325 326 324 326 328 326 325 324 323 323 319 315 311 305 299 298 298 298 300 308 311 313 320 321 319 319 319 317 317 317
312 313 313 313 312 312 311 310 309 308 307 308 307 307 307 307 308 310 312 315 317 315 314 297 294 295 298 300 303 318 326 325 324 325 325 326 326 326 327 325 324 326 326 318 320 316 313 308 303 302 303 303 302 305 307 308 311 321 324 321 318 318 321
311 312 312 312 311 310 309 308 307 307 307 306 305 305 305 305 305 306 307 309 313 311 307 297 292 294 294 294 296 306 326 326 325 327 327 325 324 324 324 323 322 323 325 323 321 319 319 320 321 322 320 317 315 310 303 303 306 308 317 323 321 319 322
311 311 311 311 310 308 308 307 306 306 306 305 304 303 304 303 302 303 303 304 308 309 307 295 292 292 293 293 293 305 325 326 325 324 325 325 324 325 325 325 325 325 325 325 321 319 321 321 322 317 314 311 308 305 306 311 319 325 325 322 316 314 315
310 310 310 309 308 307 307 307 305 305 305 304 304 303 303 302 301 301 301 301 302 304 305 296 293 292 293 294 301 321 325 325 323 321 317 315 315 318 323 324 321 320 322 324 313 307 315 322 318 314 312 309 307 305 302 299 297 308 315 313 310 308 305
309 310 309 308 307 306 306 306 306 306 304 304 303 302 302 301 301 300 300 299 299 301 302 298 293 293 293 298 313 323 322 319 317 315 312 311 310 310 314 323 323 323 321 314 303 302 305 311 317 315 312 309 308 307 305 303 297 296 296 296 295 296 296
308 308 308 306 306 306 307 306 306 306 304 303 302 302 302 302 301 301 300 298 298 298 300 298 293 293 296 302 312 320 318 315 313 312 310 310 309 306 304 305 313 313 311 308 301 301 303 312 316 314 311 309 307 306 306 307 305 301 296 296 297 298 298
307 307 307 307 307 306 306 306 305 305 305 304 303 303 303 302 301 301 301 300 299 297 297 297 294 293 297 300 311 319 317 314 312 310 308 306 306 305 303 300 299 299 302 298 297 301 303 311 314 312 311 309 308 307 308 309 308 310 312 313 313 312 308
304 304 305 307 306 306 306 306 305 304 304 304 303 303 302 302 301 301 301 300 299 297 296 296 295 292 295 297 302 314 314 311 307 306 306 305 303 302 301 300 298 294 293 293 294 296 301 305 314 314 312 309 307 306 311 314 313 311 310 309 309 309 308
303 303 304 305 306 306 305 304 303 302 301 302 302 301 301 301 301 300 300 300 300 298 297 295 294 292 293 294 297 302 307 306 305 304 302 300 300 299 299 298 298 294 294 294 294 295 296 298 303 314 314 313 312 310 308 310 309 305 309 308 307 306 306
305 304 304 304 303 303 305 304 303 302 301 300 300 300 300 300 299 299 299 299 299 299 300 296 295 292 292 293 293 295 303 303 303 302 300 299 298 297 297 297 296 294 292 293 294 295 295 296 297 304 301 296 297 300 310 310 310 309 308 306 304 303 303
303 304 304 303 302 301 302 304 303 302 300 299 299 298 298 299 299 298 298 298 297 298 299 299 294 294 292 292 292 292 293 296 296 300 298 296 296 296 297 297 297 294 292 292 293 293 295 296 298 297 295 296 296 297 301 305 304 304 304 303 303 302 301
300 300 301 302 301 299 299 300 302 301 299 298 297 296 297 297 297 297 297 297 296 296 297 299 297 294 294 292 292 292 292 292 294 297 298 297 296 296 296 296 295 293 293 293 293 293 293 294 296 295 296 296 298 299 306 305 304 303 300 300 300 300 300

ECMWFFLT1_sfc_thetae_099.txt.gz
Theta_e
328 329 333 334 333 334 334 334 334 334 336 336 336 336 337 337 336 335 335 335 334 333 333 333 332 333 333 334 334 334 333 332 331 329 327 326 326 325 329 327 327 328 329 328 325 321 318 317 320 326 326 327 327 327 329 330 329 327 328 329 329 331 331
331 331 332 333 334 333 332 332 332 333 334 335 335 336 336 337 337 335 334 333 333 333 334 333 333 333 333 332 332 332 331 332 332 331 329 327 326 326 326 326 325 326 327 327 326 322 318 316 317 321 321 325 325 325 326 328 327 328 328 329 330 331 330
330 332 332 331 332 333 332 331 332 333 333 333 333 334 333 335 335 333 333 333 333 333 334 333 332 333 333 332 332 331 331 330 331 331 329 327 327 328 328 328 326 326 324 323 323 323 322 321 318 319 321 320 318 322 326 326 326 328 329 329 330 331 330
334 334 333 331 331 330 330 329 331 332 333 333 334 335 335 336 333 333 332 331 331 332 333 334 331 330 331 332 331 330 330 330 330 330 327 327 327 326 327 327 327 326 324 321 322 324 321 319 318 319 321 321 321 320 325 328 327 327 329 329 329 330 330
332 332 332 332 332 331 330 329 329 329 328 329 330 331 332 332 331 332 332 332 331 331 332 332 333 332 332 331 330 329 328 329 330 330 330 327 327 327 327 330 329 329 327 325 326 326 323 321 320 319 320 321 321 323 326 326 327 328 329 328 329 329 329
328 329 329 329 331 332 333 331 327 326 327 327 328 330 329 331 332 330 331 331 331 329 330 332 332 332 333 329 328 328 328 329 330 330 329 329 329 329 328 330 330 329 328 328 328 326 325 324 322 318 320 322 318 321 325 326 324 327 329 329 330 329 329
327 327 327 328 330 330 332 331 331 330 329 329 329 328 331 331 331 330 330 330 331 331 331 330 331 331 331 330 330 328 328 330 331 331 330 330 329 329 329 328 329 329 329 329 328 326 324 323 321 320 319 319 319 319 323 323 326 322 325 327 330 331 330
325 325 326 328 328 328 329 329 329 330 330 331 331 331 331 331 330 331 330 329 329 330 330 330 331 331 330 330 329 330 330 330 329 331 331 330 329 327 327 327 328 328 329 329 328 326 326 325 323 321 320 317 317 318 318 322 323 323 322 326 329 328 329
324 324 324 325 326 327 327 328 328 328 329 329 331 331 332 330 330 331 331 330 329 328 327 329 329 329 330 329 329 329 328 331 328 327 329 329 328 327 328 329 327 328 329 329 329 328 327 326 325 324 322 320 317 313 317 318 320 321 326 324 326 328 329
321 321 322 322 324 326 326 327 327 329 330 330 331 331 331 330 330 330 330 330 329 328 327 328 328 328 329 328 327 328 327 329 328 328 330 329 329 328 328 328 328 329 329 329 329 329 328 328 327 325 324 322 320 317 314 315 317 319 323 324 320 325 329
322 323 323 323 323 324 324 325 326 326 327 331 332 332 330 329 330 333 331 330 329 328 327 327 329 329 328 326 327 329 329 328 327 328 329 330 330 329 328 327 329 330 330 329 329 329 329 329 327 325 324 324 323 319 317 315 316 319 320 323 324 323 326
323 323 323 322 322 322 322 323 323 324 326 328 329 329 328 329 329 328 329 329 329 327 326 326 327 328 328 326 327 328 328 328 327 327 327 328 328 328 327 327 328 330 330 329 329 329 329 329 327 326 326 326 324 323 319 318 314 318 322 319 322 326 326
320 320 321 320 320 320 320 321 322 322 323 325 327 328 328 329 326 327 328 329 329 328 326 326 327 327 328 327 327 326 327 328 327 326 327 328 328 328 327 327 327 328 330 329 328 328 328 329 329 326 325 325 324 324 322 319 318 317 321 321 323 324 325
318 319 319 319 318 319 320 320 321 322 323 323 325 327 327 328 328 327 328 328 327 326 325 324 325 325 326 326 326 327 328 328 328 328 327 327 328 327 326 326 327 329 330 329 328 328 328 328 328 325 325 325 324 324 323 320 317 316 320 322 323 323 324
316 317 317 318 318 319 319 320 321 322 321 323 324 325 326 327 328 327 327 327 327 327 326 326 325 325 325 325 325 327 327 327 327 327 327 327 327 329 328 325 327 328 330 329 329 329 328 327 328 326 324 324 324 323 325 321 319 318 318 319 321 325 324
316 316 316 317 318 319 320 319 319 317 318 319 320 322 322 325 328 326 326 326 326 326 326 326 325 325 325 325 325 326 327 326 324 324 325 326 327 328 328 325 326 327 328 328 328 329 329 328 328 328 324 324 322 322 324 323 320 319 319 319 322 322 322
315 315 315 317 318 317 316 316 316 315 315 316 316 317 319 322 325 327 326 325 325 326 326 325 325 326 326 326 326 327 327 326 325 325 325 326 326 327 327 326 325 325 326 326 327 327 327 328 328 327 323 322 323 323 324 322 324 320 320 319 320 322 322
314 314 315 317 315 315 314 314 314 314 313 313 314 315 317 319 321 325 326 327 326 326 326 326 325 325 325 325 327 327 327 326 326 326 326 325 327 326 326 326 326 325 325 324 325 325 325 325 327 324 323 323 323 323 324 324 322 322 320 320 319 321 323
313 313 315 315 313 313 312 312 312 313 313 312 313 314 315 316 320 323 325 326 326 325 326 326 327 327 326 325 324 325 326 326 327 326 325 326 327 326 326 326 327 326 324 324 324 324 325 325 325 323 323 323 322 323 322 322 322 322 321 320 319 317 321
312 313 314 313 312 312 311 311 312 311 312 312 311 311 313 314 315 318 322 324 325 326 326 326 326 326 327 326 325 325 325 325 325 325 326 327 327 326 326 327 327 328 326 324 324 324 323 324 324 323 323 322 323 322 321 321 322 321 320 319 320 319 319
312 314 313 312 311 311 311 311 311 310 311 310 310 310 310 310 311 314 317 321 323 324 325 324 325 326 326 326 326 326 325 324 323 323 324 325 326 327 326 326 326 327 326 325 325 325 324 322 325 324 323 323 322 322 321 321 320 320 319 319 318 317 318
312 312 312 311 310 310 311 310 310 309 309 308 308 308 309 308 309 310 312 315 318 320 322 321 314 307 314 323 326 326 326 325 325 324 324 324 325 326 325 325 326 326 327 327 322 321 322 322 325 323 323 322 322 322 321 320 319 318 317 317 316 316 316
311 311 311 310 310 309 309 309 308 307 308 307 307 307 307 306 306 307 307 309 313 315 314 309 304 298 299 307 315 324 327 324 324 324 323 323 324 325 325 325 326 328 323 321 317 312 311 313 318 324 324 322 322 322 321 319 318 318 317 315 315 315 313
311 311 311 310 309 309 308 308 307 306 306 306 305 305 305 304 303 304 304 305 307 311 311 307 298 294 294 297 308 317 323 323 324 323 323 323 322 322 323 324 323 325 322 319 316 308 307 307 308 309 313 316 319 323 321 319 318 318 317 315 315 315 313
310 310 310 309 308 308 308 307 306 305 305 304 304 304 303 302 302 302 302 303 303 306 308 305 295 294 294 293 299 312 322 323 322 321 322 323 322 321 322 321 320 321 321 320 315 313 310 305 305 307 308 309 309 310 312 320 319 318 318 316 315 315 312
309 308 307 308 308 307 307 306 305 305 304 304 304 303 302 302 301 301 301 300 301 303 304 300 295 294 293 293 293 301 320 322 320 321 322 322 323 322 320 320 321 322 322 319 319 315 312 307 302 305 308 306 305 306 304 305 311 319 319 317 316 314 315
308 306 306 307 307 306 305 305 305 305 304 304 303 302 302 301 301 301 300 299 299 301 302 299 294 293 293 292 292 296 319 320 319 322 323 323 322 321 321 320 320 320 319 318 316 316 315 314 314 316 317 318 317 309 303 305 305 307 313 318 317 315 317
307 306 305 305 305 305 304 304 304 304 304 303 302 301 301 301 301 301 300 299 299 299 300 296 293 292 292 292 292 294 321 322 319 318 320 321 320 320 321 321 320 319 318 318 317 317 319 318 315 313 313 310 308 309 313 316 319 321 320 320 315 313 312
305 306 304 303 304 304 303 302 302 304 303 303 303 302 302 301 300 300 300 299 298 297 298 295 293 293 293 292 291 314 319 315 313 311 310 311 311 312 318 320 319 320 320 318 311 306 310 314 312 310 309 307 306 305 302 298 299 309 313 310 309 307 305
302 303 303 302 301 302 301 300 301 303 302 302 301 301 301 300 300 300 300 299 297 296 297 296 292 294 296 298 307 314 312 310 309 307 306 307 306 305 307 317 320 319 318 316 303 299 301 307 312 310 309 307 305 303 301 300 297 296 296 296 295 295 295
302 301 301 301 300 300 299 299 299 301 300 300 300 300 300 300 299 299 299 298 298 296 296 296 293 294 296 299 306 311 309 308 306 305 304 303 303 303 303 302 309 313 313 311 298 300 301 308 311 309 308 306 304 303 303 304 303 300 296 297 297 297 297
301 301 300 301 302 300 299 298 298 298 299 300 300 300 300 299 299 298 299 299 299 296 296 295 293 293 294 297 305 310 307 304 302 302 302 301 301 301 300 300 299 299 307 303 296 299 301 308 311 310 309 306 305 304 305 308 308 308 307 306 306 306 303
301 300 299 299 299 300 299 298 297 297 297 298 298 299 299 299 298 297 298 298 298 297 296 295 294 292 293 294 297 305 304 302 300 299 300 300 299 299 298 298 298 292 293 295 296 297 298 301 309 310 309 307 306 306 310 309 308 307 305 304 303 303 303
299 299 298 297 297 298 298 297 296 296 296 297 297 298 298 298 298 297 297 297 298 298 298 296 295 292 293 293 294 298 301 301 300 299 299 298 298 297 297 297 297 293 292 293 294 295 296 297 301 310 309 308 308 307 305 306 305 303 304 303 302 302 302
298 298 297 296 295 295 297 298 297 295 296 296 296 296 297 297 297 297 296 296 297 298 299 297 296 294 293 293 292 293 297 297 298 299 298 297 297 297 297 297 296 294 292 292 293 294 294 295 297 303 301 297 297 299 306 306 305 304 303 302 302 301 301
298 298 297 296 294 294 295 295 296 295 294 294 294 294 295 296 296 296 295 295 296 296 298 298 295 295 293 293 293 293 292 294 294 298 297 295 295 296 297 297 297 295 293 293 292 293 294 295 297 296 294 294 295 296 300 303 301 302 301 300 300 299 299
297 296 296 295 294 293 293 294 294 295 294 293 293 293 294 294 295 294 294 294 294 295 296 297 296 294 294 293 293 293 292 292 293 296 296 295 295 295 295 295 295 293 293 293 293 293 293 294 295 294 295 295 296 298 302 300 300 299 298 298 299 299 299

ECMWFFLT1_sfc_thetae_102.txt.gz
Theta_e
325 325 327 329 328 330 329 330 330 331 331 333 332 332 333 334 334 333 333 332 332 332 332 332 332 332 331 332 331 331 331 331 329 328 327 326 323 324 327 326 326 327 327 325 324 321 319 317 318 325 328 326 326 326 327 328 328 328 327 328 327 326 325
327 328 328 329 330 328 330 328 330 331 331 332 333 332 332 334 334 333 332 331 331 331 332 332 332 331 331 331 330 330 331 331 329 329 327 327 325 325 325 325 326 325 325 324 325 323 318 318 318 320 321 325 326 326 327 328 328 329 329 328 329 328 326
329 330 329 328 329 330 330 329 331 330 330 331 330 332 331 333 332 332 331 331 330 331 332 331 331 329 330 331 332 330 330 330 331 330 329 328 327 327 326 326 324 324 323 322 323 322 321 321 318 320 321 320 319 323 326 326 328 328 328 329 329 329 328
329 329 330 330 331 330 328 327 328 332 331 331 331 331 331 332 331 330 329 330 330 331 332 331 330 330 330 330 332 332 331 330 330 331 329 329 328 327 326 325 325 324 323 320 320 321 320 318 318 320 322 323 322 321 324 326 327 328 328 327 328 329 329
329 328 328 328 329 329 328 326 327 328 330 331 331 330 329 329 330 330 331 330 330 329 327 330 331 331 331 330 329 328 328 329 330 330 330 328 328 326 325 326 325 325 324 323 323 323 322 321 320 319 321 323 322 322 325 325 326 326 327 326 327 329 329
327 326 326 326 327 328 329 329 329 329 329 327 328 327 328 328 329 330 330 329 329 329 329 330 330 330 330 330 329 329 329 328 328 328 327 327 328 325 324 325 326 325 325 326 326 325 326 324 321 317 320 323 319 321 324 325 323 326 327 327 327 329 329
324 324 323 323 323 325 327 327 328 329 329 328 327 326 329 329 329 329 330 330 330 330 329 328 329 329 330 329 328 327 327 328 328 327 327 326 326 327 327 325 325 326 327 327 326 326 325 319 318 319 319 319 319 320 323 324 326 322 325 327 328 329 329
321 320 320 321 321 322 323 323 324 326 326 327 327 328 328 328 329 329 328 328 328 328 328 329 329 328 328 328 328 328 328 328 328 328 327 327 326 327 328 327 325 325 327 328 327 326 326 324 321 321 320 316 317 319 318 322 323 323 323 325 327 328 329
320 319 320 320 320 320 320 321 321 322 323 323 325 327 329 329 329 328 328 328 328 327 327 328 328 328 328 328 328 328 327 329 328 328 328 329 328 329 328 328 326 326 327 327 327 328 328 327 326 322 321 320 317 313 318 317 319 321 325 322 326 329 329
319 319 318 317 318 319 319 320 320 321 321 322 324 326 328 330 330 328 328 327 327 327 327 327 327 327 328 327 326 326 326 327 328 328 328 327 328 328 327 327 326 326 326 327 327 327 326 326 325 324 323 322 321 317 314 315 317 319 322 324 321 325 328
320 319 317 317 318 318 318 319 319 320 320 322 323 325 325 325 326 329 328 327 327 327 327 326 326 327 328 328 327 326 326 326 326 327 327 328 327 328 326 326 326 325 326 325 326 327 327 326 324 324 324 324 323 319 317 315 316 321 321 324 324 323 326
315 316 316 317 316 316 317 318 318 318 319 320 321 321 322 323 324 326 326 327 327 326 327 327 326 326 327 327 327 326 326 326 326 326 327 327 327 328 328 326 326 326 327 326 326 327 328 327 325 325 324 324 322 322 319 318 314 318 323 321 323 325 326
315 316 316 316 317 317 317 317 316 315 316 317 317 318 318 319 321 322 325 326 325 325 326 326 325 325 324 325 326 326 326 326 326 326 326 327 327 328 328 327 326 326 328 328 327 327 328 328 328 326 323 323 323 323 321 318 317 315 321 322 322 323 326
314 315 315 316 316 315 315 314 313 313 313 313 314 314 315 316 318 320 324 326 326 325 324 324 324 324 325 326 327 327 327 327 326 325 326 326 327 327 327 327 327 327 327 327 327 327 328 328 327 326 324 323 323 323 321 319 317 315 318 320 322 323 325
313 314 314 313 313 312 312 311 312 312 311 312 312 312 313 315 317 319 322 325 326 326 326 326 325 324 324 324 324 326 326 326 326 326 326 326 327 327 327 326 326 327 328 326 327 328 327 326 325 325 324 323 323 322 323 320 318 317 315 317 320 323 323
312 313 312 311 310 310 310 310 312 310 310 310 311 312 313 314 315 318 321 324 325 325 325 325 324 324 324 325 325 325 326 326 326 326 326 326 327 327 326 325 325 326 327 327 327 327 327 326 325 324 324 324 322 322 322 323 320 317 317 317 321 321 321
311 311 309 309 309 309 309 310 310 309 309 310 310 311 312 311 312 313 316 319 322 323 324 324 323 323 324 325 325 325 325 326 326 326 326 326 326 326 326 326 326 325 325 325 327 327 328 327 324 324 324 323 322 322 322 322 322 320 318 317 319 321 321
309 309 308 308 308 309 310 309 310 309 309 308 309 310 310 309 309 310 312 314 317 319 321 323 324 324 325 325 325 326 326 327 327 327 326 325 326 326 325 325 325 325 325 324 325 326 327 326 325 324 323 323 322 322 322 322 321 320 319 318 318 321 321
309 308 308 308 309 310 309 309 308 309 308 307 308 308 307 307 307 308 309 311 313 315 318 321 316 314 314 317 322 326 326 327 327 327 327 326 326 325 325 326 326 325 324 324 324 325 325 323 324 323 322 322 322 322 322 321 321 320 320 319 318 318 320
308 308 308 309 309 309 308 308 308 307 307 306 306 306 306 305 306 306 306 307 308 310 315 314 310 307 307 308 313 320 325 326 326 326 327 327 326 325 325 325 325 325 324 323 323 323 322 322 323 322 321 321 321 321 320 320 320 320 320 319 318 319 319
309 309 309 309 308 308 307 307 307 307 306 305 305 305 305 304 304 304 305 305 306 307 311 311 308 305 303 303 305 312 320 324 325 325 325 326 325 325 325 326 325 325 325 325 324 322 323 322 323 323 322 322 321 321 320 319 319 319 319 318 318 317 319
309 308 308 308 308 307 306 306 306 306 305 305 305 305 304 304 303 303 303 303 303 304 307 309 308 305 300 299 301 303 312 321 325 324 324 324 324 324 324 325 325 325 327 327 321 319 320 320 323 322 321 322 321 320 319 319 319 319 318 318 317 317 317
307 307 307 307 307 306 306 306 305 305 304 304 304 304 304 303 303 302 302 302 302 302 304 306 307 302 299 298 298 300 306 316 322 324 323 323 323 323 324 324 325 326 322 320 317 310 308 310 315 323 322 322 321 320 319 318 318 319 318 317 316 316 315
305 305 306 306 305 305 305 305 305 304 304 304 303 303 303 302 302 302 301 301 300 301 302 304 300 295 295 295 296 298 302 310 320 323 323 322 322 322 323 324 323 324 321 319 317 307 305 305 305 309 310 315 319 321 318 318 317 319 317 317 317 316 316
304 304 304 304 303 304 304 304 304 303 303 303 303 303 302 301 301 301 301 301 300 300 301 302 296 294 293 293 294 297 300 307 319 322 322 321 321 321 321 322 321 322 323 323 321 319 311 304 303 305 305 307 307 309 311 318 318 318 318 317 316 316 316
302 302 303 302 302 301 302 302 303 303 302 303 302 301 301 300 300 300 300 299 299 299 299 298 294 293 293 293 293 294 301 310 320 320 320 321 320 320 320 320 320 321 323 322 324 321 318 312 304 304 305 305 305 304 305 307 309 321 321 318 317 316 317
301 300 301 300 300 299 299 299 301 302 302 302 301 300 300 299 299 299 299 299 298 298 299 296 293 294 296 293 292 293 302 315 318 316 314 315 317 319 320 320 319 319 318 320 319 317 315 312 315 315 314 314 315 310 303 304 303 306 313 320 318 316 317
301 300 299 298 298 297 297 297 299 301 301 300 300 299 299 298 299 299 299 298 298 297 298 294 293 294 297 299 299 300 313 311 309 309 308 308 307 308 312 318 318 317 317 316 315 315 315 314 315 317 316 315 314 314 314 314 317 318 317 320 319 318 317
299 299 299 297 297 296 296 296 297 299 300 300 300 300 299 299 298 298 299 298 297 296 297 293 292 293 295 297 301 308 308 307 305 305 305 305 304 305 306 307 313 317 317 316 311 303 309 315 316 313 310 308 307 306 302 298 294 306 314 314 312 310 308
297 297 298 297 295 295 295 295 295 297 298 299 299 299 298 298 298 298 298 298 297 296 296 294 292 293 294 296 301 306 305 304 304 303 302 302 302 302 302 304 306 310 315 314 303 300 302 307 312 309 307 306 305 303 301 300 295 294 294 294 294 295 296
296 296 296 296 295 294 294 295 294 296 296 297 298 298 298 298 298 298 298 297 297 296 296 295 292 292 293 294 301 304 303 302 301 301 301 301 301 300 301 301 303 303 307 304 295 297 300 308 310 308 307 306 304 302 302 303 302 300 296 296 296 296 296
295 295 295 295 295 294 294 293 294 294 295 297 298 298 298 297 297 297 298 298 299 296 296 295 293 292 293 293 299 302 302 301 300 299 299 299 300 299 299 299 298 296 299 297 294 295 297 306 310 309 308 306 303 302 303 305 305 306 306 305 305 305 303
294 294 293 294 294 294 294 293 293 293 294 295 297 297 297 297 296 296 297 297 297 297 296 295 294 292 293 293 294 300 300 299 298 298 298 298 297 298 298 298 297 292 292 292 293 294 295 299 308 309 309 306 305 304 306 304 304 304 303 302 302 302 302
293 293 293 293 294 294 294 293 292 293 293 294 295 296 296 296 296 295 296 296 297 297 297 295 295 292 293 293 293 295 297 297 298 298 297 297 296 296 296 297 296 293 292 292 293 293 294 296 299 303 303 302 302 302 301 302 301 301 302 301 301 301 301
294 294 294 293 292 292 293 293 293 292 292 293 294 295 295 295 295 295 295 296 296 296 298 296 295 293 292 292 292 292 295 295 296 297 295 295 295 296 296 296 296 294 292 292 292 293 294 294 295 300 297 294 294 295 302 302 302 302 301 301 300 299 299
293 294 293 292 291 291 291 292 292 292 292 292 292 293 294 294 294 294 294 295 295 296 296 297 294 295 293 292 292 292 292 293 293 296 294 293 294 294 295 296 296 294 292 292 292 292 293 294 296 295 293 294 294 295 298 300 299 300 299 299 298 297 297
292 292 292 291 291 290 290 291 291 291 291 291 291 292 293 293 293 293 293 293 294 294 295 296 295 293 294 292 292 291 291 291 292 295 295 294 294 294 293 294 294 292 293 293 293 293 292 293 294 293 294 294 295 296 300 299 298 298 296 296 296 296 296

ECMWFFLT1_sfc_thetae_105.txt.gz
Theta_e
322 323 325 326 327 329 328 326 327 328 328 330 331 330 329 329 330 329 329 329 329 330 332 331 330 331 331 331 331 331 331 331 330 327 326 327 324 324 326 324 324 325 324 323 322 319 316 315 318 324 326 326 326 326 328 328 327 324 323 324 324 323 322
324 325 326 326 327 328 327 326 327 328 329 329 328 330 329 330 330 329 328 327 328 329 331 330 330 331 332 332 331 330 330 331 331 331 328 327 327 326 325 324 325 324 323 323 323 321 317 316 316 318 319 325 326 326 326 328 329 328 325 325 325 325 323
325 325 325 325 326 326 326 327 329 331 332 333 333 332 329 330 329 329 328 328 328 328 329 328 328 329 330 330 331 330 331 331 332 330 328 329 329 328 327 326 323 323 323 321 321 321 320 320 316 317 319 319 318 323 326 326 328 328 328 326 326 326 324
323 323 323 323 324 325 326 328 329 330 331 332 332 333 332 331 329 329 327 327 327 329 329 328 327 328 329 330 331 331 330 330 330 331 330 329 329 328 328 327 326 324 323 320 320 321 320 318 317 318 320 321 321 320 323 326 327 328 329 328 326 326 325
321 322 322 321 322 324 325 326 327 328 328 330 330 330 330 330 329 328 328 326 326 326 327 328 328 328 329 330 330 330 329 330 330 329 329 329 329 329 328 328 327 327 325 323 322 321 320 319 319 318 319 322 322 323 325 325 327 328 328 327 328 327 326
322 321 320 320 321 322 324 324 325 324 326 326 326 326 326 327 328 326 327 326 326 326 327 327 327 328 328 328 329 329 329 328 328 328 326 326 326 326 327 327 326 326 325 326 325 323 323 323 321 318 320 323 320 321 323 324 323 327 328 327 328 328 328
322 322 322 321 321 323 323 323 323 323 323 323 322 322 323 325 326 326 327 327 327 327 327 327 327 328 328 328 328 328 328 328 328 328 327 327 327 327 327 325 325 325 325 326 325 325 322 322 320 319 318 319 320 319 322 323 325 322 324 327 329 329 329
321 320 319 320 319 319 319 319 319 320 320 320 320 321 323 323 324 325 326 326 326 326 326 326 327 327 328 329 329 329 329 329 328 328 327 327 326 326 326 325 325 325 325 326 326 325 325 323 322 320 319 315 316 319 319 322 323 322 322 325 328 327 328
319 317 317 316 316 315 316 316 316 316 317 317 319 320 321 321 322 323 324 325 326 326 325 326 326 327 328 328 328 328 327 329 328 327 327 327 327 327 327 327 326 325 326 326 327 326 326 325 324 323 321 319 316 312 317 317 319 321 325 322 326 327 327
314 314 315 314 315 315 315 315 315 315 315 316 317 318 318 318 319 320 321 322 324 325 325 325 325 326 328 328 328 327 327 328 328 327 327 327 327 327 327 327 327 327 327 327 327 327 326 325 326 324 323 321 319 316 314 313 316 318 322 324 322 325 328
314 314 314 314 314 314 313 313 313 312 312 313 315 315 315 315 316 319 318 320 322 324 325 325 325 326 327 327 327 327 328 328 327 327 327 327 327 327 327 327 327 327 327 327 326 327 327 326 326 325 323 323 323 318 317 314 315 319 319 324 324 323 327
314 314 314 314 313 312 311 311 311 311 311 312 312 311 311 313 314 315 316 318 321 323 323 324 325 326 327 327 327 327 328 328 326 326 326 326 326 326 325 325 326 326 327 326 326 326 326 326 326 325 324 323 323 322 320 317 314 318 322 321 324 326 327
313 312 312 311 310 310 309 310 310 309 310 311 310 310 310 311 313 313 314 316 320 323 323 323 323 323 325 326 326 326 327 327 326 326 326 327 327 327 326 325 326 326 327 326 326 325 325 326 326 325 324 323 323 323 321 318 316 316 321 322 323 324 327
310 311 309 310 309 308 308 309 308 309 309 308 309 309 311 311 311 311 312 317 321 323 324 323 324 324 324 325 326 326 326 327 326 326 326 326 327 326 326 326 326 327 328 326 326 326 325 325 326 325 325 323 322 323 321 319 316 316 316 319 323 323 326
309 308 308 307 308 308 308 307 308 308 307 307 308 309 311 310 308 309 311 314 317 318 321 322 323 324 324 324 325 326 326 326 325 325 326 325 326 326 326 325 326 326 328 327 327 327 327 326 325 325 324 323 323 322 323 320 318 317 316 317 320 323 324
308 307 306 306 306 308 308 308 309 308 307 307 308 309 309 307 307 308 309 311 312 313 316 318 321 320 319 321 322 324 325 325 325 325 325 325 326 327 326 326 326 326 327 326 326 325 325 324 325 325 324 323 322 322 323 322 320 317 317 317 320 321 322
306 306 306 306 307 308 308 308 309 308 307 307 307 307 308 306 306 307 307 307 308 309 310 313 317 314 313 313 313 315 319 324 325 325 325 326 326 326 326 325 326 326 326 325 325 325 325 325 325 325 324 323 323 322 322 322 322 319 318 316 318 321 322
305 306 306 307 307 308 307 307 308 307 307 306 307 307 306 306 306 305 305 305 305 305 306 308 312 311 309 308 307 308 311 315 320 324 326 326 327 327 326 325 326 326 326 324 324 324 325 325 325 324 322 322 323 323 322 322 322 321 318 317 317 320 321
306 307 308 307 307 307 307 307 306 306 306 305 305 305 305 304 305 304 304 304 304 304 305 306 309 310 308 306 305 305 306 309 313 318 324 326 327 327 326 326 326 326 325 324 324 324 325 325 325 324 322 322 322 323 321 321 321 320 320 319 318 317 319
308 308 307 307 306 306 306 306 306 305 306 305 304 304 304 304 304 304 304 304 303 303 304 305 306 308 307 305 303 302 303 304 307 312 319 325 326 327 327 326 325 325 325 325 324 324 324 324 325 323 323 322 322 322 321 320 320 319 319 318 317 318 318
307 307 307 306 305 305 305 305 304 304 305 303 304 303 303 303 303 303 303 303 303 303 303 303 304 306 305 303 301 300 301 302 304 308 313 321 325 326 326 326 325 325 325 325 325 324 324 323 323 323 322 322 322 321 320 320 320 319 318 318 317 316 317
304 304 304 303 303 304 304 304 304 303 303 303 304 303 303 303 302 302 302 302 302 302 302 302 303 304 301 300 299 299 299 300 303 306 311 317 323 325 325 325 325 325 326 327 321 319 320 320 323 321 321 321 321 320 320 320 319 319 318 318 317 317 317
302 302 302 301 301 302 303 303 303 302 302 302 302 303 302 302 301 301 301 301 301 301 301 302 303 299 298 297 297 298 298 300 303 306 310 314 321 324 324 324 325 326 321 319 317 310 308 310 316 322 322 321 321 320 320 319 318 318 318 317 317 316 315
301 301 300 300 300 300 301 302 301 301 301 302 301 301 301 300 300 300 300 300 299 300 300 301 297 293 293 295 297 297 298 300 303 306 309 314 320 322 322 323 323 324 322 320 317 308 304 304 305 307 310 314 317 321 320 319 319 319 318 317 317 317 316
299 299 298 298 298 298 299 299 300 300 300 300 301 301 300 300 300 300 300 299 299 299 299 298 293 293 294 295 296 298 299 301 304 309 314 315 315 317 318 320 321 321 322 323 322 320 312 304 301 302 304 305 305 308 311 318 319 318 318 317 316 316 316
297 297 297 297 297 297 297 297 299 300 300 301 300 299 299 299 299 299 299 298 298 298 297 295 293 294 294 295 296 297 302 308 309 309 307 307 306 307 309 311 316 319 321 321 323 323 321 317 305 301 303 304 304 304 302 303 308 320 321 319 318 317 317
297 296 296 296 296 295 295 295 297 300 300 300 299 299 299 298 299 299 299 298 298 297 296 294 293 293 294 295 296 301 307 306 306 305 304 303 303 303 304 306 309 314 318 318 317 317 318 317 315 311 310 312 314 311 303 302 302 303 311 320 319 318 319
297 296 295 295 294 294 294 295 296 298 299 299 298 298 298 298 298 298 298 298 297 296 295 293 292 293 293 294 297 300 305 305 304 303 303 302 301 301 302 303 306 309 315 315 311 304 312 315 316 315 315 314 315 315 315 315 315 314 315 320 320 320 320
295 295 294 293 293 293 293 294 295 297 298 298 299 298 298 298 297 297 297 297 296 295 295 292 292 293 293 294 298 304 303 303 302 302 301 301 301 301 301 301 302 306 308 308 301 296 301 311 315 314 312 310 309 309 304 298 294 299 313 320 321 320 319
294 294 293 293 292 292 292 293 294 297 297 297 297 297 297 297 297 297 297 297 296 295 295 293 292 292 293 294 298 302 302 301 300 300 300 300 300 300 300 300 300 300 302 301 296 294 297 305 310 309 307 306 305 304 302 303 296 295 298 301 301 303 302
292 293 292 292 291 291 292 293 294 296 296 296 296 296 297 296 296 297 296 296 296 295 295 294 292 292 292 293 297 300 300 299 299 299 299 299 299 299 300 300 301 298 297 297 294 294 298 306 309 307 306 305 303 302 302 304 305 301 295 295 294 294 295
292 291 291 291 292 291 292 292 294 295 296 296 296 296 296 295 295 295 296 296 298 295 295 295 293 292 292 292 297 298 298 298 297 297 297 298 298 298 298 298 298 296 296 295 292 294 296 303 305 305 305 304 302 301 301 303 303 304 305 305 305 306 304
292 291 290 291 291 291 292 292 292 293 294 295 295 295 294 293 293 293 294 295 296 296 295 295 294 292 292 292 293 297 297 296 296 296 296 297 296 297 297 297 296 292 292 292 292 292 293 295 300 301 300 299 299 299 302 302 302 302 302 302 302 302 302
291 290 290 290 291 292 291 291 291 291 291 292 293 293 293 293 293 293 294 294 294 294 296 294 294 292 292 292 292 294 295 295 295 295 295 295 295 295 296 296 296 293 292 292 292 292 293 293 295 299 298 297 297 298 300 301 301 300 301 300 300 300 300
291 291 291 290 290 290 291 291 292 292 292 292 292 292 292 293 293 293 293 293 294 294 296 296 294 293 292 292 291 292 294 294 295 295 294 293 293 293 294 295 295 294 292 292 292 293 293 293 294 297 295 293 293 295 299 300 300 299 299 298 298 297 297
290 291 290 290 289 289 289 290 291 292 292 293 293 293 293 293 293 293 293 293 293 294 294 295 294 294 292 291 291 291 291 292 292 295 294 293 293 293 294 294 295 294 292 292 292 292 293 294 295 294 292 293 293 294 297 298 297 298 297 297 296 295 296
289 288 289 289 289 288 289 289 290 290 290 290 291 292 292 293 293 292 291 291 293 294 294 294 294 293 293 292 291 291 291 291 291 294 294 293 293 293 293 293 293 292 292 292 292 292 292 293 293 292 293 294 294 295 298 297 296 296 295 295 295 295 295

ECMWFFLT1_sfc_thetae_108.txt.gz
Theta_e
323 323 323 325 326 328 326 326 327 329 329 330 330 330 331 331 332 329 329 330 331 332 332 332 332 333 333 333 333 333 332 332 330 328 327 328 324 326 327 326 326 326 325 324 323 320 318 316 319 326 328 328 328 328 329 329 329 327 326 326 325 325 325
323 323 324 325 325 325 325 326 326 328 329 330 331 331 329 330 332 331 329 328 328 329 331 330 331 332 332 332 332 331 331 331 331 331 329 328 328 326 326 325 326 325 325 324 323 322 318 316 317 319 320 324 326 328 328 329 330 329 327 326 326 326 325
321 321 321 322 323 323 324 324 325 326 328 328 330 331 331 331 330 330 329 328 328 328 330 329 329 330 331 332 332 332 332 331 332 331 330 330 329 329 328 327 324 325 324 323 321 321 320 320 317 318 320 320 318 323 327 327 329 330 329 327 326 326 325
319 320 319 320 321 321 322 322 323 324 325 325 327 327 329 329 329 330 329 328 328 329 330 328 328 328 329 330 331 332 331 330 330 330 329 330 330 329 328 328 327 326 324 322 321 321 320 319 318 318 320 322 321 321 323 326 327 329 330 328 327 326 325
319 319 318 318 319 320 320 320 321 322 322 323 323 322 323 324 326 326 326 326 327 327 327 327 328 328 328 329 330 330 330 330 330 329 329 329 329 329 328 328 327 327 326 325 326 324 322 321 320 319 319 321 322 323 325 325 327 327 329 328 327 326 326
319 319 318 318 318 319 319 319 319 319 320 319 320 319 321 322 323 322 324 325 326 327 327 327 327 327 327 328 329 329 329 329 329 329 328 327 327 326 326 327 327 327 326 326 325 324 323 322 321 318 319 322 318 321 324 325 323 327 329 329 329 328 327
319 319 318 318 318 318 318 317 316 316 316 316 316 317 319 320 320 321 322 324 325 326 327 328 328 328 328 328 329 329 329 329 330 329 328 328 328 328 328 327 327 327 327 327 327 325 323 322 320 318 318 319 320 319 323 323 325 323 325 329 330 330 329
318 317 317 317 316 315 315 314 314 314 313 314 315 316 317 316 317 318 320 321 322 323 325 326 327 327 328 329 329 329 330 330 329 329 328 328 327 327 327 327 327 327 327 327 326 326 326 324 323 321 320 316 317 319 319 322 322 323 323 327 329 329 329
316 315 314 314 314 313 312 312 312 312 312 312 313 313 313 314 315 316 317 318 319 321 324 325 326 327 327 327 328 329 328 330 329 328 328 328 327 328 327 328 327 326 327 327 327 326 326 326 325 324 322 319 316 313 318 317 320 320 325 323 327 329 329
312 312 311 311 311 311 311 311 311 311 311 311 311 312 312 312 313 315 315 316 317 320 323 325 325 326 327 327 327 328 328 329 328 328 328 328 328 328 328 328 327 327 327 328 328 327 327 326 325 325 324 321 320 316 314 314 317 318 321 325 321 325 329
311 311 310 310 310 309 309 309 309 309 309 310 311 311 311 311 312 312 312 313 315 319 322 324 324 324 325 326 327 327 328 328 328 328 328 328 328 327 327 327 327 326 327 328 328 328 327 327 326 325 325 324 323 318 317 314 315 319 320 323 324 323 327
310 310 309 309 308 308 307 308 308 308 308 309 309 308 309 310 309 309 309 311 315 319 323 324 324 323 324 324 325 326 327 328 327 327 327 327 328 327 326 326 327 326 327 327 327 328 328 327 326 326 325 325 324 322 320 318 314 319 323 321 324 326 327
309 309 308 308 307 307 307 307 307 307 307 308 307 308 309 308 308 307 308 310 313 315 316 319 321 322 323 323 324 324 326 326 326 326 327 328 327 327 326 326 326 326 327 327 327 327 327 327 327 326 326 325 324 324 322 320 317 316 321 323 324 326 327
307 308 307 307 307 307 307 308 308 308 308 307 307 307 307 307 306 307 307 308 308 309 310 312 315 319 319 318 318 319 321 323 324 326 326 326 327 327 326 326 326 327 327 327 327 327 327 327 327 326 326 325 324 324 322 320 317 317 318 320 324 325 327
307 307 307 306 307 307 307 308 308 308 307 307 308 307 307 306 306 306 306 306 306 306 307 307 308 313 315 314 313 315 315 315 316 320 325 325 326 327 326 326 326 327 328 327 327 327 327 327 326 325 324 324 323 323 324 321 319 318 316 317 320 324 326
307 306 306 306 306 307 307 308 308 307 307 307 307 307 307 306 306 306 306 306 306 305 305 306 307 309 311 311 310 310 310 310 311 313 316 320 324 326 325 325 325 327 327 327 327 327 328 327 327 325 324 325 323 323 324 323 320 317 317 317 321 322 324
306 306 305 306 306 307 307 307 307 306 306 306 305 306 306 305 306 305 305 305 305 304 305 305 305 307 308 309 308 307 307 307 307 309 311 314 318 322 324 324 324 326 326 326 326 326 327 327 326 325 324 325 324 323 323 323 323 320 318 317 318 321 323
306 306 305 305 305 306 306 306 306 305 305 304 305 305 305 305 305 305 304 303 303 303 304 304 304 304 305 308 308 307 305 305 306 307 308 311 315 317 321 323 325 325 326 325 325 325 326 325 326 325 324 325 324 324 323 323 323 322 319 318 318 320 323
306 305 305 304 304 305 305 304 304 304 304 304 304 305 304 304 304 303 303 303 303 303 303 303 303 303 304 305 305 305 304 304 304 304 306 308 311 314 317 321 325 325 325 325 324 325 326 325 326 325 325 325 324 323 322 322 322 322 320 319 319 318 321
304 304 303 303 304 304 304 304 303 303 304 304 303 303 303 303 303 303 303 303 302 302 302 303 302 303 302 302 301 301 301 302 302 303 304 306 309 312 315 320 324 325 325 325 325 325 325 325 325 325 325 324 324 322 321 321 321 321 320 319 319 319 319
302 302 302 302 302 302 303 303 303 303 304 303 303 302 302 302 302 302 302 302 302 302 301 301 302 301 299 299 299 299 299 300 301 302 303 306 309 312 315 319 323 325 326 326 325 325 325 324 325 324 325 325 323 321 321 321 320 320 319 319 318 318 319
301 300 300 300 300 300 301 302 303 303 303 302 302 302 302 302 301 301 301 301 301 301 300 300 300 299 297 298 299 299 299 300 300 301 303 306 310 312 315 319 323 325 326 325 318 316 317 318 322 323 324 324 322 321 320 320 320 319 318 317 317 318 318
299 299 298 298 298 298 299 301 302 302 302 302 301 302 301 301 301 300 300 300 300 300 299 299 300 297 297 299 300 301 300 300 301 302 304 307 311 313 316 318 321 322 318 317 315 310 307 307 310 317 322 323 321 320 320 319 319 319 319 317 317 317 316
298 297 297 297 297 297 298 300 301 301 301 301 301 301 300 300 300 300 300 299 298 298 298 298 294 293 294 296 302 302 301 302 304 306 307 306 306 307 309 310 313 317 319 319 319 309 306 304 303 302 304 309 315 322 320 319 319 319 318 318 318 318 317
296 296 296 296 296 296 298 299 300 300 300 300 300 300 299 299 299 299 299 299 298 297 296 296 292 293 294 294 298 304 305 305 305 304 304 304 304 304 304 305 308 311 315 317 318 318 314 309 305 302 300 300 300 302 307 318 319 318 318 317 317 318 317
295 295 295 295 296 297 298 298 299 299 299 300 299 299 298 299 298 299 298 298 297 297 296 294 292 293 294 294 295 302 305 305 304 303 303 302 302 302 302 304 305 308 311 313 313 310 312 315 309 306 303 300 300 300 298 298 303 319 321 319 318 318 318
295 294 294 294 295 297 297 297 298 299 299 299 298 298 298 298 298 298 298 297 297 297 295 294 292 292 293 293 294 298 304 303 303 302 301 301 301 301 301 301 302 305 306 307 306 303 306 312 315 317 317 316 315 313 304 299 298 298 305 318 320 318 320
294 294 294 294 295 296 296 297 297 298 298 298 297 297 297 297 297 298 297 297 297 296 296 293 292 292 292 293 294 298 303 302 302 301 301 300 300 300 300 300 300 301 302 302 300 298 304 310 313 313 313 311 310 309 307 305 305 307 310 314 318 320 321
293 293 293 293 294 295 295 296 296 298 298 297 297 297 297 297 296 296 297 297 296 295 295 292 292 292 292 292 295 301 301 301 301 300 300 300 300 300 300 300 299 299 299 299 297 294 298 307 309 309 307 307 306 305 305 304 299 297 300 305 309 313 317
292 292 292 293 293 294 294 295 296 297 296 296 296 296 296 296 296 296 296 296 295 295 295 293 291 292 292 291 296 300 300 299 299 299 299 299 299 299 299 299 298 298 298 297 295 293 295 301 305 305 304 303 303 303 302 304 301 299 297 296 295 295 295
291 292 291 292 292 293 294 295 295 296 295 295 294 295 295 295 295 295 295 294 296 294 294 294 292 292 292 291 296 298 298 297 297 297 298 299 299 299 299 299 300 297 296 296 292 293 294 301 302 302 302 301 300 300 300 302 303 303 299 298 297 297 297
291 291 291 291 291 291 292 292 293 293 293 294 294 294 295 293 294 295 295 295 296 295 294 294 293 291 292 292 295 297 297 296 296 296 296 296 298 298 298 298 297 295 295 294 292 292 293 299 300 300 300 300 299 298 299 300 300 300 300 300 301 301 300
291 290 290 291 291 291 292 292 291 292 293 293 293 294 295 295 294 294 295 294 294 294 294 294 294 291 292 292 292 296 296 295 295 295 295 295 295 296 297 297 296 292 291 292 292 292 292 294 298 299 299 298 297 297 300 299 299 300 299 299 298 299 299
290 290 290 290 292 292 291 291 292 293 294 294 294 294 294 294 294 294 294 294 294 294 295 294 294 292 292 292 291 293 295 295 295 295 294 294 294 294 294 295 296 293 291 291 292 292 292 293 295 297 297 296 296 297 298 299 299 298 298 298 298 298 298
291 291 291 290 290 290 291 292 292 292 293 293 293 293 293 293 294 294 294 294 294 293 295 295 294 293 291 292 291 291 293 294 294 295 294 294 293 293 294 294 295 293 291 292 291 292 292 293 293 297 294 292 292 293 299 299 299 299 298 297 296 296 296
289 290 290 290 289 289 290 290 290 291 291 291 291 291 291 291 292 292 293 293 294 294 294 295 293 293 292 291 291 291 291 292 292 295 293 293 292 293 294 294 295 293 291 292 292 292 292 292 294 294 292 292 293 293 296 298 297 297 296 296 295 294 294
288 288 289 289 289 289 289 290 290 290 290 290 290 290 290 290 291 291 291 292 293 293 294 294 293 292 293 291 291 291 291 290 291 294 294 293 293 293 293 293 293 291 292 292 292 292 292 292 293 292 292 293 294 295 298 297 296 296 294 294 294 293 293

ECMWFFLT1_sfc_thetae_111.txt.gz
Theta_e
335 334 336 336 337 338 338 338 339 339 341 342 341 340 341 340 340 340 339 339 338 338 337 337 336 336 336 337 337 338 338 336 335 332 331 332 329 330 333 330 330 331 332 331 329 323 322 319 323 332 334 333 333 334 333 333 333 332 333 333 332 333 333
335 334 334 335 336 337 336 336 336 335 336 338 338 339 337 336 337 337 337 337 337 337 336 336 338 337 336 336 336 336 334 336 336 335 333 331 332 330 330 331 331 330 331 332 331 329 324 322 322 324 326 333 332 332 333 333 335 334 333 333 333 333 332
333 332 333 333 333 335 333 333 333 333 333 334 335 335 335 334 334 334 335 335 336 336 336 336 336 336 337 336 336 336 336 334 335 336 331 331 332 333 332 331 329 329 329 327 327 326 325 325 319 322 326 327 325 329 333 333 333 334 334 334 332 333 331
331 332 331 331 331 332 331 331 331 331 331 331 332 332 330 330 331 332 332 333 334 334 335 335 336 336 337 337 336 335 336 334 333 333 332 332 334 332 332 331 330 330 327 325 326 327 325 322 321 321 324 326 326 327 332 334 334 334 334 335 333 331 332
330 329 329 328 328 328 327 327 327 328 327 328 327 328 327 327 328 329 330 331 331 332 333 334 335 336 336 336 336 335 333 334 334 333 331 331 331 332 332 332 331 329 328 327 328 329 326 325 322 322 322 325 325 327 331 335 336 334 334 334 334 333 332
329 328 327 326 326 325 324 324 323 322 323 323 322 322 322 323 324 325 326 327 328 330 331 332 333 334 333 334 334 333 333 332 333 333 331 331 331 329 329 331 332 330 329 332 332 328 328 330 326 320 323 326 321 323 328 332 330 332 333 334 335 334 333
325 325 324 323 323 323 322 321 320 320 320 319 319 319 320 320 321 322 323 325 326 327 328 329 331 332 332 332 332 332 332 333 333 333 332 332 332 332 333 330 330 329 330 331 330 329 328 328 324 323 322 323 324 322 326 328 330 328 329 333 335 336 334
323 322 321 321 320 320 320 319 319 319 317 318 318 319 319 319 319 320 321 321 322 324 326 327 328 329 332 331 331 333 333 334 333 333 332 331 330 330 331 331 331 329 329 330 330 331 332 329 326 325 324 320 321 324 323 326 328 328 326 332 333 335 333
321 320 319 319 318 319 318 318 317 318 317 317 318 317 318 318 317 318 318 318 320 322 324 326 327 327 328 328 329 331 331 332 331 331 332 332 331 331 330 330 329 329 332 333 332 331 330 330 329 328 326 323 318 316 321 322 325 325 330 331 333 334 334
318 317 317 317 317 318 317 317 316 316 316 316 315 316 316 316 316 316 316 317 318 321 323 325 326 325 326 326 327 328 328 330 331 330 331 330 332 333 332 331 330 330 330 330 331 332 331 331 330 329 328 325 323 319 317 317 320 321 325 330 327 330 333
317 316 316 316 316 316 316 315 315 314 313 314 314 315 315 314 314 315 314 315 317 318 319 320 322 323 325 326 327 327 327 327 328 330 330 330 331 331 331 330 331 329 329 331 331 332 330 330 330 329 329 328 328 322 321 316 318 324 325 331 331 331 334
316 316 315 316 316 315 313 313 312 312 313 313 313 313 313 312 312 312 312 313 314 314 315 316 316 317 320 323 324 323 324 326 326 324 327 329 330 330 330 330 331 330 330 330 331 332 332 331 331 331 330 329 328 326 323 322 317 324 328 327 332 334 332
315 314 315 315 314 313 312 312 311 311 311 311 311 312 311 310 311 311 311 311 312 312 312 313 314 315 316 318 319 318 319 321 321 322 322 324 326 329 329 328 328 329 329 330 331 332 332 331 331 330 330 330 329 329 327 323 320 320 330 329 332 330 331
314 314 314 314 313 312 312 312 311 311 311 310 311 310 310 310 310 310 310 310 310 311 310 311 311 312 313 314 315 315 315 316 316 317 318 319 321 324 327 327 327 328 329 329 330 330 331 330 330 330 331 330 328 328 327 324 320 320 326 332 331 329 330
314 314 313 313 312 311 311 311 312 312 311 310 310 310 310 310 310 310 309 309 310 310 309 309 310 311 310 310 312 313 313 312 312 313 315 316 317 319 321 323 325 327 329 329 329 329 330 331 329 328 330 330 328 327 329 325 323 322 322 329 326 329 328
313 313 312 312 311 311 311 311 311 310 310 310 310 309 309 310 310 309 309 308 308 308 308 308 308 308 308 308 309 310 311 311 310 311 311 313 314 316 317 319 321 324 327 328 328 329 330 331 330 329 329 330 329 329 329 328 324 321 321 324 327 325 326
312 312 311 310 310 310 310 310 310 309 309 309 309 309 309 309 308 308 307 307 307 306 306 306 306 307 307 307 307 307 307 308 308 309 309 310 312 313 315 316 319 321 324 325 327 327 328 330 329 328 327 328 329 328 330 330 327 324 324 322 325 324 327
310 310 309 309 309 309 308 308 308 308 308 308 308 308 308 308 308 307 306 305 305 305 304 305 305 305 305 306 305 305 305 306 307 307 308 308 310 311 313 315 317 319 321 323 326 326 327 328 328 328 327 328 328 329 328 329 327 326 324 321 323 327 327
309 309 308 308 308 308 307 307 307 308 307 307 307 307 307 306 306 305 305 305 304 304 304 304 304 303 303 303 304 304 305 305 305 306 306 307 308 310 311 313 315 317 319 322 324 326 328 328 328 327 327 327 328 328 328 328 328 326 325 323 323 322 325
308 308 308 308 308 307 306 307 307 306 306 306 305 305 305 305 305 305 304 304 304 303 303 303 302 302 302 302 304 305 305 305 305 306 307 308 309 310 311 313 315 317 319 322 324 324 325 326 326 325 325 326 327 327 326 327 326 325 324 323 324 324 323
307 307 307 307 306 306 306 306 306 306 306 305 304 304 304 304 305 305 304 303 303 303 302 301 301 300 301 302 305 306 306 306 305 307 308 310 311 312 313 315 316 318 320 320 320 320 322 322 323 323 325 325 325 324 323 326 325 324 322 322 322 322 323
307 307 306 306 305 305 305 306 305 305 305 305 305 304 304 304 304 303 304 304 303 303 301 300 300 299 300 301 305 307 307 306 307 307 308 308 309 309 310 311 312 314 316 317 312 311 310 310 315 318 321 322 322 323 324 325 324 322 321 321 321 322 321
306 305 305 304 304 305 304 305 305 304 303 304 304 304 303 304 304 304 303 304 303 301 300 299 299 296 297 300 304 307 306 306 306 305 305 305 306 307 307 309 311 313 311 311 310 305 303 303 306 311 315 317 318 318 319 321 321 322 321 320 320 320 319
305 304 304 304 304 304 304 304 304 303 303 303 303 303 303 302 302 303 303 303 302 301 300 298 294 293 293 295 303 306 305 305 304 304 304 304 304 304 306 307 309 311 310 310 310 304 302 301 301 301 302 304 306 311 313 315 317 320 320 319 320 320 319
304 303 303 303 303 303 304 304 303 303 302 302 302 303 302 303 303 303 303 303 302 301 300 296 292 293 293 294 297 305 305 304 304 303 303 302 303 303 304 305 307 309 309 309 309 310 308 304 302 302 301 301 300 299 298 305 307 310 315 317 319 320 320
302 302 302 303 303 303 303 302 302 302 301 302 303 302 302 302 302 303 303 302 302 301 300 294 292 293 293 293 294 301 305 304 303 303 303 302 302 302 303 304 305 306 307 307 307 306 310 314 307 304 304 304 304 300 296 296 297 304 307 308 312 317 321
301 301 302 302 302 302 302 301 302 302 302 302 303 303 303 302 302 302 302 303 302 301 299 294 292 292 292 292 293 298 304 304 303 303 302 302 302 301 301 302 302 303 304 305 303 302 307 313 313 314 313 312 312 308 302 300 299 298 302 309 311 311 317
301 302 302 302 302 302 302 302 301 302 302 302 302 302 302 302 301 302 302 303 302 301 298 292 292 292 292 292 293 298 304 304 303 302 302 302 302 301 301 301 301 302 302 302 300 298 303 309 311 311 310 309 309 309 308 306 305 305 305 305 305 307 310
302 302 302 302 301 301 301 302 301 302 302 302 302 302 302 302 301 301 301 302 301 301 299 292 291 292 292 291 295 305 304 302 301 301 301 301 301 301 301 301 301 301 302 301 297 292 295 305 310 309 308 307 307 308 308 304 298 298 302 302 302 301 301
301 301 301 301 300 300 301 301 301 302 301 301 300 300 300 300 301 300 300 300 301 301 300 294 291 291 292 291 298 303 303 301 300 300 299 300 300 301 300 300 299 300 301 300 294 292 292 299 307 307 306 305 305 305 304 307 301 297 295 295 295 295 295
300 300 300 300 300 300 301 301 301 302 301 300 300 300 300 300 300 300 299 299 299 300 300 296 291 291 292 291 297 302 302 301 300 299 299 300 300 300 300 299 300 298 298 298 292 292 292 300 304 304 304 304 303 302 302 304 306 305 299 298 297 296 295
300 300 299 300 300 300 300 301 301 302 301 301 301 301 300 299 299 300 300 300 298 299 300 297 292 291 291 291 298 303 301 300 299 298 298 298 299 299 299 299 297 295 295 294 291 292 292 298 303 302 302 301 300 300 301 302 302 303 304 304 304 304 303
300 300 299 300 300 300 301 301 301 301 301 301 300 300 300 300 299 299 300 300 299 299 299 299 296 291 292 292 292 300 300 298 297 297 297 296 297 298 298 298 297 292 291 291 291 291 292 292 301 302 302 300 299 299 302 302 301 302 302 302 302 302 302
299 299 300 300 300 300 300 300 301 301 300 300 300 299 300 300 299 299 300 300 300 299 299 299 297 291 291 291 291 294 299 298 297 296 296 296 296 296 296 297 298 293 291 291 291 291 292 292 294 300 299 299 299 298 299 303 302 300 302 302 301 301 301
300 300 300 301 300 299 300 301 300 300 300 300 299 299 299 299 299 299 300 300 300 300 299 296 298 294 291 291 291 291 297 298 297 299 297 297 297 296 296 296 296 293 291 291 291 291 291 292 293 298 296 292 292 292 302 303 304 303 302 301 300 299 299
299 300 300 300 300 299 300 300 300 301 300 300 299 299 299 299 299 298 298 299 299 300 300 299 293 296 292 291 291 291 290 294 292 299 298 296 296 296 297 296 296 293 291 291 291 291 291 292 295 295 291 292 293 293 297 302 302 302 300 300 299 297 297
298 299 300 300 300 300 300 300 300 300 300 299 298 298 298 298 298 297 297 297 298 299 300 300 296 293 295 291 291 290 290 290 291 298 298 296 296 295 295 295 294 290 291 291 291 292 291 291 293 291 291 292 294 295 300 300 299 299 299 297 297 296 295

ECMWFFLT1_sfc_thetae_114.txt.gz
Theta_e
338 338 340 340 342 341 342 341 342 342 342 343 342 342 342 342 341 341 341 340 339 341 339 338 339 339 340 340 341 341 343 340 339 335 334 334 331 332 338 338 335 337 336 335 334 328 326 322 326 334 338 340 341 341 340 339 339 339 340 338 336 337 338
339 338 338 339 338 340 338 339 339 337 338 340 340 339 339 338 338 339 340 338 338 338 337 338 339 339 340 339 339 338 338 338 339 338 337 336 336 333 335 336 336 336 334 333 331 333 327 324 324 326 328 334 337 337 339 341 341 341 340 339 337 337 338
336 336 337 336 337 339 335 336 337 336 336 337 338 337 336 336 335 335 335 336 337 336 336 338 339 339 339 339 339 339 339 338 338 338 335 335 335 334 335 333 331 331 331 332 332 328 328 330 325 324 327 327 327 331 337 337 337 339 340 340 339 339 338
335 336 334 335 334 335 334 334 334 334 334 333 334 335 333 333 334 334 334 335 336 336 336 337 338 337 338 338 338 338 337 337 335 337 336 337 336 334 335 333 332 331 329 327 329 329 329 327 327 325 327 327 326 327 331 336 337 338 337 339 338 338 340
335 334 333 332 332 332 331 331 331 331 330 330 331 330 330 331 332 331 332 333 334 335 334 336 337 336 336 336 336 336 336 336 337 336 336 335 335 333 334 334 333 333 332 332 330 330 328 327 327 325 324 327 327 326 329 332 336 335 338 336 337 338 339
333 332 332 330 330 329 329 328 328 327 327 327 326 326 327 328 328 328 329 329 330 332 333 333 334 335 335 335 335 336 336 335 334 335 333 335 335 333 332 333 333 333 332 332 333 332 330 330 328 325 326 326 324 325 328 329 330 332 334 336 338 338 338
331 331 330 328 327 327 327 327 327 326 325 325 325 325 325 326 326 327 327 326 327 328 329 331 332 333 334 333 334 334 334 335 335 335 334 335 335 335 335 333 333 332 332 333 333 332 330 328 327 325 325 325 327 325 327 327 329 328 330 335 338 339 338
328 328 326 326 326 325 325 325 325 325 325 325 325 325 324 324 324 325 325 325 325 326 327 329 330 331 333 333 333 334 334 334 334 334 334 334 333 334 335 333 332 333 333 332 332 332 331 329 329 328 325 321 322 325 323 326 327 328 327 332 336 337 339
325 326 324 325 325 325 325 324 324 324 324 323 325 323 323 322 322 322 322 323 323 325 326 327 328 329 330 330 330 331 331 333 333 333 332 333 333 334 334 334 332 332 333 332 333 333 332 332 331 330 328 325 321 318 322 322 324 325 330 330 332 337 339
324 324 323 323 324 324 325 324 323 323 323 322 321 322 321 321 321 320 320 321 321 322 322 323 324 325 326 327 328 328 329 330 329 329 329 330 332 333 333 333 332 332 332 333 332 332 332 332 330 331 331 328 327 322 318 318 322 323 327 329 327 333 339
324 324 324 323 324 324 323 322 322 320 319 319 318 319 319 319 319 318 318 319 320 320 320 321 321 322 323 323 325 325 326 327 326 327 328 328 328 329 330 332 333 331 333 333 332 332 332 331 331 332 330 330 329 323 322 318 319 325 326 331 332 330 334
323 323 323 322 323 321 320 319 319 318 318 318 317 317 317 317 317 318 318 318 318 318 319 319 320 320 320 320 321 322 323 323 322 322 325 326 326 326 327 328 330 330 333 332 331 332 333 332 331 333 332 332 330 328 325 322 318 325 330 326 331 333 332
322 321 322 321 320 319 318 318 318 318 317 317 317 317 316 316 316 317 317 317 318 318 318 317 317 318 318 319 319 320 320 320 319 319 320 322 324 325 325 326 327 327 329 330 331 331 331 333 333 332 332 331 331 330 330 324 322 321 329 329 329 330 331
321 321 320 320 320 319 318 318 318 318 317 315 316 316 316 316 315 316 316 316 316 316 316 316 317 318 318 318 318 318 317 316 316 317 317 318 320 322 324 324 324 325 327 327 328 330 330 331 332 332 331 331 329 330 328 326 323 323 328 333 331 329 332
320 319 319 318 318 317 317 316 317 316 316 315 315 314 315 315 315 316 315 315 315 315 315 316 317 317 316 316 317 316 315 314 314 314 315 315 316 318 320 321 323 325 327 325 326 326 328 330 331 331 330 329 330 329 331 325 323 323 324 330 330 332 331
318 317 317 316 315 315 314 315 315 315 314 314 314 314 314 314 314 314 314 314 314 314 314 315 316 315 314 314 313 314 314 313 312 311 312 314 315 315 316 319 321 324 326 326 326 328 329 329 331 331 331 331 328 327 331 330 328 323 323 326 330 328 329
316 315 315 314 313 313 313 313 313 313 313 313 312 313 313 313 313 313 312 312 312 312 313 314 315 314 313 313 313 313 313 313 311 311 311 312 313 314 315 316 319 321 321 321 323 325 327 327 326 329 332 330 328 327 328 332 331 325 324 323 327 327 328
315 314 314 313 312 313 313 313 312 312 312 312 312 312 312 312 312 311 311 311 311 311 312 312 312 312 313 313 313 313 313 313 312 312 311 311 312 312 312 313 314 316 317 317 319 322 324 326 327 327 326 326 326 327 327 327 328 329 324 323 325 328 329
313 313 313 312 312 312 312 312 312 311 311 311 312 312 312 311 311 311 311 311 311 311 311 310 310 310 311 313 312 313 313 312 312 312 312 312 313 313 313 314 314 316 317 317 318 320 320 322 323 325 327 329 330 331 330 328 326 327 328 327 328 324 328
313 313 312 311 311 311 311 311 311 310 311 311 311 311 311 310 311 311 312 312 311 310 309 309 308 308 309 311 311 313 313 313 313 312 311 311 312 312 311 312 312 314 314 314 314 313 315 316 318 321 324 325 325 326 326 326 327 328 328 325 325 326 325
312 311 311 311 310 310 310 310 310 310 310 310 311 311 310 311 312 312 312 312 311 309 307 305 304 304 306 308 311 312 313 313 313 312 311 310 310 310 311 311 311 313 312 311 310 310 311 311 313 316 319 320 320 320 321 323 324 325 325 324 323 324 326
311 311 310 310 309 309 310 310 310 310 310 310 311 311 311 311 311 311 312 312 310 307 304 303 302 300 302 305 312 312 312 312 312 310 309 309 310 312 312 312 311 311 311 311 307 306 305 306 310 312 314 316 318 319 319 320 320 321 321 322 323 324 325
310 310 310 309 309 309 309 310 310 310 310 310 310 311 311 311 311 311 310 310 309 307 303 302 298 295 296 301 308 312 311 310 310 310 309 310 311 312 312 312 312 310 308 307 306 301 300 301 304 309 312 313 312 313 315 316 317 319 319 319 320 320 320
309 308 309 309 309 309 310 310 310 310 310 310 310 310 311 310 310 310 310 309 308 307 303 299 293 292 293 294 303 311 310 309 309 309 309 309 309 310 311 311 311 310 309 307 307 300 299 300 300 300 300 302 306 309 309 309 310 312 312 313 315 317 319
308 308 308 308 308 309 310 310 309 309 309 309 310 310 309 309 309 310 310 309 308 306 304 295 292 293 293 293 296 307 310 309 309 308 308 308 308 308 308 309 310 310 309 307 306 306 305 302 301 301 301 299 297 296 298 305 305 307 308 308 309 312 313
308 308 308 308 309 310 309 308 308 308 308 309 310 309 308 308 308 309 309 308 307 305 302 294 292 292 293 293 293 301 310 309 308 308 308 308 307 307 307 307 308 308 308 307 307 304 306 309 307 305 305 305 299 298 296 296 297 305 307 307 308 309 311
308 308 309 309 309 309 308 307 308 309 309 309 309 308 308 307 307 308 308 308 307 305 301 294 292 292 293 293 292 298 310 309 308 308 307 307 306 306 305 305 306 306 307 307 304 302 304 308 313 314 314 314 314 309 302 300 299 298 302 307 306 306 307
308 308 308 308 308 308 307 307 307 308 308 308 308 307 307 307 306 307 307 307 307 305 300 291 292 292 292 293 292 301 309 309 308 307 306 306 306 305 305 305 306 305 305 305 302 297 300 305 310 310 311 311 311 311 311 309 308 307 306 306 305 305 304
307 307 308 308 307 307 307 307 307 307 307 306 307 306 307 307 306 306 306 306 306 304 302 291 291 292 292 291 294 309 309 308 307 306 305 305 305 304 303 303 303 303 303 302 297 292 294 300 309 308 308 309 309 310 309 306 301 300 305 307 306 305 305
307 307 307 307 306 307 307 307 307 308 307 306 305 305 305 305 305 305 305 306 305 304 302 295 291 291 292 291 299 309 308 307 306 305 304 304 304 304 303 301 300 299 300 299 294 290 292 295 307 306 307 307 308 308 308 309 302 299 297 296 296 295 295
306 306 305 305 306 306 307 307 307 307 306 305 304 305 305 305 305 305 304 304 304 304 302 296 291 291 291 291 296 307 307 306 306 305 305 305 304 303 302 300 300 298 298 298 292 290 291 298 305 305 306 305 305 305 306 308 307 308 300 299 298 297 297
305 305 305 306 306 306 306 306 307 307 306 306 305 305 305 305 305 305 304 303 301 303 303 298 292 291 291 291 297 307 305 305 304 303 303 303 303 303 302 301 299 296 296 294 290 291 291 296 304 303 304 304 302 303 304 307 305 305 306 307 307 307 306
306 305 305 306 306 306 307 306 306 306 306 305 304 304 304 304 304 304 304 303 302 303 303 301 296 291 291 292 291 303 306 303 302 302 302 301 301 302 302 302 300 293 290 291 291 290 291 291 300 302 302 302 300 300 304 306 305 305 306 305 305 305 305
305 306 306 306 306 306 306 305 305 305 304 305 304 304 304 304 304 303 304 304 302 301 302 302 299 290 292 291 291 295 305 303 303 302 301 300 301 301 301 301 301 295 290 291 291 291 291 292 294 302 301 301 301 300 299 305 304 301 305 305 304 304 303
306 306 306 305 305 304 305 305 305 304 304 304 304 304 304 303 303 302 303 303 304 302 300 299 301 294 291 291 291 291 301 303 301 302 300 301 300 301 301 300 300 295 290 291 291 291 291 292 293 302 300 291 291 292 304 304 305 304 304 303 302 301 301
305 306 305 305 304 304 304 305 305 304 304 304 303 303 303 303 302 301 302 302 303 303 302 300 295 299 293 291 291 292 290 296 292 302 301 300 300 300 301 301 300 294 290 291 291 292 292 292 296 298 291 292 293 293 298 303 302 302 300 300 300 299 299
305 305 305 304 304 304 303 304 304 304 303 303 302 302 302 302 302 301 300 300 302 302 302 302 296 294 297 291 292 291 291 291 291 300 301 300 300 299 299 300 297 290 291 291 291 292 293 293 297 291 292 292 294 296 302 301 300 300 298 297 297 298 298

ECMWFFLT1_sfc_thetae_117.txt.gz
Theta_e
337 338 340 343 345 344 343 342 343 343 343 343 342 341 341 340 340 340 341 342 339 340 337 337 337 338 340 341 341 341 341 340 339 334 333 334 331 332 336 334 336 335 336 337 337 331 327 325 325 333 336 338 340 340 339 338 341 338 340 338 340 339 340
339 339 341 341 341 342 340 341 340 339 340 341 341 340 339 339 338 338 338 338 337 337 335 336 336 338 338 339 339 338 338 338 338 338 336 334 334 333 333 334 334 333 334 336 335 334 329 325 323 326 328 332 336 339 340 339 338 343 339 341 336 338 339
339 339 339 339 338 340 338 338 338 338 338 338 339 338 337 336 335 336 335 335 336 335 335 335 337 338 338 338 338 339 339 338 337 337 334 334 335 335 334 333 331 331 331 329 330 331 332 331 323 324 328 327 325 330 336 337 341 341 338 340 338 337 337
338 338 337 336 336 337 336 336 335 335 335 334 335 336 334 333 334 335 334 334 335 336 334 335 336 336 336 336 337 337 336 336 335 335 335 336 335 334 334 333 332 331 329 327 327 328 328 327 327 326 326 327 325 325 330 334 339 338 337 339 336 339 339
337 336 336 335 334 333 333 332 333 332 332 333 332 331 331 331 331 332 332 333 333 334 333 334 335 335 335 335 334 334 334 335 335 334 333 333 334 334 334 333 333 333 332 330 330 329 328 327 326 324 324 326 326 326 329 333 333 332 334 336 340 339 340
336 335 335 333 333 331 331 330 330 330 330 329 329 329 329 329 329 330 329 329 329 330 331 330 332 333 334 333 333 333 333 333 333 333 332 334 334 333 333 334 333 333 332 333 331 330 331 329 330 324 326 326 323 324 328 329 328 331 331 333 337 337 338
334 334 333 331 330 329 329 328 328 328 328 328 328 327 327 327 327 328 328 328 328 328 328 329 330 331 332 331 331 331 332 332 333 334 333 333 333 335 334 332 332 331 332 333 332 331 330 328 326 325 324 325 326 324 327 327 327 326 329 331 335 338 339
331 330 329 329 329 328 328 328 327 328 327 328 326 327 326 326 326 326 326 326 326 327 327 327 328 329 331 331 331 331 331 332 332 332 332 333 332 332 333 333 332 333 332 332 332 331 330 329 327 327 326 322 322 325 324 326 327 326 325 329 331 336 341
328 327 326 327 327 328 327 326 326 326 326 325 326 325 324 324 323 323 324 324 324 325 325 324 325 326 327 327 328 330 330 331 330 330 330 330 329 330 331 332 332 331 332 332 332 331 331 331 330 329 328 325 321 318 322 322 324 324 329 327 330 334 338
327 326 325 325 325 326 326 325 325 324 324 324 323 323 322 322 323 322 322 322 323 323 323 323 324 324 325 325 326 326 327 328 328 327 327 327 328 329 329 329 328 329 331 333 332 331 331 331 330 329 329 325 325 322 319 319 321 322 325 328 325 329 333
325 325 325 325 326 325 325 324 324 322 321 321 321 322 321 321 321 321 321 321 322 322 322 322 322 323 323 323 324 324 325 325 324 324 325 325 325 326 327 327 328 328 329 330 331 332 332 332 330 330 330 330 328 323 324 319 321 325 325 329 329 327 332
325 324 324 324 323 322 322 321 321 320 320 321 320 320 321 320 321 320 320 320 321 321 321 321 321 321 322 321 322 321 322 322 321 321 322 323 323 324 323 323 325 326 328 328 328 329 331 331 331 330 331 331 331 330 324 323 319 325 330 326 330 331 330
323 323 323 323 322 321 320 321 320 320 319 319 319 319 319 319 319 319 320 320 320 320 320 320 321 321 321 321 321 320 321 320 319 319 320 321 320 321 320 320 322 324 326 326 326 327 328 329 329 329 330 330 330 329 327 323 320 321 328 328 328 330 332
322 322 322 321 320 320 319 320 320 320 319 318 319 318 318 318 318 319 319 318 318 319 319 319 320 320 320 319 320 320 320 319 318 318 318 318 319 320 319 319 319 321 324 324 325 325 326 326 327 328 329 329 329 330 328 325 320 320 327 332 330 330 333
320 320 320 320 319 318 318 318 319 319 318 317 318 317 317 317 317 317 317 317 317 318 318 318 319 319 318 318 318 319 318 317 317 317 317 316 317 318 318 318 319 320 322 321 322 322 323 324 325 327 327 329 328 326 330 325 324 322 322 327 328 331 331
319 318 318 317 317 316 316 317 317 317 316 316 316 316 316 316 316 316 316 316 317 317 317 317 318 318 317 317 316 317 317 316 316 316 315 315 315 316 316 316 317 318 319 318 319 320 322 323 324 324 325 327 326 328 328 327 327 323 322 323 327 326 327
317 317 316 315 315 316 315 316 316 316 315 316 315 316 315 315 315 316 315 316 316 316 316 316 316 316 316 316 316 316 316 316 316 316 315 314 314 315 315 315 315 315 316 315 316 316 317 317 317 319 321 323 324 326 330 326 324 322 324 321 326 325 328
315 315 314 314 315 315 315 315 315 315 315 315 315 315 315 315 315 315 316 315 315 314 314 313 313 313 313 315 315 316 316 316 316 316 315 314 314 313 313 313 313 314 313 312 312 311 312 313 315 316 318 320 322 323 325 326 328 326 324 324 326 326 329
314 314 314 314 314 314 314 315 314 314 314 314 314 314 314 314 315 315 315 315 314 312 312 311 310 309 310 312 314 315 316 316 316 315 314 313 312 313 313 313 313 313 311 310 308 308 309 309 311 313 315 317 319 320 321 323 324 326 325 323 323 323 327
313 313 313 313 314 313 313 314 313 313 314 314 314 314 314 314 315 315 315 314 312 311 310 309 307 307 308 310 311 314 314 314 314 314 314 314 315 315 315 314 314 312 311 310 308 307 307 308 310 311 313 315 316 317 318 319 321 321 321 321 322 323 322
313 313 313 313 313 313 313 313 313 313 313 314 313 314 314 314 315 315 314 313 312 310 309 307 305 305 306 309 310 313 313 313 312 313 313 313 314 314 314 314 313 313 311 310 309 308 308 307 307 309 313 314 314 313 313 314 315 317 318 319 319 320 321
312 312 312 312 312 312 313 313 313 313 313 313 313 314 314 314 314 313 313 312 311 310 308 305 304 301 302 306 307 311 312 312 312 311 312 312 313 313 313 314 313 312 312 310 307 306 305 305 307 308 312 314 313 312 311 311 311 312 313 314 315 317 317
311 311 311 311 312 312 312 313 313 312 312 313 313 313 313 313 313 312 311 310 310 309 307 305 299 295 295 300 305 311 312 311 311 311 311 311 311 312 312 313 313 312 310 308 306 302 300 301 303 307 309 313 313 311 310 309 308 308 308 309 310 311 312
312 311 311 312 312 312 311 312 312 312 312 312 312 312 312 311 311 311 310 309 308 307 306 302 293 292 293 294 301 310 311 310 310 310 310 309 309 309 310 311 312 312 310 307 306 301 300 299 299 299 300 303 307 310 308 307 306 306 305 305 307 308 308
311 311 311 311 311 312 312 311 311 311 311 311 311 311 311 310 310 311 310 309 307 306 306 296 291 293 293 292 295 304 311 310 309 309 309 308 308 307 307 308 309 310 309 307 306 304 302 300 300 299 300 296 298 297 300 306 305 304 304 303 304 305 305
310 310 310 311 311 311 311 310 310 310 310 311 311 309 309 309 309 310 310 308 307 305 304 295 292 292 293 292 292 299 311 309 308 308 307 307 307 306 306 306 306 307 307 306 305 302 302 304 303 302 303 298 297 296 297 297 299 306 306 304 304 303 304
310 310 311 311 311 310 310 309 310 310 310 311 310 309 309 309 309 308 308 308 307 305 302 294 292 292 293 292 292 295 311 309 308 308 307 306 306 305 304 304 304 304 305 305 302 300 300 303 305 309 311 311 311 310 298 301 300 299 303 306 304 303 304
310 310 310 310 310 309 309 309 309 310 310 309 309 308 308 308 308 308 308 307 306 305 302 292 291 291 292 292 292 298 310 308 307 306 306 306 305 305 303 303 304 303 303 302 300 297 298 300 305 309 309 309 309 309 310 308 308 308 308 308 306 306 305
309 309 309 309 308 308 308 308 308 309 309 308 308 308 308 308 307 307 307 307 305 303 301 291 291 292 292 292 293 309 308 308 306 306 305 305 305 304 303 302 302 302 302 301 298 292 294 298 306 306 305 306 307 308 308 308 300 301 307 308 308 307 307
309 308 308 308 308 308 308 308 308 308 307 308 307 307 307 307 307 306 306 306 304 302 302 295 291 291 292 291 297 309 308 307 306 305 305 305 304 304 302 301 301 301 301 300 296 291 291 295 306 303 304 304 304 305 305 307 303 300 298 297 296 296 296
308 308 308 307 307 308 308 308 308 308 307 307 307 307 306 305 305 305 305 305 304 302 301 297 291 292 292 292 296 307 306 306 305 305 304 304 304 304 303 301 301 300 300 300 293 291 291 298 303 302 302 301 301 302 303 304 306 305 300 300 299 298 297
307 307 307 307 308 307 307 307 307 308 307 307 307 307 306 305 304 304 303 304 303 303 301 299 293 291 292 292 297 307 305 304 303 303 303 303 304 304 304 302 299 298 297 296 290 291 292 297 302 301 300 300 299 300 301 304 303 302 303 303 304 304 304
307 306 306 306 306 306 307 307 308 308 307 306 305 306 306 306 305 304 304 302 302 303 302 300 297 291 292 293 292 302 306 303 302 302 303 302 302 302 302 302 300 294 291 291 291 290 291 292 301 301 301 300 299 298 301 303 303 302 302 302 303 303 303
305 305 305 306 306 307 307 307 307 307 306 306 306 306 306 306 305 305 305 304 302 301 302 301 299 291 292 292 292 295 304 302 302 303 301 301 301 300 301 300 301 296 292 291 291 290 291 292 293 302 301 300 300 298 298 302 303 300 303 302 302 302 302
306 306 307 307 306 306 307 307 307 306 306 306 306 305 305 304 304 304 305 305 304 302 300 299 301 295 292 292 292 292 299 302 299 303 301 300 300 300 300 300 300 297 292 291 290 291 291 292 292 302 301 292 292 293 303 302 302 301 301 301 300 300 299
307 307 307 307 306 305 305 306 306 306 306 305 305 304 304 304 304 303 303 303 304 304 304 301 296 299 293 292 291 292 291 296 293 303 300 299 299 299 300 300 300 296 292 291 291 291 292 292 296 300 291 291 293 293 298 302 301 300 299 299 299 298 298
307 307 307 307 306 306 306 306 306 306 306 304 304 303 303 303 303 302 301 301 302 302 304 304 297 295 297 291 293 292 292 291 292 299 301 300 299 299 299 300 299 292 291 291 291 291 293 293 297 291 291 292 294 296 301 301 302 301 298 297 297 297 297

ECMWFFLT1_sfc_thetae_120.txt.gz
Theta_e
336 334 336 337 339 338 340 336 339 338 340 342 341 339 339 338 338 339 338 339 339 336 336 337 338 339 338 339 340 341 341 340 337 334 332 333 330 330 335 334 333 334 334 332 331 327 323 320 323 329 332 333 335 336 336 336 336 336 337 337 338 337 335
337 336 336 332 333 339 335 337 337 337 340 340 339 338 337 335 335 335 336 336 335 336 333 332 334 335 337 337 337 337 337 337 337 336 334 332 331 329 329 330 331 330 330 331 331 332 324 321 321 323 324 329 331 332 336 338 337 337 337 338 338 337 336
337 336 336 336 336 339 337 339 340 338 337 336 337 335 334 331 332 334 333 333 334 333 336 333 334 335 335 335 336 335 335 335 336 336 333 332 332 332 331 330 328 328 328 327 327 327 327 326 322 322 323 322 321 325 332 334 337 338 337 338 337 336 335
334 335 334 334 339 338 338 336 336 337 336 335 337 336 331 330 331 333 332 331 332 332 331 330 330 331 332 332 333 334 334 334 333 333 333 333 332 332 332 330 329 328 326 325 324 325 324 322 321 321 322 323 323 322 326 331 334 336 336 337 337 336 335
335 333 333 334 337 336 336 333 336 338 335 335 333 333 331 329 331 330 329 329 329 329 328 329 330 330 330 331 331 332 332 334 334 333 333 331 332 331 331 331 330 330 329 328 328 328 325 324 323 322 322 323 323 324 326 327 329 331 335 336 336 336 335
332 334 334 335 331 330 330 331 332 336 336 330 331 330 327 328 327 327 327 326 326 327 327 327 327 328 329 329 330 331 331 331 331 331 330 330 331 330 330 331 331 330 329 330 330 329 328 327 325 322 323 323 320 321 324 326 325 328 328 327 335 336 335
331 331 330 329 330 330 331 330 329 329 333 332 328 326 325 324 325 325 325 325 324 325 325 325 325 326 327 326 326 327 328 329 330 329 329 329 329 330 330 328 328 329 329 330 329 329 327 325 323 322 321 322 322 321 324 324 326 325 326 327 329 333 336
329 327 328 328 328 329 329 328 327 328 326 325 324 324 324 324 324 324 325 324 323 324 324 323 324 324 325 324 325 326 326 327 326 325 325 325 325 325 326 326 326 327 327 328 328 328 329 327 325 324 322 319 319 320 320 322 323 324 324 327 328 327 334
328 328 327 327 327 327 328 330 328 326 324 323 322 322 323 324 324 323 323 325 324 323 322 322 322 322 322 323 324 323 323 325 322 322 322 322 322 323 323 324 323 323 325 326 326 326 327 328 327 326 324 322 318 315 318 318 320 321 326 325 327 328 336
327 325 325 326 326 327 329 326 324 323 322 322 322 322 323 324 326 324 324 323 322 321 322 322 322 323 323 324 322 322 322 322 321 320 321 321 321 321 321 321 320 320 321 324 325 326 327 327 327 327 326 323 323 318 315 316 318 319 323 326 324 327 328
325 325 326 326 327 326 325 324 323 321 321 321 321 322 323 323 324 323 323 322 322 323 322 322 321 321 322 322 321 322 321 321 320 320 321 320 320 320 320 320 319 319 320 321 322 324 325 325 325 325 324 325 325 321 319 316 316 321 322 326 326 326 328
325 325 325 325 325 322 321 321 320 321 322 322 323 323 323 322 323 322 321 320 321 320 321 320 320 320 320 320 320 319 320 319 319 319 319 319 320 319 318 318 319 319 320 320 321 322 322 323 323 323 324 324 324 324 321 320 315 322 326 322 325 329 328
323 323 323 323 322 321 320 320 319 319 319 320 320 320 319 319 319 319 319 319 319 320 319 319 319 319 319 318 318 318 318 318 317 317 317 318 319 318 317 317 317 318 318 318 318 319 320 321 321 321 322 322 323 323 324 321 318 317 324 324 325 327 329
322 322 321 321 320 319 320 319 319 318 317 318 319 318 317 317 317 318 317 317 317 317 317 317 318 317 317 317 317 318 317 317 316 316 316 316 316 316 316 316 316 316 316 316 316 317 317 317 317 317 318 318 319 320 321 319 316 317 321 325 326 326 328
321 320 320 319 318 317 317 319 319 316 315 316 317 315 315 317 317 317 316 316 316 316 315 315 315 316 315 316 316 317 317 316 316 315 316 314 314 314 314 313 314 314 315 313 313 312 312 312 312 312 314 315 316 317 320 319 318 317 317 321 323 326 326
318 318 317 317 316 315 316 316 316 316 315 315 316 316 317 317 317 316 315 315 314 313 312 312 312 312 312 313 314 315 316 315 315 314 313 312 312 313 313 313 313 313 313 311 310 310 310 309 309 309 310 313 314 316 318 320 318 316 316 318 322 321 323
316 315 315 315 315 315 316 316 316 315 315 315 314 318 318 316 316 315 314 312 311 311 309 309 308 309 310 311 312 314 314 314 314 313 313 313 313 313 313 313 312 312 311 309 308 308 308 308 308 309 310 311 312 314 315 315 316 315 316 316 319 320 322
314 314 314 314 314 314 314 314 315 314 314 314 314 315 316 317 315 313 312 310 310 309 307 307 306 307 309 311 312 313 313 313 312 312 312 313 314 313 313 312 312 311 309 306 306 305 305 306 307 308 308 309 311 314 314 313 313 314 312 312 314 318 321
313 313 313 313 313 314 314 314 314 315 314 314 315 315 315 315 314 311 310 309 309 307 306 306 305 306 308 310 311 313 313 312 312 312 312 312 312 312 312 312 311 310 308 305 304 304 303 303 304 305 306 308 311 313 312 312 312 311 310 310 311 312 315
313 312 313 313 313 313 313 314 313 313 315 317 316 314 314 313 313 311 310 309 308 306 305 305 304 303 304 306 308 310 312 311 311 311 311 311 311 311 311 311 310 309 307 305 304 303 301 301 302 303 305 306 309 311 311 310 309 308 307 307 308 310 310
312 312 313 313 312 312 313 313 313 315 314 314 314 313 313 312 311 310 310 309 307 306 305 303 301 299 300 302 305 307 311 310 310 310 310 309 309 308 309 309 309 308 307 305 304 302 300 299 300 301 304 305 307 310 309 308 307 306 305 304 304 305 306
312 312 312 312 312 312 312 313 313 313 313 313 314 313 312 311 310 309 308 308 306 306 304 301 299 296 297 299 302 306 310 309 309 308 307 307 306 306 306 306 307 307 307 307 306 303 301 301 300 299 301 303 305 309 308 307 305 304 303 303 302 304 304
311 311 311 311 311 312 312 312 312 312 311 312 312 312 311 311 309 308 307 306 306 305 302 299 297 295 295 297 300 306 310 308 308 307 306 305 305 304 303 304 306 308 307 305 303 299 298 298 300 301 301 302 304 308 307 305 304 303 302 301 301 301 301
311 311 311 311 311 311 311 312 311 311 311 311 311 311 311 310 309 308 306 305 304 304 301 297 294 293 293 294 299 303 309 308 307 306 305 304 303 302 302 302 303 305 305 303 301 299 297 297 297 297 299 302 304 308 305 303 303 303 302 302 302 302 301
310 310 311 310 310 311 311 310 310 310 310 310 310 310 310 309 309 308 306 305 303 302 300 295 292 293 293 292 295 302 308 307 306 305 304 304 303 301 300 301 302 303 302 302 301 299 299 298 297 297 298 299 297 298 299 303 303 302 302 302 302 302 301
309 310 310 310 311 310 309 309 309 309 309 309 309 308 308 308 308 308 306 304 302 300 298 294 292 292 293 292 292 299 307 307 305 304 304 304 303 301 300 300 300 301 301 303 302 298 297 298 299 300 301 303 299 297 296 295 296 303 303 302 302 302 302
309 309 310 309 310 309 309 308 310 310 310 309 308 308 308 308 307 306 304 303 301 300 297 293 292 292 293 292 292 296 307 306 305 304 304 304 302 300 300 299 299 299 299 299 299 297 296 297 300 302 303 303 304 304 301 296 299 299 301 303 303 302 302
309 309 309 309 309 308 309 310 309 309 309 308 308 307 307 306 306 304 303 302 301 300 298 292 292 292 292 292 292 298 307 307 305 304 304 304 302 301 300 300 299 299 299 298 299 296 295 295 299 301 301 301 302 303 303 304 303 302 302 302 302 303 303
308 308 308 308 307 307 308 308 307 307 307 307 307 307 306 306 305 304 303 301 300 299 298 292 291 292 292 292 294 307 306 306 304 303 303 303 301 300 299 299 298 298 298 298 297 292 293 295 299 299 300 300 301 301 302 304 298 298 300 300 301 301 300
308 307 307 307 306 307 307 306 306 307 306 306 305 305 304 304 304 303 302 301 299 298 298 294 291 292 292 292 297 306 305 303 304 303 302 302 301 300 300 299 298 298 297 297 295 291 291 294 299 299 299 298 299 300 300 303 300 298 296 296 296 296 296
307 307 307 306 307 307 307 307 307 308 305 304 303 302 302 302 303 303 302 301 300 297 297 296 292 292 292 292 296 305 304 303 302 301 302 302 302 302 301 303 303 297 296 296 292 291 291 294 297 299 298 297 297 297 299 301 302 302 299 298 298 297 296
307 307 306 306 307 306 306 306 307 308 307 305 304 303 302 300 301 301 301 301 303 300 297 297 293 292 292 292 296 302 302 301 300 300 300 299 300 300 300 301 301 297 296 294 291 291 291 293 295 298 298 298 297 297 298 299 299 299 300 301 301 301 300
307 307 306 306 307 306 307 307 307 306 306 305 304 304 303 302 301 300 300 300 301 300 299 298 295 292 293 293 293 300 301 298 297 299 298 298 297 298 298 298 298 294 292 292 291 291 291 291 294 298 299 297 297 297 300 300 299 299 299 299 299 299 299
306 306 306 306 307 307 307 307 306 305 305 305 305 305 305 304 303 302 301 300 300 300 301 299 297 291 293 293 293 295 298 298 296 299 297 296 296 296 296 297 298 296 293 292 291 291 291 292 293 300 299 296 297 296 297 300 300 299 299 299 299 298 298
306 307 307 306 305 305 306 307 307 306 306 306 306 305 305 304 303 303 302 301 300 300 302 301 299 294 292 293 292 293 296 297 295 299 297 296 296 297 296 297 297 296 292 291 291 291 291 292 293 297 293 291 290 291 300 303 301 299 299 298 297 296 296
307 307 307 307 306 305 306 306 306 307 306 305 305 304 304 303 302 302 302 302 301 301 302 301 296 299 293 292 292 293 291 294 292 300 298 297 298 297 298 298 298 296 292 291 291 291 291 292 295 294 292 292 291 294 297 299 299 299 298 297 296 295 295
307 307 306 306 305 305 305 305 305 305 305 304 304 303 303 303 302 301 300 300 300 302 303 302 296 296 297 292 292 291 292 292 291 294 297 300 299 299 298 298 296 291 291 291 292 292 293 293 293 291 292 293 294 295 298 297 297 297 296 296 295 295 295

ECMWFFLT1_sfc_thetae_123.txt.gz
Theta_e
330 329 330 332 333 334 333 334 333 332 335 339 335 332 331 330 330 330 330 328 328 329 330 327 328 329 329 330 331 331 330 330 328 325 324 324 322 323 325 325 324 326 326 324 324 323 321 319 321 322 324 326 327 327 331 332 333 333 333 334 334 334 334
331 330 330 331 332 331 331 331 330 332 334 332 330 328 327 327 329 329 327 326 326 327 328 327 326 327 327 326 326 327 327 327 328 328 323 323 322 322 323 321 322 322 323 322 325 323 321 318 318 318 320 322 323 324 326 330 332 333 333 334 335 335 334
330 329 327 328 330 330 331 332 332 331 331 329 327 326 326 326 326 326 325 324 324 325 326 324 325 325 325 325 326 326 327 326 327 326 325 324 325 325 325 325 323 321 321 321 319 321 320 319 318 318 319 319 319 321 324 325 326 330 333 334 333 334 334
328 328 328 329 331 330 331 330 328 328 329 328 326 324 324 324 324 325 323 323 323 324 323 322 322 323 323 323 324 325 325 325 325 326 325 325 325 325 325 325 323 323 322 321 321 322 321 319 319 319 320 320 320 320 322 324 324 326 328 331 333 334 334
329 329 328 329 331 329 327 327 328 327 325 324 322 321 321 322 322 321 322 321 321 321 320 321 321 322 322 322 322 323 322 324 323 322 321 320 321 321 321 322 323 323 323 322 323 324 322 320 320 319 319 320 320 320 323 323 325 325 325 326 330 333 335
328 329 326 325 325 324 323 322 324 324 322 319 319 319 319 319 320 319 319 318 318 319 320 319 320 321 321 320 321 321 321 320 319 319 318 318 319 318 318 320 320 320 320 322 323 322 322 322 320 318 320 322 318 319 321 322 322 324 325 325 326 331 334
325 325 324 323 323 323 322 320 319 319 318 318 317 317 318 319 318 319 319 318 318 319 320 319 319 319 319 319 320 319 319 318 318 318 317 318 318 318 318 317 317 318 318 319 319 320 319 320 320 320 320 321 320 319 320 320 322 321 322 324 325 328 330
323 322 322 322 322 322 321 319 318 318 317 317 317 317 318 316 317 319 320 318 319 318 318 316 318 318 317 318 319 319 319 318 317 317 317 317 317 316 316 316 316 316 317 318 318 319 320 320 321 320 319 315 316 318 318 319 319 319 320 324 326 326 330
323 322 321 321 320 319 318 317 317 317 317 316 317 316 316 318 318 319 319 319 317 316 316 316 316 317 317 317 317 317 316 320 316 317 317 317 317 317 317 317 317 316 317 317 318 319 319 320 320 320 319 317 314 312 317 316 317 317 322 322 325 325 325
320 319 319 319 319 319 318 317 316 316 316 316 317 317 316 319 319 316 316 316 315 315 315 316 316 316 318 317 316 315 315 316 318 318 318 317 318 318 317 318 317 317 317 317 317 317 318 319 319 318 318 317 317 313 311 311 314 315 320 323 320 324 328
320 320 320 319 317 316 316 316 316 315 315 317 317 319 317 317 318 320 317 316 314 314 315 315 315 316 317 316 315 315 316 317 316 317 317 317 316 317 317 316 316 315 315 315 314 314 314 314 314 314 314 315 316 313 312 309 311 317 318 320 322 322 325
320 319 318 317 317 316 315 315 315 315 315 317 317 317 318 318 318 316 314 313 313 315 316 315 315 316 315 314 316 316 317 317 316 316 316 315 315 315 314 314 314 313 313 312 312 311 311 311 310 310 311 313 314 314 314 312 309 315 319 316 320 323 323
319 318 317 317 316 315 315 315 314 314 316 318 317 317 315 316 315 314 314 314 313 313 312 312 313 315 315 315 315 316 316 316 315 314 314 314 315 314 314 313 313 311 311 309 308 308 308 308 309 309 310 311 312 313 314 313 310 309 315 316 317 319 322
316 315 315 315 315 315 315 315 314 314 315 315 315 314 314 314 314 314 313 311 309 309 308 308 309 311 313 314 315 315 315 315 314 313 313 313 313 313 313 312 311 310 308 306 305 305 305 306 307 309 309 310 310 311 312 312 309 308 311 315 316 316 318
315 314 313 313 314 314 314 313 314 314 313 314 313 312 312 313 313 311 310 308 307 307 307 306 307 308 310 312 313 314 313 312 312 311 312 312 312 313 313 311 310 308 306 305 304 303 302 303 305 306 307 307 307 309 312 312 310 309 307 310 311 314 314
313 312 312 312 312 313 313 313 314 313 313 313 313 311 312 311 310 309 308 307 306 305 305 305 306 307 309 311 312 312 311 311 311 310 310 310 310 312 312 310 308 306 305 303 302 302 301 300 301 303 304 305 305 307 310 312 311 307 306 306 309 309 310
312 311 311 311 312 312 313 314 315 314 313 312 310 311 311 310 309 307 306 305 305 304 305 305 305 307 310 310 310 311 310 310 310 310 309 309 308 310 310 308 306 304 303 301 301 300 299 299 299 300 301 303 305 306 309 312 310 307 306 304 306 306 308
311 311 311 312 312 313 313 313 313 312 311 311 311 312 311 309 307 306 305 304 303 303 303 302 302 302 304 305 307 309 310 310 308 307 306 305 306 305 307 306 306 304 302 300 299 298 298 297 298 299 299 301 303 305 307 310 308 307 304 302 303 305 306
311 311 312 312 311 312 312 312 311 311 310 309 310 310 309 308 307 305 304 304 303 302 300 299 298 299 300 302 303 306 309 308 307 305 303 303 302 303 304 304 304 303 301 299 298 298 297 297 298 298 298 300 302 303 306 308 307 305 304 302 302 302 304
311 311 311 311 312 312 312 311 310 310 311 311 309 308 308 307 306 305 304 303 302 301 299 297 296 296 298 299 301 304 307 307 306 304 302 301 301 301 302 303 302 302 300 299 298 297 297 296 297 297 299 299 301 301 305 307 305 304 302 301 301 301 302
311 311 311 311 310 310 310 309 309 309 310 309 308 307 306 306 305 305 304 302 301 300 298 296 295 295 296 298 300 304 305 305 304 303 302 300 300 300 300 301 301 301 300 300 299 297 297 296 297 298 299 300 301 303 306 305 303 303 302 301 300 300 301
311 311 311 310 310 310 309 309 308 308 308 308 308 306 306 305 304 304 303 302 299 298 297 296 295 295 295 297 299 304 304 303 303 302 301 299 299 299 299 300 300 300 302 303 302 300 299 300 299 298 300 301 304 305 306 303 302 301 301 301 301 301 301
310 310 310 310 309 310 310 309 308 307 307 307 307 306 305 304 303 302 301 300 299 298 296 296 296 295 296 296 300 304 303 302 301 301 300 298 298 298 298 298 301 304 303 303 301 297 296 297 299 300 300 302 304 305 305 302 300 300 299 299 299 300 300
309 309 309 309 309 309 309 308 307 306 306 306 306 306 304 302 302 301 299 298 297 297 295 295 294 292 293 297 302 302 301 301 300 300 299 297 296 297 297 298 298 301 301 301 299 296 296 296 296 297 298 301 303 304 303 301 300 299 298 298 299 299 299
308 308 309 308 308 308 307 306 305 305 305 305 306 306 304 303 301 300 298 297 296 296 294 295 292 293 293 293 300 303 301 301 301 299 298 296 296 296 296 297 297 299 299 300 299 295 296 296 296 296 297 297 297 297 298 301 299 298 298 297 297 298 298
308 308 307 307 307 306 306 305 305 305 305 305 305 303 301 301 299 299 298 296 295 294 293 294 292 293 293 293 295 302 301 300 300 298 297 296 295 295 295 297 296 297 297 301 300 294 293 295 298 298 299 300 300 300 295 295 296 300 300 298 297 296 297
306 306 306 306 306 306 305 304 304 304 304 304 303 301 299 299 298 298 297 296 294 293 293 293 292 293 293 294 296 300 300 300 299 298 297 296 295 294 294 295 295 294 295 295 295 292 293 293 296 298 298 298 298 300 299 297 297 297 299 300 299 297 298
305 305 306 305 305 304 304 304 304 303 302 302 301 299 298 297 297 297 296 295 294 293 293 292 292 292 293 296 298 299 300 300 299 297 296 296 295 294 294 295 294 293 293 293 296 293 292 292 295 297 297 298 299 299 299 299 299 300 301 301 300 299 299
305 304 304 303 303 302 302 302 301 302 301 301 301 300 300 298 296 295 295 293 292 292 292 292 292 293 294 294 298 301 299 299 298 297 296 296 295 295 294 294 293 293 293 293 294 291 292 294 294 295 296 297 298 299 299 301 296 297 299 299 299 299 298
303 303 303 302 302 301 301 301 301 301 299 299 298 298 298 298 297 295 294 293 291 291 292 292 292 293 294 295 297 298 298 298 297 296 295 295 295 295 296 297 295 293 293 293 293 290 291 294 293 294 295 296 297 297 298 300 298 296 295 295 295 295 294
303 303 302 301 301 301 301 301 300 300 298 297 297 297 297 297 297 297 295 294 293 291 291 293 292 293 293 294 297 297 296 296 295 294 294 294 294 293 295 302 304 294 292 293 292 290 291 294 292 293 294 294 294 295 296 299 300 300 297 296 295 295 294
302 302 302 301 301 301 301 300 300 299 298 297 297 296 297 295 295 295 295 295 300 294 292 294 292 292 293 294 296 295 295 294 294 292 292 291 292 293 293 296 299 297 294 293 290 291 291 293 293 293 293 292 292 293 295 298 298 297 297 297 297 298 297
302 301 300 300 300 301 301 301 300 299 297 297 296 296 295 295 294 294 294 295 296 294 292 292 293 292 292 293 294 296 294 292 293 292 291 293 293 292 292 293 295 293 291 291 290 290 291 291 293 292 292 291 292 293 295 296 299 298 297 297 297 297 297
301 301 301 300 301 301 301 300 299 299 299 298 297 296 296 295 295 294 294 294 294 293 294 292 293 291 292 292 292 293 292 291 291 292 291 292 292 292 293 293 293 294 291 291 291 291 291 291 293 294 292 292 292 293 295 295 298 298 296 296 296 296 297
301 302 301 301 300 300 300 300 300 299 298 298 297 297 296 296 294 294 293 294 293 294 297 297 292 292 291 292 291 292 292 291 291 292 293 292 292 292 292 292 293 294 291 291 291 291 292 291 292 294 292 291 292 292 295 296 295 295 295 294 294 294 295
302 303 301 301 300 299 299 300 299 299 298 297 297 296 296 296 295 293 293 292 292 293 293 295 294 294 293 292 291 291 291 291 291 293 292 292 291 291 291 291 294 294 291 291 292 291 292 292 293 291 291 291 292 292 294 293 293 292 292 293 293 293 294
301 300 300 299 299 299 298 298 298 298 297 296 295 295 294 295 294 293 292 291 293 292 292 291 293 292 292 291 291 291 291 291 291 291 293 292 291 290 291 291 292 291 292 291 292 292 292 292 292 291 291 291 292 293 293 292 291 291 290 291 292 292 292